<?xml version="1.0" encoding="UTF-8" standalone="no" ?>
<gpx xmlns="http://www.topografix.com/GPX/1/1" xmlns:xsi="http://www.w3.org/2001/XMLSchema-instance" xsi:schemaLocation="http://www.topografix.com/GPX/1/1 http://www.topografix.com/GPX/1/1/gpx.xsd" version="1.1" creator="VisuGPX - https://www.visugpx.com">
  <metadata>
    <name>22/04/2012: Esterels-du-Lac Mont-Vinaigre</name>
    <desc><![CDATA[Esterels-du-Lac Mont-Vinaigre
Esterels-du-Lac Mont-Vinaigre
Esterels-du-Lac Mont-Vinaigre]]></desc>
  </metadata>
  <trk>
    <name><![CDATA[Esterel du Lac - Mont Vinaigre]]></name>
    <desc><![CDATA[met Laurent & Lionel]]></desc>
    <trkseg>
      <trkpt lat="43.55182" lon="6.78242">
        <ele>114.800003</ele>
        <time>2012-04-22T06:53:27Z</time>
      </trkpt>
      <trkpt lat="43.5517" lon="6.78267">
        <ele>113.199997</ele>
        <time>2012-04-22T06:53:40Z</time>
      </trkpt>
      <trkpt lat="43.55168" lon="6.78283">
        <ele>113</ele>
        <time>2012-04-22T06:53:44Z</time>
      </trkpt>
      <trkpt lat="43.55164" lon="6.78306">
        <ele>113.199997</ele>
        <time>2012-04-22T06:53:51Z</time>
      </trkpt>
      <trkpt lat="43.55161" lon="6.78315">
        <ele>113.400002</ele>
        <time>2012-04-22T06:53:55Z</time>
      </trkpt>
      <trkpt lat="43.55154" lon="6.78335">
        <ele>114.400002</ele>
        <time>2012-04-22T06:54:04Z</time>
      </trkpt>
      <trkpt lat="43.55151" lon="6.7835">
        <ele>115.599998</ele>
        <time>2012-04-22T06:54:10Z</time>
      </trkpt>
      <trkpt lat="43.5515" lon="6.78359">
        <ele>116.199997</ele>
        <time>2012-04-22T06:54:14Z</time>
      </trkpt>
      <trkpt lat="43.55149" lon="6.78368">
        <ele>116.800003</ele>
        <time>2012-04-22T06:54:18Z</time>
      </trkpt>
      <trkpt lat="43.55146" lon="6.78375">
        <ele>117.599998</ele>
        <time>2012-04-22T06:54:21Z</time>
      </trkpt>
      <trkpt lat="43.55144" lon="6.78382">
        <ele>118.400002</ele>
        <time>2012-04-22T06:54:24Z</time>
      </trkpt>
      <trkpt lat="43.55142" lon="6.78392">
        <ele>119.400002</ele>
        <time>2012-04-22T06:54:28Z</time>
      </trkpt>
      <trkpt lat="43.5514" lon="6.78399">
        <ele>120</ele>
        <time>2012-04-22T06:54:31Z</time>
      </trkpt>
      <trkpt lat="43.55138" lon="6.78409">
        <ele>121</ele>
        <time>2012-04-22T06:54:35Z</time>
      </trkpt>
      <trkpt lat="43.55136" lon="6.78419">
        <ele>121.800003</ele>
        <time>2012-04-22T06:54:39Z</time>
      </trkpt>
      <trkpt lat="43.55131" lon="6.7843">
        <ele>122.800003</ele>
        <time>2012-04-22T06:54:43Z</time>
      </trkpt>
      <trkpt lat="43.55129" lon="6.78437">
        <ele>123</ele>
        <time>2012-04-22T06:54:45Z</time>
      </trkpt>
      <trkpt lat="43.55126" lon="6.78442">
        <ele>123.400002</ele>
        <time>2012-04-22T06:54:47Z</time>
      </trkpt>
      <trkpt lat="43.55121" lon="6.78452">
        <ele>123.800003</ele>
        <time>2012-04-22T06:54:51Z</time>
      </trkpt>
      <trkpt lat="43.55115" lon="6.78462">
        <ele>124.199997</ele>
        <time>2012-04-22T06:54:56Z</time>
      </trkpt>
      <trkpt lat="43.55111" lon="6.78466">
        <ele>124.400002</ele>
        <time>2012-04-22T06:54:58Z</time>
      </trkpt>
      <trkpt lat="43.55106" lon="6.78471">
        <ele>124.400002</ele>
        <time>2012-04-22T06:55:00Z</time>
      </trkpt>
      <trkpt lat="43.55103" lon="6.78476">
        <ele>124.400002</ele>
        <time>2012-04-22T06:55:02Z</time>
      </trkpt>
      <trkpt lat="43.55101" lon="6.78481">
        <ele>124.199997</ele>
        <time>2012-04-22T06:55:04Z</time>
      </trkpt>
      <trkpt lat="43.55091" lon="6.78514">
        <ele>123</ele>
        <time>2012-04-22T06:55:14Z</time>
      </trkpt>
      <trkpt lat="43.55082" lon="6.78542">
        <ele>123.199997</ele>
        <time>2012-04-22T06:55:22Z</time>
      </trkpt>
      <trkpt lat="43.55078" lon="6.78552">
        <ele>123.599998</ele>
        <time>2012-04-22T06:55:25Z</time>
      </trkpt>
      <trkpt lat="43.55076" lon="6.78558">
        <ele>123.800003</ele>
        <time>2012-04-22T06:55:27Z</time>
      </trkpt>
      <trkpt lat="43.55075" lon="6.78565">
        <ele>123.800003</ele>
        <time>2012-04-22T06:55:29Z</time>
      </trkpt>
      <trkpt lat="43.55073" lon="6.78572">
        <ele>124</ele>
        <time>2012-04-22T06:55:31Z</time>
      </trkpt>
      <trkpt lat="43.55068" lon="6.78601">
        <ele>124.599998</ele>
        <time>2012-04-22T06:55:39Z</time>
      </trkpt>
      <trkpt lat="43.55066" lon="6.78609">
        <ele>124.800003</ele>
        <time>2012-04-22T06:55:41Z</time>
      </trkpt>
      <trkpt lat="43.55065" lon="6.78616">
        <ele>124.800003</ele>
        <time>2012-04-22T06:55:43Z</time>
      </trkpt>
      <trkpt lat="43.55063" lon="6.78624">
        <ele>125.199997</ele>
        <time>2012-04-22T06:55:45Z</time>
      </trkpt>
      <trkpt lat="43.55062" lon="6.78632">
        <ele>125.400002</ele>
        <time>2012-04-22T06:55:47Z</time>
      </trkpt>
      <trkpt lat="43.55054" lon="6.78664">
        <ele>127</ele>
        <time>2012-04-22T06:55:55Z</time>
      </trkpt>
      <trkpt lat="43.55042" lon="6.78693">
        <ele>128</ele>
        <time>2012-04-22T06:56:03Z</time>
      </trkpt>
      <trkpt lat="43.55024" lon="6.78717">
        <ele>129.199997</ele>
        <time>2012-04-22T06:56:11Z</time>
      </trkpt>
      <trkpt lat="43.5502" lon="6.78723">
        <ele>129.600006</ele>
        <time>2012-04-22T06:56:13Z</time>
      </trkpt>
      <trkpt lat="43.55016" lon="6.78728">
        <ele>129.800003</ele>
        <time>2012-04-22T06:56:15Z</time>
      </trkpt>
      <trkpt lat="43.55011" lon="6.78733">
        <ele>130</ele>
        <time>2012-04-22T06:56:17Z</time>
      </trkpt>
      <trkpt lat="43.55007" lon="6.78738">
        <ele>130</ele>
        <time>2012-04-22T06:56:19Z</time>
      </trkpt>
      <trkpt lat="43.54991" lon="6.78761">
        <ele>131.600006</ele>
        <time>2012-04-22T06:56:27Z</time>
      </trkpt>
      <trkpt lat="43.54987" lon="6.78767">
        <ele>132.199997</ele>
        <time>2012-04-22T06:56:29Z</time>
      </trkpt>
      <trkpt lat="43.54983" lon="6.78773">
        <ele>132.600006</ele>
        <time>2012-04-22T06:56:31Z</time>
      </trkpt>
      <trkpt lat="43.5498" lon="6.7878">
        <ele>133.199997</ele>
        <time>2012-04-22T06:56:33Z</time>
      </trkpt>
      <trkpt lat="43.54978" lon="6.78787">
        <ele>133.399994</ele>
        <time>2012-04-22T06:56:35Z</time>
      </trkpt>
      <trkpt lat="43.54975" lon="6.78795">
        <ele>133.800003</ele>
        <time>2012-04-22T06:56:37Z</time>
      </trkpt>
      <trkpt lat="43.5497" lon="6.78815">
        <ele>134.399994</ele>
        <time>2012-04-22T06:56:42Z</time>
      </trkpt>
      <trkpt lat="43.54968" lon="6.78823">
        <ele>134.600006</ele>
        <time>2012-04-22T06:56:44Z</time>
      </trkpt>
      <trkpt lat="43.54967" lon="6.78831">
        <ele>134.600006</ele>
        <time>2012-04-22T06:56:46Z</time>
      </trkpt>
      <trkpt lat="43.54965" lon="6.78839">
        <ele>134.600006</ele>
        <time>2012-04-22T06:56:48Z</time>
      </trkpt>
      <trkpt lat="43.54965" lon="6.78847">
        <ele>134.399994</ele>
        <time>2012-04-22T06:56:50Z</time>
      </trkpt>
      <trkpt lat="43.54961" lon="6.78874">
        <ele>134</ele>
        <time>2012-04-22T06:56:57Z</time>
      </trkpt>
      <trkpt lat="43.54951" lon="6.78887">
        <ele>135.199997</ele>
        <time>2012-04-22T06:57:02Z</time>
      </trkpt>
      <trkpt lat="43.54945" lon="6.78893">
        <ele>135.600006</ele>
        <time>2012-04-22T06:57:04Z</time>
      </trkpt>
      <trkpt lat="43.54933" lon="6.78919">
        <ele>135.800003</ele>
        <time>2012-04-22T06:57:10Z</time>
      </trkpt>
      <trkpt lat="43.54918" lon="6.78943">
        <ele>135.600006</ele>
        <time>2012-04-22T06:57:17Z</time>
      </trkpt>
      <trkpt lat="43.54906" lon="6.78962">
        <ele>136</ele>
        <time>2012-04-22T06:57:23Z</time>
      </trkpt>
      <trkpt lat="43.54902" lon="6.78968">
        <ele>136</ele>
        <time>2012-04-22T06:57:25Z</time>
      </trkpt>
      <trkpt lat="43.54899" lon="6.78973">
        <ele>136</ele>
        <time>2012-04-22T06:57:27Z</time>
      </trkpt>
      <trkpt lat="43.54896" lon="6.78979">
        <ele>136</ele>
        <time>2012-04-22T06:57:29Z</time>
      </trkpt>
      <trkpt lat="43.54885" lon="6.79007">
        <ele>135.199997</ele>
        <time>2012-04-22T06:57:38Z</time>
      </trkpt>
      <trkpt lat="43.54871" lon="6.79028">
        <ele>135.399994</ele>
        <time>2012-04-22T06:57:44Z</time>
      </trkpt>
      <trkpt lat="43.54867" lon="6.79032">
        <ele>135.600006</ele>
        <time>2012-04-22T06:57:45Z</time>
      </trkpt>
      <trkpt lat="43.54863" lon="6.79037">
        <ele>135.600006</ele>
        <time>2012-04-22T06:57:46Z</time>
      </trkpt>
      <trkpt lat="43.54858" lon="6.79041">
        <ele>135.600006</ele>
        <time>2012-04-22T06:57:47Z</time>
      </trkpt>
      <trkpt lat="43.5485" lon="6.79051">
        <ele>135.399994</ele>
        <time>2012-04-22T06:57:49Z</time>
      </trkpt>
      <trkpt lat="43.54844" lon="6.79058">
        <ele>135.199997</ele>
        <time>2012-04-22T06:57:50Z</time>
      </trkpt>
      <trkpt lat="43.54829" lon="6.79072">
        <ele>134.800003</ele>
        <time>2012-04-22T06:57:53Z</time>
      </trkpt>
      <trkpt lat="43.54815" lon="6.79077">
        <ele>135.399994</ele>
        <time>2012-04-22T06:57:58Z</time>
      </trkpt>
      <trkpt lat="43.5479" lon="6.79087">
        <ele>137.199997</ele>
        <time>2012-04-22T06:58:05Z</time>
      </trkpt>
      <trkpt lat="43.54783" lon="6.79095">
        <ele>137.800003</ele>
        <time>2012-04-22T06:58:08Z</time>
      </trkpt>
      <trkpt lat="43.54778" lon="6.79102">
        <ele>138.199997</ele>
        <time>2012-04-22T06:58:10Z</time>
      </trkpt>
      <trkpt lat="43.54774" lon="6.79109">
        <ele>138.600006</ele>
        <time>2012-04-22T06:58:12Z</time>
      </trkpt>
      <trkpt lat="43.5477" lon="6.79116">
        <ele>138.800003</ele>
        <time>2012-04-22T06:58:14Z</time>
      </trkpt>
      <trkpt lat="43.54755" lon="6.79143">
        <ele>139.800003</ele>
        <time>2012-04-22T06:58:21Z</time>
      </trkpt>
      <trkpt lat="43.54745" lon="6.79165">
        <ele>140.399994</ele>
        <time>2012-04-22T06:58:27Z</time>
      </trkpt>
      <trkpt lat="43.54742" lon="6.79174">
        <ele>141.399994</ele>
        <time>2012-04-22T06:58:30Z</time>
      </trkpt>
      <trkpt lat="43.54734" lon="6.79181">
        <ele>142.399994</ele>
        <time>2012-04-22T06:58:33Z</time>
      </trkpt>
      <trkpt lat="43.54727" lon="6.79186">
        <ele>143.399994</ele>
        <time>2012-04-22T06:58:35Z</time>
      </trkpt>
      <trkpt lat="43.5472" lon="6.79188">
        <ele>144</ele>
        <time>2012-04-22T06:58:37Z</time>
      </trkpt>
      <trkpt lat="43.54716" lon="6.79185">
        <ele>144</ele>
        <time>2012-04-22T06:58:42Z</time>
      </trkpt>
      <trkpt lat="43.54636" lon="6.79189">
        <ele>147.199997</ele>
        <time>2012-04-22T06:59:05Z</time>
      </trkpt>
      <trkpt lat="43.54627" lon="6.79189">
        <ele>147.199997</ele>
        <time>2012-04-22T06:59:09Z</time>
      </trkpt>
      <trkpt lat="43.5462" lon="6.79191">
        <ele>147.199997</ele>
        <time>2012-04-22T06:59:12Z</time>
      </trkpt>
      <trkpt lat="43.54613" lon="6.79192">
        <ele>147.199997</ele>
        <time>2012-04-22T06:59:16Z</time>
      </trkpt>
      <trkpt lat="43.54608" lon="6.79195">
        <ele>147</ele>
        <time>2012-04-22T06:59:18Z</time>
      </trkpt>
      <trkpt lat="43.546" lon="6.792">
        <ele>147</ele>
        <time>2012-04-22T06:59:21Z</time>
      </trkpt>
      <trkpt lat="43.54592" lon="6.79202">
        <ele>146.800003</ele>
        <time>2012-04-22T06:59:25Z</time>
      </trkpt>
      <trkpt lat="43.54586" lon="6.79204">
        <ele>146.800003</ele>
        <time>2012-04-22T06:59:28Z</time>
      </trkpt>
      <trkpt lat="43.54579" lon="6.79206">
        <ele>146.800003</ele>
        <time>2012-04-22T06:59:32Z</time>
      </trkpt>
      <trkpt lat="43.54571" lon="6.79205">
        <ele>147.399994</ele>
        <time>2012-04-22T06:59:36Z</time>
      </trkpt>
      <trkpt lat="43.54567" lon="6.79201">
        <ele>147.800003</ele>
        <time>2012-04-22T06:59:39Z</time>
      </trkpt>
      <trkpt lat="43.54562" lon="6.79196">
        <ele>148.199997</ele>
        <time>2012-04-22T06:59:42Z</time>
      </trkpt>
      <trkpt lat="43.54557" lon="6.79187">
        <ele>149</ele>
        <time>2012-04-22T06:59:46Z</time>
      </trkpt>
      <trkpt lat="43.54554" lon="6.79178">
        <ele>149.600006</ele>
        <time>2012-04-22T06:59:50Z</time>
      </trkpt>
      <trkpt lat="43.54548" lon="6.7917">
        <ele>150.399994</ele>
        <time>2012-04-22T06:59:54Z</time>
      </trkpt>
      <trkpt lat="43.54542" lon="6.79163">
        <ele>151.399994</ele>
        <time>2012-04-22T06:59:58Z</time>
      </trkpt>
      <trkpt lat="43.54531" lon="6.79156">
        <ele>153</ele>
        <time>2012-04-22T07:00:04Z</time>
      </trkpt>
      <trkpt lat="43.54524" lon="6.79153">
        <ele>153.800003</ele>
        <time>2012-04-22T07:00:08Z</time>
      </trkpt>
      <trkpt lat="43.54517" lon="6.79149">
        <ele>154.600006</ele>
        <time>2012-04-22T07:00:12Z</time>
      </trkpt>
      <trkpt lat="43.54512" lon="6.79147">
        <ele>155.199997</ele>
        <time>2012-04-22T07:00:15Z</time>
      </trkpt>
      <trkpt lat="43.54506" lon="6.79142">
        <ele>156</ele>
        <time>2012-04-22T07:00:19Z</time>
      </trkpt>
      <trkpt lat="43.54497" lon="6.79139">
        <ele>157</ele>
        <time>2012-04-22T07:00:24Z</time>
      </trkpt>
      <trkpt lat="43.5449" lon="6.79137">
        <ele>158.199997</ele>
        <time>2012-04-22T07:00:28Z</time>
      </trkpt>
      <trkpt lat="43.54484" lon="6.79137">
        <ele>159</ele>
        <time>2012-04-22T07:00:31Z</time>
      </trkpt>
      <trkpt lat="43.54477" lon="6.79143">
        <ele>159.600006</ele>
        <time>2012-04-22T07:00:35Z</time>
      </trkpt>
      <trkpt lat="43.54471" lon="6.79148">
        <ele>160</ele>
        <time>2012-04-22T07:00:39Z</time>
      </trkpt>
      <trkpt lat="43.54468" lon="6.79153">
        <ele>160.199997</ele>
        <time>2012-04-22T07:00:42Z</time>
      </trkpt>
      <trkpt lat="43.54467" lon="6.7916">
        <ele>160</ele>
        <time>2012-04-22T07:00:46Z</time>
      </trkpt>
      <trkpt lat="43.54465" lon="6.79167">
        <ele>159.800003</ele>
        <time>2012-04-22T07:00:50Z</time>
      </trkpt>
      <trkpt lat="43.54461" lon="6.79174">
        <ele>159.800003</ele>
        <time>2012-04-22T07:00:53Z</time>
      </trkpt>
      <trkpt lat="43.54457" lon="6.79179">
        <ele>160</ele>
        <time>2012-04-22T07:00:57Z</time>
      </trkpt>
      <trkpt lat="43.54453" lon="6.79183">
        <ele>160.399994</ele>
        <time>2012-04-22T07:01:01Z</time>
      </trkpt>
      <trkpt lat="43.54446" lon="6.79189">
        <ele>160.800003</ele>
        <time>2012-04-22T07:01:05Z</time>
      </trkpt>
      <trkpt lat="43.54435" lon="6.79199">
        <ele>161.199997</ele>
        <time>2012-04-22T07:01:11Z</time>
      </trkpt>
      <trkpt lat="43.54427" lon="6.79201">
        <ele>162</ele>
        <time>2012-04-22T07:01:15Z</time>
      </trkpt>
      <trkpt lat="43.54419" lon="6.79202">
        <ele>163</ele>
        <time>2012-04-22T07:01:19Z</time>
      </trkpt>
      <trkpt lat="43.54408" lon="6.792">
        <ele>164.600006</ele>
        <time>2012-04-22T07:01:25Z</time>
      </trkpt>
      <trkpt lat="43.544" lon="6.79201">
        <ele>165.199997</ele>
        <time>2012-04-22T07:01:29Z</time>
      </trkpt>
      <trkpt lat="43.54392" lon="6.792">
        <ele>166</ele>
        <time>2012-04-22T07:01:33Z</time>
      </trkpt>
      <trkpt lat="43.54386" lon="6.79198">
        <ele>167</ele>
        <time>2012-04-22T07:01:37Z</time>
      </trkpt>
      <trkpt lat="43.54378" lon="6.79196">
        <ele>168</ele>
        <time>2012-04-22T07:01:41Z</time>
      </trkpt>
      <trkpt lat="43.54373" lon="6.79195">
        <ele>168.800003</ele>
        <time>2012-04-22T07:01:44Z</time>
      </trkpt>
      <trkpt lat="43.54366" lon="6.79194">
        <ele>169.399994</ele>
        <time>2012-04-22T07:01:48Z</time>
      </trkpt>
      <trkpt lat="43.5436" lon="6.79193">
        <ele>170.199997</ele>
        <time>2012-04-22T07:01:52Z</time>
      </trkpt>
      <trkpt lat="43.54353" lon="6.79191">
        <ele>171.199997</ele>
        <time>2012-04-22T07:01:56Z</time>
      </trkpt>
      <trkpt lat="43.54346" lon="6.79184">
        <ele>172.600006</ele>
        <time>2012-04-22T07:02:01Z</time>
      </trkpt>
      <trkpt lat="43.54343" lon="6.79176">
        <ele>174</ele>
        <time>2012-04-22T07:02:05Z</time>
      </trkpt>
      <trkpt lat="43.54343" lon="6.79168">
        <ele>175</ele>
        <time>2012-04-22T07:02:08Z</time>
      </trkpt>
      <trkpt lat="43.54345" lon="6.7916">
        <ele>174.399994</ele>
        <time>2012-04-22T07:02:11Z</time>
      </trkpt>
      <trkpt lat="43.54351" lon="6.79157">
        <ele>173.600006</ele>
        <time>2012-04-22T07:02:16Z</time>
      </trkpt>
      <trkpt lat="43.54364" lon="6.79151">
        <ele>172.199997</ele>
        <time>2012-04-22T07:02:27Z</time>
      </trkpt>
      <trkpt lat="43.54377" lon="6.79142">
        <ele>170.800003</ele>
        <time>2012-04-22T07:02:34Z</time>
      </trkpt>
      <trkpt lat="43.54392" lon="6.79133">
        <ele>169.600006</ele>
        <time>2012-04-22T07:02:39Z</time>
      </trkpt>
      <trkpt lat="43.54409" lon="6.79114">
        <ele>168.399994</ele>
        <time>2012-04-22T07:02:43Z</time>
      </trkpt>
      <trkpt lat="43.54419" lon="6.79102">
        <ele>167.800003</ele>
        <time>2012-04-22T07:02:45Z</time>
      </trkpt>
      <trkpt lat="43.54424" lon="6.79096">
        <ele>167.399994</ele>
        <time>2012-04-22T07:02:46Z</time>
      </trkpt>
      <trkpt lat="43.54436" lon="6.79085">
        <ele>166.600006</ele>
        <time>2012-04-22T07:02:48Z</time>
      </trkpt>
      <trkpt lat="43.54447" lon="6.79076">
        <ele>165.399994</ele>
        <time>2012-04-22T07:02:50Z</time>
      </trkpt>
      <trkpt lat="43.54457" lon="6.79069">
        <ele>164.199997</ele>
        <time>2012-04-22T07:02:52Z</time>
      </trkpt>
      <trkpt lat="43.54461" lon="6.79065">
        <ele>163.800003</ele>
        <time>2012-04-22T07:02:53Z</time>
      </trkpt>
      <trkpt lat="43.54474" lon="6.79055">
        <ele>162.399994</ele>
        <time>2012-04-22T07:02:56Z</time>
      </trkpt>
      <trkpt lat="43.5448" lon="6.79053">
        <ele>162</ele>
        <time>2012-04-22T07:02:57Z</time>
      </trkpt>
      <trkpt lat="43.54487" lon="6.79049">
        <ele>161.399994</ele>
        <time>2012-04-22T07:02:58Z</time>
      </trkpt>
      <trkpt lat="43.54492" lon="6.79046">
        <ele>161</ele>
        <time>2012-04-22T07:02:59Z</time>
      </trkpt>
      <trkpt lat="43.54497" lon="6.79042">
        <ele>160.600006</ele>
        <time>2012-04-22T07:03:00Z</time>
      </trkpt>
      <trkpt lat="43.54494" lon="6.79015">
        <ele>159.800003</ele>
        <time>2012-04-22T07:03:03Z</time>
      </trkpt>
      <trkpt lat="43.54489" lon="6.79007">
        <ele>159.600006</ele>
        <time>2012-04-22T07:03:04Z</time>
      </trkpt>
      <trkpt lat="43.54481" lon="6.78997">
        <ele>159.399994</ele>
        <time>2012-04-22T07:03:05Z</time>
      </trkpt>
      <trkpt lat="43.54471" lon="6.78982">
        <ele>158.800003</ele>
        <time>2012-04-22T07:03:07Z</time>
      </trkpt>
      <trkpt lat="43.54465" lon="6.78973">
        <ele>158.600006</ele>
        <time>2012-04-22T07:03:08Z</time>
      </trkpt>
      <trkpt lat="43.5444" lon="6.78955">
        <ele>158</ele>
        <time>2012-04-22T07:03:11Z</time>
      </trkpt>
      <trkpt lat="43.54432" lon="6.78953">
        <ele>158</ele>
        <time>2012-04-22T07:03:12Z</time>
      </trkpt>
      <trkpt lat="43.54416" lon="6.78951">
        <ele>158</ele>
        <time>2012-04-22T07:03:14Z</time>
      </trkpt>
      <trkpt lat="43.54402" lon="6.7895">
        <ele>158.600006</ele>
        <time>2012-04-22T07:03:16Z</time>
      </trkpt>
      <trkpt lat="43.54396" lon="6.78948">
        <ele>158.600006</ele>
        <time>2012-04-22T07:03:17Z</time>
      </trkpt>
      <trkpt lat="43.5439" lon="6.78945">
        <ele>158.800003</ele>
        <time>2012-04-22T07:03:18Z</time>
      </trkpt>
      <trkpt lat="43.5438" lon="6.7894">
        <ele>159</ele>
        <time>2012-04-22T07:03:20Z</time>
      </trkpt>
      <trkpt lat="43.54362" lon="6.78928">
        <ele>159.199997</ele>
        <time>2012-04-22T07:03:25Z</time>
      </trkpt>
      <trkpt lat="43.54354" lon="6.78924">
        <ele>159.399994</ele>
        <time>2012-04-22T07:03:28Z</time>
      </trkpt>
      <trkpt lat="43.54348" lon="6.78924">
        <ele>159.600006</ele>
        <time>2012-04-22T07:03:30Z</time>
      </trkpt>
      <trkpt lat="43.54343" lon="6.78925">
        <ele>159.800003</ele>
        <time>2012-04-22T07:03:32Z</time>
      </trkpt>
      <trkpt lat="43.54338" lon="6.78925">
        <ele>160.199997</ele>
        <time>2012-04-22T07:03:34Z</time>
      </trkpt>
      <trkpt lat="43.54331" lon="6.78926">
        <ele>160.600006</ele>
        <time>2012-04-22T07:03:36Z</time>
      </trkpt>
      <trkpt lat="43.54304" lon="6.78922">
        <ele>163.199997</ele>
        <time>2012-04-22T07:03:45Z</time>
      </trkpt>
      <trkpt lat="43.54285" lon="6.78908">
        <ele>165</ele>
        <time>2012-04-22T07:03:52Z</time>
      </trkpt>
      <trkpt lat="43.54278" lon="6.78901">
        <ele>165.800003</ele>
        <time>2012-04-22T07:03:55Z</time>
      </trkpt>
      <trkpt lat="43.54272" lon="6.78899">
        <ele>166.399994</ele>
        <time>2012-04-22T07:03:57Z</time>
      </trkpt>
      <trkpt lat="43.54267" lon="6.78896">
        <ele>167</ele>
        <time>2012-04-22T07:03:59Z</time>
      </trkpt>
      <trkpt lat="43.54261" lon="6.78894">
        <ele>167.399994</ele>
        <time>2012-04-22T07:04:01Z</time>
      </trkpt>
      <trkpt lat="43.5424" lon="6.78894">
        <ele>169</ele>
        <time>2012-04-22T07:04:08Z</time>
      </trkpt>
      <trkpt lat="43.54235" lon="6.78894">
        <ele>169.399994</ele>
        <time>2012-04-22T07:04:10Z</time>
      </trkpt>
      <trkpt lat="43.5423" lon="6.78895">
        <ele>169.600006</ele>
        <time>2012-04-22T07:04:12Z</time>
      </trkpt>
      <trkpt lat="43.54226" lon="6.78895">
        <ele>170</ele>
        <time>2012-04-22T07:04:14Z</time>
      </trkpt>
      <trkpt lat="43.5422" lon="6.78896">
        <ele>170.399994</ele>
        <time>2012-04-22T07:04:16Z</time>
      </trkpt>
      <trkpt lat="43.54213" lon="6.78898">
        <ele>171</ele>
        <time>2012-04-22T07:04:19Z</time>
      </trkpt>
      <trkpt lat="43.54204" lon="6.78899">
        <ele>171.600006</ele>
        <time>2012-04-22T07:04:23Z</time>
      </trkpt>
      <trkpt lat="43.54197" lon="6.789">
        <ele>172.199997</ele>
        <time>2012-04-22T07:04:27Z</time>
      </trkpt>
      <trkpt lat="43.5419" lon="6.789">
        <ele>172.600006</ele>
        <time>2012-04-22T07:04:30Z</time>
      </trkpt>
      <trkpt lat="43.54181" lon="6.789">
        <ele>173.399994</ele>
        <time>2012-04-22T07:04:34Z</time>
      </trkpt>
      <trkpt lat="43.54176" lon="6.789">
        <ele>173.600006</ele>
        <time>2012-04-22T07:04:36Z</time>
      </trkpt>
      <trkpt lat="43.54162" lon="6.78896">
        <ele>174.600006</ele>
        <time>2012-04-22T07:04:42Z</time>
      </trkpt>
      <trkpt lat="43.54157" lon="6.78894">
        <ele>174.800003</ele>
        <time>2012-04-22T07:04:44Z</time>
      </trkpt>
      <trkpt lat="43.54152" lon="6.78892">
        <ele>175</ele>
        <time>2012-04-22T07:04:46Z</time>
      </trkpt>
      <trkpt lat="43.54146" lon="6.78889">
        <ele>175.199997</ele>
        <time>2012-04-22T07:04:48Z</time>
      </trkpt>
      <trkpt lat="43.5414" lon="6.78885">
        <ele>175.199997</ele>
        <time>2012-04-22T07:04:50Z</time>
      </trkpt>
      <trkpt lat="43.54135" lon="6.78882">
        <ele>175.399994</ele>
        <time>2012-04-22T07:04:52Z</time>
      </trkpt>
      <trkpt lat="43.54116" lon="6.78872">
        <ele>175.399994</ele>
        <time>2012-04-22T07:04:59Z</time>
      </trkpt>
      <trkpt lat="43.54093" lon="6.78863">
        <ele>175.199997</ele>
        <time>2012-04-22T07:05:07Z</time>
      </trkpt>
      <trkpt lat="43.54056" lon="6.78844">
        <ele>174.800003</ele>
        <time>2012-04-22T07:05:19Z</time>
      </trkpt>
      <trkpt lat="43.54037" lon="6.78831">
        <ele>174.399994</ele>
        <time>2012-04-22T07:05:26Z</time>
      </trkpt>
      <trkpt lat="43.5402" lon="6.78819">
        <ele>176</ele>
        <time>2012-04-22T07:05:32Z</time>
      </trkpt>
      <trkpt lat="43.54003" lon="6.78811">
        <ele>177.199997</ele>
        <time>2012-04-22T07:05:40Z</time>
      </trkpt>
      <trkpt lat="43.53996" lon="6.78807">
        <ele>177.800003</ele>
        <time>2012-04-22T07:05:43Z</time>
      </trkpt>
      <trkpt lat="43.53988" lon="6.78802">
        <ele>178.399994</ele>
        <time>2012-04-22T07:05:47Z</time>
      </trkpt>
      <trkpt lat="43.53983" lon="6.788">
        <ele>178.800003</ele>
        <time>2012-04-22T07:05:49Z</time>
      </trkpt>
      <trkpt lat="43.53976" lon="6.78796">
        <ele>179.199997</ele>
        <time>2012-04-22T07:05:52Z</time>
      </trkpt>
      <trkpt lat="43.53972" lon="6.78794">
        <ele>179.399994</ele>
        <time>2012-04-22T07:05:54Z</time>
      </trkpt>
      <trkpt lat="43.53967" lon="6.78792">
        <ele>179.600006</ele>
        <time>2012-04-22T07:05:56Z</time>
      </trkpt>
      <trkpt lat="43.53959" lon="6.78786">
        <ele>180</ele>
        <time>2012-04-22T07:06:00Z</time>
      </trkpt>
      <trkpt lat="43.53948" lon="6.78776">
        <ele>180.399994</ele>
        <time>2012-04-22T07:06:06Z</time>
      </trkpt>
      <trkpt lat="43.53942" lon="6.7877">
        <ele>180.399994</ele>
        <time>2012-04-22T07:06:10Z</time>
      </trkpt>
      <trkpt lat="43.53937" lon="6.78762">
        <ele>180.399994</ele>
        <time>2012-04-22T07:06:14Z</time>
      </trkpt>
      <trkpt lat="43.53932" lon="6.78753">
        <ele>180.199997</ele>
        <time>2012-04-22T07:06:18Z</time>
      </trkpt>
      <trkpt lat="43.53928" lon="6.78745">
        <ele>180.800003</ele>
        <time>2012-04-22T07:06:22Z</time>
      </trkpt>
      <trkpt lat="43.53926" lon="6.78739">
        <ele>181.399994</ele>
        <time>2012-04-22T07:06:25Z</time>
      </trkpt>
      <trkpt lat="43.53922" lon="6.7873">
        <ele>182.199997</ele>
        <time>2012-04-22T07:06:29Z</time>
      </trkpt>
      <trkpt lat="43.53919" lon="6.78724">
        <ele>182.800003</ele>
        <time>2012-04-22T07:06:32Z</time>
      </trkpt>
      <trkpt lat="43.53917" lon="6.78718">
        <ele>183.399994</ele>
        <time>2012-04-22T07:06:35Z</time>
      </trkpt>
      <trkpt lat="43.53914" lon="6.78708">
        <ele>184.600006</ele>
        <time>2012-04-22T07:06:39Z</time>
      </trkpt>
      <trkpt lat="43.53912" lon="6.787">
        <ele>185.600006</ele>
        <time>2012-04-22T07:06:43Z</time>
      </trkpt>
      <trkpt lat="43.53912" lon="6.7869">
        <ele>186.600006</ele>
        <time>2012-04-22T07:06:47Z</time>
      </trkpt>
      <trkpt lat="43.53912" lon="6.78682">
        <ele>187.399994</ele>
        <time>2012-04-22T07:06:50Z</time>
      </trkpt>
      <trkpt lat="43.53915" lon="6.78675">
        <ele>188</ele>
        <time>2012-04-22T07:06:54Z</time>
      </trkpt>
      <trkpt lat="43.53924" lon="6.78671">
        <ele>188.600006</ele>
        <time>2012-04-22T07:06:59Z</time>
      </trkpt>
      <trkpt lat="43.5393" lon="6.7867">
        <ele>188.800003</ele>
        <time>2012-04-22T07:07:03Z</time>
      </trkpt>
      <trkpt lat="43.53937" lon="6.78669">
        <ele>189</ele>
        <time>2012-04-22T07:07:07Z</time>
      </trkpt>
      <trkpt lat="43.53944" lon="6.78668">
        <ele>189.199997</ele>
        <time>2012-04-22T07:07:11Z</time>
      </trkpt>
      <trkpt lat="43.53949" lon="6.78667">
        <ele>189.399994</ele>
        <time>2012-04-22T07:07:14Z</time>
      </trkpt>
      <trkpt lat="43.53957" lon="6.78666">
        <ele>189.399994</ele>
        <time>2012-04-22T07:07:18Z</time>
      </trkpt>
      <trkpt lat="43.53965" lon="6.78662">
        <ele>190</ele>
        <time>2012-04-22T07:07:23Z</time>
      </trkpt>
      <trkpt lat="43.53972" lon="6.78658">
        <ele>190.199997</ele>
        <time>2012-04-22T07:07:27Z</time>
      </trkpt>
      <trkpt lat="43.53979" lon="6.78656">
        <ele>190.399994</ele>
        <time>2012-04-22T07:07:31Z</time>
      </trkpt>
      <trkpt lat="43.53988" lon="6.78651">
        <ele>190.800003</ele>
        <time>2012-04-22T07:07:37Z</time>
      </trkpt>
      <trkpt lat="43.53996" lon="6.78647">
        <ele>191.199997</ele>
        <time>2012-04-22T07:07:41Z</time>
      </trkpt>
      <trkpt lat="43.54002" lon="6.78643">
        <ele>191.199997</ele>
        <time>2012-04-22T07:07:45Z</time>
      </trkpt>
      <trkpt lat="43.54013" lon="6.78637">
        <ele>190.600006</ele>
        <time>2012-04-22T07:07:53Z</time>
      </trkpt>
      <trkpt lat="43.54018" lon="6.78631">
        <ele>190.399994</ele>
        <time>2012-04-22T07:07:57Z</time>
      </trkpt>
      <trkpt lat="43.5402" lon="6.7862">
        <ele>190.600006</ele>
        <time>2012-04-22T07:08:01Z</time>
      </trkpt>
      <trkpt lat="43.54012" lon="6.78603">
        <ele>192.199997</ele>
        <time>2012-04-22T07:08:09Z</time>
      </trkpt>
      <trkpt lat="43.54" lon="6.78595">
        <ele>194.399994</ele>
        <time>2012-04-22T07:08:16Z</time>
      </trkpt>
      <trkpt lat="43.53993" lon="6.78591">
        <ele>194.600006</ele>
        <time>2012-04-22T07:08:20Z</time>
      </trkpt>
      <trkpt lat="43.53986" lon="6.78589">
        <ele>194.800003</ele>
        <time>2012-04-22T07:08:24Z</time>
      </trkpt>
      <trkpt lat="43.53978" lon="6.78588">
        <ele>195</ele>
        <time>2012-04-22T07:08:28Z</time>
      </trkpt>
      <trkpt lat="43.53973" lon="6.78587">
        <ele>195</ele>
        <time>2012-04-22T07:08:31Z</time>
      </trkpt>
      <trkpt lat="43.53965" lon="6.78586">
        <ele>195.199997</ele>
        <time>2012-04-22T07:08:35Z</time>
      </trkpt>
      <trkpt lat="43.53956" lon="6.78584">
        <ele>195.600006</ele>
        <time>2012-04-22T07:08:39Z</time>
      </trkpt>
      <trkpt lat="43.53938" lon="6.78573">
        <ele>194.800003</ele>
        <time>2012-04-22T07:08:46Z</time>
      </trkpt>
      <trkpt lat="43.53914" lon="6.7856">
        <ele>194.199997</ele>
        <time>2012-04-22T07:08:56Z</time>
      </trkpt>
      <trkpt lat="43.53891" lon="6.78553">
        <ele>193.600006</ele>
        <time>2012-04-22T07:09:04Z</time>
      </trkpt>
      <trkpt lat="43.53878" lon="6.78551">
        <ele>193.600006</ele>
        <time>2012-04-22T07:09:08Z</time>
      </trkpt>
      <trkpt lat="43.53871" lon="6.7855">
        <ele>193.399994</ele>
        <time>2012-04-22T07:09:10Z</time>
      </trkpt>
      <trkpt lat="43.53865" lon="6.78549">
        <ele>193.399994</ele>
        <time>2012-04-22T07:09:12Z</time>
      </trkpt>
      <trkpt lat="43.53859" lon="6.78548">
        <ele>193.399994</ele>
        <time>2012-04-22T07:09:14Z</time>
      </trkpt>
      <trkpt lat="43.53854" lon="6.78547">
        <ele>193.399994</ele>
        <time>2012-04-22T07:09:16Z</time>
      </trkpt>
      <trkpt lat="43.53845" lon="6.78546">
        <ele>193.399994</ele>
        <time>2012-04-22T07:09:19Z</time>
      </trkpt>
      <trkpt lat="43.53839" lon="6.78545">
        <ele>193.399994</ele>
        <time>2012-04-22T07:09:21Z</time>
      </trkpt>
      <trkpt lat="43.53833" lon="6.78544">
        <ele>193.399994</ele>
        <time>2012-04-22T07:09:23Z</time>
      </trkpt>
      <trkpt lat="43.53828" lon="6.78543">
        <ele>193.800003</ele>
        <time>2012-04-22T07:09:25Z</time>
      </trkpt>
      <trkpt lat="43.53822" lon="6.78543">
        <ele>194.199997</ele>
        <time>2012-04-22T07:09:27Z</time>
      </trkpt>
      <trkpt lat="43.53789" lon="6.78538">
        <ele>196.399994</ele>
        <time>2012-04-22T07:09:39Z</time>
      </trkpt>
      <trkpt lat="43.5377" lon="6.78539">
        <ele>197.800003</ele>
        <time>2012-04-22T07:09:46Z</time>
      </trkpt>
      <trkpt lat="43.53765" lon="6.78539">
        <ele>198</ele>
        <time>2012-04-22T07:09:48Z</time>
      </trkpt>
      <trkpt lat="43.5376" lon="6.7854">
        <ele>198.399994</ele>
        <time>2012-04-22T07:09:50Z</time>
      </trkpt>
      <trkpt lat="43.53751" lon="6.78538">
        <ele>199</ele>
        <time>2012-04-22T07:09:54Z</time>
      </trkpt>
      <trkpt lat="43.53736" lon="6.78531">
        <ele>200.199997</ele>
        <time>2012-04-22T07:10:00Z</time>
      </trkpt>
      <trkpt lat="43.53728" lon="6.78525">
        <ele>201.199997</ele>
        <time>2012-04-22T07:10:04Z</time>
      </trkpt>
      <trkpt lat="43.5372" lon="6.78519">
        <ele>202</ele>
        <time>2012-04-22T07:10:08Z</time>
      </trkpt>
      <trkpt lat="43.53714" lon="6.78514">
        <ele>202.800003</ele>
        <time>2012-04-22T07:10:11Z</time>
      </trkpt>
      <trkpt lat="43.53706" lon="6.78508">
        <ele>203.800003</ele>
        <time>2012-04-22T07:10:15Z</time>
      </trkpt>
      <trkpt lat="43.53697" lon="6.78501">
        <ele>205</ele>
        <time>2012-04-22T07:10:20Z</time>
      </trkpt>
      <trkpt lat="43.53689" lon="6.78495">
        <ele>205.600006</ele>
        <time>2012-04-22T07:10:24Z</time>
      </trkpt>
      <trkpt lat="43.53685" lon="6.78492">
        <ele>205.800003</ele>
        <time>2012-04-22T07:10:26Z</time>
      </trkpt>
      <trkpt lat="43.5367" lon="6.78484">
        <ele>206.800003</ele>
        <time>2012-04-22T07:10:33Z</time>
      </trkpt>
      <trkpt lat="43.53662" lon="6.78482">
        <ele>207</ele>
        <time>2012-04-22T07:10:37Z</time>
      </trkpt>
      <trkpt lat="43.53653" lon="6.78481">
        <ele>207.399994</ele>
        <time>2012-04-22T07:10:41Z</time>
      </trkpt>
      <trkpt lat="43.53647" lon="6.7848">
        <ele>207.600006</ele>
        <time>2012-04-22T07:10:44Z</time>
      </trkpt>
      <trkpt lat="43.53639" lon="6.78478">
        <ele>207.800003</ele>
        <time>2012-04-22T07:10:48Z</time>
      </trkpt>
      <trkpt lat="43.53628" lon="6.78475">
        <ele>208</ele>
        <time>2012-04-22T07:10:54Z</time>
      </trkpt>
      <trkpt lat="43.53621" lon="6.78474">
        <ele>208.199997</ele>
        <time>2012-04-22T07:10:58Z</time>
      </trkpt>
      <trkpt lat="43.53614" lon="6.78473">
        <ele>208.399994</ele>
        <time>2012-04-22T07:11:02Z</time>
      </trkpt>
      <trkpt lat="43.53597" lon="6.78473">
        <ele>209.199997</ele>
        <time>2012-04-22T07:11:10Z</time>
      </trkpt>
      <trkpt lat="43.53592" lon="6.78473">
        <ele>209.399994</ele>
        <time>2012-04-22T07:11:12Z</time>
      </trkpt>
      <trkpt lat="43.53584" lon="6.78474">
        <ele>209.800003</ele>
        <time>2012-04-22T07:11:16Z</time>
      </trkpt>
      <trkpt lat="43.53576" lon="6.78473">
        <ele>209.600006</ele>
        <time>2012-04-22T07:11:20Z</time>
      </trkpt>
      <trkpt lat="43.53549" lon="6.78473">
        <ele>209.600006</ele>
        <time>2012-04-22T07:11:32Z</time>
      </trkpt>
      <trkpt lat="43.53543" lon="6.78474">
        <ele>209.600006</ele>
        <time>2012-04-22T07:11:35Z</time>
      </trkpt>
      <trkpt lat="43.53534" lon="6.78472">
        <ele>209.399994</ele>
        <time>2012-04-22T07:11:39Z</time>
      </trkpt>
      <trkpt lat="43.53528" lon="6.78472">
        <ele>209.399994</ele>
        <time>2012-04-22T07:11:41Z</time>
      </trkpt>
      <trkpt lat="43.53522" lon="6.78472">
        <ele>209.399994</ele>
        <time>2012-04-22T07:11:43Z</time>
      </trkpt>
      <trkpt lat="43.53503" lon="6.78473">
        <ele>209.399994</ele>
        <time>2012-04-22T07:11:48Z</time>
      </trkpt>
      <trkpt lat="43.53495" lon="6.78474">
        <ele>209.199997</ele>
        <time>2012-04-22T07:11:50Z</time>
      </trkpt>
      <trkpt lat="43.53487" lon="6.78475">
        <ele>209.199997</ele>
        <time>2012-04-22T07:11:52Z</time>
      </trkpt>
      <trkpt lat="43.5348" lon="6.78476">
        <ele>209.199997</ele>
        <time>2012-04-22T07:11:54Z</time>
      </trkpt>
      <trkpt lat="43.53473" lon="6.78478">
        <ele>209.199997</ele>
        <time>2012-04-22T07:11:56Z</time>
      </trkpt>
      <trkpt lat="43.5345" lon="6.78482">
        <ele>209.199997</ele>
        <time>2012-04-22T07:12:03Z</time>
      </trkpt>
      <trkpt lat="43.53444" lon="6.78483">
        <ele>209.199997</ele>
        <time>2012-04-22T07:12:05Z</time>
      </trkpt>
      <trkpt lat="43.53437" lon="6.78484">
        <ele>209.199997</ele>
        <time>2012-04-22T07:12:07Z</time>
      </trkpt>
      <trkpt lat="43.53431" lon="6.78485">
        <ele>209.199997</ele>
        <time>2012-04-22T07:12:09Z</time>
      </trkpt>
      <trkpt lat="43.53425" lon="6.78486">
        <ele>209.199997</ele>
        <time>2012-04-22T07:12:11Z</time>
      </trkpt>
      <trkpt lat="43.53395" lon="6.78497">
        <ele>209</ele>
        <time>2012-04-22T07:12:21Z</time>
      </trkpt>
      <trkpt lat="43.53368" lon="6.78504">
        <ele>207.399994</ele>
        <time>2012-04-22T07:12:30Z</time>
      </trkpt>
      <trkpt lat="43.53342" lon="6.78514">
        <ele>206.199997</ele>
        <time>2012-04-22T07:12:37Z</time>
      </trkpt>
      <trkpt lat="43.53325" lon="6.78525">
        <ele>205.800003</ele>
        <time>2012-04-22T07:12:42Z</time>
      </trkpt>
      <trkpt lat="43.53315" lon="6.78541">
        <ele>206.399994</ele>
        <time>2012-04-22T07:12:46Z</time>
      </trkpt>
      <trkpt lat="43.53311" lon="6.78551">
        <ele>206.800003</ele>
        <time>2012-04-22T07:12:48Z</time>
      </trkpt>
      <trkpt lat="43.53306" lon="6.78558">
        <ele>207.199997</ele>
        <time>2012-04-22T07:12:50Z</time>
      </trkpt>
      <trkpt lat="43.53296" lon="6.78584">
        <ele>209</ele>
        <time>2012-04-22T07:12:56Z</time>
      </trkpt>
      <trkpt lat="43.53282" lon="6.78594">
        <ele>209.800003</ele>
        <time>2012-04-22T07:13:02Z</time>
      </trkpt>
      <trkpt lat="43.53273" lon="6.78596">
        <ele>210</ele>
        <time>2012-04-22T07:13:06Z</time>
      </trkpt>
      <trkpt lat="43.53267" lon="6.78595">
        <ele>210</ele>
        <time>2012-04-22T07:13:08Z</time>
      </trkpt>
      <trkpt lat="43.53259" lon="6.78594">
        <ele>209.800003</ele>
        <time>2012-04-22T07:13:10Z</time>
      </trkpt>
      <trkpt lat="43.53247" lon="6.78591">
        <ele>209.399994</ele>
        <time>2012-04-22T07:13:13Z</time>
      </trkpt>
      <trkpt lat="43.53237" lon="6.78588">
        <ele>208.600006</ele>
        <time>2012-04-22T07:13:15Z</time>
      </trkpt>
      <trkpt lat="43.53232" lon="6.78587">
        <ele>208</ele>
        <time>2012-04-22T07:13:16Z</time>
      </trkpt>
      <trkpt lat="43.53211" lon="6.78576">
        <ele>205.399994</ele>
        <time>2012-04-22T07:13:18Z</time>
      </trkpt>
      <trkpt lat="43.53204" lon="6.78572">
        <ele>204.399994</ele>
        <time>2012-04-22T07:13:19Z</time>
      </trkpt>
      <trkpt lat="43.53181" lon="6.78565">
        <ele>202</ele>
        <time>2012-04-22T07:13:22Z</time>
      </trkpt>
      <trkpt lat="43.53173" lon="6.78563">
        <ele>201.199997</ele>
        <time>2012-04-22T07:13:23Z</time>
      </trkpt>
      <trkpt lat="43.53157" lon="6.78565">
        <ele>200</ele>
        <time>2012-04-22T07:13:25Z</time>
      </trkpt>
      <trkpt lat="43.53148" lon="6.78567">
        <ele>199.199997</ele>
        <time>2012-04-22T07:13:26Z</time>
      </trkpt>
      <trkpt lat="43.53129" lon="6.78571">
        <ele>197.800003</ele>
        <time>2012-04-22T07:13:28Z</time>
      </trkpt>
      <trkpt lat="43.53119" lon="6.78572">
        <ele>197</ele>
        <time>2012-04-22T07:13:29Z</time>
      </trkpt>
      <trkpt lat="43.5311" lon="6.78572">
        <ele>196</ele>
        <time>2012-04-22T07:13:30Z</time>
      </trkpt>
      <trkpt lat="43.53092" lon="6.78563">
        <ele>193</ele>
        <time>2012-04-22T07:13:32Z</time>
      </trkpt>
      <trkpt lat="43.53076" lon="6.78554">
        <ele>189.600006</ele>
        <time>2012-04-22T07:13:34Z</time>
      </trkpt>
      <trkpt lat="43.53066" lon="6.78551">
        <ele>187.600006</ele>
        <time>2012-04-22T07:13:35Z</time>
      </trkpt>
      <trkpt lat="43.53056" lon="6.78549">
        <ele>185.600006</ele>
        <time>2012-04-22T07:13:36Z</time>
      </trkpt>
      <trkpt lat="43.53046" lon="6.78546">
        <ele>183.600006</ele>
        <time>2012-04-22T07:13:37Z</time>
      </trkpt>
      <trkpt lat="43.53035" lon="6.78543">
        <ele>181.600006</ele>
        <time>2012-04-22T07:13:38Z</time>
      </trkpt>
      <trkpt lat="43.53024" lon="6.78539">
        <ele>179.399994</ele>
        <time>2012-04-22T07:13:39Z</time>
      </trkpt>
      <trkpt lat="43.53013" lon="6.78534">
        <ele>177.399994</ele>
        <time>2012-04-22T07:13:40Z</time>
      </trkpt>
      <trkpt lat="43.53003" lon="6.78528">
        <ele>175.399994</ele>
        <time>2012-04-22T07:13:41Z</time>
      </trkpt>
      <trkpt lat="43.52982" lon="6.78516">
        <ele>171.199997</ele>
        <time>2012-04-22T07:13:43Z</time>
      </trkpt>
      <trkpt lat="43.52965" lon="6.78508">
        <ele>167.800003</ele>
        <time>2012-04-22T07:13:45Z</time>
      </trkpt>
      <trkpt lat="43.52957" lon="6.78505">
        <ele>166.600006</ele>
        <time>2012-04-22T07:13:46Z</time>
      </trkpt>
      <trkpt lat="43.52941" lon="6.78508">
        <ele>164</ele>
        <time>2012-04-22T07:13:49Z</time>
      </trkpt>
      <trkpt lat="43.52938" lon="6.7852">
        <ele>163.800003</ele>
        <time>2012-04-22T07:13:51Z</time>
      </trkpt>
      <trkpt lat="43.52941" lon="6.78536">
        <ele>164.800003</ele>
        <time>2012-04-22T07:13:53Z</time>
      </trkpt>
      <trkpt lat="43.52944" lon="6.78544">
        <ele>165.600006</ele>
        <time>2012-04-22T07:13:54Z</time>
      </trkpt>
      <trkpt lat="43.52947" lon="6.78551">
        <ele>166.399994</ele>
        <time>2012-04-22T07:13:55Z</time>
      </trkpt>
      <trkpt lat="43.52947" lon="6.78559">
        <ele>166.800003</ele>
        <time>2012-04-22T07:13:57Z</time>
      </trkpt>
      <trkpt lat="43.52942" lon="6.78564">
        <ele>165.800003</ele>
        <time>2012-04-22T07:14:00Z</time>
      </trkpt>
      <trkpt lat="43.52929" lon="6.78563">
        <ele>163.199997</ele>
        <time>2012-04-22T07:14:04Z</time>
      </trkpt>
      <trkpt lat="43.52923" lon="6.7856">
        <ele>162</ele>
        <time>2012-04-22T07:14:05Z</time>
      </trkpt>
      <trkpt lat="43.52916" lon="6.78555">
        <ele>160.600006</ele>
        <time>2012-04-22T07:14:06Z</time>
      </trkpt>
      <trkpt lat="43.529" lon="6.78543">
        <ele>157.399994</ele>
        <time>2012-04-22T07:14:08Z</time>
      </trkpt>
      <trkpt lat="43.52884" lon="6.78529">
        <ele>154</ele>
        <time>2012-04-22T07:14:10Z</time>
      </trkpt>
      <trkpt lat="43.52875" lon="6.78519">
        <ele>152</ele>
        <time>2012-04-22T07:14:11Z</time>
      </trkpt>
      <trkpt lat="43.52861" lon="6.78498">
        <ele>148.399994</ele>
        <time>2012-04-22T07:14:13Z</time>
      </trkpt>
      <trkpt lat="43.52853" lon="6.78474">
        <ele>145.399994</ele>
        <time>2012-04-22T07:14:15Z</time>
      </trkpt>
      <trkpt lat="43.52852" lon="6.78446">
        <ele>143.600006</ele>
        <time>2012-04-22T07:14:17Z</time>
      </trkpt>
      <trkpt lat="43.52856" lon="6.78419">
        <ele>142.399994</ele>
        <time>2012-04-22T07:14:19Z</time>
      </trkpt>
      <trkpt lat="43.52862" lon="6.78398">
        <ele>142.600006</ele>
        <time>2012-04-22T07:14:21Z</time>
      </trkpt>
      <trkpt lat="43.52863" lon="6.78388">
        <ele>142.399994</ele>
        <time>2012-04-22T07:14:23Z</time>
      </trkpt>
      <trkpt lat="43.52853" lon="6.7839">
        <ele>141.600006</ele>
        <time>2012-04-22T07:14:26Z</time>
      </trkpt>
      <trkpt lat="43.52848" lon="6.784">
        <ele>141</ele>
        <time>2012-04-22T07:14:28Z</time>
      </trkpt>
      <trkpt lat="43.52844" lon="6.78416">
        <ele>140.600006</ele>
        <time>2012-04-22T07:14:31Z</time>
      </trkpt>
      <trkpt lat="43.52843" lon="6.78425">
        <ele>140.800003</ele>
        <time>2012-04-22T07:14:33Z</time>
      </trkpt>
      <trkpt lat="43.52841" lon="6.78433">
        <ele>141</ele>
        <time>2012-04-22T07:14:35Z</time>
      </trkpt>
      <trkpt lat="43.52837" lon="6.78454">
        <ele>141.399994</ele>
        <time>2012-04-22T07:15:49Z</time>
      </trkpt>
      <trkpt lat="43.52837" lon="6.78478">
        <ele>142.600006</ele>
        <time>2012-04-22T07:15:56Z</time>
      </trkpt>
      <trkpt lat="43.52837" lon="6.78486">
        <ele>143</ele>
        <time>2012-04-22T07:16:00Z</time>
      </trkpt>
      <trkpt lat="43.52837" lon="6.78493">
        <ele>143.399994</ele>
        <time>2012-04-22T07:16:04Z</time>
      </trkpt>
      <trkpt lat="43.52838" lon="6.78499">
        <ele>143.800003</ele>
        <time>2012-04-22T07:16:27Z</time>
      </trkpt>
      <trkpt lat="43.52838" lon="6.78513">
        <ele>144.600006</ele>
        <time>2012-04-22T07:16:31Z</time>
      </trkpt>
      <trkpt lat="43.52837" lon="6.78531">
        <ele>145.199997</ele>
        <time>2012-04-22T07:16:35Z</time>
      </trkpt>
      <trkpt lat="43.52835" lon="6.7854">
        <ele>145.199997</ele>
        <time>2012-04-22T07:16:37Z</time>
      </trkpt>
      <trkpt lat="43.5283" lon="6.78545">
        <ele>146</ele>
        <time>2012-04-22T07:16:39Z</time>
      </trkpt>
      <trkpt lat="43.52822" lon="6.78547">
        <ele>148.399994</ele>
        <time>2012-04-22T07:16:41Z</time>
      </trkpt>
      <trkpt lat="43.52814" lon="6.78545">
        <ele>150.199997</ele>
        <time>2012-04-22T07:16:43Z</time>
      </trkpt>
      <trkpt lat="43.52807" lon="6.78538">
        <ele>151.600006</ele>
        <time>2012-04-22T07:16:45Z</time>
      </trkpt>
      <trkpt lat="43.52802" lon="6.78532">
        <ele>152.199997</ele>
        <time>2012-04-22T07:16:47Z</time>
      </trkpt>
      <trkpt lat="43.52797" lon="6.78521">
        <ele>152.600006</ele>
        <time>2012-04-22T07:16:52Z</time>
      </trkpt>
      <trkpt lat="43.52793" lon="6.78511">
        <ele>152.600006</ele>
        <time>2012-04-22T07:16:56Z</time>
      </trkpt>
      <trkpt lat="43.52792" lon="6.78504">
        <ele>152.399994</ele>
        <time>2012-04-22T07:16:59Z</time>
      </trkpt>
      <trkpt lat="43.52788" lon="6.78493">
        <ele>152.399994</ele>
        <time>2012-04-22T07:17:03Z</time>
      </trkpt>
      <trkpt lat="43.52786" lon="6.78487">
        <ele>152.600006</ele>
        <time>2012-04-22T07:17:05Z</time>
      </trkpt>
      <trkpt lat="43.52782" lon="6.78468">
        <ele>152.600006</ele>
        <time>2012-04-22T07:17:12Z</time>
      </trkpt>
      <trkpt lat="43.52778" lon="6.78459">
        <ele>152.800003</ele>
        <time>2012-04-22T07:17:16Z</time>
      </trkpt>
      <trkpt lat="43.52775" lon="6.78449">
        <ele>153.199997</ele>
        <time>2012-04-22T07:17:20Z</time>
      </trkpt>
      <trkpt lat="43.52772" lon="6.78436">
        <ele>153.199997</ele>
        <time>2012-04-22T07:17:25Z</time>
      </trkpt>
      <trkpt lat="43.5277" lon="6.78427">
        <ele>153.199997</ele>
        <time>2012-04-22T07:17:29Z</time>
      </trkpt>
      <trkpt lat="43.52774" lon="6.78419">
        <ele>152</ele>
        <time>2012-04-22T07:17:33Z</time>
      </trkpt>
      <trkpt lat="43.52782" lon="6.784">
        <ele>151.199997</ele>
        <time>2012-04-22T07:17:41Z</time>
      </trkpt>
      <trkpt lat="43.52784" lon="6.78391">
        <ele>151.399994</ele>
        <time>2012-04-22T07:17:45Z</time>
      </trkpt>
      <trkpt lat="43.52786" lon="6.78378">
        <ele>152</ele>
        <time>2012-04-22T07:17:49Z</time>
      </trkpt>
      <trkpt lat="43.52789" lon="6.78364">
        <ele>152.199997</ele>
        <time>2012-04-22T07:17:54Z</time>
      </trkpt>
      <trkpt lat="43.5279" lon="6.78352">
        <ele>152.600006</ele>
        <time>2012-04-22T07:17:58Z</time>
      </trkpt>
      <trkpt lat="43.5279" lon="6.78342">
        <ele>153.399994</ele>
        <time>2012-04-22T07:18:02Z</time>
      </trkpt>
      <trkpt lat="43.52793" lon="6.78329">
        <ele>153.600006</ele>
        <time>2012-04-22T07:18:07Z</time>
      </trkpt>
      <trkpt lat="43.52797" lon="6.7832">
        <ele>153.600006</ele>
        <time>2012-04-22T07:18:11Z</time>
      </trkpt>
      <trkpt lat="43.52799" lon="6.78312">
        <ele>154</ele>
        <time>2012-04-22T07:18:14Z</time>
      </trkpt>
      <trkpt lat="43.52801" lon="6.78303">
        <ele>154.600006</ele>
        <time>2012-04-22T07:18:18Z</time>
      </trkpt>
      <trkpt lat="43.52801" lon="6.78296">
        <ele>155.199997</ele>
        <time>2012-04-22T07:18:21Z</time>
      </trkpt>
      <trkpt lat="43.52799" lon="6.78289">
        <ele>156.800003</ele>
        <time>2012-04-22T07:18:24Z</time>
      </trkpt>
      <trkpt lat="43.52793" lon="6.78286">
        <ele>158.600006</ele>
        <time>2012-04-22T07:18:28Z</time>
      </trkpt>
      <trkpt lat="43.52789" lon="6.78291">
        <ele>159.199997</ele>
        <time>2012-04-22T07:18:32Z</time>
      </trkpt>
      <trkpt lat="43.52785" lon="6.78297">
        <ele>159.600006</ele>
        <time>2012-04-22T07:18:36Z</time>
      </trkpt>
      <trkpt lat="43.5278" lon="6.78304">
        <ele>160</ele>
        <time>2012-04-22T07:18:40Z</time>
      </trkpt>
      <trkpt lat="43.52775" lon="6.78313">
        <ele>160.399994</ele>
        <time>2012-04-22T07:18:45Z</time>
      </trkpt>
      <trkpt lat="43.52771" lon="6.78321">
        <ele>160.800003</ele>
        <time>2012-04-22T07:18:49Z</time>
      </trkpt>
      <trkpt lat="43.52768" lon="6.7833">
        <ele>160.800003</ele>
        <time>2012-04-22T07:18:53Z</time>
      </trkpt>
      <trkpt lat="43.52767" lon="6.78337">
        <ele>160.600006</ele>
        <time>2012-04-22T07:18:57Z</time>
      </trkpt>
      <trkpt lat="43.52761" lon="6.78355">
        <ele>160.399994</ele>
        <time>2012-04-22T07:19:06Z</time>
      </trkpt>
      <trkpt lat="43.52756" lon="6.78365">
        <ele>161</ele>
        <time>2012-04-22T07:19:10Z</time>
      </trkpt>
      <trkpt lat="43.52751" lon="6.78371">
        <ele>161.800003</ele>
        <time>2012-04-22T07:19:14Z</time>
      </trkpt>
      <trkpt lat="43.52744" lon="6.78374">
        <ele>162.800003</ele>
        <time>2012-04-22T07:19:18Z</time>
      </trkpt>
      <trkpt lat="43.52737" lon="6.78375">
        <ele>164</ele>
        <time>2012-04-22T07:19:22Z</time>
      </trkpt>
      <trkpt lat="43.52731" lon="6.78374">
        <ele>165.399994</ele>
        <time>2012-04-22T07:19:26Z</time>
      </trkpt>
      <trkpt lat="43.52724" lon="6.78374">
        <ele>166.800003</ele>
        <time>2012-04-22T07:19:30Z</time>
      </trkpt>
      <trkpt lat="43.52715" lon="6.78371">
        <ele>168.600006</ele>
        <time>2012-04-22T07:19:35Z</time>
      </trkpt>
      <trkpt lat="43.52709" lon="6.78367">
        <ele>170</ele>
        <time>2012-04-22T07:19:39Z</time>
      </trkpt>
      <trkpt lat="43.52703" lon="6.78362">
        <ele>171.399994</ele>
        <time>2012-04-22T07:19:43Z</time>
      </trkpt>
      <trkpt lat="43.52699" lon="6.78359">
        <ele>172.399994</ele>
        <time>2012-04-22T07:19:46Z</time>
      </trkpt>
      <trkpt lat="43.52693" lon="6.78354">
        <ele>173.399994</ele>
        <time>2012-04-22T07:19:50Z</time>
      </trkpt>
      <trkpt lat="43.52688" lon="6.78349">
        <ele>174.399994</ele>
        <time>2012-04-22T07:19:54Z</time>
      </trkpt>
      <trkpt lat="43.52682" lon="6.78342">
        <ele>175.600006</ele>
        <time>2012-04-22T07:19:59Z</time>
      </trkpt>
      <trkpt lat="43.52678" lon="6.78335">
        <ele>176.399994</ele>
        <time>2012-04-22T07:20:03Z</time>
      </trkpt>
      <trkpt lat="43.52674" lon="6.78327">
        <ele>177.399994</ele>
        <time>2012-04-22T07:20:07Z</time>
      </trkpt>
      <trkpt lat="43.52671" lon="6.78321">
        <ele>178.199997</ele>
        <time>2012-04-22T07:20:10Z</time>
      </trkpt>
      <trkpt lat="43.52666" lon="6.78314">
        <ele>179.399994</ele>
        <time>2012-04-22T07:20:14Z</time>
      </trkpt>
      <trkpt lat="43.52663" lon="6.78309">
        <ele>180</ele>
        <time>2012-04-22T07:20:17Z</time>
      </trkpt>
      <trkpt lat="43.52652" lon="6.78297">
        <ele>181.600006</ele>
        <time>2012-04-22T07:20:25Z</time>
      </trkpt>
      <trkpt lat="43.52647" lon="6.78291">
        <ele>182.399994</ele>
        <time>2012-04-22T07:20:29Z</time>
      </trkpt>
      <trkpt lat="43.52641" lon="6.78285">
        <ele>183.199997</ele>
        <time>2012-04-22T07:20:33Z</time>
      </trkpt>
      <trkpt lat="43.52629" lon="6.78274">
        <ele>184.600006</ele>
        <time>2012-04-22T07:20:40Z</time>
      </trkpt>
      <trkpt lat="43.52622" lon="6.78269">
        <ele>185.199997</ele>
        <time>2012-04-22T07:20:44Z</time>
      </trkpt>
      <trkpt lat="43.52616" lon="6.78265">
        <ele>185.800003</ele>
        <time>2012-04-22T07:20:48Z</time>
      </trkpt>
      <trkpt lat="43.52605" lon="6.78256">
        <ele>186.800003</ele>
        <time>2012-04-22T07:20:55Z</time>
      </trkpt>
      <trkpt lat="43.52599" lon="6.78252">
        <ele>187.199997</ele>
        <time>2012-04-22T07:20:59Z</time>
      </trkpt>
      <trkpt lat="43.52593" lon="6.78247">
        <ele>187.600006</ele>
        <time>2012-04-22T07:21:03Z</time>
      </trkpt>
      <trkpt lat="43.52588" lon="6.78244">
        <ele>187.800003</ele>
        <time>2012-04-22T07:21:06Z</time>
      </trkpt>
      <trkpt lat="43.52582" lon="6.7824">
        <ele>188.199997</ele>
        <time>2012-04-22T07:21:10Z</time>
      </trkpt>
      <trkpt lat="43.5257" lon="6.78239">
        <ele>188.199997</ele>
        <time>2012-04-22T07:21:16Z</time>
      </trkpt>
      <trkpt lat="43.52563" lon="6.78238">
        <ele>188.199997</ele>
        <time>2012-04-22T07:21:20Z</time>
      </trkpt>
      <trkpt lat="43.52556" lon="6.78239">
        <ele>188.199997</ele>
        <time>2012-04-22T07:21:24Z</time>
      </trkpt>
      <trkpt lat="43.52549" lon="6.78244">
        <ele>188.199997</ele>
        <time>2012-04-22T07:21:29Z</time>
      </trkpt>
      <trkpt lat="43.52547" lon="6.78251">
        <ele>188.399994</ele>
        <time>2012-04-22T07:21:33Z</time>
      </trkpt>
      <trkpt lat="43.52544" lon="6.78262">
        <ele>188.800003</ele>
        <time>2012-04-22T07:21:38Z</time>
      </trkpt>
      <trkpt lat="43.52544" lon="6.78272">
        <ele>189.199997</ele>
        <time>2012-04-22T07:21:42Z</time>
      </trkpt>
      <trkpt lat="43.52543" lon="6.78291">
        <ele>190</ele>
        <time>2012-04-22T07:21:49Z</time>
      </trkpt>
      <trkpt lat="43.52542" lon="6.78302">
        <ele>190.399994</ele>
        <time>2012-04-22T07:21:53Z</time>
      </trkpt>
      <trkpt lat="43.52542" lon="6.78313">
        <ele>190.800003</ele>
        <time>2012-04-22T07:21:57Z</time>
      </trkpt>
      <trkpt lat="43.52541" lon="6.78322">
        <ele>191.199997</ele>
        <time>2012-04-22T07:22:01Z</time>
      </trkpt>
      <trkpt lat="43.52539" lon="6.7834">
        <ele>192.600006</ele>
        <time>2012-04-22T07:22:08Z</time>
      </trkpt>
      <trkpt lat="43.52537" lon="6.78351">
        <ele>194.199997</ele>
        <time>2012-04-22T07:22:12Z</time>
      </trkpt>
      <trkpt lat="43.52535" lon="6.78361">
        <ele>195.600006</ele>
        <time>2012-04-22T07:22:16Z</time>
      </trkpt>
      <trkpt lat="43.52535" lon="6.78369">
        <ele>196.600006</ele>
        <time>2012-04-22T07:22:19Z</time>
      </trkpt>
      <trkpt lat="43.52537" lon="6.78378">
        <ele>197.399994</ele>
        <time>2012-04-22T07:22:23Z</time>
      </trkpt>
      <trkpt lat="43.52539" lon="6.78387">
        <ele>198</ele>
        <time>2012-04-22T07:22:27Z</time>
      </trkpt>
      <trkpt lat="43.52543" lon="6.78406">
        <ele>199.399994</ele>
        <time>2012-04-22T07:22:34Z</time>
      </trkpt>
      <trkpt lat="43.52545" lon="6.78415">
        <ele>200</ele>
        <time>2012-04-22T07:22:38Z</time>
      </trkpt>
      <trkpt lat="43.52549" lon="6.78423">
        <ele>201.199997</ele>
        <time>2012-04-22T07:22:42Z</time>
      </trkpt>
      <trkpt lat="43.52552" lon="6.78428">
        <ele>201.800003</ele>
        <time>2012-04-22T07:22:47Z</time>
      </trkpt>
      <trkpt lat="43.52557" lon="6.78438">
        <ele>203.199997</ele>
        <time>2012-04-22T07:22:51Z</time>
      </trkpt>
      <trkpt lat="43.52561" lon="6.78442">
        <ele>203.600006</ele>
        <time>2012-04-22T07:22:53Z</time>
      </trkpt>
      <trkpt lat="43.52572" lon="6.78456">
        <ele>204.399994</ele>
        <time>2012-04-22T07:23:01Z</time>
      </trkpt>
      <trkpt lat="43.52576" lon="6.78464">
        <ele>204.800003</ele>
        <time>2012-04-22T07:23:05Z</time>
      </trkpt>
      <trkpt lat="43.52581" lon="6.78472">
        <ele>205.399994</ele>
        <time>2012-04-22T07:23:09Z</time>
      </trkpt>
      <trkpt lat="43.52592" lon="6.78487">
        <ele>206</ele>
        <time>2012-04-22T07:23:16Z</time>
      </trkpt>
      <trkpt lat="43.52596" lon="6.78493">
        <ele>206</ele>
        <time>2012-04-22T07:23:19Z</time>
      </trkpt>
      <trkpt lat="43.52599" lon="6.785">
        <ele>206.800003</ele>
        <time>2012-04-22T07:23:23Z</time>
      </trkpt>
      <trkpt lat="43.52605" lon="6.78517">
        <ele>209.199997</ele>
        <time>2012-04-22T07:23:30Z</time>
      </trkpt>
      <trkpt lat="43.52614" lon="6.7853">
        <ele>209.600006</ele>
        <time>2012-04-22T07:23:36Z</time>
      </trkpt>
      <trkpt lat="43.5262" lon="6.78536">
        <ele>209</ele>
        <time>2012-04-22T07:23:40Z</time>
      </trkpt>
      <trkpt lat="43.52626" lon="6.78542">
        <ele>208.399994</ele>
        <time>2012-04-22T07:23:44Z</time>
      </trkpt>
      <trkpt lat="43.5263" lon="6.78548">
        <ele>208.199997</ele>
        <time>2012-04-22T07:23:47Z</time>
      </trkpt>
      <trkpt lat="43.52635" lon="6.78556">
        <ele>208.199997</ele>
        <time>2012-04-22T07:23:51Z</time>
      </trkpt>
      <trkpt lat="43.52638" lon="6.78562">
        <ele>208.199997</ele>
        <time>2012-04-22T07:23:54Z</time>
      </trkpt>
      <trkpt lat="43.52642" lon="6.78569">
        <ele>207.800003</ele>
        <time>2012-04-22T07:23:58Z</time>
      </trkpt>
      <trkpt lat="43.52647" lon="6.78575">
        <ele>207.199997</ele>
        <time>2012-04-22T07:24:02Z</time>
      </trkpt>
      <trkpt lat="43.52651" lon="6.78582">
        <ele>206.800003</ele>
        <time>2012-04-22T07:24:06Z</time>
      </trkpt>
      <trkpt lat="43.52658" lon="6.78594">
        <ele>203.600006</ele>
        <time>2012-04-22T07:24:12Z</time>
      </trkpt>
      <trkpt lat="43.52654" lon="6.786">
        <ele>204.800003</ele>
        <time>2012-04-22T07:25:58Z</time>
      </trkpt>
      <trkpt lat="43.52649" lon="6.78603">
        <ele>206.600006</ele>
        <time>2012-04-22T07:26:05Z</time>
      </trkpt>
      <trkpt lat="43.52645" lon="6.786">
        <ele>208.600006</ele>
        <time>2012-04-22T07:26:09Z</time>
      </trkpt>
      <trkpt lat="43.52636" lon="6.78581">
        <ele>212.399994</ele>
        <time>2012-04-22T07:26:17Z</time>
      </trkpt>
      <trkpt lat="43.5263" lon="6.78575">
        <ele>213.800003</ele>
        <time>2012-04-22T07:26:21Z</time>
      </trkpt>
      <trkpt lat="43.52623" lon="6.7857">
        <ele>215.399994</ele>
        <time>2012-04-22T07:26:25Z</time>
      </trkpt>
      <trkpt lat="43.52618" lon="6.78566">
        <ele>216.399994</ele>
        <time>2012-04-22T07:26:28Z</time>
      </trkpt>
      <trkpt lat="43.5261" lon="6.78561">
        <ele>218</ele>
        <time>2012-04-22T07:26:33Z</time>
      </trkpt>
      <trkpt lat="43.52604" lon="6.78556">
        <ele>219.199997</ele>
        <time>2012-04-22T07:26:36Z</time>
      </trkpt>
      <trkpt lat="43.5259" lon="6.78546">
        <ele>221.600006</ele>
        <time>2012-04-22T07:26:44Z</time>
      </trkpt>
      <trkpt lat="43.52585" lon="6.78543">
        <ele>222.399994</ele>
        <time>2012-04-22T07:26:47Z</time>
      </trkpt>
      <trkpt lat="43.52578" lon="6.78538">
        <ele>223.199997</ele>
        <time>2012-04-22T07:26:51Z</time>
      </trkpt>
      <trkpt lat="43.52566" lon="6.78529">
        <ele>224.600006</ele>
        <time>2012-04-22T07:26:58Z</time>
      </trkpt>
      <trkpt lat="43.52556" lon="6.78524">
        <ele>226.199997</ele>
        <time>2012-04-22T07:27:02Z</time>
      </trkpt>
      <trkpt lat="43.52551" lon="6.78521">
        <ele>226.800003</ele>
        <time>2012-04-22T07:27:04Z</time>
      </trkpt>
      <trkpt lat="43.52544" lon="6.78516">
        <ele>227.399994</ele>
        <time>2012-04-22T07:27:08Z</time>
      </trkpt>
      <trkpt lat="43.52527" lon="6.78506">
        <ele>229</ele>
        <time>2012-04-22T07:27:16Z</time>
      </trkpt>
      <trkpt lat="43.52521" lon="6.78501">
        <ele>229.199997</ele>
        <time>2012-04-22T07:27:20Z</time>
      </trkpt>
      <trkpt lat="43.52516" lon="6.78494">
        <ele>228.600006</ele>
        <time>2012-04-22T07:27:24Z</time>
      </trkpt>
      <trkpt lat="43.52504" lon="6.78484">
        <ele>228.800003</ele>
        <time>2012-04-22T07:27:31Z</time>
      </trkpt>
      <trkpt lat="43.52497" lon="6.78479">
        <ele>228.800003</ele>
        <time>2012-04-22T07:27:35Z</time>
      </trkpt>
      <trkpt lat="43.5249" lon="6.78475">
        <ele>228</ele>
        <time>2012-04-22T07:27:39Z</time>
      </trkpt>
      <trkpt lat="43.52486" lon="6.78472">
        <ele>227.800003</ele>
        <time>2012-04-22T07:27:42Z</time>
      </trkpt>
      <trkpt lat="43.52478" lon="6.78468">
        <ele>227.399994</ele>
        <time>2012-04-22T07:27:46Z</time>
      </trkpt>
      <trkpt lat="43.52458" lon="6.78467">
        <ele>229.199997</ele>
        <time>2012-04-22T07:27:55Z</time>
      </trkpt>
      <trkpt lat="43.52449" lon="6.78468">
        <ele>230.399994</ele>
        <time>2012-04-22T07:27:59Z</time>
      </trkpt>
      <trkpt lat="43.52441" lon="6.78471">
        <ele>232</ele>
        <time>2012-04-22T07:28:03Z</time>
      </trkpt>
      <trkpt lat="43.52437" lon="6.78473">
        <ele>233</ele>
        <time>2012-04-22T07:28:05Z</time>
      </trkpt>
      <trkpt lat="43.52432" lon="6.78475">
        <ele>234.199997</ele>
        <time>2012-04-22T07:28:07Z</time>
      </trkpt>
      <trkpt lat="43.52425" lon="6.78477">
        <ele>235.600006</ele>
        <time>2012-04-22T07:28:10Z</time>
      </trkpt>
      <trkpt lat="43.52418" lon="6.7848">
        <ele>237.199997</ele>
        <time>2012-04-22T07:28:14Z</time>
      </trkpt>
      <trkpt lat="43.52408" lon="6.78484">
        <ele>239.399994</ele>
        <time>2012-04-22T07:28:18Z</time>
      </trkpt>
      <trkpt lat="43.52402" lon="6.78486">
        <ele>241</ele>
        <time>2012-04-22T07:28:21Z</time>
      </trkpt>
      <trkpt lat="43.52393" lon="6.78489">
        <ele>243.399994</ele>
        <time>2012-04-22T07:28:25Z</time>
      </trkpt>
      <trkpt lat="43.52385" lon="6.78494">
        <ele>245.800003</ele>
        <time>2012-04-22T07:28:29Z</time>
      </trkpt>
      <trkpt lat="43.5238" lon="6.78496">
        <ele>247.199997</ele>
        <time>2012-04-22T07:28:32Z</time>
      </trkpt>
      <trkpt lat="43.52372" lon="6.78491">
        <ele>247</ele>
        <time>2012-04-22T07:28:36Z</time>
      </trkpt>
      <trkpt lat="43.52371" lon="6.78479">
        <ele>243.600006</ele>
        <time>2012-04-22T07:28:40Z</time>
      </trkpt>
      <trkpt lat="43.52372" lon="6.78465">
        <ele>239.399994</ele>
        <time>2012-04-22T07:28:44Z</time>
      </trkpt>
      <trkpt lat="43.52364" lon="6.78449">
        <ele>235.800003</ele>
        <time>2012-04-22T07:28:50Z</time>
      </trkpt>
      <trkpt lat="43.52356" lon="6.78445">
        <ele>235.800003</ele>
        <time>2012-04-22T07:28:54Z</time>
      </trkpt>
      <trkpt lat="43.52348" lon="6.78443">
        <ele>236.399994</ele>
        <time>2012-04-22T07:28:58Z</time>
      </trkpt>
      <trkpt lat="43.52343" lon="6.78442">
        <ele>236.800003</ele>
        <time>2012-04-22T07:29:00Z</time>
      </trkpt>
      <trkpt lat="43.52329" lon="6.78439">
        <ele>237.600006</ele>
        <time>2012-04-22T07:29:06Z</time>
      </trkpt>
      <trkpt lat="43.52323" lon="6.78439">
        <ele>237.600006</ele>
        <time>2012-04-22T07:29:08Z</time>
      </trkpt>
      <trkpt lat="43.52318" lon="6.78439">
        <ele>238</ele>
        <time>2012-04-22T07:29:10Z</time>
      </trkpt>
      <trkpt lat="43.52312" lon="6.7844">
        <ele>238.199997</ele>
        <time>2012-04-22T07:29:12Z</time>
      </trkpt>
      <trkpt lat="43.52308" lon="6.7844">
        <ele>238.600006</ele>
        <time>2012-04-22T07:29:14Z</time>
      </trkpt>
      <trkpt lat="43.52289" lon="6.78444">
        <ele>240.399994</ele>
        <time>2012-04-22T07:29:23Z</time>
      </trkpt>
      <trkpt lat="43.52281" lon="6.7845">
        <ele>242.800003</ele>
        <time>2012-04-22T07:29:27Z</time>
      </trkpt>
      <trkpt lat="43.52277" lon="6.78454">
        <ele>244.199997</ele>
        <time>2012-04-22T07:29:29Z</time>
      </trkpt>
      <trkpt lat="43.5227" lon="6.78461">
        <ele>247</ele>
        <time>2012-04-22T07:29:33Z</time>
      </trkpt>
      <trkpt lat="43.52265" lon="6.78466">
        <ele>249</ele>
        <time>2012-04-22T07:29:36Z</time>
      </trkpt>
      <trkpt lat="43.52258" lon="6.78469">
        <ele>250.399994</ele>
        <time>2012-04-22T07:29:40Z</time>
      </trkpt>
      <trkpt lat="43.52253" lon="6.78468">
        <ele>250.399994</ele>
        <time>2012-04-22T07:29:42Z</time>
      </trkpt>
      <trkpt lat="43.52248" lon="6.78467">
        <ele>250.199997</ele>
        <time>2012-04-22T07:29:44Z</time>
      </trkpt>
      <trkpt lat="43.5223" lon="6.78457">
        <ele>247.199997</ele>
        <time>2012-04-22T07:29:52Z</time>
      </trkpt>
      <trkpt lat="43.52224" lon="6.78454">
        <ele>246.399994</ele>
        <time>2012-04-22T07:29:55Z</time>
      </trkpt>
      <trkpt lat="43.52219" lon="6.78452">
        <ele>245.800003</ele>
        <time>2012-04-22T07:29:57Z</time>
      </trkpt>
      <trkpt lat="43.52214" lon="6.7845">
        <ele>245.199997</ele>
        <time>2012-04-22T07:29:59Z</time>
      </trkpt>
      <trkpt lat="43.52198" lon="6.78444">
        <ele>243.399994</ele>
        <time>2012-04-22T07:30:07Z</time>
      </trkpt>
      <trkpt lat="43.52193" lon="6.78444">
        <ele>243.600006</ele>
        <time>2012-04-22T07:30:09Z</time>
      </trkpt>
      <trkpt lat="43.52188" lon="6.78445">
        <ele>244</ele>
        <time>2012-04-22T07:30:11Z</time>
      </trkpt>
      <trkpt lat="43.52183" lon="6.78446">
        <ele>244.399994</ele>
        <time>2012-04-22T07:30:13Z</time>
      </trkpt>
      <trkpt lat="43.52174" lon="6.78449">
        <ele>245.600006</ele>
        <time>2012-04-22T07:30:17Z</time>
      </trkpt>
      <trkpt lat="43.52169" lon="6.78451">
        <ele>246.600006</ele>
        <time>2012-04-22T07:30:19Z</time>
      </trkpt>
      <trkpt lat="43.52164" lon="6.78453">
        <ele>247.199997</ele>
        <time>2012-04-22T07:30:21Z</time>
      </trkpt>
      <trkpt lat="43.52159" lon="6.78456">
        <ele>247.399994</ele>
        <time>2012-04-22T07:30:23Z</time>
      </trkpt>
      <trkpt lat="43.52154" lon="6.78458">
        <ele>247.399994</ele>
        <time>2012-04-22T07:30:25Z</time>
      </trkpt>
      <trkpt lat="43.52142" lon="6.78463">
        <ele>247.399994</ele>
        <time>2012-04-22T07:30:30Z</time>
      </trkpt>
      <trkpt lat="43.52127" lon="6.78472">
        <ele>247.600006</ele>
        <time>2012-04-22T07:30:36Z</time>
      </trkpt>
      <trkpt lat="43.52123" lon="6.78475">
        <ele>247.600006</ele>
        <time>2012-04-22T07:30:38Z</time>
      </trkpt>
      <trkpt lat="43.52118" lon="6.78478">
        <ele>247.800003</ele>
        <time>2012-04-22T07:30:40Z</time>
      </trkpt>
      <trkpt lat="43.52114" lon="6.78482">
        <ele>248.199997</ele>
        <time>2012-04-22T07:30:42Z</time>
      </trkpt>
      <trkpt lat="43.52111" lon="6.78487">
        <ele>249</ele>
        <time>2012-04-22T07:30:44Z</time>
      </trkpt>
      <trkpt lat="43.52108" lon="6.78499">
        <ele>252.199997</ele>
        <time>2012-04-22T07:30:48Z</time>
      </trkpt>
      <trkpt lat="43.52109" lon="6.78507">
        <ele>254.399994</ele>
        <time>2012-04-22T07:30:50Z</time>
      </trkpt>
      <trkpt lat="43.52111" lon="6.78513">
        <ele>256.399994</ele>
        <time>2012-04-22T07:30:52Z</time>
      </trkpt>
      <trkpt lat="43.52114" lon="6.78524">
        <ele>260.200012</ele>
        <time>2012-04-22T07:30:56Z</time>
      </trkpt>
      <trkpt lat="43.52115" lon="6.78531">
        <ele>262.399994</ele>
        <time>2012-04-22T07:30:59Z</time>
      </trkpt>
      <trkpt lat="43.52112" lon="6.7854">
        <ele>264</ele>
        <time>2012-04-22T07:31:03Z</time>
      </trkpt>
      <trkpt lat="43.52108" lon="6.78545">
        <ele>264.399994</ele>
        <time>2012-04-22T07:31:05Z</time>
      </trkpt>
      <trkpt lat="43.52093" lon="6.78557">
        <ele>264.200012</ele>
        <time>2012-04-22T07:31:13Z</time>
      </trkpt>
      <trkpt lat="43.52085" lon="6.78565">
        <ele>264.600006</ele>
        <time>2012-04-22T07:31:17Z</time>
      </trkpt>
      <trkpt lat="43.52078" lon="6.78571">
        <ele>265.200012</ele>
        <time>2012-04-22T07:31:21Z</time>
      </trkpt>
      <trkpt lat="43.52064" lon="6.78583">
        <ele>266.600006</ele>
        <time>2012-04-22T07:31:29Z</time>
      </trkpt>
      <trkpt lat="43.52059" lon="6.78587">
        <ele>267.399994</ele>
        <time>2012-04-22T07:31:32Z</time>
      </trkpt>
      <trkpt lat="43.52051" lon="6.78589">
        <ele>267</ele>
        <time>2012-04-22T07:31:36Z</time>
      </trkpt>
      <trkpt lat="43.52034" lon="6.78589">
        <ele>264.799988</ele>
        <time>2012-04-22T07:31:44Z</time>
      </trkpt>
      <trkpt lat="43.52027" lon="6.78588">
        <ele>264</ele>
        <time>2012-04-22T07:31:47Z</time>
      </trkpt>
      <trkpt lat="43.52019" lon="6.7859">
        <ele>263.200012</ele>
        <time>2012-04-22T07:31:51Z</time>
      </trkpt>
      <trkpt lat="43.52006" lon="6.78593">
        <ele>263</ele>
        <time>2012-04-22T07:31:57Z</time>
      </trkpt>
      <trkpt lat="43.51997" lon="6.78597">
        <ele>263.399994</ele>
        <time>2012-04-22T07:32:01Z</time>
      </trkpt>
      <trkpt lat="43.51989" lon="6.786">
        <ele>264.600006</ele>
        <time>2012-04-22T07:32:05Z</time>
      </trkpt>
      <trkpt lat="43.51977" lon="6.78609">
        <ele>267.399994</ele>
        <time>2012-04-22T07:32:11Z</time>
      </trkpt>
      <trkpt lat="43.51973" lon="6.78612">
        <ele>268.600006</ele>
        <time>2012-04-22T07:32:13Z</time>
      </trkpt>
      <trkpt lat="43.51968" lon="6.78617">
        <ele>270</ele>
        <time>2012-04-22T07:32:15Z</time>
      </trkpt>
      <trkpt lat="43.51965" lon="6.78622">
        <ele>271.200012</ele>
        <time>2012-04-22T07:32:17Z</time>
      </trkpt>
      <trkpt lat="43.51957" lon="6.78632">
        <ele>274.399994</ele>
        <time>2012-04-22T07:32:23Z</time>
      </trkpt>
      <trkpt lat="43.51952" lon="6.78639">
        <ele>276.200012</ele>
        <time>2012-04-22T07:32:27Z</time>
      </trkpt>
      <trkpt lat="43.51946" lon="6.78644">
        <ele>277.600006</ele>
        <time>2012-04-22T07:32:31Z</time>
      </trkpt>
      <trkpt lat="43.51938" lon="6.78648">
        <ele>278.399994</ele>
        <time>2012-04-22T07:32:37Z</time>
      </trkpt>
      <trkpt lat="43.51931" lon="6.78648">
        <ele>278.399994</ele>
        <time>2012-04-22T07:32:41Z</time>
      </trkpt>
      <trkpt lat="43.51924" lon="6.7865">
        <ele>278.799988</ele>
        <time>2012-04-22T07:32:45Z</time>
      </trkpt>
      <trkpt lat="43.51913" lon="6.78658">
        <ele>281</ele>
        <time>2012-04-22T07:32:51Z</time>
      </trkpt>
      <trkpt lat="43.51906" lon="6.7866">
        <ele>282.600006</ele>
        <time>2012-04-22T07:32:55Z</time>
      </trkpt>
      <trkpt lat="43.51898" lon="6.7866">
        <ele>283.399994</ele>
        <time>2012-04-22T07:32:59Z</time>
      </trkpt>
      <trkpt lat="43.51894" lon="6.78657">
        <ele>283.399994</ele>
        <time>2012-04-22T07:33:02Z</time>
      </trkpt>
      <trkpt lat="43.5189" lon="6.78652">
        <ele>282.799988</ele>
        <time>2012-04-22T07:33:06Z</time>
      </trkpt>
      <trkpt lat="43.51887" lon="6.78646">
        <ele>281.799988</ele>
        <time>2012-04-22T07:33:10Z</time>
      </trkpt>
      <trkpt lat="43.51883" lon="6.78634">
        <ele>280</ele>
        <time>2012-04-22T07:33:17Z</time>
      </trkpt>
      <trkpt lat="43.51881" lon="6.78618">
        <ele>277</ele>
        <time>2012-04-22T07:33:25Z</time>
      </trkpt>
      <trkpt lat="43.51878" lon="6.78609">
        <ele>275.799988</ele>
        <time>2012-04-22T07:33:30Z</time>
      </trkpt>
      <trkpt lat="43.51874" lon="6.78603">
        <ele>275.600006</ele>
        <time>2012-04-22T07:33:34Z</time>
      </trkpt>
      <trkpt lat="43.51864" lon="6.78592">
        <ele>275.600006</ele>
        <time>2012-04-22T07:33:42Z</time>
      </trkpt>
      <trkpt lat="43.51858" lon="6.78583">
        <ele>275.600006</ele>
        <time>2012-04-22T07:33:47Z</time>
      </trkpt>
      <trkpt lat="43.51854" lon="6.78575">
        <ele>276.200012</ele>
        <time>2012-04-22T07:33:51Z</time>
      </trkpt>
      <trkpt lat="43.51843" lon="6.78554">
        <ele>276.799988</ele>
        <time>2012-04-22T07:34:01Z</time>
      </trkpt>
      <trkpt lat="43.51841" lon="6.78534">
        <ele>275.399994</ele>
        <time>2012-04-22T07:34:09Z</time>
      </trkpt>
      <trkpt lat="43.51842" lon="6.78526">
        <ele>274.399994</ele>
        <time>2012-04-22T07:34:14Z</time>
      </trkpt>
      <trkpt lat="43.51838" lon="6.78517">
        <ele>274.399994</ele>
        <time>2012-04-22T07:34:22Z</time>
      </trkpt>
      <trkpt lat="43.51833" lon="6.78525">
        <ele>276.399994</ele>
        <time>2012-04-22T07:34:29Z</time>
      </trkpt>
      <trkpt lat="43.5183" lon="6.78539">
        <ele>277.399994</ele>
        <time>2012-04-22T07:34:35Z</time>
      </trkpt>
      <trkpt lat="43.51831" lon="6.78546">
        <ele>278.200012</ele>
        <time>2012-04-22T07:34:38Z</time>
      </trkpt>
      <trkpt lat="43.51832" lon="6.78555">
        <ele>279.200012</ele>
        <time>2012-04-22T07:34:42Z</time>
      </trkpt>
      <trkpt lat="43.51836" lon="6.78563">
        <ele>279.600006</ele>
        <time>2012-04-22T07:34:46Z</time>
      </trkpt>
      <trkpt lat="43.51841" lon="6.78574">
        <ele>279.200012</ele>
        <time>2012-04-22T07:34:51Z</time>
      </trkpt>
      <trkpt lat="43.51845" lon="6.78582">
        <ele>279</ele>
        <time>2012-04-22T07:34:55Z</time>
      </trkpt>
      <trkpt lat="43.51849" lon="6.78591">
        <ele>279.200012</ele>
        <time>2012-04-22T07:34:59Z</time>
      </trkpt>
      <trkpt lat="43.51853" lon="6.786">
        <ele>279.600006</ele>
        <time>2012-04-22T07:35:03Z</time>
      </trkpt>
      <trkpt lat="43.51859" lon="6.78614">
        <ele>280.600006</ele>
        <time>2012-04-22T07:35:09Z</time>
      </trkpt>
      <trkpt lat="43.51861" lon="6.7862">
        <ele>281.200012</ele>
        <time>2012-04-22T07:35:12Z</time>
      </trkpt>
      <trkpt lat="43.51863" lon="6.78627">
        <ele>282</ele>
        <time>2012-04-22T07:35:15Z</time>
      </trkpt>
      <trkpt lat="43.51864" lon="6.78634">
        <ele>283</ele>
        <time>2012-04-22T07:35:18Z</time>
      </trkpt>
      <trkpt lat="43.51865" lon="6.78642">
        <ele>284.399994</ele>
        <time>2012-04-22T07:35:21Z</time>
      </trkpt>
      <trkpt lat="43.51867" lon="6.78667">
        <ele>288.399994</ele>
        <time>2012-04-22T07:35:31Z</time>
      </trkpt>
      <trkpt lat="43.51871" lon="6.78677">
        <ele>289.600006</ele>
        <time>2012-04-22T07:35:35Z</time>
      </trkpt>
      <trkpt lat="43.51875" lon="6.78686">
        <ele>290.600006</ele>
        <time>2012-04-22T07:35:39Z</time>
      </trkpt>
      <trkpt lat="43.51878" lon="6.78693">
        <ele>291.799988</ele>
        <time>2012-04-22T07:35:43Z</time>
      </trkpt>
      <trkpt lat="43.51883" lon="6.78703">
        <ele>293.399994</ele>
        <time>2012-04-22T07:35:49Z</time>
      </trkpt>
      <trkpt lat="43.51887" lon="6.78709">
        <ele>294.600006</ele>
        <time>2012-04-22T07:35:52Z</time>
      </trkpt>
      <trkpt lat="43.51895" lon="6.78715">
        <ele>295.600006</ele>
        <time>2012-04-22T07:35:56Z</time>
      </trkpt>
      <trkpt lat="43.519" lon="6.78716">
        <ele>296</ele>
        <time>2012-04-22T07:35:58Z</time>
      </trkpt>
      <trkpt lat="43.51905" lon="6.78716">
        <ele>296</ele>
        <time>2012-04-22T07:36:00Z</time>
      </trkpt>
      <trkpt lat="43.51925" lon="6.78715">
        <ele>296.600006</ele>
        <time>2012-04-22T07:36:09Z</time>
      </trkpt>
      <trkpt lat="43.51932" lon="6.78716">
        <ele>297.200012</ele>
        <time>2012-04-22T07:36:12Z</time>
      </trkpt>
      <trkpt lat="43.5194" lon="6.78719">
        <ele>298.799988</ele>
        <time>2012-04-22T07:36:16Z</time>
      </trkpt>
      <trkpt lat="43.51959" lon="6.78719">
        <ele>300.600006</ele>
        <time>2012-04-22T07:36:25Z</time>
      </trkpt>
      <trkpt lat="43.51965" lon="6.78717">
        <ele>300.600006</ele>
        <time>2012-04-22T07:36:28Z</time>
      </trkpt>
      <trkpt lat="43.51971" lon="6.78713">
        <ele>299.600006</ele>
        <time>2012-04-22T07:36:32Z</time>
      </trkpt>
      <trkpt lat="43.5198" lon="6.78703">
        <ele>297.399994</ele>
        <time>2012-04-22T07:36:39Z</time>
      </trkpt>
      <trkpt lat="43.5199" lon="6.78696">
        <ele>295.600006</ele>
        <time>2012-04-22T07:36:46Z</time>
      </trkpt>
      <trkpt lat="43.51995" lon="6.78694">
        <ele>295.200012</ele>
        <time>2012-04-22T07:36:48Z</time>
      </trkpt>
      <trkpt lat="43.51999" lon="6.78692">
        <ele>294.799988</ele>
        <time>2012-04-22T07:36:50Z</time>
      </trkpt>
      <trkpt lat="43.52004" lon="6.78691">
        <ele>294.799988</ele>
        <time>2012-04-22T07:36:53Z</time>
      </trkpt>
      <trkpt lat="43.52012" lon="6.7869">
        <ele>295.600006</ele>
        <time>2012-04-22T07:36:56Z</time>
      </trkpt>
      <trkpt lat="43.52024" lon="6.78689">
        <ele>297</ele>
        <time>2012-04-22T07:37:01Z</time>
      </trkpt>
      <trkpt lat="43.52028" lon="6.78689">
        <ele>297.600006</ele>
        <time>2012-04-22T07:37:03Z</time>
      </trkpt>
      <trkpt lat="43.52033" lon="6.78689">
        <ele>298.399994</ele>
        <time>2012-04-22T07:37:05Z</time>
      </trkpt>
      <trkpt lat="43.52038" lon="6.7869">
        <ele>299.200012</ele>
        <time>2012-04-22T07:37:07Z</time>
      </trkpt>
      <trkpt lat="43.52046" lon="6.78693">
        <ele>301.399994</ele>
        <time>2012-04-22T07:37:11Z</time>
      </trkpt>
      <trkpt lat="43.52058" lon="6.78698">
        <ele>304.799988</ele>
        <time>2012-04-22T07:37:17Z</time>
      </trkpt>
      <trkpt lat="43.52065" lon="6.78698">
        <ele>305.600006</ele>
        <time>2012-04-22T07:37:20Z</time>
      </trkpt>
      <trkpt lat="43.52073" lon="6.78696">
        <ele>306.200012</ele>
        <time>2012-04-22T07:37:24Z</time>
      </trkpt>
      <trkpt lat="43.52092" lon="6.78688">
        <ele>306.399994</ele>
        <time>2012-04-22T07:37:34Z</time>
      </trkpt>
      <trkpt lat="43.52099" lon="6.78684">
        <ele>306.200012</ele>
        <time>2012-04-22T07:37:37Z</time>
      </trkpt>
      <trkpt lat="43.52107" lon="6.78681">
        <ele>306.399994</ele>
        <time>2012-04-22T07:37:41Z</time>
      </trkpt>
      <trkpt lat="43.52115" lon="6.78678">
        <ele>307</ele>
        <time>2012-04-22T07:37:45Z</time>
      </trkpt>
      <trkpt lat="43.52136" lon="6.78673">
        <ele>309.200012</ele>
        <time>2012-04-22T07:37:55Z</time>
      </trkpt>
      <trkpt lat="43.52141" lon="6.78672">
        <ele>309.799988</ele>
        <time>2012-04-22T07:37:58Z</time>
      </trkpt>
      <trkpt lat="43.52148" lon="6.78671">
        <ele>311</ele>
        <time>2012-04-22T07:38:01Z</time>
      </trkpt>
      <trkpt lat="43.52157" lon="6.78669">
        <ele>312</ele>
        <time>2012-04-22T07:38:05Z</time>
      </trkpt>
      <trkpt lat="43.52165" lon="6.78666">
        <ele>312.600006</ele>
        <time>2012-04-22T07:38:09Z</time>
      </trkpt>
      <trkpt lat="43.52172" lon="6.78661">
        <ele>311.799988</ele>
        <time>2012-04-22T07:38:13Z</time>
      </trkpt>
      <trkpt lat="43.52178" lon="6.78651">
        <ele>309.600006</ele>
        <time>2012-04-22T07:38:18Z</time>
      </trkpt>
      <trkpt lat="43.52183" lon="6.78642">
        <ele>307.399994</ele>
        <time>2012-04-22T07:38:22Z</time>
      </trkpt>
      <trkpt lat="43.52189" lon="6.78634">
        <ele>305.600006</ele>
        <time>2012-04-22T07:38:26Z</time>
      </trkpt>
      <trkpt lat="43.52202" lon="6.78623">
        <ele>303.200012</ele>
        <time>2012-04-22T07:38:33Z</time>
      </trkpt>
      <trkpt lat="43.5221" lon="6.78623">
        <ele>304</ele>
        <time>2012-04-22T07:38:37Z</time>
      </trkpt>
      <trkpt lat="43.52219" lon="6.78626">
        <ele>305.600006</ele>
        <time>2012-04-22T07:38:41Z</time>
      </trkpt>
      <trkpt lat="43.52234" lon="6.78633">
        <ele>309.399994</ele>
        <time>2012-04-22T07:38:49Z</time>
      </trkpt>
      <trkpt lat="43.52242" lon="6.78637">
        <ele>311.399994</ele>
        <time>2012-04-22T07:38:53Z</time>
      </trkpt>
      <trkpt lat="43.52251" lon="6.78639">
        <ele>313</ele>
        <time>2012-04-22T07:38:57Z</time>
      </trkpt>
      <trkpt lat="43.52258" lon="6.7864">
        <ele>311.799988</ele>
        <time>2012-04-22T07:39:01Z</time>
      </trkpt>
      <trkpt lat="43.52268" lon="6.78642">
        <ele>310.799988</ele>
        <time>2012-04-22T07:39:06Z</time>
      </trkpt>
      <trkpt lat="43.52275" lon="6.78648">
        <ele>311.600006</ele>
        <time>2012-04-22T07:39:10Z</time>
      </trkpt>
      <trkpt lat="43.52281" lon="6.78656">
        <ele>313</ele>
        <time>2012-04-22T07:39:14Z</time>
      </trkpt>
      <trkpt lat="43.52288" lon="6.78667">
        <ele>315.399994</ele>
        <time>2012-04-22T07:39:20Z</time>
      </trkpt>
      <trkpt lat="43.52294" lon="6.78678">
        <ele>317.799988</ele>
        <time>2012-04-22T07:39:25Z</time>
      </trkpt>
      <trkpt lat="43.52297" lon="6.78687">
        <ele>320.200012</ele>
        <time>2012-04-22T07:39:29Z</time>
      </trkpt>
      <trkpt lat="43.523" lon="6.78696">
        <ele>322.399994</ele>
        <time>2012-04-22T07:39:33Z</time>
      </trkpt>
      <trkpt lat="43.52305" lon="6.78706">
        <ele>324.799988</ele>
        <time>2012-04-22T07:39:37Z</time>
      </trkpt>
      <trkpt lat="43.52315" lon="6.78719">
        <ele>326.799988</ele>
        <time>2012-04-22T07:39:43Z</time>
      </trkpt>
      <trkpt lat="43.52324" lon="6.78726">
        <ele>327.200012</ele>
        <time>2012-04-22T07:39:48Z</time>
      </trkpt>
      <trkpt lat="43.52331" lon="6.7873">
        <ele>326.799988</ele>
        <time>2012-04-22T07:39:51Z</time>
      </trkpt>
      <trkpt lat="43.52336" lon="6.78731">
        <ele>326.399994</ele>
        <time>2012-04-22T07:39:53Z</time>
      </trkpt>
      <trkpt lat="43.52341" lon="6.78731">
        <ele>325.600006</ele>
        <time>2012-04-22T07:39:55Z</time>
      </trkpt>
      <trkpt lat="43.52345" lon="6.7873">
        <ele>324.399994</ele>
        <time>2012-04-22T07:39:57Z</time>
      </trkpt>
      <trkpt lat="43.52359" lon="6.78724">
        <ele>320.600006</ele>
        <time>2012-04-22T07:40:03Z</time>
      </trkpt>
      <trkpt lat="43.52367" lon="6.78723">
        <ele>319</ele>
        <time>2012-04-22T07:40:07Z</time>
      </trkpt>
      <trkpt lat="43.52375" lon="6.78723">
        <ele>317.799988</ele>
        <time>2012-04-22T07:40:11Z</time>
      </trkpt>
      <trkpt lat="43.52387" lon="6.78727">
        <ele>316.600006</ele>
        <time>2012-04-22T07:40:17Z</time>
      </trkpt>
      <trkpt lat="43.52392" lon="6.78735">
        <ele>317.600006</ele>
        <time>2012-04-22T07:40:21Z</time>
      </trkpt>
      <trkpt lat="43.52389" lon="6.78744">
        <ele>320</ele>
        <time>2012-04-22T07:40:25Z</time>
      </trkpt>
      <trkpt lat="43.52381" lon="6.78741">
        <ele>321.200012</ele>
        <time>2012-04-22T07:40:30Z</time>
      </trkpt>
      <trkpt lat="43.52366" lon="6.78737">
        <ele>322.799988</ele>
        <time>2012-04-22T07:40:37Z</time>
      </trkpt>
      <trkpt lat="43.52359" lon="6.78738">
        <ele>324.399994</ele>
        <time>2012-04-22T07:40:40Z</time>
      </trkpt>
      <trkpt lat="43.52351" lon="6.78742">
        <ele>327</ele>
        <time>2012-04-22T07:40:44Z</time>
      </trkpt>
      <trkpt lat="43.52335" lon="6.78748">
        <ele>331.799988</ele>
        <time>2012-04-22T07:40:52Z</time>
      </trkpt>
      <trkpt lat="43.52322" lon="6.78744">
        <ele>333.399994</ele>
        <time>2012-04-22T07:40:59Z</time>
      </trkpt>
      <trkpt lat="43.52316" lon="6.78741">
        <ele>333.600006</ele>
        <time>2012-04-22T07:41:03Z</time>
      </trkpt>
      <trkpt lat="43.5231" lon="6.78738">
        <ele>333.799988</ele>
        <time>2012-04-22T07:41:07Z</time>
      </trkpt>
      <trkpt lat="43.52304" lon="6.78735">
        <ele>334</ele>
        <time>2012-04-22T07:41:11Z</time>
      </trkpt>
      <trkpt lat="43.523" lon="6.78731">
        <ele>333.600006</ele>
        <time>2012-04-22T07:41:14Z</time>
      </trkpt>
      <trkpt lat="43.52295" lon="6.78724">
        <ele>332.200012</ele>
        <time>2012-04-22T07:41:18Z</time>
      </trkpt>
      <trkpt lat="43.5229" lon="6.78717">
        <ele>331</ele>
        <time>2012-04-22T07:41:22Z</time>
      </trkpt>
      <trkpt lat="43.52278" lon="6.78705">
        <ele>329.600006</ele>
        <time>2012-04-22T07:41:30Z</time>
      </trkpt>
      <trkpt lat="43.52273" lon="6.787">
        <ele>329.200012</ele>
        <time>2012-04-22T07:41:33Z</time>
      </trkpt>
      <trkpt lat="43.52267" lon="6.78696">
        <ele>328.799988</ele>
        <time>2012-04-22T07:41:37Z</time>
      </trkpt>
      <trkpt lat="43.52254" lon="6.78689">
        <ele>329.600006</ele>
        <time>2012-04-22T07:41:45Z</time>
      </trkpt>
      <trkpt lat="43.52248" lon="6.78687">
        <ele>329.200012</ele>
        <time>2012-04-22T07:41:49Z</time>
      </trkpt>
      <trkpt lat="43.52241" lon="6.78687">
        <ele>328.399994</ele>
        <time>2012-04-22T07:41:53Z</time>
      </trkpt>
      <trkpt lat="43.52232" lon="6.78689">
        <ele>328</ele>
        <time>2012-04-22T07:41:57Z</time>
      </trkpt>
      <trkpt lat="43.52215" lon="6.78697">
        <ele>328.799988</ele>
        <time>2012-04-22T07:42:04Z</time>
      </trkpt>
      <trkpt lat="43.52204" lon="6.78707">
        <ele>330.799988</ele>
        <time>2012-04-22T07:42:10Z</time>
      </trkpt>
      <trkpt lat="43.52198" lon="6.78715">
        <ele>332.799988</ele>
        <time>2012-04-22T07:42:14Z</time>
      </trkpt>
      <trkpt lat="43.52192" lon="6.78724">
        <ele>335</ele>
        <time>2012-04-22T07:42:18Z</time>
      </trkpt>
      <trkpt lat="43.52185" lon="6.78734">
        <ele>337.600006</ele>
        <time>2012-04-22T07:42:23Z</time>
      </trkpt>
      <trkpt lat="43.52177" lon="6.78741">
        <ele>339.200012</ele>
        <time>2012-04-22T07:42:27Z</time>
      </trkpt>
      <trkpt lat="43.52169" lon="6.78746">
        <ele>340</ele>
        <time>2012-04-22T07:42:31Z</time>
      </trkpt>
      <trkpt lat="43.5215" lon="6.78757">
        <ele>339.600006</ele>
        <time>2012-04-22T07:42:41Z</time>
      </trkpt>
      <trkpt lat="43.52145" lon="6.78761">
        <ele>339.200012</ele>
        <time>2012-04-22T07:42:44Z</time>
      </trkpt>
      <trkpt lat="43.52137" lon="6.78767">
        <ele>338.799988</ele>
        <time>2012-04-22T07:42:48Z</time>
      </trkpt>
      <trkpt lat="43.52129" lon="6.78773">
        <ele>338.399994</ele>
        <time>2012-04-22T07:42:52Z</time>
      </trkpt>
      <trkpt lat="43.52115" lon="6.78785">
        <ele>337.200012</ele>
        <time>2012-04-22T07:43:00Z</time>
      </trkpt>
      <trkpt lat="43.52109" lon="6.78792">
        <ele>337</ele>
        <time>2012-04-22T07:43:04Z</time>
      </trkpt>
      <trkpt lat="43.52111" lon="6.788">
        <ele>338.399994</ele>
        <time>2012-04-22T07:43:08Z</time>
      </trkpt>
      <trkpt lat="43.52118" lon="6.78798">
        <ele>339.600006</ele>
        <time>2012-04-22T07:43:12Z</time>
      </trkpt>
      <trkpt lat="43.52124" lon="6.78791">
        <ele>340</ele>
        <time>2012-04-22T07:43:16Z</time>
      </trkpt>
      <trkpt lat="43.52131" lon="6.78785">
        <ele>340.399994</ele>
        <time>2012-04-22T07:43:20Z</time>
      </trkpt>
      <trkpt lat="43.52139" lon="6.7878">
        <ele>341.399994</ele>
        <time>2012-04-22T07:43:24Z</time>
      </trkpt>
      <trkpt lat="43.52147" lon="6.78776">
        <ele>342.200012</ele>
        <time>2012-04-22T07:43:28Z</time>
      </trkpt>
      <trkpt lat="43.52167" lon="6.78769">
        <ele>344.799988</ele>
        <time>2012-04-22T07:43:38Z</time>
      </trkpt>
      <trkpt lat="43.52173" lon="6.78769">
        <ele>345.399994</ele>
        <time>2012-04-22T07:43:41Z</time>
      </trkpt>
      <trkpt lat="43.5218" lon="6.78768">
        <ele>346</ele>
        <time>2012-04-22T07:43:45Z</time>
      </trkpt>
      <trkpt lat="43.52187" lon="6.78767">
        <ele>346.600006</ele>
        <time>2012-04-22T07:43:49Z</time>
      </trkpt>
      <trkpt lat="43.52195" lon="6.78765">
        <ele>347</ele>
        <time>2012-04-22T07:43:53Z</time>
      </trkpt>
      <trkpt lat="43.52202" lon="6.78761">
        <ele>347</ele>
        <time>2012-04-22T07:43:57Z</time>
      </trkpt>
      <trkpt lat="43.52219" lon="6.78748">
        <ele>346</ele>
        <time>2012-04-22T07:44:07Z</time>
      </trkpt>
      <trkpt lat="43.52226" lon="6.78745">
        <ele>345.799988</ele>
        <time>2012-04-22T07:44:11Z</time>
      </trkpt>
      <trkpt lat="43.52234" lon="6.78744">
        <ele>346.200012</ele>
        <time>2012-04-22T07:44:15Z</time>
      </trkpt>
      <trkpt lat="43.52248" lon="6.78749">
        <ele>349.600006</ele>
        <time>2012-04-22T07:44:22Z</time>
      </trkpt>
      <trkpt lat="43.52254" lon="6.78754">
        <ele>350.200012</ele>
        <time>2012-04-22T07:44:27Z</time>
      </trkpt>
      <trkpt lat="43.52258" lon="6.78761">
        <ele>350.600006</ele>
        <time>2012-04-22T07:44:31Z</time>
      </trkpt>
      <trkpt lat="43.52263" lon="6.78771">
        <ele>351.799988</ele>
        <time>2012-04-22T07:44:36Z</time>
      </trkpt>
      <trkpt lat="43.52269" lon="6.78779">
        <ele>352.600006</ele>
        <time>2012-04-22T07:44:40Z</time>
      </trkpt>
      <trkpt lat="43.52276" lon="6.78787">
        <ele>353.200012</ele>
        <time>2012-04-22T07:44:44Z</time>
      </trkpt>
      <trkpt lat="43.52286" lon="6.78797">
        <ele>353.600006</ele>
        <time>2012-04-22T07:44:51Z</time>
      </trkpt>
      <trkpt lat="43.52295" lon="6.78804">
        <ele>354</ele>
        <time>2012-04-22T07:44:57Z</time>
      </trkpt>
      <trkpt lat="43.523" lon="6.7881">
        <ele>354.600006</ele>
        <time>2012-04-22T07:45:01Z</time>
      </trkpt>
      <trkpt lat="43.52305" lon="6.7882">
        <ele>356.399994</ele>
        <time>2012-04-22T07:45:05Z</time>
      </trkpt>
      <trkpt lat="43.52309" lon="6.7883">
        <ele>358.399994</ele>
        <time>2012-04-22T07:45:09Z</time>
      </trkpt>
      <trkpt lat="43.52314" lon="6.7884">
        <ele>359.200012</ele>
        <time>2012-04-22T07:45:13Z</time>
      </trkpt>
      <trkpt lat="43.52321" lon="6.7886">
        <ele>360</ele>
        <time>2012-04-22T07:45:22Z</time>
      </trkpt>
      <trkpt lat="43.52322" lon="6.7887">
        <ele>360.799988</ele>
        <time>2012-04-22T07:45:27Z</time>
      </trkpt>
      <trkpt lat="43.52323" lon="6.78881">
        <ele>361.600006</ele>
        <time>2012-04-22T07:45:32Z</time>
      </trkpt>
      <trkpt lat="43.52324" lon="6.78893">
        <ele>362.600006</ele>
        <time>2012-04-22T07:45:36Z</time>
      </trkpt>
      <trkpt lat="43.52326" lon="6.78908">
        <ele>363.799988</ele>
        <time>2012-04-22T07:45:41Z</time>
      </trkpt>
      <trkpt lat="43.52326" lon="6.78919">
        <ele>364.600006</ele>
        <time>2012-04-22T07:45:45Z</time>
      </trkpt>
      <trkpt lat="43.52325" lon="6.78926">
        <ele>365</ele>
        <time>2012-04-22T07:45:48Z</time>
      </trkpt>
      <trkpt lat="43.52324" lon="6.78935">
        <ele>365.200012</ele>
        <time>2012-04-22T07:45:52Z</time>
      </trkpt>
      <trkpt lat="43.52323" lon="6.78944">
        <ele>365.600006</ele>
        <time>2012-04-22T07:45:56Z</time>
      </trkpt>
      <trkpt lat="43.52324" lon="6.78954">
        <ele>365.799988</ele>
        <time>2012-04-22T07:46:00Z</time>
      </trkpt>
      <trkpt lat="43.52325" lon="6.78967">
        <ele>366</ele>
        <time>2012-04-22T07:46:05Z</time>
      </trkpt>
      <trkpt lat="43.52325" lon="6.78978">
        <ele>366.399994</ele>
        <time>2012-04-22T07:46:09Z</time>
      </trkpt>
      <trkpt lat="43.52325" lon="6.78989">
        <ele>366.600006</ele>
        <time>2012-04-22T07:46:13Z</time>
      </trkpt>
      <trkpt lat="43.52322" lon="6.79009">
        <ele>365.600006</ele>
        <time>2012-04-22T07:46:20Z</time>
      </trkpt>
      <trkpt lat="43.5232" lon="6.79018">
        <ele>364.399994</ele>
        <time>2012-04-22T07:46:23Z</time>
      </trkpt>
      <trkpt lat="43.52319" lon="6.79027">
        <ele>363.200012</ele>
        <time>2012-04-22T07:46:26Z</time>
      </trkpt>
      <trkpt lat="43.52314" lon="6.79046">
        <ele>360.799988</ele>
        <time>2012-04-22T07:46:34Z</time>
      </trkpt>
      <trkpt lat="43.52308" lon="6.79054">
        <ele>359.799988</ele>
        <time>2012-04-22T07:46:38Z</time>
      </trkpt>
      <trkpt lat="43.52301" lon="6.7906">
        <ele>359.399994</ele>
        <time>2012-04-22T07:46:42Z</time>
      </trkpt>
      <trkpt lat="43.5229" lon="6.79058">
        <ele>360</ele>
        <time>2012-04-22T07:46:48Z</time>
      </trkpt>
      <trkpt lat="43.52285" lon="6.79057">
        <ele>360.200012</ele>
        <time>2012-04-22T07:47:48Z</time>
      </trkpt>
      <trkpt lat="43.52281" lon="6.79071">
        <ele>358.799988</ele>
        <time>2012-04-22T07:53:29Z</time>
      </trkpt>
      <trkpt lat="43.52276" lon="6.79088">
        <ele>357.399994</ele>
        <time>2012-04-22T07:53:32Z</time>
      </trkpt>
      <trkpt lat="43.5227" lon="6.79107">
        <ele>356</ele>
        <time>2012-04-22T07:53:35Z</time>
      </trkpt>
      <trkpt lat="43.52268" lon="6.79114">
        <ele>355.600006</ele>
        <time>2012-04-22T07:53:36Z</time>
      </trkpt>
      <trkpt lat="43.52263" lon="6.79133">
        <ele>354.399994</ele>
        <time>2012-04-22T07:53:38Z</time>
      </trkpt>
      <trkpt lat="43.52263" lon="6.79156">
        <ele>352.799988</ele>
        <time>2012-04-22T07:53:40Z</time>
      </trkpt>
      <trkpt lat="43.52263" lon="6.79164">
        <ele>352.200012</ele>
        <time>2012-04-22T07:53:41Z</time>
      </trkpt>
      <trkpt lat="43.52265" lon="6.79182">
        <ele>350.600006</ele>
        <time>2012-04-22T07:53:44Z</time>
      </trkpt>
      <trkpt lat="43.52265" lon="6.7919">
        <ele>350</ele>
        <time>2012-04-22T07:53:45Z</time>
      </trkpt>
      <trkpt lat="43.52265" lon="6.79204">
        <ele>348.799988</ele>
        <time>2012-04-22T07:53:47Z</time>
      </trkpt>
      <trkpt lat="43.52265" lon="6.7921">
        <ele>348.399994</ele>
        <time>2012-04-22T07:53:48Z</time>
      </trkpt>
      <trkpt lat="43.52263" lon="6.79224">
        <ele>347.600006</ele>
        <time>2012-04-22T07:53:50Z</time>
      </trkpt>
      <trkpt lat="43.52262" lon="6.7923">
        <ele>347.200012</ele>
        <time>2012-04-22T07:53:51Z</time>
      </trkpt>
      <trkpt lat="43.5226" lon="6.79242">
        <ele>346.799988</ele>
        <time>2012-04-22T07:53:53Z</time>
      </trkpt>
      <trkpt lat="43.52256" lon="6.79261">
        <ele>347</ele>
        <time>2012-04-22T07:53:56Z</time>
      </trkpt>
      <trkpt lat="43.52258" lon="6.79273">
        <ele>346.799988</ele>
        <time>2012-04-22T07:53:59Z</time>
      </trkpt>
      <trkpt lat="43.52257" lon="6.7928">
        <ele>347.200012</ele>
        <time>2012-04-22T07:54:12Z</time>
      </trkpt>
      <trkpt lat="43.5225" lon="6.79284">
        <ele>348.799988</ele>
        <time>2012-04-22T07:55:09Z</time>
      </trkpt>
      <trkpt lat="43.52243" lon="6.79292">
        <ele>348.399994</ele>
        <time>2012-04-22T07:55:17Z</time>
      </trkpt>
      <trkpt lat="43.5224" lon="6.79297">
        <ele>348.200012</ele>
        <time>2012-04-22T07:55:19Z</time>
      </trkpt>
      <trkpt lat="43.5223" lon="6.79309">
        <ele>348.200012</ele>
        <time>2012-04-22T07:55:24Z</time>
      </trkpt>
      <trkpt lat="43.5222" lon="6.79321">
        <ele>348.600006</ele>
        <time>2012-04-22T07:55:29Z</time>
      </trkpt>
      <trkpt lat="43.5221" lon="6.79326">
        <ele>348.799988</ele>
        <time>2012-04-22T07:55:33Z</time>
      </trkpt>
      <trkpt lat="43.52203" lon="6.7933">
        <ele>349</ele>
        <time>2012-04-22T07:55:35Z</time>
      </trkpt>
      <trkpt lat="43.52197" lon="6.79334">
        <ele>349.399994</ele>
        <time>2012-04-22T07:55:38Z</time>
      </trkpt>
      <trkpt lat="43.52188" lon="6.79337">
        <ele>349</ele>
        <time>2012-04-22T07:55:41Z</time>
      </trkpt>
      <trkpt lat="43.52182" lon="6.79338">
        <ele>348.799988</ele>
        <time>2012-04-22T07:55:44Z</time>
      </trkpt>
      <trkpt lat="43.52161" lon="6.79347">
        <ele>347.399994</ele>
        <time>2012-04-22T07:55:51Z</time>
      </trkpt>
      <trkpt lat="43.52149" lon="6.79357">
        <ele>344.799988</ele>
        <time>2012-04-22T07:55:54Z</time>
      </trkpt>
      <trkpt lat="43.5214" lon="6.79368">
        <ele>342.799988</ele>
        <time>2012-04-22T07:55:56Z</time>
      </trkpt>
      <trkpt lat="43.52134" lon="6.79374">
        <ele>341.799988</ele>
        <time>2012-04-22T07:55:57Z</time>
      </trkpt>
      <trkpt lat="43.52119" lon="6.79385">
        <ele>339.200012</ele>
        <time>2012-04-22T07:55:59Z</time>
      </trkpt>
      <trkpt lat="43.52098" lon="6.79394">
        <ele>336</ele>
        <time>2012-04-22T07:56:02Z</time>
      </trkpt>
      <trkpt lat="43.52091" lon="6.79396">
        <ele>335</ele>
        <time>2012-04-22T07:56:03Z</time>
      </trkpt>
      <trkpt lat="43.52078" lon="6.79403">
        <ele>332.399994</ele>
        <time>2012-04-22T07:56:05Z</time>
      </trkpt>
      <trkpt lat="43.52072" lon="6.79406">
        <ele>330.799988</ele>
        <time>2012-04-22T07:56:06Z</time>
      </trkpt>
      <trkpt lat="43.52061" lon="6.79415">
        <ele>328</ele>
        <time>2012-04-22T07:56:08Z</time>
      </trkpt>
      <trkpt lat="43.52049" lon="6.79431">
        <ele>323.399994</ele>
        <time>2012-04-22T07:56:11Z</time>
      </trkpt>
      <trkpt lat="43.52046" lon="6.79441">
        <ele>321.399994</ele>
        <time>2012-04-22T07:56:13Z</time>
      </trkpt>
      <trkpt lat="43.5204" lon="6.79456">
        <ele>318.399994</ele>
        <time>2012-04-22T07:56:16Z</time>
      </trkpt>
      <trkpt lat="43.52037" lon="6.79466">
        <ele>316.799988</ele>
        <time>2012-04-22T07:56:18Z</time>
      </trkpt>
      <trkpt lat="43.52032" lon="6.7948">
        <ele>314.399994</ele>
        <time>2012-04-22T07:56:21Z</time>
      </trkpt>
      <trkpt lat="43.52024" lon="6.79485">
        <ele>312.799988</ele>
        <time>2012-04-22T07:56:23Z</time>
      </trkpt>
      <trkpt lat="43.52019" lon="6.79486">
        <ele>311.799988</ele>
        <time>2012-04-22T07:56:24Z</time>
      </trkpt>
      <trkpt lat="43.52013" lon="6.79491">
        <ele>310.600006</ele>
        <time>2012-04-22T07:56:26Z</time>
      </trkpt>
      <trkpt lat="43.52013" lon="6.79503">
        <ele>309.399994</ele>
        <time>2012-04-22T07:56:28Z</time>
      </trkpt>
      <trkpt lat="43.52013" lon="6.79515">
        <ele>307.799988</ele>
        <time>2012-04-22T07:56:30Z</time>
      </trkpt>
      <trkpt lat="43.52012" lon="6.79524">
        <ele>306.399994</ele>
        <time>2012-04-22T07:56:32Z</time>
      </trkpt>
      <trkpt lat="43.52008" lon="6.79536">
        <ele>304.399994</ele>
        <time>2012-04-22T07:56:35Z</time>
      </trkpt>
      <trkpt lat="43.52002" lon="6.79547">
        <ele>302.399994</ele>
        <time>2012-04-22T07:56:38Z</time>
      </trkpt>
      <trkpt lat="43.51995" lon="6.79558">
        <ele>299.600006</ele>
        <time>2012-04-22T07:56:41Z</time>
      </trkpt>
      <trkpt lat="43.51986" lon="6.79565">
        <ele>296.600006</ele>
        <time>2012-04-22T07:56:44Z</time>
      </trkpt>
      <trkpt lat="43.51976" lon="6.79569">
        <ele>293.600006</ele>
        <time>2012-04-22T07:56:47Z</time>
      </trkpt>
      <trkpt lat="43.5197" lon="6.79571">
        <ele>291.799988</ele>
        <time>2012-04-22T07:56:49Z</time>
      </trkpt>
      <trkpt lat="43.51962" lon="6.79579">
        <ele>289.200012</ele>
        <time>2012-04-22T07:56:52Z</time>
      </trkpt>
      <trkpt lat="43.51953" lon="6.79591">
        <ele>286</ele>
        <time>2012-04-22T07:56:55Z</time>
      </trkpt>
      <trkpt lat="43.51943" lon="6.79603">
        <ele>283</ele>
        <time>2012-04-22T07:56:58Z</time>
      </trkpt>
      <trkpt lat="43.51934" lon="6.79611">
        <ele>281.200012</ele>
        <time>2012-04-22T07:57:00Z</time>
      </trkpt>
      <trkpt lat="43.5193" lon="6.79615">
        <ele>280.399994</ele>
        <time>2012-04-22T07:57:01Z</time>
      </trkpt>
      <trkpt lat="43.51926" lon="6.7962">
        <ele>279.600006</ele>
        <time>2012-04-22T07:57:02Z</time>
      </trkpt>
      <trkpt lat="43.51918" lon="6.79635">
        <ele>278.799988</ele>
        <time>2012-04-22T07:57:05Z</time>
      </trkpt>
      <trkpt lat="43.51915" lon="6.79646">
        <ele>278.399994</ele>
        <time>2012-04-22T07:57:07Z</time>
      </trkpt>
      <trkpt lat="43.51912" lon="6.79657">
        <ele>278</ele>
        <time>2012-04-22T07:57:09Z</time>
      </trkpt>
      <trkpt lat="43.51912" lon="6.79666">
        <ele>278.200012</ele>
        <time>2012-04-22T07:57:12Z</time>
      </trkpt>
      <trkpt lat="43.51909" lon="6.79676">
        <ele>276</ele>
        <time>2012-04-22T07:58:15Z</time>
      </trkpt>
      <trkpt lat="43.51907" lon="6.79691">
        <ele>272.799988</ele>
        <time>2012-04-22T07:58:18Z</time>
      </trkpt>
      <trkpt lat="43.51906" lon="6.7971">
        <ele>269</ele>
        <time>2012-04-22T07:58:21Z</time>
      </trkpt>
      <trkpt lat="43.51906" lon="6.79723">
        <ele>266.799988</ele>
        <time>2012-04-22T07:58:23Z</time>
      </trkpt>
      <trkpt lat="43.51906" lon="6.79732">
        <ele>265</ele>
        <time>2012-04-22T07:58:25Z</time>
      </trkpt>
      <trkpt lat="43.51906" lon="6.79754">
        <ele>261.399994</ele>
        <time>2012-04-22T07:58:29Z</time>
      </trkpt>
      <trkpt lat="43.51906" lon="6.79767">
        <ele>259.799988</ele>
        <time>2012-04-22T07:58:31Z</time>
      </trkpt>
      <trkpt lat="43.51906" lon="6.79774">
        <ele>259.200012</ele>
        <time>2012-04-22T07:58:32Z</time>
      </trkpt>
      <trkpt lat="43.51908" lon="6.79781">
        <ele>258.799988</ele>
        <time>2012-04-22T07:58:33Z</time>
      </trkpt>
      <trkpt lat="43.51914" lon="6.79793">
        <ele>258.399994</ele>
        <time>2012-04-22T07:58:35Z</time>
      </trkpt>
      <trkpt lat="43.51917" lon="6.79798">
        <ele>258.399994</ele>
        <time>2012-04-22T07:58:36Z</time>
      </trkpt>
      <trkpt lat="43.5192" lon="6.79805">
        <ele>257.799988</ele>
        <time>2012-04-22T07:58:38Z</time>
      </trkpt>
      <trkpt lat="43.51927" lon="6.79813">
        <ele>257</ele>
        <time>2012-04-22T08:00:12Z</time>
      </trkpt>
      <trkpt lat="43.51933" lon="6.79834">
        <ele>255.600006</ele>
        <time>2012-04-22T08:00:18Z</time>
      </trkpt>
      <trkpt lat="43.51937" lon="6.79859">
        <ele>258.399994</ele>
        <time>2012-04-22T08:00:26Z</time>
      </trkpt>
      <trkpt lat="43.51938" lon="6.79875">
        <ele>260</ele>
        <time>2012-04-22T08:00:32Z</time>
      </trkpt>
      <trkpt lat="43.51938" lon="6.79893">
        <ele>261.799988</ele>
        <time>2012-04-22T08:00:39Z</time>
      </trkpt>
      <trkpt lat="43.51936" lon="6.79907">
        <ele>263</ele>
        <time>2012-04-22T08:00:45Z</time>
      </trkpt>
      <trkpt lat="43.51935" lon="6.7992">
        <ele>264.200012</ele>
        <time>2012-04-22T08:00:49Z</time>
      </trkpt>
      <trkpt lat="43.51931" lon="6.7993">
        <ele>265.600006</ele>
        <time>2012-04-22T08:00:53Z</time>
      </trkpt>
      <trkpt lat="43.51929" lon="6.79937">
        <ele>266.399994</ele>
        <time>2012-04-22T08:00:55Z</time>
      </trkpt>
      <trkpt lat="43.51927" lon="6.79943">
        <ele>267.200012</ele>
        <time>2012-04-22T08:00:57Z</time>
      </trkpt>
      <trkpt lat="43.51923" lon="6.79951">
        <ele>268</ele>
        <time>2012-04-22T08:01:00Z</time>
      </trkpt>
      <trkpt lat="43.51917" lon="6.7996">
        <ele>268.799988</ele>
        <time>2012-04-22T08:01:04Z</time>
      </trkpt>
      <trkpt lat="43.51911" lon="6.79969">
        <ele>269</ele>
        <time>2012-04-22T08:01:08Z</time>
      </trkpt>
      <trkpt lat="43.51906" lon="6.79979">
        <ele>269.600006</ele>
        <time>2012-04-22T08:01:13Z</time>
      </trkpt>
      <trkpt lat="43.51903" lon="6.79989">
        <ele>270.799988</ele>
        <time>2012-04-22T08:01:17Z</time>
      </trkpt>
      <trkpt lat="43.51901" lon="6.8">
        <ele>272.399994</ele>
        <time>2012-04-22T08:01:21Z</time>
      </trkpt>
      <trkpt lat="43.51892" lon="6.80015">
        <ele>273.600006</ele>
        <time>2012-04-22T08:01:27Z</time>
      </trkpt>
      <trkpt lat="43.51882" lon="6.8002">
        <ele>272.799988</ele>
        <time>2012-04-22T08:01:32Z</time>
      </trkpt>
      <trkpt lat="43.5187" lon="6.80026">
        <ele>271.399994</ele>
        <time>2012-04-22T08:01:38Z</time>
      </trkpt>
      <trkpt lat="43.51862" lon="6.80032">
        <ele>271.200012</ele>
        <time>2012-04-22T08:01:42Z</time>
      </trkpt>
      <trkpt lat="43.51854" lon="6.80038">
        <ele>271.399994</ele>
        <time>2012-04-22T08:01:46Z</time>
      </trkpt>
      <trkpt lat="43.51842" lon="6.80052">
        <ele>272.399994</ele>
        <time>2012-04-22T08:01:53Z</time>
      </trkpt>
      <trkpt lat="43.51835" lon="6.80062">
        <ele>273.600006</ele>
        <time>2012-04-22T08:01:57Z</time>
      </trkpt>
      <trkpt lat="43.51832" lon="6.80068">
        <ele>274.600006</ele>
        <time>2012-04-22T08:01:59Z</time>
      </trkpt>
      <trkpt lat="43.51829" lon="6.80074">
        <ele>275</ele>
        <time>2012-04-22T08:02:01Z</time>
      </trkpt>
      <trkpt lat="43.51818" lon="6.80094">
        <ele>276.399994</ele>
        <time>2012-04-22T08:02:10Z</time>
      </trkpt>
      <trkpt lat="43.51813" lon="6.80103">
        <ele>276.799988</ele>
        <time>2012-04-22T08:02:14Z</time>
      </trkpt>
      <trkpt lat="43.51807" lon="6.80112">
        <ele>276.799988</ele>
        <time>2012-04-22T08:02:18Z</time>
      </trkpt>
      <trkpt lat="43.51798" lon="6.80126">
        <ele>276.799988</ele>
        <time>2012-04-22T08:02:24Z</time>
      </trkpt>
      <trkpt lat="43.51789" lon="6.80142">
        <ele>277.600006</ele>
        <time>2012-04-22T08:02:30Z</time>
      </trkpt>
      <trkpt lat="43.51787" lon="6.8015">
        <ele>278.600006</ele>
        <time>2012-04-22T08:02:33Z</time>
      </trkpt>
      <trkpt lat="43.51784" lon="6.8016">
        <ele>279.600006</ele>
        <time>2012-04-22T08:02:37Z</time>
      </trkpt>
      <trkpt lat="43.51781" lon="6.80171">
        <ele>280.399994</ele>
        <time>2012-04-22T08:02:41Z</time>
      </trkpt>
      <trkpt lat="43.51776" lon="6.80191">
        <ele>280.600006</ele>
        <time>2012-04-22T08:02:48Z</time>
      </trkpt>
      <trkpt lat="43.51775" lon="6.80198">
        <ele>281</ele>
        <time>2012-04-22T08:02:50Z</time>
      </trkpt>
      <trkpt lat="43.51775" lon="6.80206">
        <ele>281.399994</ele>
        <time>2012-04-22T08:02:52Z</time>
      </trkpt>
      <trkpt lat="43.51775" lon="6.80214">
        <ele>282</ele>
        <time>2012-04-22T08:02:54Z</time>
      </trkpt>
      <trkpt lat="43.51774" lon="6.80221">
        <ele>282.399994</ele>
        <time>2012-04-22T08:02:56Z</time>
      </trkpt>
      <trkpt lat="43.51774" lon="6.80228">
        <ele>282.799988</ele>
        <time>2012-04-22T08:02:58Z</time>
      </trkpt>
      <trkpt lat="43.51771" lon="6.80252">
        <ele>284</ele>
        <time>2012-04-22T08:03:05Z</time>
      </trkpt>
      <trkpt lat="43.51767" lon="6.80269">
        <ele>285</ele>
        <time>2012-04-22T08:03:10Z</time>
      </trkpt>
      <trkpt lat="43.51765" lon="6.80275">
        <ele>285.399994</ele>
        <time>2012-04-22T08:03:12Z</time>
      </trkpt>
      <trkpt lat="43.51762" lon="6.80287">
        <ele>286</ele>
        <time>2012-04-22T08:03:16Z</time>
      </trkpt>
      <trkpt lat="43.51758" lon="6.80305">
        <ele>287.399994</ele>
        <time>2012-04-22T08:03:22Z</time>
      </trkpt>
      <trkpt lat="43.51756" lon="6.80317">
        <ele>288.600006</ele>
        <time>2012-04-22T08:03:26Z</time>
      </trkpt>
      <trkpt lat="43.51754" lon="6.80329">
        <ele>289.799988</ele>
        <time>2012-04-22T08:03:30Z</time>
      </trkpt>
      <trkpt lat="43.5175" lon="6.80345">
        <ele>291</ele>
        <time>2012-04-22T08:03:36Z</time>
      </trkpt>
      <trkpt lat="43.51746" lon="6.8035">
        <ele>291</ele>
        <time>2012-04-22T08:03:38Z</time>
      </trkpt>
      <trkpt lat="43.5173" lon="6.80351">
        <ele>289.399994</ele>
        <time>2012-04-22T08:03:45Z</time>
      </trkpt>
      <trkpt lat="43.51723" lon="6.80345">
        <ele>288</ele>
        <time>2012-04-22T08:03:49Z</time>
      </trkpt>
      <trkpt lat="43.51716" lon="6.80341">
        <ele>286.799988</ele>
        <time>2012-04-22T08:03:53Z</time>
      </trkpt>
      <trkpt lat="43.5171" lon="6.80344">
        <ele>286.399994</ele>
        <time>2012-04-22T08:03:57Z</time>
      </trkpt>
      <trkpt lat="43.51706" lon="6.80348">
        <ele>286.600006</ele>
        <time>2012-04-22T08:03:59Z</time>
      </trkpt>
      <trkpt lat="43.51703" lon="6.80355">
        <ele>287.200012</ele>
        <time>2012-04-22T08:04:01Z</time>
      </trkpt>
      <trkpt lat="43.517" lon="6.80362">
        <ele>287.799988</ele>
        <time>2012-04-22T08:04:03Z</time>
      </trkpt>
      <trkpt lat="43.5169" lon="6.80383">
        <ele>290</ele>
        <time>2012-04-22T08:04:10Z</time>
      </trkpt>
      <trkpt lat="43.5168" lon="6.80396">
        <ele>291.399994</ele>
        <time>2012-04-22T08:04:17Z</time>
      </trkpt>
      <trkpt lat="43.51672" lon="6.80402">
        <ele>291.799988</ele>
        <time>2012-04-22T08:04:21Z</time>
      </trkpt>
      <trkpt lat="43.51668" lon="6.80405">
        <ele>292</ele>
        <time>2012-04-22T08:04:23Z</time>
      </trkpt>
      <trkpt lat="43.51663" lon="6.80408">
        <ele>292.200012</ele>
        <time>2012-04-22T08:04:25Z</time>
      </trkpt>
      <trkpt lat="43.51646" lon="6.80418">
        <ele>291.399994</ele>
        <time>2012-04-22T08:04:33Z</time>
      </trkpt>
      <trkpt lat="43.51632" lon="6.80434">
        <ele>290.600006</ele>
        <time>2012-04-22T08:04:41Z</time>
      </trkpt>
      <trkpt lat="43.51626" lon="6.80442">
        <ele>290.600006</ele>
        <time>2012-04-22T08:04:45Z</time>
      </trkpt>
      <trkpt lat="43.5162" lon="6.80451">
        <ele>290.799988</ele>
        <time>2012-04-22T08:04:49Z</time>
      </trkpt>
      <trkpt lat="43.5161" lon="6.80476">
        <ele>292</ele>
        <time>2012-04-22T08:04:57Z</time>
      </trkpt>
      <trkpt lat="43.51606" lon="6.80485">
        <ele>292.600006</ele>
        <time>2012-04-22T08:05:00Z</time>
      </trkpt>
      <trkpt lat="43.51602" lon="6.8049">
        <ele>293</ele>
        <time>2012-04-22T08:05:02Z</time>
      </trkpt>
      <trkpt lat="43.51599" lon="6.80496">
        <ele>293.399994</ele>
        <time>2012-04-22T08:05:04Z</time>
      </trkpt>
      <trkpt lat="43.51597" lon="6.80503">
        <ele>293.600006</ele>
        <time>2012-04-22T08:05:06Z</time>
      </trkpt>
      <trkpt lat="43.51594" lon="6.80509">
        <ele>293.399994</ele>
        <time>2012-04-22T08:05:08Z</time>
      </trkpt>
      <trkpt lat="43.51588" lon="6.80527">
        <ele>292.799988</ele>
        <time>2012-04-22T08:05:14Z</time>
      </trkpt>
      <trkpt lat="43.51578" lon="6.80547">
        <ele>292.600006</ele>
        <time>2012-04-22T08:05:21Z</time>
      </trkpt>
      <trkpt lat="43.51568" lon="6.80559">
        <ele>293.200012</ele>
        <time>2012-04-22T08:05:27Z</time>
      </trkpt>
      <trkpt lat="43.51555" lon="6.80562">
        <ele>293.799988</ele>
        <time>2012-04-22T08:05:32Z</time>
      </trkpt>
      <trkpt lat="43.51545" lon="6.80563">
        <ele>294.399994</ele>
        <time>2012-04-22T08:05:36Z</time>
      </trkpt>
      <trkpt lat="43.5154" lon="6.80563">
        <ele>294.600006</ele>
        <time>2012-04-22T08:05:38Z</time>
      </trkpt>
      <trkpt lat="43.51535" lon="6.80563">
        <ele>295</ele>
        <time>2012-04-22T08:05:40Z</time>
      </trkpt>
      <trkpt lat="43.5153" lon="6.80563">
        <ele>295.399994</ele>
        <time>2012-04-22T08:05:42Z</time>
      </trkpt>
      <trkpt lat="43.51521" lon="6.80563">
        <ele>295.799988</ele>
        <time>2012-04-22T08:05:46Z</time>
      </trkpt>
      <trkpt lat="43.51514" lon="6.80563">
        <ele>296.200012</ele>
        <time>2012-04-22T08:05:50Z</time>
      </trkpt>
      <trkpt lat="43.51507" lon="6.80563">
        <ele>296.600006</ele>
        <time>2012-04-22T08:05:53Z</time>
      </trkpt>
      <trkpt lat="43.51502" lon="6.80562">
        <ele>296.799988</ele>
        <time>2012-04-22T08:05:55Z</time>
      </trkpt>
      <trkpt lat="43.51494" lon="6.80563">
        <ele>297</ele>
        <time>2012-04-22T08:05:59Z</time>
      </trkpt>
      <trkpt lat="43.51489" lon="6.80564">
        <ele>297</ele>
        <time>2012-04-22T08:06:01Z</time>
      </trkpt>
      <trkpt lat="43.51466" lon="6.8057">
        <ele>297.200012</ele>
        <time>2012-04-22T08:06:10Z</time>
      </trkpt>
      <trkpt lat="43.51448" lon="6.80573">
        <ele>297.200012</ele>
        <time>2012-04-22T08:06:17Z</time>
      </trkpt>
      <trkpt lat="43.51443" lon="6.80574">
        <ele>297.200012</ele>
        <time>2012-04-22T08:06:19Z</time>
      </trkpt>
      <trkpt lat="43.51438" lon="6.80575">
        <ele>297.399994</ele>
        <time>2012-04-22T08:06:21Z</time>
      </trkpt>
      <trkpt lat="43.51433" lon="6.80576">
        <ele>297.399994</ele>
        <time>2012-04-22T08:06:23Z</time>
      </trkpt>
      <trkpt lat="43.51427" lon="6.80578">
        <ele>297.600006</ele>
        <time>2012-04-22T08:06:25Z</time>
      </trkpt>
      <trkpt lat="43.51407" lon="6.80588">
        <ele>297.200012</ele>
        <time>2012-04-22T08:06:32Z</time>
      </trkpt>
      <trkpt lat="43.51381" lon="6.80607">
        <ele>295.600006</ele>
        <time>2012-04-22T08:06:39Z</time>
      </trkpt>
      <trkpt lat="43.51369" lon="6.80624">
        <ele>295.399994</ele>
        <time>2012-04-22T08:06:44Z</time>
      </trkpt>
      <trkpt lat="43.51349" lon="6.80653">
        <ele>296.600006</ele>
        <time>2012-04-22T08:06:52Z</time>
      </trkpt>
      <trkpt lat="43.51339" lon="6.80669">
        <ele>297.799988</ele>
        <time>2012-04-22T08:06:57Z</time>
      </trkpt>
      <trkpt lat="43.51325" lon="6.80687">
        <ele>298.399994</ele>
        <time>2012-04-22T08:07:03Z</time>
      </trkpt>
      <trkpt lat="43.51312" lon="6.80712">
        <ele>298.799988</ele>
        <time>2012-04-22T08:07:09Z</time>
      </trkpt>
      <trkpt lat="43.51302" lon="6.80738">
        <ele>299.399994</ele>
        <time>2012-04-22T08:07:15Z</time>
      </trkpt>
      <trkpt lat="43.51298" lon="6.80748">
        <ele>299.799988</ele>
        <time>2012-04-22T08:07:17Z</time>
      </trkpt>
      <trkpt lat="43.51294" lon="6.80759">
        <ele>299.799988</ele>
        <time>2012-04-22T08:07:19Z</time>
      </trkpt>
      <trkpt lat="43.51292" lon="6.8077">
        <ele>299.799988</ele>
        <time>2012-04-22T08:07:21Z</time>
      </trkpt>
      <trkpt lat="43.5129" lon="6.8078">
        <ele>299.799988</ele>
        <time>2012-04-22T08:07:23Z</time>
      </trkpt>
      <trkpt lat="43.51292" lon="6.8079">
        <ele>300.200012</ele>
        <time>2012-04-22T08:07:25Z</time>
      </trkpt>
      <trkpt lat="43.51297" lon="6.80819">
        <ele>301.799988</ele>
        <time>2012-04-22T08:07:31Z</time>
      </trkpt>
      <trkpt lat="43.51303" lon="6.80855">
        <ele>304.600006</ele>
        <time>2012-04-22T08:07:39Z</time>
      </trkpt>
      <trkpt lat="43.51304" lon="6.80881">
        <ele>306</ele>
        <time>2012-04-22T08:07:45Z</time>
      </trkpt>
      <trkpt lat="43.51301" lon="6.80913">
        <ele>306.399994</ele>
        <time>2012-04-22T08:07:54Z</time>
      </trkpt>
      <trkpt lat="43.513" lon="6.8092">
        <ele>306.600006</ele>
        <time>2012-04-22T08:07:56Z</time>
      </trkpt>
      <trkpt lat="43.51299" lon="6.80927">
        <ele>306.600006</ele>
        <time>2012-04-22T08:07:58Z</time>
      </trkpt>
      <trkpt lat="43.51297" lon="6.80934">
        <ele>306.600006</ele>
        <time>2012-04-22T08:08:00Z</time>
      </trkpt>
      <trkpt lat="43.51295" lon="6.80941">
        <ele>306.399994</ele>
        <time>2012-04-22T08:08:02Z</time>
      </trkpt>
      <trkpt lat="43.51293" lon="6.80951">
        <ele>306.200012</ele>
        <time>2012-04-22T08:08:05Z</time>
      </trkpt>
      <trkpt lat="43.51292" lon="6.80957">
        <ele>306.200012</ele>
        <time>2012-04-22T08:08:07Z</time>
      </trkpt>
      <trkpt lat="43.51291" lon="6.80964">
        <ele>306.600006</ele>
        <time>2012-04-22T08:08:09Z</time>
      </trkpt>
      <trkpt lat="43.51291" lon="6.80971">
        <ele>307</ele>
        <time>2012-04-22T08:08:11Z</time>
      </trkpt>
      <trkpt lat="43.51291" lon="6.80984">
        <ele>307.799988</ele>
        <time>2012-04-22T08:08:15Z</time>
      </trkpt>
      <trkpt lat="43.51291" lon="6.80991">
        <ele>308.200012</ele>
        <time>2012-04-22T08:08:17Z</time>
      </trkpt>
      <trkpt lat="43.51291" lon="6.80998">
        <ele>308.600006</ele>
        <time>2012-04-22T08:08:19Z</time>
      </trkpt>
      <trkpt lat="43.51291" lon="6.81004">
        <ele>309</ele>
        <time>2012-04-22T08:08:21Z</time>
      </trkpt>
      <trkpt lat="43.51292" lon="6.81011">
        <ele>309.399994</ele>
        <time>2012-04-22T08:08:23Z</time>
      </trkpt>
      <trkpt lat="43.51293" lon="6.81023">
        <ele>310.399994</ele>
        <time>2012-04-22T08:08:27Z</time>
      </trkpt>
      <trkpt lat="43.51294" lon="6.81035">
        <ele>311</ele>
        <time>2012-04-22T08:08:31Z</time>
      </trkpt>
      <trkpt lat="43.51294" lon="6.81048">
        <ele>311.399994</ele>
        <time>2012-04-22T08:08:35Z</time>
      </trkpt>
      <trkpt lat="43.51294" lon="6.81071">
        <ele>312.200012</ele>
        <time>2012-04-22T08:08:42Z</time>
      </trkpt>
      <trkpt lat="43.51294" lon="6.81077">
        <ele>312.399994</ele>
        <time>2012-04-22T08:08:44Z</time>
      </trkpt>
      <trkpt lat="43.51294" lon="6.8109">
        <ele>312.399994</ele>
        <time>2012-04-22T08:08:48Z</time>
      </trkpt>
      <trkpt lat="43.51294" lon="6.81099">
        <ele>312.200012</ele>
        <time>2012-04-22T08:08:51Z</time>
      </trkpt>
      <trkpt lat="43.51295" lon="6.81106">
        <ele>312.200012</ele>
        <time>2012-04-22T08:08:53Z</time>
      </trkpt>
      <trkpt lat="43.51295" lon="6.81113">
        <ele>312</ele>
        <time>2012-04-22T08:08:55Z</time>
      </trkpt>
      <trkpt lat="43.51295" lon="6.81119">
        <ele>311.799988</ele>
        <time>2012-04-22T08:08:57Z</time>
      </trkpt>
      <trkpt lat="43.51296" lon="6.81131">
        <ele>311.799988</ele>
        <time>2012-04-22T08:09:01Z</time>
      </trkpt>
      <trkpt lat="43.51298" lon="6.81144">
        <ele>311.799988</ele>
        <time>2012-04-22T08:09:05Z</time>
      </trkpt>
      <trkpt lat="43.51299" lon="6.81152">
        <ele>312</ele>
        <time>2012-04-22T08:09:07Z</time>
      </trkpt>
      <trkpt lat="43.51308" lon="6.81172">
        <ele>313.600006</ele>
        <time>2012-04-22T08:09:12Z</time>
      </trkpt>
      <trkpt lat="43.51312" lon="6.81192">
        <ele>315.600006</ele>
        <time>2012-04-22T08:09:18Z</time>
      </trkpt>
      <trkpt lat="43.51313" lon="6.81209">
        <ele>316.799988</ele>
        <time>2012-04-22T08:09:25Z</time>
      </trkpt>
      <trkpt lat="43.51302" lon="6.81222">
        <ele>316.799988</ele>
        <time>2012-04-22T08:09:31Z</time>
      </trkpt>
      <trkpt lat="43.51291" lon="6.81239">
        <ele>317.799988</ele>
        <time>2012-04-22T08:09:37Z</time>
      </trkpt>
      <trkpt lat="43.51281" lon="6.81243">
        <ele>317.799988</ele>
        <time>2012-04-22T08:09:43Z</time>
      </trkpt>
      <trkpt lat="43.51267" lon="6.81249">
        <ele>318.200012</ele>
        <time>2012-04-22T08:09:50Z</time>
      </trkpt>
      <trkpt lat="43.51257" lon="6.81257">
        <ele>319.799988</ele>
        <time>2012-04-22T08:09:56Z</time>
      </trkpt>
      <trkpt lat="43.51252" lon="6.81263">
        <ele>320.799988</ele>
        <time>2012-04-22T08:09:59Z</time>
      </trkpt>
      <trkpt lat="43.51247" lon="6.81269">
        <ele>322.200012</ele>
        <time>2012-04-22T08:10:03Z</time>
      </trkpt>
      <trkpt lat="43.51242" lon="6.81277">
        <ele>324</ele>
        <time>2012-04-22T08:10:07Z</time>
      </trkpt>
      <trkpt lat="43.51234" lon="6.81289">
        <ele>327</ele>
        <time>2012-04-22T08:10:14Z</time>
      </trkpt>
      <trkpt lat="43.51223" lon="6.81298">
        <ele>329.399994</ele>
        <time>2012-04-22T08:10:21Z</time>
      </trkpt>
      <trkpt lat="43.51217" lon="6.81306">
        <ele>331.399994</ele>
        <time>2012-04-22T08:10:26Z</time>
      </trkpt>
      <trkpt lat="43.51211" lon="6.81309">
        <ele>332.399994</ele>
        <time>2012-04-22T08:10:29Z</time>
      </trkpt>
      <trkpt lat="43.51203" lon="6.81312">
        <ele>333.200012</ele>
        <time>2012-04-22T08:10:32Z</time>
      </trkpt>
      <trkpt lat="43.51195" lon="6.81312">
        <ele>333.799988</ele>
        <time>2012-04-22T08:10:35Z</time>
      </trkpt>
      <trkpt lat="43.5119" lon="6.81311">
        <ele>333.600006</ele>
        <time>2012-04-22T08:10:37Z</time>
      </trkpt>
      <trkpt lat="43.51182" lon="6.81305">
        <ele>332.600006</ele>
        <time>2012-04-22T08:10:41Z</time>
      </trkpt>
      <trkpt lat="43.51164" lon="6.81297">
        <ele>332</ele>
        <time>2012-04-22T08:10:50Z</time>
      </trkpt>
      <trkpt lat="43.51157" lon="6.81297">
        <ele>333.399994</ele>
        <time>2012-04-22T08:10:53Z</time>
      </trkpt>
      <trkpt lat="43.51149" lon="6.81297">
        <ele>335.399994</ele>
        <time>2012-04-22T08:10:57Z</time>
      </trkpt>
      <trkpt lat="43.51137" lon="6.81298">
        <ele>338.600006</ele>
        <time>2012-04-22T08:11:04Z</time>
      </trkpt>
      <trkpt lat="43.51129" lon="6.813">
        <ele>340.799988</ele>
        <time>2012-04-22T08:11:08Z</time>
      </trkpt>
      <trkpt lat="43.5112" lon="6.81301">
        <ele>343</ele>
        <time>2012-04-22T08:11:12Z</time>
      </trkpt>
      <trkpt lat="43.51114" lon="6.81298">
        <ele>343.799988</ele>
        <time>2012-04-22T08:11:15Z</time>
      </trkpt>
      <trkpt lat="43.51109" lon="6.81291">
        <ele>343.399994</ele>
        <time>2012-04-22T08:11:19Z</time>
      </trkpt>
      <trkpt lat="43.51104" lon="6.81279">
        <ele>341.600006</ele>
        <time>2012-04-22T08:11:24Z</time>
      </trkpt>
      <trkpt lat="43.51101" lon="6.81269">
        <ele>340.200012</ele>
        <time>2012-04-22T08:11:28Z</time>
      </trkpt>
      <trkpt lat="43.51097" lon="6.81257">
        <ele>338.399994</ele>
        <time>2012-04-22T08:11:32Z</time>
      </trkpt>
      <trkpt lat="43.51094" lon="6.8125">
        <ele>337.399994</ele>
        <time>2012-04-22T08:11:35Z</time>
      </trkpt>
      <trkpt lat="43.51088" lon="6.81241">
        <ele>337.200012</ele>
        <time>2012-04-22T08:11:39Z</time>
      </trkpt>
      <trkpt lat="43.51076" lon="6.81227">
        <ele>337</ele>
        <time>2012-04-22T08:11:47Z</time>
      </trkpt>
      <trkpt lat="43.51069" lon="6.81221">
        <ele>337</ele>
        <time>2012-04-22T08:11:51Z</time>
      </trkpt>
      <trkpt lat="43.51062" lon="6.81218">
        <ele>337.399994</ele>
        <time>2012-04-22T08:11:55Z</time>
      </trkpt>
      <trkpt lat="43.51055" lon="6.81214">
        <ele>337.799988</ele>
        <time>2012-04-22T08:11:59Z</time>
      </trkpt>
      <trkpt lat="43.51047" lon="6.8121">
        <ele>338.200012</ele>
        <time>2012-04-22T08:12:03Z</time>
      </trkpt>
      <trkpt lat="43.5104" lon="6.81206">
        <ele>338.399994</ele>
        <time>2012-04-22T08:12:07Z</time>
      </trkpt>
      <trkpt lat="43.51026" lon="6.812">
        <ele>339.200012</ele>
        <time>2012-04-22T08:12:14Z</time>
      </trkpt>
      <trkpt lat="43.51015" lon="6.81196">
        <ele>340.200012</ele>
        <time>2012-04-22T08:12:20Z</time>
      </trkpt>
      <trkpt lat="43.51006" lon="6.81197">
        <ele>341.799988</ele>
        <time>2012-04-22T08:12:24Z</time>
      </trkpt>
      <trkpt lat="43.50997" lon="6.81198">
        <ele>343.200012</ele>
        <time>2012-04-22T08:12:28Z</time>
      </trkpt>
      <trkpt lat="43.50979" lon="6.81204">
        <ele>345.200012</ele>
        <time>2012-04-22T08:12:37Z</time>
      </trkpt>
      <trkpt lat="43.50959" lon="6.81212">
        <ele>347.799988</ele>
        <time>2012-04-22T08:12:47Z</time>
      </trkpt>
      <trkpt lat="43.50947" lon="6.81215">
        <ele>349</ele>
        <time>2012-04-22T08:12:53Z</time>
      </trkpt>
      <trkpt lat="43.50939" lon="6.81218">
        <ele>350</ele>
        <time>2012-04-22T08:12:57Z</time>
      </trkpt>
      <trkpt lat="43.50931" lon="6.81221">
        <ele>351.200012</ele>
        <time>2012-04-22T08:13:01Z</time>
      </trkpt>
      <trkpt lat="43.50912" lon="6.8122">
        <ele>352.600006</ele>
        <time>2012-04-22T08:13:11Z</time>
      </trkpt>
      <trkpt lat="43.50905" lon="6.81217">
        <ele>353.200012</ele>
        <time>2012-04-22T08:13:15Z</time>
      </trkpt>
      <trkpt lat="43.50898" lon="6.81212">
        <ele>353.399994</ele>
        <time>2012-04-22T08:13:19Z</time>
      </trkpt>
      <trkpt lat="43.50884" lon="6.81205">
        <ele>354.799988</ele>
        <time>2012-04-22T08:13:28Z</time>
      </trkpt>
      <trkpt lat="43.50874" lon="6.812">
        <ele>355.799988</ele>
        <time>2012-04-22T08:13:34Z</time>
      </trkpt>
      <trkpt lat="43.50869" lon="6.81195">
        <ele>355.799988</ele>
        <time>2012-04-22T08:13:38Z</time>
      </trkpt>
      <trkpt lat="43.50862" lon="6.8119">
        <ele>356.200012</ele>
        <time>2012-04-22T08:13:42Z</time>
      </trkpt>
      <trkpt lat="43.50849" lon="6.81179">
        <ele>357</ele>
        <time>2012-04-22T08:13:51Z</time>
      </trkpt>
      <trkpt lat="43.50842" lon="6.81176">
        <ele>357.799988</ele>
        <time>2012-04-22T08:13:55Z</time>
      </trkpt>
      <trkpt lat="43.50837" lon="6.81172">
        <ele>358.399994</ele>
        <time>2012-04-22T08:13:59Z</time>
      </trkpt>
      <trkpt lat="43.50832" lon="6.8117">
        <ele>358.799988</ele>
        <time>2012-04-22T08:14:03Z</time>
      </trkpt>
      <trkpt lat="43.50824" lon="6.81168">
        <ele>359</ele>
        <time>2012-04-22T08:14:07Z</time>
      </trkpt>
      <trkpt lat="43.50818" lon="6.81168">
        <ele>359.200012</ele>
        <time>2012-04-22T08:14:10Z</time>
      </trkpt>
      <trkpt lat="43.50809" lon="6.81167">
        <ele>359.799988</ele>
        <time>2012-04-22T08:14:14Z</time>
      </trkpt>
      <trkpt lat="43.50801" lon="6.81168">
        <ele>360.600006</ele>
        <time>2012-04-22T08:14:18Z</time>
      </trkpt>
      <trkpt lat="43.50794" lon="6.8117">
        <ele>361.399994</ele>
        <time>2012-04-22T08:14:21Z</time>
      </trkpt>
      <trkpt lat="43.50787" lon="6.81171">
        <ele>362.200012</ele>
        <time>2012-04-22T08:14:25Z</time>
      </trkpt>
      <trkpt lat="43.50779" lon="6.81172">
        <ele>362.799988</ele>
        <time>2012-04-22T08:14:29Z</time>
      </trkpt>
      <trkpt lat="43.50774" lon="6.81174">
        <ele>363.399994</ele>
        <time>2012-04-22T08:14:32Z</time>
      </trkpt>
      <trkpt lat="43.50767" lon="6.81175">
        <ele>364.200012</ele>
        <time>2012-04-22T08:14:39Z</time>
      </trkpt>
      <trkpt lat="43.50753" lon="6.81176">
        <ele>365.200012</ele>
        <time>2012-04-22T08:14:58Z</time>
      </trkpt>
      <trkpt lat="43.50741" lon="6.81176">
        <ele>366.200012</ele>
        <time>2012-04-22T08:15:04Z</time>
      </trkpt>
      <trkpt lat="43.5073" lon="6.81175">
        <ele>367</ele>
        <time>2012-04-22T08:15:09Z</time>
      </trkpt>
      <trkpt lat="43.50717" lon="6.81169">
        <ele>366.799988</ele>
        <time>2012-04-22T08:15:15Z</time>
      </trkpt>
      <trkpt lat="43.50708" lon="6.81166">
        <ele>367</ele>
        <time>2012-04-22T08:15:20Z</time>
      </trkpt>
      <trkpt lat="43.50696" lon="6.81164">
        <ele>367.399994</ele>
        <time>2012-04-22T08:15:25Z</time>
      </trkpt>
      <trkpt lat="43.50684" lon="6.81162">
        <ele>368</ele>
        <time>2012-04-22T08:15:31Z</time>
      </trkpt>
      <trkpt lat="43.5067" lon="6.81161">
        <ele>368.799988</ele>
        <time>2012-04-22T08:15:36Z</time>
      </trkpt>
      <trkpt lat="43.5066" lon="6.81158">
        <ele>370</ele>
        <time>2012-04-22T08:15:41Z</time>
      </trkpt>
      <trkpt lat="43.50654" lon="6.81157">
        <ele>371</ele>
        <time>2012-04-22T08:15:44Z</time>
      </trkpt>
      <trkpt lat="43.50648" lon="6.81152">
        <ele>372</ele>
        <time>2012-04-22T08:15:48Z</time>
      </trkpt>
      <trkpt lat="43.50634" lon="6.81143">
        <ele>373.200012</ele>
        <time>2012-04-22T08:15:56Z</time>
      </trkpt>
      <trkpt lat="43.50625" lon="6.81137">
        <ele>374.399994</ele>
        <time>2012-04-22T08:16:01Z</time>
      </trkpt>
      <trkpt lat="43.50617" lon="6.81132">
        <ele>375.200012</ele>
        <time>2012-04-22T08:16:05Z</time>
      </trkpt>
      <trkpt lat="43.5061" lon="6.81124">
        <ele>375.399994</ele>
        <time>2012-04-22T08:16:09Z</time>
      </trkpt>
      <trkpt lat="43.50599" lon="6.8111">
        <ele>374.799988</ele>
        <time>2012-04-22T08:16:15Z</time>
      </trkpt>
      <trkpt lat="43.50596" lon="6.81101">
        <ele>373.799988</ele>
        <time>2012-04-22T08:16:18Z</time>
      </trkpt>
      <trkpt lat="43.50594" lon="6.81095">
        <ele>373</ele>
        <time>2012-04-22T08:16:20Z</time>
      </trkpt>
      <trkpt lat="43.50592" lon="6.81087">
        <ele>371.799988</ele>
        <time>2012-04-22T08:16:23Z</time>
      </trkpt>
      <trkpt lat="43.50583" lon="6.81066">
        <ele>371.200012</ele>
        <time>2012-04-22T08:16:31Z</time>
      </trkpt>
      <trkpt lat="43.50574" lon="6.81048">
        <ele>372.600006</ele>
        <time>2012-04-22T08:16:37Z</time>
      </trkpt>
      <trkpt lat="43.50566" lon="6.81034">
        <ele>373.399994</ele>
        <time>2012-04-22T08:16:41Z</time>
      </trkpt>
      <trkpt lat="43.50557" lon="6.8101">
        <ele>372.799988</ele>
        <time>2012-04-22T08:16:48Z</time>
      </trkpt>
      <trkpt lat="43.5055" lon="6.80988">
        <ele>372</ele>
        <time>2012-04-22T08:16:54Z</time>
      </trkpt>
      <trkpt lat="43.5054" lon="6.80969">
        <ele>372</ele>
        <time>2012-04-22T08:16:59Z</time>
      </trkpt>
      <trkpt lat="43.50528" lon="6.80949">
        <ele>371.600006</ele>
        <time>2012-04-22T08:17:05Z</time>
      </trkpt>
      <trkpt lat="43.50524" lon="6.80944">
        <ele>371.600006</ele>
        <time>2012-04-22T08:17:07Z</time>
      </trkpt>
      <trkpt lat="43.50508" lon="6.80926">
        <ele>371.399994</ele>
        <time>2012-04-22T08:17:14Z</time>
      </trkpt>
      <trkpt lat="43.50496" lon="6.80916">
        <ele>371.799988</ele>
        <time>2012-04-22T08:17:19Z</time>
      </trkpt>
      <trkpt lat="43.50481" lon="6.80905">
        <ele>372.399994</ele>
        <time>2012-04-22T08:17:25Z</time>
      </trkpt>
      <trkpt lat="43.50477" lon="6.80901">
        <ele>372.200012</ele>
        <time>2012-04-22T08:17:27Z</time>
      </trkpt>
      <trkpt lat="43.50472" lon="6.80898">
        <ele>372</ele>
        <time>2012-04-22T08:17:29Z</time>
      </trkpt>
      <trkpt lat="43.50468" lon="6.80894">
        <ele>371.799988</ele>
        <time>2012-04-22T08:17:31Z</time>
      </trkpt>
      <trkpt lat="43.50464" lon="6.80891">
        <ele>371.600006</ele>
        <time>2012-04-22T08:17:33Z</time>
      </trkpt>
      <trkpt lat="43.50441" lon="6.80875">
        <ele>371.200012</ele>
        <time>2012-04-22T08:17:43Z</time>
      </trkpt>
      <trkpt lat="43.50437" lon="6.80872">
        <ele>371</ele>
        <time>2012-04-22T08:17:45Z</time>
      </trkpt>
      <trkpt lat="43.50432" lon="6.80869">
        <ele>371</ele>
        <time>2012-04-22T08:17:47Z</time>
      </trkpt>
      <trkpt lat="43.50427" lon="6.80867">
        <ele>370.799988</ele>
        <time>2012-04-22T08:17:49Z</time>
      </trkpt>
      <trkpt lat="43.50423" lon="6.80864">
        <ele>370.600006</ele>
        <time>2012-04-22T08:17:51Z</time>
      </trkpt>
      <trkpt lat="43.50405" lon="6.80851">
        <ele>368.399994</ele>
        <time>2012-04-22T08:17:59Z</time>
      </trkpt>
      <trkpt lat="43.50387" lon="6.80843">
        <ele>367.399994</ele>
        <time>2012-04-22T08:18:06Z</time>
      </trkpt>
      <trkpt lat="43.50369" lon="6.80839">
        <ele>368.600006</ele>
        <time>2012-04-22T08:18:13Z</time>
      </trkpt>
      <trkpt lat="43.50348" lon="6.80838">
        <ele>370.799988</ele>
        <time>2012-04-22T08:18:20Z</time>
      </trkpt>
      <trkpt lat="43.50343" lon="6.80837">
        <ele>371.200012</ele>
        <time>2012-04-22T08:18:22Z</time>
      </trkpt>
      <trkpt lat="43.50337" lon="6.80837">
        <ele>372</ele>
        <time>2012-04-22T08:18:24Z</time>
      </trkpt>
      <trkpt lat="43.50333" lon="6.80838">
        <ele>373</ele>
        <time>2012-04-22T08:18:26Z</time>
      </trkpt>
      <trkpt lat="43.50327" lon="6.80838">
        <ele>373</ele>
        <time>2012-04-22T08:18:28Z</time>
      </trkpt>
      <trkpt lat="43.50322" lon="6.80838">
        <ele>373</ele>
        <time>2012-04-22T08:18:30Z</time>
      </trkpt>
      <trkpt lat="43.50306" lon="6.80841">
        <ele>373.600006</ele>
        <time>2012-04-22T08:18:36Z</time>
      </trkpt>
      <trkpt lat="43.50288" lon="6.80843">
        <ele>373.799988</ele>
        <time>2012-04-22T08:18:43Z</time>
      </trkpt>
      <trkpt lat="43.50279" lon="6.80844">
        <ele>374.200012</ele>
        <time>2012-04-22T08:18:46Z</time>
      </trkpt>
      <trkpt lat="43.50274" lon="6.80845">
        <ele>374.399994</ele>
        <time>2012-04-22T08:18:48Z</time>
      </trkpt>
      <trkpt lat="43.50269" lon="6.80846">
        <ele>374.799988</ele>
        <time>2012-04-22T08:18:50Z</time>
      </trkpt>
      <trkpt lat="43.50263" lon="6.80847">
        <ele>375</ele>
        <time>2012-04-22T08:18:52Z</time>
      </trkpt>
      <trkpt lat="43.50257" lon="6.80848">
        <ele>375</ele>
        <time>2012-04-22T08:18:54Z</time>
      </trkpt>
      <trkpt lat="43.50234" lon="6.80852">
        <ele>374.200012</ele>
        <time>2012-04-22T08:19:01Z</time>
      </trkpt>
      <trkpt lat="43.50208" lon="6.80862">
        <ele>374.200012</ele>
        <time>2012-04-22T08:19:08Z</time>
      </trkpt>
      <trkpt lat="43.50192" lon="6.80868">
        <ele>374.399994</ele>
        <time>2012-04-22T08:19:12Z</time>
      </trkpt>
      <trkpt lat="43.50179" lon="6.80873">
        <ele>374.399994</ele>
        <time>2012-04-22T08:19:15Z</time>
      </trkpt>
      <trkpt lat="43.5017" lon="6.80877">
        <ele>374.200012</ele>
        <time>2012-04-22T08:19:17Z</time>
      </trkpt>
      <trkpt lat="43.50162" lon="6.80879">
        <ele>374.200012</ele>
        <time>2012-04-22T08:19:19Z</time>
      </trkpt>
      <trkpt lat="43.50154" lon="6.80882">
        <ele>374.200012</ele>
        <time>2012-04-22T08:19:21Z</time>
      </trkpt>
      <trkpt lat="43.50121" lon="6.80891">
        <ele>373.600006</ele>
        <time>2012-04-22T08:19:29Z</time>
      </trkpt>
      <trkpt lat="43.50085" lon="6.80902">
        <ele>373.200012</ele>
        <time>2012-04-22T08:19:38Z</time>
      </trkpt>
      <trkpt lat="43.50062" lon="6.8091">
        <ele>376.600006</ele>
        <time>2012-04-22T08:19:44Z</time>
      </trkpt>
      <trkpt lat="43.50054" lon="6.80913">
        <ele>377.799988</ele>
        <time>2012-04-22T08:19:46Z</time>
      </trkpt>
      <trkpt lat="43.50046" lon="6.80915">
        <ele>378.799988</ele>
        <time>2012-04-22T08:19:48Z</time>
      </trkpt>
      <trkpt lat="43.50039" lon="6.80917">
        <ele>379.600006</ele>
        <time>2012-04-22T08:19:50Z</time>
      </trkpt>
      <trkpt lat="43.50032" lon="6.80917">
        <ele>380</ele>
        <time>2012-04-22T08:19:52Z</time>
      </trkpt>
      <trkpt lat="43.50014" lon="6.80915">
        <ele>380</ele>
        <time>2012-04-22T08:19:57Z</time>
      </trkpt>
      <trkpt lat="43.49999" lon="6.80918">
        <ele>381.200012</ele>
        <time>2012-04-22T08:20:01Z</time>
      </trkpt>
      <trkpt lat="43.49989" lon="6.80921">
        <ele>382.399994</ele>
        <time>2012-04-22T08:20:05Z</time>
      </trkpt>
      <trkpt lat="43.49982" lon="6.80924">
        <ele>383.200012</ele>
        <time>2012-04-22T08:20:08Z</time>
      </trkpt>
      <trkpt lat="43.49978" lon="6.80928">
        <ele>383.799988</ele>
        <time>2012-04-22T08:20:11Z</time>
      </trkpt>
      <trkpt lat="43.49975" lon="6.80935">
        <ele>384.600006</ele>
        <time>2012-04-22T08:20:16Z</time>
      </trkpt>
      <trkpt lat="43.49971" lon="6.8094">
        <ele>385</ele>
        <time>2012-04-22T08:20:19Z</time>
      </trkpt>
      <trkpt lat="43.49965" lon="6.80943">
        <ele>385.200012</ele>
        <time>2012-04-22T08:20:23Z</time>
      </trkpt>
      <trkpt lat="43.4996" lon="6.80944">
        <ele>385.200012</ele>
        <time>2012-04-22T08:20:31Z</time>
      </trkpt>
      <trkpt lat="43.49954" lon="6.80944">
        <ele>385</ele>
        <time>2012-04-22T08:20:40Z</time>
      </trkpt>
      <trkpt lat="43.49946" lon="6.80952">
        <ele>385</ele>
        <time>2012-04-22T08:20:57Z</time>
      </trkpt>
      <trkpt lat="43.49943" lon="6.80957">
        <ele>384.799988</ele>
        <time>2012-04-22T08:21:06Z</time>
      </trkpt>
      <trkpt lat="43.49942" lon="6.80964">
        <ele>384.600006</ele>
        <time>2012-04-22T08:21:21Z</time>
      </trkpt>
      <trkpt lat="43.49939" lon="6.80971">
        <ele>384.200012</ele>
        <time>2012-04-22T08:33:22Z</time>
      </trkpt>
      <trkpt lat="43.49934" lon="6.80974">
        <ele>383.600006</ele>
        <time>2012-04-22T08:33:29Z</time>
      </trkpt>
      <trkpt lat="43.49931" lon="6.80981">
        <ele>382.799988</ele>
        <time>2012-04-22T08:33:34Z</time>
      </trkpt>
      <trkpt lat="43.49937" lon="6.80985">
        <ele>383.600006</ele>
        <time>2012-04-22T08:33:39Z</time>
      </trkpt>
      <trkpt lat="43.49952" lon="6.80994">
        <ele>386.200012</ele>
        <time>2012-04-22T08:33:49Z</time>
      </trkpt>
      <trkpt lat="43.49958" lon="6.80999">
        <ele>387.399994</ele>
        <time>2012-04-22T08:33:53Z</time>
      </trkpt>
      <trkpt lat="43.49965" lon="6.81003">
        <ele>388.799988</ele>
        <time>2012-04-22T08:33:57Z</time>
      </trkpt>
      <trkpt lat="43.49972" lon="6.81007">
        <ele>390.399994</ele>
        <time>2012-04-22T08:34:01Z</time>
      </trkpt>
      <trkpt lat="43.49979" lon="6.81011">
        <ele>392</ele>
        <time>2012-04-22T08:34:05Z</time>
      </trkpt>
      <trkpt lat="43.49993" lon="6.81021">
        <ele>396.200012</ele>
        <time>2012-04-22T08:34:13Z</time>
      </trkpt>
      <trkpt lat="43.50001" lon="6.81027">
        <ele>398.600006</ele>
        <time>2012-04-22T08:34:17Z</time>
      </trkpt>
      <trkpt lat="43.50008" lon="6.8103">
        <ele>400</ele>
        <time>2012-04-22T08:34:21Z</time>
      </trkpt>
      <trkpt lat="43.50015" lon="6.81032">
        <ele>401.200012</ele>
        <time>2012-04-22T08:34:25Z</time>
      </trkpt>
      <trkpt lat="43.50022" lon="6.81033">
        <ele>402.200012</ele>
        <time>2012-04-22T08:34:29Z</time>
      </trkpt>
      <trkpt lat="43.50029" lon="6.81034">
        <ele>403.399994</ele>
        <time>2012-04-22T08:34:33Z</time>
      </trkpt>
      <trkpt lat="43.50034" lon="6.81034">
        <ele>404</ele>
        <time>2012-04-22T08:34:36Z</time>
      </trkpt>
      <trkpt lat="43.50041" lon="6.81034">
        <ele>405</ele>
        <time>2012-04-22T08:34:40Z</time>
      </trkpt>
      <trkpt lat="43.50045" lon="6.81033">
        <ele>405.600006</ele>
        <time>2012-04-22T08:34:43Z</time>
      </trkpt>
      <trkpt lat="43.50062" lon="6.81027">
        <ele>406.399994</ele>
        <time>2012-04-22T08:34:53Z</time>
      </trkpt>
      <trkpt lat="43.50071" lon="6.81023">
        <ele>406.399994</ele>
        <time>2012-04-22T08:34:59Z</time>
      </trkpt>
      <trkpt lat="43.50076" lon="6.81021">
        <ele>406.600006</ele>
        <time>2012-04-22T08:35:02Z</time>
      </trkpt>
      <trkpt lat="43.50082" lon="6.81017">
        <ele>406</ele>
        <time>2012-04-22T08:35:06Z</time>
      </trkpt>
      <trkpt lat="43.50087" lon="6.81014">
        <ele>406.200012</ele>
        <time>2012-04-22T08:35:09Z</time>
      </trkpt>
      <trkpt lat="43.50094" lon="6.81011">
        <ele>406.799988</ele>
        <time>2012-04-22T08:35:13Z</time>
      </trkpt>
      <trkpt lat="43.50098" lon="6.81009">
        <ele>407</ele>
        <time>2012-04-22T08:35:16Z</time>
      </trkpt>
      <trkpt lat="43.50103" lon="6.81006">
        <ele>407.200012</ele>
        <time>2012-04-22T08:35:19Z</time>
      </trkpt>
      <trkpt lat="43.5011" lon="6.81004">
        <ele>407.799988</ele>
        <time>2012-04-22T08:35:23Z</time>
      </trkpt>
      <trkpt lat="43.50117" lon="6.81">
        <ele>408.200012</ele>
        <time>2012-04-22T08:35:27Z</time>
      </trkpt>
      <trkpt lat="43.50126" lon="6.80998">
        <ele>409.600006</ele>
        <time>2012-04-22T08:35:31Z</time>
      </trkpt>
      <trkpt lat="43.50138" lon="6.80994">
        <ele>410.799988</ele>
        <time>2012-04-22T08:35:37Z</time>
      </trkpt>
      <trkpt lat="43.50146" lon="6.80992">
        <ele>411.799988</ele>
        <time>2012-04-22T08:35:41Z</time>
      </trkpt>
      <trkpt lat="43.50153" lon="6.8099">
        <ele>412.600006</ele>
        <time>2012-04-22T08:35:45Z</time>
      </trkpt>
      <trkpt lat="43.50161" lon="6.80986">
        <ele>413</ele>
        <time>2012-04-22T08:35:49Z</time>
      </trkpt>
      <trkpt lat="43.50166" lon="6.80985">
        <ele>413.399994</ele>
        <time>2012-04-22T08:35:51Z</time>
      </trkpt>
      <trkpt lat="43.5017" lon="6.80984">
        <ele>414</ele>
        <time>2012-04-22T08:35:53Z</time>
      </trkpt>
      <trkpt lat="43.50175" lon="6.80984">
        <ele>414.799988</ele>
        <time>2012-04-22T08:35:55Z</time>
      </trkpt>
      <trkpt lat="43.5019" lon="6.80983">
        <ele>417.399994</ele>
        <time>2012-04-22T08:36:02Z</time>
      </trkpt>
      <trkpt lat="43.50198" lon="6.80982">
        <ele>418.799988</ele>
        <time>2012-04-22T08:36:06Z</time>
      </trkpt>
      <trkpt lat="43.50207" lon="6.8098">
        <ele>419.600006</ele>
        <time>2012-04-22T08:36:10Z</time>
      </trkpt>
      <trkpt lat="43.50222" lon="6.80974">
        <ele>420.399994</ele>
        <time>2012-04-22T08:36:19Z</time>
      </trkpt>
      <trkpt lat="43.50229" lon="6.80971">
        <ele>420.600006</ele>
        <time>2012-04-22T08:36:23Z</time>
      </trkpt>
      <trkpt lat="43.50237" lon="6.80969">
        <ele>421.399994</ele>
        <time>2012-04-22T08:36:27Z</time>
      </trkpt>
      <trkpt lat="43.50242" lon="6.80967">
        <ele>421.600006</ele>
        <time>2012-04-22T08:36:30Z</time>
      </trkpt>
      <trkpt lat="43.50249" lon="6.80964">
        <ele>421.600006</ele>
        <time>2012-04-22T08:36:34Z</time>
      </trkpt>
      <trkpt lat="43.50256" lon="6.80962">
        <ele>421.600006</ele>
        <time>2012-04-22T08:36:38Z</time>
      </trkpt>
      <trkpt lat="43.50264" lon="6.8096">
        <ele>421.399994</ele>
        <time>2012-04-22T08:36:42Z</time>
      </trkpt>
      <trkpt lat="43.50274" lon="6.80957">
        <ele>421.600006</ele>
        <time>2012-04-22T08:36:47Z</time>
      </trkpt>
      <trkpt lat="43.50282" lon="6.80956">
        <ele>421.799988</ele>
        <time>2012-04-22T08:36:51Z</time>
      </trkpt>
      <trkpt lat="43.50291" lon="6.80955">
        <ele>422.200012</ele>
        <time>2012-04-22T08:36:55Z</time>
      </trkpt>
      <trkpt lat="43.50299" lon="6.80955">
        <ele>423.200012</ele>
        <time>2012-04-22T08:36:59Z</time>
      </trkpt>
      <trkpt lat="43.50307" lon="6.80955">
        <ele>423.799988</ele>
        <time>2012-04-22T08:37:03Z</time>
      </trkpt>
      <trkpt lat="43.50314" lon="6.80955">
        <ele>424.600006</ele>
        <time>2012-04-22T08:37:07Z</time>
      </trkpt>
      <trkpt lat="43.50318" lon="6.80955">
        <ele>425.200012</ele>
        <time>2012-04-22T08:37:10Z</time>
      </trkpt>
      <trkpt lat="43.50324" lon="6.80954">
        <ele>425</ele>
        <time>2012-04-22T08:37:16Z</time>
      </trkpt>
      <trkpt lat="43.50329" lon="6.80954">
        <ele>425.600006</ele>
        <time>2012-04-22T08:38:11Z</time>
      </trkpt>
      <trkpt lat="43.50337" lon="6.80959">
        <ele>427.399994</ele>
        <time>2012-04-22T08:38:16Z</time>
      </trkpt>
      <trkpt lat="43.50345" lon="6.80962">
        <ele>427.200012</ele>
        <time>2012-04-22T08:38:20Z</time>
      </trkpt>
      <trkpt lat="43.5035" lon="6.80965">
        <ele>427.399994</ele>
        <time>2012-04-22T08:38:23Z</time>
      </trkpt>
      <trkpt lat="43.50356" lon="6.80969">
        <ele>427.600006</ele>
        <time>2012-04-22T08:38:27Z</time>
      </trkpt>
      <trkpt lat="43.50363" lon="6.80974">
        <ele>428.399994</ele>
        <time>2012-04-22T08:38:31Z</time>
      </trkpt>
      <trkpt lat="43.50369" lon="6.80979">
        <ele>429</ele>
        <time>2012-04-22T08:38:35Z</time>
      </trkpt>
      <trkpt lat="43.50375" lon="6.80984">
        <ele>429.600006</ele>
        <time>2012-04-22T08:38:39Z</time>
      </trkpt>
      <trkpt lat="43.50382" lon="6.80989">
        <ele>430.399994</ele>
        <time>2012-04-22T08:38:43Z</time>
      </trkpt>
      <trkpt lat="43.50387" lon="6.80994">
        <ele>431.200012</ele>
        <time>2012-04-22T08:38:46Z</time>
      </trkpt>
      <trkpt lat="43.50393" lon="6.81001">
        <ele>432.200012</ele>
        <time>2012-04-22T08:38:50Z</time>
      </trkpt>
      <trkpt lat="43.50398" lon="6.81006">
        <ele>433</ele>
        <time>2012-04-22T08:38:53Z</time>
      </trkpt>
      <trkpt lat="43.50405" lon="6.81013">
        <ele>433.799988</ele>
        <time>2012-04-22T08:38:57Z</time>
      </trkpt>
      <trkpt lat="43.5041" lon="6.81019">
        <ele>434.600006</ele>
        <time>2012-04-22T08:39:01Z</time>
      </trkpt>
      <trkpt lat="43.50414" lon="6.81025">
        <ele>435.799988</ele>
        <time>2012-04-22T08:39:04Z</time>
      </trkpt>
      <trkpt lat="43.50417" lon="6.81035">
        <ele>438</ele>
        <time>2012-04-22T08:39:08Z</time>
      </trkpt>
      <trkpt lat="43.50421" lon="6.81044">
        <ele>439.600006</ele>
        <time>2012-04-22T08:39:12Z</time>
      </trkpt>
      <trkpt lat="43.50424" lon="6.81051">
        <ele>440.600006</ele>
        <time>2012-04-22T08:39:15Z</time>
      </trkpt>
      <trkpt lat="43.50428" lon="6.81061">
        <ele>441.600006</ele>
        <time>2012-04-22T08:39:19Z</time>
      </trkpt>
      <trkpt lat="43.50431" lon="6.81071">
        <ele>443.399994</ele>
        <time>2012-04-22T08:39:23Z</time>
      </trkpt>
      <trkpt lat="43.50436" lon="6.81083">
        <ele>444.600006</ele>
        <time>2012-04-22T08:39:29Z</time>
      </trkpt>
      <trkpt lat="43.5044" lon="6.81091">
        <ele>444</ele>
        <time>2012-04-22T08:39:33Z</time>
      </trkpt>
      <trkpt lat="43.50445" lon="6.81101">
        <ele>442.799988</ele>
        <time>2012-04-22T08:39:37Z</time>
      </trkpt>
      <trkpt lat="43.50449" lon="6.81109">
        <ele>442.200012</ele>
        <time>2012-04-22T08:39:40Z</time>
      </trkpt>
      <trkpt lat="43.50451" lon="6.8112">
        <ele>443.200012</ele>
        <time>2012-04-22T08:39:44Z</time>
      </trkpt>
      <trkpt lat="43.50451" lon="6.81127">
        <ele>444.399994</ele>
        <time>2012-04-22T08:39:47Z</time>
      </trkpt>
      <trkpt lat="43.50451" lon="6.81143">
        <ele>447.600006</ele>
        <time>2012-04-22T08:39:52Z</time>
      </trkpt>
      <trkpt lat="43.50449" lon="6.81153">
        <ele>450.799988</ele>
        <time>2012-04-22T08:39:55Z</time>
      </trkpt>
      <trkpt lat="43.50448" lon="6.8116">
        <ele>452.200012</ele>
        <time>2012-04-22T08:39:57Z</time>
      </trkpt>
      <trkpt lat="43.50448" lon="6.81166">
        <ele>454</ele>
        <time>2012-04-22T08:39:59Z</time>
      </trkpt>
      <trkpt lat="43.50446" lon="6.81178">
        <ele>456.600006</ele>
        <time>2012-04-22T08:40:03Z</time>
      </trkpt>
      <trkpt lat="43.50443" lon="6.81189">
        <ele>459</ele>
        <time>2012-04-22T08:40:07Z</time>
      </trkpt>
      <trkpt lat="43.50444" lon="6.81205">
        <ele>460.200012</ele>
        <time>2012-04-22T08:40:13Z</time>
      </trkpt>
      <trkpt lat="43.50444" lon="6.81214">
        <ele>461</ele>
        <time>2012-04-22T08:40:16Z</time>
      </trkpt>
      <trkpt lat="43.50443" lon="6.81222">
        <ele>462.799988</ele>
        <time>2012-04-22T08:40:19Z</time>
      </trkpt>
      <trkpt lat="43.50441" lon="6.8125">
        <ele>466.399994</ele>
        <time>2012-04-22T08:40:29Z</time>
      </trkpt>
      <trkpt lat="43.50443" lon="6.8126">
        <ele>468</ele>
        <time>2012-04-22T08:40:33Z</time>
      </trkpt>
      <trkpt lat="43.50446" lon="6.81271">
        <ele>469.600006</ele>
        <time>2012-04-22T08:40:37Z</time>
      </trkpt>
      <trkpt lat="43.5045" lon="6.81286">
        <ele>471.799988</ele>
        <time>2012-04-22T08:40:43Z</time>
      </trkpt>
      <trkpt lat="43.50454" lon="6.81295">
        <ele>472.799988</ele>
        <time>2012-04-22T08:40:47Z</time>
      </trkpt>
      <trkpt lat="43.50458" lon="6.81301">
        <ele>472.799988</ele>
        <time>2012-04-22T08:40:51Z</time>
      </trkpt>
      <trkpt lat="43.50464" lon="6.81306">
        <ele>472.399994</ele>
        <time>2012-04-22T08:40:55Z</time>
      </trkpt>
      <trkpt lat="43.50469" lon="6.81311">
        <ele>472</ele>
        <time>2012-04-22T08:40:59Z</time>
      </trkpt>
      <trkpt lat="43.50473" lon="6.81317">
        <ele>472.200012</ele>
        <time>2012-04-22T08:41:04Z</time>
      </trkpt>
      <trkpt lat="43.50472" lon="6.81323">
        <ele>474.399994</ele>
        <time>2012-04-22T08:41:09Z</time>
      </trkpt>
      <trkpt lat="43.50465" lon="6.81321">
        <ele>476</ele>
        <time>2012-04-22T08:41:13Z</time>
      </trkpt>
      <trkpt lat="43.50459" lon="6.81317">
        <ele>476.799988</ele>
        <time>2012-04-22T08:41:17Z</time>
      </trkpt>
      <trkpt lat="43.50453" lon="6.81312">
        <ele>477.200012</ele>
        <time>2012-04-22T08:41:21Z</time>
      </trkpt>
      <trkpt lat="43.50448" lon="6.81306">
        <ele>477.600006</ele>
        <time>2012-04-22T08:41:25Z</time>
      </trkpt>
      <trkpt lat="43.50444" lon="6.813">
        <ele>477.399994</ele>
        <time>2012-04-22T08:41:29Z</time>
      </trkpt>
      <trkpt lat="43.5044" lon="6.81291">
        <ele>476.799988</ele>
        <time>2012-04-22T08:41:33Z</time>
      </trkpt>
      <trkpt lat="43.50437" lon="6.81282">
        <ele>475.600006</ele>
        <time>2012-04-22T08:41:37Z</time>
      </trkpt>
      <trkpt lat="43.50434" lon="6.81272">
        <ele>474.600006</ele>
        <time>2012-04-22T08:41:41Z</time>
      </trkpt>
      <trkpt lat="43.50432" lon="6.81264">
        <ele>473.799988</ele>
        <time>2012-04-22T08:41:44Z</time>
      </trkpt>
      <trkpt lat="43.50428" lon="6.81255">
        <ele>473</ele>
        <time>2012-04-22T08:41:48Z</time>
      </trkpt>
      <trkpt lat="43.50419" lon="6.81236">
        <ele>475.200012</ele>
        <time>2012-04-22T08:41:57Z</time>
      </trkpt>
      <trkpt lat="43.50416" lon="6.81227">
        <ele>476</ele>
        <time>2012-04-22T08:42:01Z</time>
      </trkpt>
      <trkpt lat="43.50412" lon="6.81216">
        <ele>477</ele>
        <time>2012-04-22T08:42:05Z</time>
      </trkpt>
      <trkpt lat="43.5041" lon="6.81205">
        <ele>477.200012</ele>
        <time>2012-04-22T08:42:09Z</time>
      </trkpt>
      <trkpt lat="43.50409" lon="6.81195">
        <ele>477.200012</ele>
        <time>2012-04-22T08:42:13Z</time>
      </trkpt>
      <trkpt lat="43.50407" lon="6.81187">
        <ele>477.799988</ele>
        <time>2012-04-22T08:42:17Z</time>
      </trkpt>
      <trkpt lat="43.50404" lon="6.81179">
        <ele>478.200012</ele>
        <time>2012-04-22T08:42:20Z</time>
      </trkpt>
      <trkpt lat="43.50403" lon="6.81171">
        <ele>478.200012</ele>
        <time>2012-04-22T08:42:23Z</time>
      </trkpt>
      <trkpt lat="43.50401" lon="6.81155">
        <ele>476.399994</ele>
        <time>2012-04-22T08:42:29Z</time>
      </trkpt>
      <trkpt lat="43.50398" lon="6.81145">
        <ele>475.399994</ele>
        <time>2012-04-22T08:42:34Z</time>
      </trkpt>
      <trkpt lat="43.50396" lon="6.81136">
        <ele>474.200012</ele>
        <time>2012-04-22T08:42:38Z</time>
      </trkpt>
      <trkpt lat="43.50392" lon="6.81124">
        <ele>472.799988</ele>
        <time>2012-04-22T08:42:42Z</time>
      </trkpt>
      <trkpt lat="43.5039" lon="6.81118">
        <ele>472.200012</ele>
        <time>2012-04-22T08:42:44Z</time>
      </trkpt>
      <trkpt lat="43.50384" lon="6.81103">
        <ele>471</ele>
        <time>2012-04-22T08:42:50Z</time>
      </trkpt>
      <trkpt lat="43.50375" lon="6.81086">
        <ele>470</ele>
        <time>2012-04-22T08:42:58Z</time>
      </trkpt>
      <trkpt lat="43.5037" lon="6.81081">
        <ele>469.399994</ele>
        <time>2012-04-22T08:43:01Z</time>
      </trkpt>
      <trkpt lat="43.50365" lon="6.81074">
        <ele>468.600006</ele>
        <time>2012-04-22T08:43:05Z</time>
      </trkpt>
      <trkpt lat="43.50348" lon="6.81065">
        <ele>470</ele>
        <time>2012-04-22T08:43:14Z</time>
      </trkpt>
      <trkpt lat="43.5034" lon="6.81063">
        <ele>471.399994</ele>
        <time>2012-04-22T08:43:18Z</time>
      </trkpt>
      <trkpt lat="43.50332" lon="6.81062">
        <ele>473</ele>
        <time>2012-04-22T08:43:22Z</time>
      </trkpt>
      <trkpt lat="43.50313" lon="6.81071">
        <ele>474.200012</ele>
        <time>2012-04-22T08:43:32Z</time>
      </trkpt>
      <trkpt lat="43.503" lon="6.81082">
        <ele>477.399994</ele>
        <time>2012-04-22T08:43:40Z</time>
      </trkpt>
      <trkpt lat="43.50293" lon="6.81089">
        <ele>479</ele>
        <time>2012-04-22T08:43:44Z</time>
      </trkpt>
      <trkpt lat="43.50285" lon="6.81095">
        <ele>480.200012</ele>
        <time>2012-04-22T08:43:48Z</time>
      </trkpt>
      <trkpt lat="43.50275" lon="6.81103">
        <ele>481.600006</ele>
        <time>2012-04-22T08:43:53Z</time>
      </trkpt>
      <trkpt lat="43.50268" lon="6.81109">
        <ele>483</ele>
        <time>2012-04-22T08:43:57Z</time>
      </trkpt>
      <trkpt lat="43.50261" lon="6.81116">
        <ele>484.399994</ele>
        <time>2012-04-22T08:44:01Z</time>
      </trkpt>
      <trkpt lat="43.5025" lon="6.81124">
        <ele>486.200012</ele>
        <time>2012-04-22T08:44:07Z</time>
      </trkpt>
      <trkpt lat="43.50243" lon="6.8113">
        <ele>485.799988</ele>
        <time>2012-04-22T08:44:11Z</time>
      </trkpt>
      <trkpt lat="43.50235" lon="6.81135">
        <ele>485.200012</ele>
        <time>2012-04-22T08:44:15Z</time>
      </trkpt>
      <trkpt lat="43.5023" lon="6.8114">
        <ele>485</ele>
        <time>2012-04-22T08:44:18Z</time>
      </trkpt>
      <trkpt lat="43.50224" lon="6.81148">
        <ele>485.600006</ele>
        <time>2012-04-22T08:44:22Z</time>
      </trkpt>
      <trkpt lat="43.50219" lon="6.81157">
        <ele>486.600006</ele>
        <time>2012-04-22T08:44:26Z</time>
      </trkpt>
      <trkpt lat="43.50215" lon="6.81167">
        <ele>488.200012</ele>
        <time>2012-04-22T08:44:30Z</time>
      </trkpt>
      <trkpt lat="43.50213" lon="6.81178">
        <ele>488.200012</ele>
        <time>2012-04-22T08:44:34Z</time>
      </trkpt>
      <trkpt lat="43.5021" lon="6.81193">
        <ele>488.799988</ele>
        <time>2012-04-22T08:44:39Z</time>
      </trkpt>
      <trkpt lat="43.5021" lon="6.81204">
        <ele>489.799988</ele>
        <time>2012-04-22T08:44:43Z</time>
      </trkpt>
      <trkpt lat="43.50209" lon="6.81214">
        <ele>490.799988</ele>
        <time>2012-04-22T08:44:47Z</time>
      </trkpt>
      <trkpt lat="43.50209" lon="6.81223">
        <ele>491.600006</ele>
        <time>2012-04-22T08:44:51Z</time>
      </trkpt>
      <trkpt lat="43.5021" lon="6.81233">
        <ele>492.799988</ele>
        <time>2012-04-22T08:44:55Z</time>
      </trkpt>
      <trkpt lat="43.5021" lon="6.81248">
        <ele>494.799988</ele>
        <time>2012-04-22T08:45:01Z</time>
      </trkpt>
      <trkpt lat="43.5021" lon="6.81259">
        <ele>495.600006</ele>
        <time>2012-04-22T08:45:05Z</time>
      </trkpt>
      <trkpt lat="43.5021" lon="6.81269">
        <ele>496.600006</ele>
        <time>2012-04-22T08:45:09Z</time>
      </trkpt>
      <trkpt lat="43.5021" lon="6.81306">
        <ele>499.399994</ele>
        <time>2012-04-22T08:45:22Z</time>
      </trkpt>
      <trkpt lat="43.5021" lon="6.81318">
        <ele>500.399994</ele>
        <time>2012-04-22T08:45:26Z</time>
      </trkpt>
      <trkpt lat="43.5021" lon="6.81329">
        <ele>501.200012</ele>
        <time>2012-04-22T08:45:30Z</time>
      </trkpt>
      <trkpt lat="43.5021" lon="6.81338">
        <ele>502</ele>
        <time>2012-04-22T08:45:33Z</time>
      </trkpt>
      <trkpt lat="43.5021" lon="6.81349">
        <ele>503.399994</ele>
        <time>2012-04-22T08:45:37Z</time>
      </trkpt>
      <trkpt lat="43.50209" lon="6.81361">
        <ele>504.399994</ele>
        <time>2012-04-22T08:45:41Z</time>
      </trkpt>
      <trkpt lat="43.50205" lon="6.81372">
        <ele>503.799988</ele>
        <time>2012-04-22T08:45:45Z</time>
      </trkpt>
      <trkpt lat="43.50199" lon="6.8138">
        <ele>501.799988</ele>
        <time>2012-04-22T08:45:49Z</time>
      </trkpt>
      <trkpt lat="43.50191" lon="6.81395">
        <ele>500</ele>
        <time>2012-04-22T08:45:56Z</time>
      </trkpt>
      <trkpt lat="43.50189" lon="6.81407">
        <ele>500.399994</ele>
        <time>2012-04-22T08:46:00Z</time>
      </trkpt>
      <trkpt lat="43.50189" lon="6.81418">
        <ele>501.600006</ele>
        <time>2012-04-22T08:46:04Z</time>
      </trkpt>
      <trkpt lat="43.50188" lon="6.81429">
        <ele>502.399994</ele>
        <time>2012-04-22T08:46:08Z</time>
      </trkpt>
      <trkpt lat="43.50188" lon="6.8144">
        <ele>503</ele>
        <time>2012-04-22T08:46:12Z</time>
      </trkpt>
      <trkpt lat="43.50191" lon="6.81476">
        <ele>507.399994</ele>
        <time>2012-04-22T08:46:25Z</time>
      </trkpt>
      <trkpt lat="43.50192" lon="6.81487">
        <ele>509.200012</ele>
        <time>2012-04-22T08:46:29Z</time>
      </trkpt>
      <trkpt lat="43.50193" lon="6.81498">
        <ele>510.399994</ele>
        <time>2012-04-22T08:46:33Z</time>
      </trkpt>
      <trkpt lat="43.50194" lon="6.81518">
        <ele>511.799988</ele>
        <time>2012-04-22T08:46:40Z</time>
      </trkpt>
      <trkpt lat="43.50194" lon="6.81529">
        <ele>512.599976</ele>
        <time>2012-04-22T08:46:44Z</time>
      </trkpt>
      <trkpt lat="43.50195" lon="6.8154">
        <ele>513.200012</ele>
        <time>2012-04-22T08:46:48Z</time>
      </trkpt>
      <trkpt lat="43.50195" lon="6.81551">
        <ele>514.200012</ele>
        <time>2012-04-22T08:46:52Z</time>
      </trkpt>
      <trkpt lat="43.50196" lon="6.81562">
        <ele>515.200012</ele>
        <time>2012-04-22T08:46:56Z</time>
      </trkpt>
      <trkpt lat="43.50198" lon="6.81571">
        <ele>516.400024</ele>
        <time>2012-04-22T08:46:59Z</time>
      </trkpt>
      <trkpt lat="43.502" lon="6.81582">
        <ele>518.400024</ele>
        <time>2012-04-22T08:47:03Z</time>
      </trkpt>
      <trkpt lat="43.50204" lon="6.81593">
        <ele>520.799988</ele>
        <time>2012-04-22T08:47:07Z</time>
      </trkpt>
      <trkpt lat="43.50209" lon="6.81609">
        <ele>524.599976</ele>
        <time>2012-04-22T08:47:13Z</time>
      </trkpt>
      <trkpt lat="43.50212" lon="6.8162">
        <ele>526.400024</ele>
        <time>2012-04-22T08:47:17Z</time>
      </trkpt>
      <trkpt lat="43.50212" lon="6.8163">
        <ele>527</ele>
        <time>2012-04-22T08:47:21Z</time>
      </trkpt>
      <trkpt lat="43.50209" lon="6.81655">
        <ele>526.799988</ele>
        <time>2012-04-22T08:47:30Z</time>
      </trkpt>
      <trkpt lat="43.50207" lon="6.81666">
        <ele>526.400024</ele>
        <time>2012-04-22T08:47:34Z</time>
      </trkpt>
      <trkpt lat="43.50205" lon="6.81674">
        <ele>527.200012</ele>
        <time>2012-04-22T08:47:37Z</time>
      </trkpt>
      <trkpt lat="43.50201" lon="6.81684">
        <ele>528</ele>
        <time>2012-04-22T08:47:41Z</time>
      </trkpt>
      <trkpt lat="43.5019" lon="6.81703">
        <ele>529</ele>
        <time>2012-04-22T08:47:50Z</time>
      </trkpt>
      <trkpt lat="43.50177" lon="6.81715">
        <ele>529.400024</ele>
        <time>2012-04-22T08:47:57Z</time>
      </trkpt>
      <trkpt lat="43.5017" lon="6.81722">
        <ele>530.200012</ele>
        <time>2012-04-22T08:48:01Z</time>
      </trkpt>
      <trkpt lat="43.50164" lon="6.81728">
        <ele>530.799988</ele>
        <time>2012-04-22T08:48:05Z</time>
      </trkpt>
      <trkpt lat="43.5015" lon="6.81739">
        <ele>531.200012</ele>
        <time>2012-04-22T08:48:13Z</time>
      </trkpt>
      <trkpt lat="43.50145" lon="6.81745">
        <ele>531.799988</ele>
        <time>2012-04-22T08:48:17Z</time>
      </trkpt>
      <trkpt lat="43.50139" lon="6.81751">
        <ele>532.400024</ele>
        <time>2012-04-22T08:48:21Z</time>
      </trkpt>
      <trkpt lat="43.50135" lon="6.81756">
        <ele>533</ele>
        <time>2012-04-22T08:48:24Z</time>
      </trkpt>
      <trkpt lat="43.50129" lon="6.81762">
        <ele>533.799988</ele>
        <time>2012-04-22T08:48:28Z</time>
      </trkpt>
      <trkpt lat="43.50123" lon="6.81768">
        <ele>534.200012</ele>
        <time>2012-04-22T08:48:32Z</time>
      </trkpt>
      <trkpt lat="43.5011" lon="6.81778">
        <ele>534.400024</ele>
        <time>2012-04-22T08:48:40Z</time>
      </trkpt>
      <trkpt lat="43.50103" lon="6.81784">
        <ele>534.400024</ele>
        <time>2012-04-22T08:48:44Z</time>
      </trkpt>
      <trkpt lat="43.50096" lon="6.81788">
        <ele>534.200012</ele>
        <time>2012-04-22T08:48:48Z</time>
      </trkpt>
      <trkpt lat="43.50089" lon="6.81792">
        <ele>533.799988</ele>
        <time>2012-04-22T08:48:52Z</time>
      </trkpt>
      <trkpt lat="43.50082" lon="6.81794">
        <ele>532.599976</ele>
        <time>2012-04-22T08:48:56Z</time>
      </trkpt>
      <trkpt lat="43.50075" lon="6.81796">
        <ele>532</ele>
        <time>2012-04-22T08:49:00Z</time>
      </trkpt>
      <trkpt lat="43.50067" lon="6.81806">
        <ele>533.200012</ele>
        <time>2012-04-22T08:49:07Z</time>
      </trkpt>
      <trkpt lat="43.50072" lon="6.81817">
        <ele>537.599976</ele>
        <time>2012-04-22T08:49:12Z</time>
      </trkpt>
      <trkpt lat="43.50079" lon="6.81818">
        <ele>539.799988</ele>
        <time>2012-04-22T08:49:15Z</time>
      </trkpt>
      <trkpt lat="43.50087" lon="6.81814">
        <ele>540.400024</ele>
        <time>2012-04-22T08:49:19Z</time>
      </trkpt>
      <trkpt lat="43.50094" lon="6.81808">
        <ele>540.200012</ele>
        <time>2012-04-22T08:49:23Z</time>
      </trkpt>
      <trkpt lat="43.50112" lon="6.81797">
        <ele>541.200012</ele>
        <time>2012-04-22T08:49:33Z</time>
      </trkpt>
      <trkpt lat="43.50127" lon="6.81792">
        <ele>543.400024</ele>
        <time>2012-04-22T08:49:41Z</time>
      </trkpt>
      <trkpt lat="43.50142" lon="6.81784">
        <ele>544.599976</ele>
        <time>2012-04-22T08:49:49Z</time>
      </trkpt>
      <trkpt lat="43.50148" lon="6.81781">
        <ele>545</ele>
        <time>2012-04-22T08:49:52Z</time>
      </trkpt>
      <trkpt lat="43.50155" lon="6.81778">
        <ele>545.799988</ele>
        <time>2012-04-22T08:49:56Z</time>
      </trkpt>
      <trkpt lat="43.50163" lon="6.81774">
        <ele>546.599976</ele>
        <time>2012-04-22T08:50:00Z</time>
      </trkpt>
      <trkpt lat="43.50179" lon="6.81765">
        <ele>545</ele>
        <time>2012-04-22T08:50:09Z</time>
      </trkpt>
      <trkpt lat="43.50187" lon="6.81763">
        <ele>544.400024</ele>
        <time>2012-04-22T08:50:13Z</time>
      </trkpt>
      <trkpt lat="43.50195" lon="6.81761">
        <ele>544.400024</ele>
        <time>2012-04-22T08:50:17Z</time>
      </trkpt>
      <trkpt lat="43.50203" lon="6.81758">
        <ele>544.200012</ele>
        <time>2012-04-22T08:50:21Z</time>
      </trkpt>
      <trkpt lat="43.50209" lon="6.81757">
        <ele>544.400024</ele>
        <time>2012-04-22T08:50:24Z</time>
      </trkpt>
      <trkpt lat="43.50218" lon="6.81756">
        <ele>544.599976</ele>
        <time>2012-04-22T08:50:28Z</time>
      </trkpt>
      <trkpt lat="43.50229" lon="6.81754">
        <ele>545</ele>
        <time>2012-04-22T08:50:33Z</time>
      </trkpt>
      <trkpt lat="43.50235" lon="6.81752">
        <ele>545</ele>
        <time>2012-04-22T08:50:36Z</time>
      </trkpt>
      <trkpt lat="43.50242" lon="6.8175">
        <ele>545.200012</ele>
        <time>2012-04-22T08:50:40Z</time>
      </trkpt>
      <trkpt lat="43.50248" lon="6.81748">
        <ele>545.799988</ele>
        <time>2012-04-22T08:50:44Z</time>
      </trkpt>
      <trkpt lat="43.50253" lon="6.81747">
        <ele>545.400024</ele>
        <time>2012-04-22T08:50:48Z</time>
      </trkpt>
      <trkpt lat="43.50258" lon="6.8174">
        <ele>544.400024</ele>
        <time>2012-04-22T08:50:54Z</time>
      </trkpt>
      <trkpt lat="43.50262" lon="6.8173">
        <ele>544</ele>
        <time>2012-04-22T08:50:58Z</time>
      </trkpt>
      <trkpt lat="43.50266" lon="6.81723">
        <ele>544</ele>
        <time>2012-04-22T08:51:01Z</time>
      </trkpt>
      <trkpt lat="43.50271" lon="6.81715">
        <ele>544</ele>
        <time>2012-04-22T08:51:05Z</time>
      </trkpt>
      <trkpt lat="43.50281" lon="6.81694">
        <ele>545.599976</ele>
        <time>2012-04-22T08:51:15Z</time>
      </trkpt>
      <trkpt lat="43.50284" lon="6.81689">
        <ele>546.400024</ele>
        <time>2012-04-22T08:51:18Z</time>
      </trkpt>
      <trkpt lat="43.50288" lon="6.81682">
        <ele>547.599976</ele>
        <time>2012-04-22T08:51:22Z</time>
      </trkpt>
      <trkpt lat="43.50292" lon="6.81673">
        <ele>549</ele>
        <time>2012-04-22T08:51:26Z</time>
      </trkpt>
      <trkpt lat="43.50293" lon="6.81663">
        <ele>550.599976</ele>
        <time>2012-04-22T08:51:30Z</time>
      </trkpt>
      <trkpt lat="43.50291" lon="6.81652">
        <ele>551.200012</ele>
        <time>2012-04-22T08:51:34Z</time>
      </trkpt>
      <trkpt lat="43.50286" lon="6.81632">
        <ele>552</ele>
        <time>2012-04-22T08:51:40Z</time>
      </trkpt>
      <trkpt lat="43.50285" lon="6.81619">
        <ele>553</ele>
        <time>2012-04-22T08:51:43Z</time>
      </trkpt>
      <trkpt lat="43.50285" lon="6.8161">
        <ele>553.599976</ele>
        <time>2012-04-22T08:51:45Z</time>
      </trkpt>
      <trkpt lat="43.50285" lon="6.816">
        <ele>554.400024</ele>
        <time>2012-04-22T08:51:47Z</time>
      </trkpt>
      <trkpt lat="43.50282" lon="6.81587">
        <ele>555</ele>
        <time>2012-04-22T08:51:50Z</time>
      </trkpt>
      <trkpt lat="43.5028" lon="6.81578">
        <ele>554</ele>
        <time>2012-04-22T08:51:52Z</time>
      </trkpt>
      <trkpt lat="43.50276" lon="6.8157">
        <ele>552.599976</ele>
        <time>2012-04-22T08:51:54Z</time>
      </trkpt>
      <trkpt lat="43.50273" lon="6.81563">
        <ele>551</ele>
        <time>2012-04-22T08:51:56Z</time>
      </trkpt>
      <trkpt lat="43.50268" lon="6.81557">
        <ele>549.599976</ele>
        <time>2012-04-22T08:51:58Z</time>
      </trkpt>
      <trkpt lat="43.50263" lon="6.81547">
        <ele>547.599976</ele>
        <time>2012-04-22T08:52:02Z</time>
      </trkpt>
      <trkpt lat="43.50263" lon="6.8154">
        <ele>547</ele>
        <time>2012-04-22T08:52:06Z</time>
      </trkpt>
      <trkpt lat="43.50265" lon="6.81533">
        <ele>547</ele>
        <time>2012-04-22T08:59:06Z</time>
      </trkpt>
      <trkpt lat="43.50271" lon="6.81522">
        <ele>547.200012</ele>
        <time>2012-04-22T08:59:09Z</time>
      </trkpt>
      <trkpt lat="43.50275" lon="6.81511">
        <ele>547.200012</ele>
        <time>2012-04-22T08:59:11Z</time>
      </trkpt>
      <trkpt lat="43.50279" lon="6.81499">
        <ele>546.799988</ele>
        <time>2012-04-22T08:59:13Z</time>
      </trkpt>
      <trkpt lat="43.50286" lon="6.81485">
        <ele>545.799988</ele>
        <time>2012-04-22T08:59:16Z</time>
      </trkpt>
      <trkpt lat="43.50291" lon="6.81479">
        <ele>545.599976</ele>
        <time>2012-04-22T08:59:18Z</time>
      </trkpt>
      <trkpt lat="43.50296" lon="6.81472">
        <ele>545.400024</ele>
        <time>2012-04-22T08:59:20Z</time>
      </trkpt>
      <trkpt lat="43.50299" lon="6.81466">
        <ele>544.599976</ele>
        <time>2012-04-22T08:59:22Z</time>
      </trkpt>
      <trkpt lat="43.503" lon="6.81458">
        <ele>543.599976</ele>
        <time>2012-04-22T08:59:24Z</time>
      </trkpt>
      <trkpt lat="43.50302" lon="6.8144">
        <ele>541</ele>
        <time>2012-04-22T08:59:28Z</time>
      </trkpt>
      <trkpt lat="43.50301" lon="6.81431">
        <ele>539.400024</ele>
        <time>2012-04-22T08:59:30Z</time>
      </trkpt>
      <trkpt lat="43.50299" lon="6.81422">
        <ele>537.599976</ele>
        <time>2012-04-22T08:59:32Z</time>
      </trkpt>
      <trkpt lat="43.50295" lon="6.81413">
        <ele>536</ele>
        <time>2012-04-22T08:59:35Z</time>
      </trkpt>
      <trkpt lat="43.50292" lon="6.81404">
        <ele>534.400024</ele>
        <time>2012-04-22T08:59:38Z</time>
      </trkpt>
      <trkpt lat="43.5029" lon="6.81396">
        <ele>533</ele>
        <time>2012-04-22T08:59:40Z</time>
      </trkpt>
      <trkpt lat="43.50288" lon="6.8139">
        <ele>532</ele>
        <time>2012-04-22T08:59:42Z</time>
      </trkpt>
      <trkpt lat="43.50286" lon="6.81382">
        <ele>531</ele>
        <time>2012-04-22T09:00:03Z</time>
      </trkpt>
      <trkpt lat="43.50284" lon="6.81376">
        <ele>529.799988</ele>
        <time>2012-04-22T09:00:05Z</time>
      </trkpt>
      <trkpt lat="43.50276" lon="6.81359">
        <ele>527</ele>
        <time>2012-04-22T09:00:09Z</time>
      </trkpt>
      <trkpt lat="43.50273" lon="6.81351">
        <ele>525.799988</ele>
        <time>2012-04-22T09:00:11Z</time>
      </trkpt>
      <trkpt lat="43.50271" lon="6.81344">
        <ele>524.799988</ele>
        <time>2012-04-22T09:00:13Z</time>
      </trkpt>
      <trkpt lat="43.50269" lon="6.81336">
        <ele>523.599976</ele>
        <time>2012-04-22T09:00:15Z</time>
      </trkpt>
      <trkpt lat="43.50265" lon="6.81323">
        <ele>522</ele>
        <time>2012-04-22T09:00:18Z</time>
      </trkpt>
      <trkpt lat="43.50261" lon="6.81315">
        <ele>520.799988</ele>
        <time>2012-04-22T09:00:20Z</time>
      </trkpt>
      <trkpt lat="43.50259" lon="6.81304">
        <ele>519.400024</ele>
        <time>2012-04-22T09:00:23Z</time>
      </trkpt>
      <trkpt lat="43.50259" lon="6.81297">
        <ele>518.599976</ele>
        <time>2012-04-22T09:00:25Z</time>
      </trkpt>
      <trkpt lat="43.50259" lon="6.8129">
        <ele>518</ele>
        <time>2012-04-22T09:00:27Z</time>
      </trkpt>
      <trkpt lat="43.50262" lon="6.81283">
        <ele>517.400024</ele>
        <time>2012-04-22T09:00:30Z</time>
      </trkpt>
      <trkpt lat="43.50266" lon="6.81272">
        <ele>516.400024</ele>
        <time>2012-04-22T09:00:34Z</time>
      </trkpt>
      <trkpt lat="43.50267" lon="6.81265">
        <ele>515.799988</ele>
        <time>2012-04-22T09:00:36Z</time>
      </trkpt>
      <trkpt lat="43.50269" lon="6.81257">
        <ele>515</ele>
        <time>2012-04-22T09:00:39Z</time>
      </trkpt>
      <trkpt lat="43.50271" lon="6.81247">
        <ele>514</ele>
        <time>2012-04-22T09:00:43Z</time>
      </trkpt>
      <trkpt lat="43.50272" lon="6.81237">
        <ele>512.799988</ele>
        <time>2012-04-22T09:00:46Z</time>
      </trkpt>
      <trkpt lat="43.50271" lon="6.81231">
        <ele>511.799988</ele>
        <time>2012-04-22T09:00:48Z</time>
      </trkpt>
      <trkpt lat="43.5027" lon="6.81224">
        <ele>510.799988</ele>
        <time>2012-04-22T09:00:50Z</time>
      </trkpt>
      <trkpt lat="43.50269" lon="6.81217">
        <ele>509.799988</ele>
        <time>2012-04-22T09:00:52Z</time>
      </trkpt>
      <trkpt lat="43.50271" lon="6.81211">
        <ele>509</ele>
        <time>2012-04-22T09:00:54Z</time>
      </trkpt>
      <trkpt lat="43.50275" lon="6.81201">
        <ele>508</ele>
        <time>2012-04-22T09:00:57Z</time>
      </trkpt>
      <trkpt lat="43.50279" lon="6.81197">
        <ele>507.799988</ele>
        <time>2012-04-22T09:00:59Z</time>
      </trkpt>
      <trkpt lat="43.50283" lon="6.81193">
        <ele>507.399994</ele>
        <time>2012-04-22T09:01:01Z</time>
      </trkpt>
      <trkpt lat="43.50289" lon="6.81185">
        <ele>506.799988</ele>
        <time>2012-04-22T09:01:05Z</time>
      </trkpt>
      <trkpt lat="43.50291" lon="6.81179">
        <ele>506.200012</ele>
        <time>2012-04-22T09:01:13Z</time>
      </trkpt>
      <trkpt lat="43.50295" lon="6.81172">
        <ele>505.399994</ele>
        <time>2012-04-22T09:01:32Z</time>
      </trkpt>
      <trkpt lat="43.50298" lon="6.81164">
        <ele>504.200012</ele>
        <time>2012-04-22T09:01:34Z</time>
      </trkpt>
      <trkpt lat="43.50303" lon="6.81156">
        <ele>501.799988</ele>
        <time>2012-04-22T09:01:36Z</time>
      </trkpt>
      <trkpt lat="43.50308" lon="6.81147">
        <ele>499.600006</ele>
        <time>2012-04-22T09:01:38Z</time>
      </trkpt>
      <trkpt lat="43.50311" lon="6.81142">
        <ele>498.200012</ele>
        <time>2012-04-22T09:01:39Z</time>
      </trkpt>
      <trkpt lat="43.50317" lon="6.81131">
        <ele>495.200012</ele>
        <time>2012-04-22T09:01:41Z</time>
      </trkpt>
      <trkpt lat="43.50322" lon="6.81122">
        <ele>492.799988</ele>
        <time>2012-04-22T09:01:42Z</time>
      </trkpt>
      <trkpt lat="43.5033" lon="6.81112">
        <ele>490.600006</ele>
        <time>2012-04-22T09:01:44Z</time>
      </trkpt>
      <trkpt lat="43.50338" lon="6.81114">
        <ele>489.799988</ele>
        <time>2012-04-22T09:01:46Z</time>
      </trkpt>
      <trkpt lat="43.50345" lon="6.8112">
        <ele>489.200012</ele>
        <time>2012-04-22T09:01:48Z</time>
      </trkpt>
      <trkpt lat="43.50352" lon="6.81126">
        <ele>488.399994</ele>
        <time>2012-04-22T09:01:50Z</time>
      </trkpt>
      <trkpt lat="43.50355" lon="6.81133">
        <ele>489</ele>
        <time>2012-04-22T09:01:52Z</time>
      </trkpt>
      <trkpt lat="43.50358" lon="6.81144">
        <ele>491</ele>
        <time>2012-04-22T09:01:54Z</time>
      </trkpt>
      <trkpt lat="43.50364" lon="6.81165">
        <ele>494.399994</ele>
        <time>2012-04-22T09:01:57Z</time>
      </trkpt>
      <trkpt lat="43.50366" lon="6.81171">
        <ele>494.600006</ele>
        <time>2012-04-22T09:01:58Z</time>
      </trkpt>
      <trkpt lat="43.50367" lon="6.81178">
        <ele>494.600006</ele>
        <time>2012-04-22T09:01:59Z</time>
      </trkpt>
      <trkpt lat="43.50369" lon="6.81184">
        <ele>494.200012</ele>
        <time>2012-04-22T09:02:00Z</time>
      </trkpt>
      <trkpt lat="43.50372" lon="6.8119">
        <ele>493.799988</ele>
        <time>2012-04-22T09:02:01Z</time>
      </trkpt>
      <trkpt lat="43.50378" lon="6.812">
        <ele>491.799988</ele>
        <time>2012-04-22T09:02:03Z</time>
      </trkpt>
      <trkpt lat="43.50384" lon="6.81212">
        <ele>490.200012</ele>
        <time>2012-04-22T09:02:05Z</time>
      </trkpt>
      <trkpt lat="43.50387" lon="6.81222">
        <ele>489.399994</ele>
        <time>2012-04-22T09:02:08Z</time>
      </trkpt>
      <trkpt lat="43.50393" lon="6.8122">
        <ele>486.399994</ele>
        <time>2012-04-22T09:02:19Z</time>
      </trkpt>
      <trkpt lat="43.504" lon="6.81223">
        <ele>483.399994</ele>
        <time>2012-04-22T09:02:29Z</time>
      </trkpt>
      <trkpt lat="43.50405" lon="6.8122">
        <ele>480.600006</ele>
        <time>2012-04-22T09:02:59Z</time>
      </trkpt>
      <trkpt lat="43.50403" lon="6.81213">
        <ele>481.399994</ele>
        <time>2012-04-22T09:03:28Z</time>
      </trkpt>
      <trkpt lat="43.50402" lon="6.812">
        <ele>480.600006</ele>
        <time>2012-04-22T09:03:31Z</time>
      </trkpt>
      <trkpt lat="43.50404" lon="6.81163">
        <ele>476.600006</ele>
        <time>2012-04-22T09:03:40Z</time>
      </trkpt>
      <trkpt lat="43.50406" lon="6.81156">
        <ele>474.600006</ele>
        <time>2012-04-22T09:03:46Z</time>
      </trkpt>
      <trkpt lat="43.50405" lon="6.81147">
        <ele>473.200012</ele>
        <time>2012-04-22T09:04:20Z</time>
      </trkpt>
      <trkpt lat="43.50405" lon="6.81136">
        <ele>470.799988</ele>
        <time>2012-04-22T09:04:23Z</time>
      </trkpt>
      <trkpt lat="43.50405" lon="6.8113">
        <ele>469.399994</ele>
        <time>2012-04-22T09:04:25Z</time>
      </trkpt>
      <trkpt lat="43.50404" lon="6.81122">
        <ele>468</ele>
        <time>2012-04-22T09:04:27Z</time>
      </trkpt>
      <trkpt lat="43.50402" lon="6.81111">
        <ele>466.399994</ele>
        <time>2012-04-22T09:04:29Z</time>
      </trkpt>
      <trkpt lat="43.50401" lon="6.81096">
        <ele>463.600006</ele>
        <time>2012-04-22T09:04:32Z</time>
      </trkpt>
      <trkpt lat="43.50399" lon="6.81085">
        <ele>461.799988</ele>
        <time>2012-04-22T09:04:34Z</time>
      </trkpt>
      <trkpt lat="43.50398" lon="6.81073">
        <ele>457.799988</ele>
        <time>2012-04-22T09:04:37Z</time>
      </trkpt>
      <trkpt lat="43.50396" lon="6.81066">
        <ele>456.200012</ele>
        <time>2012-04-22T09:04:39Z</time>
      </trkpt>
      <trkpt lat="43.5039" lon="6.81055">
        <ele>453.600006</ele>
        <time>2012-04-22T09:04:41Z</time>
      </trkpt>
      <trkpt lat="43.50387" lon="6.81049">
        <ele>452</ele>
        <time>2012-04-22T09:04:42Z</time>
      </trkpt>
      <trkpt lat="43.50375" lon="6.81029">
        <ele>447.799988</ele>
        <time>2012-04-22T09:04:45Z</time>
      </trkpt>
      <trkpt lat="43.5037" lon="6.81023">
        <ele>447</ele>
        <time>2012-04-22T09:04:46Z</time>
      </trkpt>
      <trkpt lat="43.50361" lon="6.81015">
        <ele>446.200012</ele>
        <time>2012-04-22T09:04:48Z</time>
      </trkpt>
      <trkpt lat="43.50356" lon="6.81012">
        <ele>446</ele>
        <time>2012-04-22T09:04:49Z</time>
      </trkpt>
      <trkpt lat="43.50345" lon="6.81005">
        <ele>446</ele>
        <time>2012-04-22T09:04:51Z</time>
      </trkpt>
      <trkpt lat="43.50335" lon="6.80998">
        <ele>445.799988</ele>
        <time>2012-04-22T09:04:53Z</time>
      </trkpt>
      <trkpt lat="43.50329" lon="6.80997">
        <ele>444.799988</ele>
        <time>2012-04-22T09:04:54Z</time>
      </trkpt>
      <trkpt lat="43.50323" lon="6.80995">
        <ele>443.600006</ele>
        <time>2012-04-22T09:04:55Z</time>
      </trkpt>
      <trkpt lat="43.50309" lon="6.80993">
        <ele>440.600006</ele>
        <time>2012-04-22T09:04:57Z</time>
      </trkpt>
      <trkpt lat="43.50296" lon="6.80989">
        <ele>437.399994</ele>
        <time>2012-04-22T09:04:59Z</time>
      </trkpt>
      <trkpt lat="43.5029" lon="6.80989">
        <ele>436.399994</ele>
        <time>2012-04-22T09:05:00Z</time>
      </trkpt>
      <trkpt lat="43.50278" lon="6.80992">
        <ele>436.600006</ele>
        <time>2012-04-22T09:05:02Z</time>
      </trkpt>
      <trkpt lat="43.50272" lon="6.80995">
        <ele>436.600006</ele>
        <time>2012-04-22T09:05:03Z</time>
      </trkpt>
      <trkpt lat="43.50263" lon="6.80997">
        <ele>436.600006</ele>
        <time>2012-04-22T09:05:05Z</time>
      </trkpt>
      <trkpt lat="43.50251" lon="6.81002">
        <ele>437</ele>
        <time>2012-04-22T09:05:08Z</time>
      </trkpt>
      <trkpt lat="43.50246" lon="6.81004">
        <ele>436.799988</ele>
        <time>2012-04-22T09:05:09Z</time>
      </trkpt>
      <trkpt lat="43.50231" lon="6.81004">
        <ele>433.600006</ele>
        <time>2012-04-22T09:05:13Z</time>
      </trkpt>
      <trkpt lat="43.50225" lon="6.81005">
        <ele>433</ele>
        <time>2012-04-22T09:05:15Z</time>
      </trkpt>
      <trkpt lat="43.5022" lon="6.81005">
        <ele>432</ele>
        <time>2012-04-22T09:05:17Z</time>
      </trkpt>
      <trkpt lat="43.50214" lon="6.81004">
        <ele>430.399994</ele>
        <time>2012-04-22T09:05:20Z</time>
      </trkpt>
      <trkpt lat="43.50209" lon="6.81007">
        <ele>430.399994</ele>
        <time>2012-04-22T09:05:23Z</time>
      </trkpt>
      <trkpt lat="43.502" lon="6.81009">
        <ele>429.399994</ele>
        <time>2012-04-22T09:05:27Z</time>
      </trkpt>
      <trkpt lat="43.5019" lon="6.8101">
        <ele>427.799988</ele>
        <time>2012-04-22T09:05:29Z</time>
      </trkpt>
      <trkpt lat="43.50186" lon="6.81012">
        <ele>427.399994</ele>
        <time>2012-04-22T09:05:30Z</time>
      </trkpt>
      <trkpt lat="43.50176" lon="6.81013">
        <ele>425.799988</ele>
        <time>2012-04-22T09:05:33Z</time>
      </trkpt>
      <trkpt lat="43.50167" lon="6.81015">
        <ele>424.600006</ele>
        <time>2012-04-22T09:05:35Z</time>
      </trkpt>
      <trkpt lat="43.50161" lon="6.81017">
        <ele>424</ele>
        <time>2012-04-22T09:05:36Z</time>
      </trkpt>
      <trkpt lat="43.50147" lon="6.81021">
        <ele>422.200012</ele>
        <time>2012-04-22T09:05:38Z</time>
      </trkpt>
      <trkpt lat="43.50139" lon="6.81024">
        <ele>421.399994</ele>
        <time>2012-04-22T09:05:39Z</time>
      </trkpt>
      <trkpt lat="43.50133" lon="6.81026">
        <ele>420.799988</ele>
        <time>2012-04-22T09:05:40Z</time>
      </trkpt>
      <trkpt lat="43.50126" lon="6.81029">
        <ele>420</ele>
        <time>2012-04-22T09:05:41Z</time>
      </trkpt>
      <trkpt lat="43.50114" lon="6.81035">
        <ele>418.799988</ele>
        <time>2012-04-22T09:05:43Z</time>
      </trkpt>
      <trkpt lat="43.50108" lon="6.81038">
        <ele>418.399994</ele>
        <time>2012-04-22T09:05:44Z</time>
      </trkpt>
      <trkpt lat="43.50101" lon="6.81041">
        <ele>417.799988</ele>
        <time>2012-04-22T09:05:45Z</time>
      </trkpt>
      <trkpt lat="43.50095" lon="6.81044">
        <ele>417</ele>
        <time>2012-04-22T09:05:46Z</time>
      </trkpt>
      <trkpt lat="43.5009" lon="6.81045">
        <ele>416.399994</ele>
        <time>2012-04-22T09:05:47Z</time>
      </trkpt>
      <trkpt lat="43.50079" lon="6.81049">
        <ele>414.799988</ele>
        <time>2012-04-22T09:05:49Z</time>
      </trkpt>
      <trkpt lat="43.50074" lon="6.81051">
        <ele>414.399994</ele>
        <time>2012-04-22T09:05:50Z</time>
      </trkpt>
      <trkpt lat="43.50064" lon="6.81054">
        <ele>413.600006</ele>
        <time>2012-04-22T09:05:52Z</time>
      </trkpt>
      <trkpt lat="43.5006" lon="6.81055">
        <ele>413</ele>
        <time>2012-04-22T09:05:53Z</time>
      </trkpt>
      <trkpt lat="43.50055" lon="6.81056">
        <ele>412.200012</ele>
        <time>2012-04-22T09:05:54Z</time>
      </trkpt>
      <trkpt lat="43.50046" lon="6.81056">
        <ele>410.399994</ele>
        <time>2012-04-22T09:05:56Z</time>
      </trkpt>
      <trkpt lat="43.50038" lon="6.81054">
        <ele>408.399994</ele>
        <time>2012-04-22T09:05:58Z</time>
      </trkpt>
      <trkpt lat="43.50033" lon="6.81051">
        <ele>407</ele>
        <time>2012-04-22T09:05:59Z</time>
      </trkpt>
      <trkpt lat="43.5002" lon="6.81046">
        <ele>404</ele>
        <time>2012-04-22T09:06:01Z</time>
      </trkpt>
      <trkpt lat="43.50007" lon="6.81041">
        <ele>401.200012</ele>
        <time>2012-04-22T09:06:03Z</time>
      </trkpt>
      <trkpt lat="43.50002" lon="6.81037">
        <ele>399.799988</ele>
        <time>2012-04-22T09:06:04Z</time>
      </trkpt>
      <trkpt lat="43.49997" lon="6.81035">
        <ele>398.200012</ele>
        <time>2012-04-22T09:06:05Z</time>
      </trkpt>
      <trkpt lat="43.49988" lon="6.81027">
        <ele>395</ele>
        <time>2012-04-22T09:06:07Z</time>
      </trkpt>
      <trkpt lat="43.49981" lon="6.8102">
        <ele>392.600006</ele>
        <time>2012-04-22T09:06:09Z</time>
      </trkpt>
      <trkpt lat="43.49948" lon="6.80989">
        <ele>385.200012</ele>
        <time>2012-04-22T09:09:06Z</time>
      </trkpt>
      <trkpt lat="43.49944" lon="6.80986">
        <ele>384.600006</ele>
        <time>2012-04-22T09:09:07Z</time>
      </trkpt>
      <trkpt lat="43.49927" lon="6.80953">
        <ele>384</ele>
        <time>2012-04-22T09:09:12Z</time>
      </trkpt>
      <trkpt lat="43.49925" lon="6.80944">
        <ele>384.600006</ele>
        <time>2012-04-22T09:09:13Z</time>
      </trkpt>
      <trkpt lat="43.49918" lon="6.80911">
        <ele>386</ele>
        <time>2012-04-22T09:09:18Z</time>
      </trkpt>
      <trkpt lat="43.49916" lon="6.80904">
        <ele>385.200012</ele>
        <time>2012-04-22T09:09:19Z</time>
      </trkpt>
      <trkpt lat="43.49913" lon="6.80896">
        <ele>384.200012</ele>
        <time>2012-04-22T09:09:20Z</time>
      </trkpt>
      <trkpt lat="43.4991" lon="6.80889">
        <ele>383.200012</ele>
        <time>2012-04-22T09:09:21Z</time>
      </trkpt>
      <trkpt lat="43.49901" lon="6.80875">
        <ele>382.200012</ele>
        <time>2012-04-22T09:09:23Z</time>
      </trkpt>
      <trkpt lat="43.49897" lon="6.80868">
        <ele>382</ele>
        <time>2012-04-22T09:09:24Z</time>
      </trkpt>
      <trkpt lat="43.49887" lon="6.80846">
        <ele>381.600006</ele>
        <time>2012-04-22T09:09:27Z</time>
      </trkpt>
      <trkpt lat="43.49883" lon="6.80839">
        <ele>381.799988</ele>
        <time>2012-04-22T09:09:28Z</time>
      </trkpt>
      <trkpt lat="43.49875" lon="6.80825">
        <ele>381.399994</ele>
        <time>2012-04-22T09:09:30Z</time>
      </trkpt>
      <trkpt lat="43.49867" lon="6.80813">
        <ele>381</ele>
        <time>2012-04-22T09:09:32Z</time>
      </trkpt>
      <trkpt lat="43.49864" lon="6.80807">
        <ele>380.799988</ele>
        <time>2012-04-22T09:09:33Z</time>
      </trkpt>
      <trkpt lat="43.4986" lon="6.808">
        <ele>380.600006</ele>
        <time>2012-04-22T09:09:34Z</time>
      </trkpt>
      <trkpt lat="43.49853" lon="6.80785">
        <ele>380.200012</ele>
        <time>2012-04-22T09:09:36Z</time>
      </trkpt>
      <trkpt lat="43.4985" lon="6.80779">
        <ele>380.200012</ele>
        <time>2012-04-22T09:09:37Z</time>
      </trkpt>
      <trkpt lat="43.49844" lon="6.80767">
        <ele>380.399994</ele>
        <time>2012-04-22T09:09:40Z</time>
      </trkpt>
      <trkpt lat="43.49839" lon="6.80763">
        <ele>381.600006</ele>
        <time>2012-04-22T09:09:44Z</time>
      </trkpt>
      <trkpt lat="43.49832" lon="6.80756">
        <ele>382.600006</ele>
        <time>2012-04-22T09:09:53Z</time>
      </trkpt>
      <trkpt lat="43.49827" lon="6.80742">
        <ele>380.799988</ele>
        <time>2012-04-22T09:09:57Z</time>
      </trkpt>
      <trkpt lat="43.49821" lon="6.80724">
        <ele>378.799988</ele>
        <time>2012-04-22T09:10:02Z</time>
      </trkpt>
      <trkpt lat="43.49803" lon="6.80695">
        <ele>376.799988</ele>
        <time>2012-04-22T09:10:09Z</time>
      </trkpt>
      <trkpt lat="43.49798" lon="6.80688">
        <ele>376.799988</ele>
        <time>2012-04-22T09:10:11Z</time>
      </trkpt>
      <trkpt lat="43.49786" lon="6.8066">
        <ele>376.799988</ele>
        <time>2012-04-22T09:10:16Z</time>
      </trkpt>
      <trkpt lat="43.49784" lon="6.80644">
        <ele>377</ele>
        <time>2012-04-22T09:10:19Z</time>
      </trkpt>
      <trkpt lat="43.49785" lon="6.80628">
        <ele>376.600006</ele>
        <time>2012-04-22T09:10:22Z</time>
      </trkpt>
      <trkpt lat="43.49785" lon="6.8062">
        <ele>376.600006</ele>
        <time>2012-04-22T09:10:24Z</time>
      </trkpt>
      <trkpt lat="43.49776" lon="6.80598">
        <ele>378.399994</ele>
        <time>2012-04-22T09:10:31Z</time>
      </trkpt>
      <trkpt lat="43.49771" lon="6.80574">
        <ele>379.799988</ele>
        <time>2012-04-22T09:10:39Z</time>
      </trkpt>
      <trkpt lat="43.49771" lon="6.80567">
        <ele>380</ele>
        <time>2012-04-22T09:10:43Z</time>
      </trkpt>
      <trkpt lat="43.49774" lon="6.80555">
        <ele>379.799988</ele>
        <time>2012-04-22T09:10:55Z</time>
      </trkpt>
      <trkpt lat="43.49774" lon="6.80548">
        <ele>380.200012</ele>
        <time>2012-04-22T09:11:00Z</time>
      </trkpt>
      <trkpt lat="43.49772" lon="6.80537">
        <ele>380.799988</ele>
        <time>2012-04-22T09:11:08Z</time>
      </trkpt>
      <trkpt lat="43.49771" lon="6.80531">
        <ele>381.200012</ele>
        <time>2012-04-22T09:11:35Z</time>
      </trkpt>
      <trkpt lat="43.49767" lon="6.80515">
        <ele>382.200012</ele>
        <time>2012-04-22T09:11:42Z</time>
      </trkpt>
      <trkpt lat="43.49761" lon="6.80491">
        <ele>383.600006</ele>
        <time>2012-04-22T09:11:48Z</time>
      </trkpt>
      <trkpt lat="43.4975" lon="6.80459">
        <ele>387</ele>
        <time>2012-04-22T09:11:54Z</time>
      </trkpt>
      <trkpt lat="43.49743" lon="6.80444">
        <ele>385.799988</ele>
        <time>2012-04-22T09:11:57Z</time>
      </trkpt>
      <trkpt lat="43.49734" lon="6.80423">
        <ele>384.799988</ele>
        <time>2012-04-22T09:12:02Z</time>
      </trkpt>
      <trkpt lat="43.49727" lon="6.80413">
        <ele>383.600006</ele>
        <time>2012-04-22T09:12:05Z</time>
      </trkpt>
      <trkpt lat="43.49717" lon="6.80402">
        <ele>381.600006</ele>
        <time>2012-04-22T09:12:10Z</time>
      </trkpt>
      <trkpt lat="43.49701" lon="6.80382">
        <ele>379.200012</ele>
        <time>2012-04-22T09:12:16Z</time>
      </trkpt>
      <trkpt lat="43.49697" lon="6.80375">
        <ele>378.399994</ele>
        <time>2012-04-22T09:12:18Z</time>
      </trkpt>
      <trkpt lat="43.49692" lon="6.8037">
        <ele>377.600006</ele>
        <time>2012-04-22T09:12:20Z</time>
      </trkpt>
      <trkpt lat="43.49687" lon="6.80363">
        <ele>376.799988</ele>
        <time>2012-04-22T09:12:22Z</time>
      </trkpt>
      <trkpt lat="43.49682" lon="6.80348">
        <ele>377</ele>
        <time>2012-04-22T09:12:26Z</time>
      </trkpt>
      <trkpt lat="43.49683" lon="6.80341">
        <ele>378</ele>
        <time>2012-04-22T09:12:28Z</time>
      </trkpt>
      <trkpt lat="43.49684" lon="6.80333">
        <ele>379.200012</ele>
        <time>2012-04-22T09:12:30Z</time>
      </trkpt>
      <trkpt lat="43.49688" lon="6.80314">
        <ele>380.399994</ele>
        <time>2012-04-22T09:12:34Z</time>
      </trkpt>
      <trkpt lat="43.49687" lon="6.80306">
        <ele>380.200012</ele>
        <time>2012-04-22T09:12:36Z</time>
      </trkpt>
      <trkpt lat="43.49682" lon="6.80298">
        <ele>378.799988</ele>
        <time>2012-04-22T09:12:38Z</time>
      </trkpt>
      <trkpt lat="43.49678" lon="6.80293">
        <ele>377.799988</ele>
        <time>2012-04-22T09:12:39Z</time>
      </trkpt>
      <trkpt lat="43.49675" lon="6.80288">
        <ele>376.799988</ele>
        <time>2012-04-22T09:12:40Z</time>
      </trkpt>
      <trkpt lat="43.4967" lon="6.80279">
        <ele>375.600006</ele>
        <time>2012-04-22T09:12:42Z</time>
      </trkpt>
      <trkpt lat="43.49668" lon="6.8027">
        <ele>375.200012</ele>
        <time>2012-04-22T09:12:44Z</time>
      </trkpt>
      <trkpt lat="43.49668" lon="6.8026">
        <ele>375.200012</ele>
        <time>2012-04-22T09:12:46Z</time>
      </trkpt>
      <trkpt lat="43.49665" lon="6.80243">
        <ele>374</ele>
        <time>2012-04-22T09:12:49Z</time>
      </trkpt>
      <trkpt lat="43.49664" lon="6.80227">
        <ele>372</ele>
        <time>2012-04-22T09:12:52Z</time>
      </trkpt>
      <trkpt lat="43.49667" lon="6.80218">
        <ele>371.600006</ele>
        <time>2012-04-22T09:12:56Z</time>
      </trkpt>
      <trkpt lat="43.49672" lon="6.80205">
        <ele>371.200012</ele>
        <time>2012-04-22T09:13:33Z</time>
      </trkpt>
      <trkpt lat="43.49675" lon="6.80199">
        <ele>371.200012</ele>
        <time>2012-04-22T09:13:34Z</time>
      </trkpt>
      <trkpt lat="43.49683" lon="6.80186">
        <ele>371.399994</ele>
        <time>2012-04-22T09:13:36Z</time>
      </trkpt>
      <trkpt lat="43.49691" lon="6.80175">
        <ele>371.600006</ele>
        <time>2012-04-22T09:13:38Z</time>
      </trkpt>
      <trkpt lat="43.49696" lon="6.80168">
        <ele>371.399994</ele>
        <time>2012-04-22T09:13:39Z</time>
      </trkpt>
      <trkpt lat="43.497" lon="6.80163">
        <ele>371</ele>
        <time>2012-04-22T09:13:40Z</time>
      </trkpt>
      <trkpt lat="43.49705" lon="6.80157">
        <ele>370.200012</ele>
        <time>2012-04-22T09:13:41Z</time>
      </trkpt>
      <trkpt lat="43.49715" lon="6.80145">
        <ele>368.200012</ele>
        <time>2012-04-22T09:13:43Z</time>
      </trkpt>
      <trkpt lat="43.49719" lon="6.80139">
        <ele>367.399994</ele>
        <time>2012-04-22T09:13:44Z</time>
      </trkpt>
      <trkpt lat="43.49723" lon="6.80133">
        <ele>366.600006</ele>
        <time>2012-04-22T09:13:45Z</time>
      </trkpt>
      <trkpt lat="43.49729" lon="6.80124">
        <ele>365</ele>
        <time>2012-04-22T09:13:47Z</time>
      </trkpt>
      <trkpt lat="43.49736" lon="6.80115">
        <ele>363.399994</ele>
        <time>2012-04-22T09:13:49Z</time>
      </trkpt>
      <trkpt lat="43.49743" lon="6.80105">
        <ele>362</ele>
        <time>2012-04-22T09:13:51Z</time>
      </trkpt>
      <trkpt lat="43.49751" lon="6.80095">
        <ele>360.600006</ele>
        <time>2012-04-22T09:13:53Z</time>
      </trkpt>
      <trkpt lat="43.49759" lon="6.80084">
        <ele>359.600006</ele>
        <time>2012-04-22T09:13:55Z</time>
      </trkpt>
      <trkpt lat="43.49764" lon="6.80078">
        <ele>359.399994</ele>
        <time>2012-04-22T09:13:56Z</time>
      </trkpt>
      <trkpt lat="43.49775" lon="6.8007">
        <ele>360.200012</ele>
        <time>2012-04-22T09:13:58Z</time>
      </trkpt>
      <trkpt lat="43.49787" lon="6.80064">
        <ele>362</ele>
        <time>2012-04-22T09:14:00Z</time>
      </trkpt>
      <trkpt lat="43.49791" lon="6.80062">
        <ele>362.799988</ele>
        <time>2012-04-22T09:14:01Z</time>
      </trkpt>
      <trkpt lat="43.49804" lon="6.80051">
        <ele>363.200012</ele>
        <time>2012-04-22T09:14:04Z</time>
      </trkpt>
      <trkpt lat="43.49807" lon="6.80046">
        <ele>362.799988</ele>
        <time>2012-04-22T09:14:05Z</time>
      </trkpt>
      <trkpt lat="43.49818" lon="6.80023">
        <ele>359.399994</ele>
        <time>2012-04-22T09:14:10Z</time>
      </trkpt>
      <trkpt lat="43.49821" lon="6.80015">
        <ele>357.799988</ele>
        <time>2012-04-22T09:14:13Z</time>
      </trkpt>
      <trkpt lat="43.49828" lon="6.80002">
        <ele>356.200012</ele>
        <time>2012-04-22T09:14:20Z</time>
      </trkpt>
      <trkpt lat="43.49837" lon="6.79988">
        <ele>354.399994</ele>
        <time>2012-04-22T09:14:23Z</time>
      </trkpt>
      <trkpt lat="43.49843" lon="6.79979">
        <ele>353</ele>
        <time>2012-04-22T09:14:25Z</time>
      </trkpt>
      <trkpt lat="43.49847" lon="6.79974">
        <ele>352.600006</ele>
        <time>2012-04-22T09:14:26Z</time>
      </trkpt>
      <trkpt lat="43.49854" lon="6.79966">
        <ele>352</ele>
        <time>2012-04-22T09:14:28Z</time>
      </trkpt>
      <trkpt lat="43.49861" lon="6.79959">
        <ele>351.399994</ele>
        <time>2012-04-22T09:14:30Z</time>
      </trkpt>
      <trkpt lat="43.49867" lon="6.7995">
        <ele>350.399994</ele>
        <time>2012-04-22T09:14:32Z</time>
      </trkpt>
      <trkpt lat="43.4987" lon="6.79945">
        <ele>349.600006</ele>
        <time>2012-04-22T09:14:33Z</time>
      </trkpt>
      <trkpt lat="43.49877" lon="6.79933">
        <ele>348.200012</ele>
        <time>2012-04-22T09:14:35Z</time>
      </trkpt>
      <trkpt lat="43.49891" lon="6.79919">
        <ele>347.399994</ele>
        <time>2012-04-22T09:14:38Z</time>
      </trkpt>
      <trkpt lat="43.49901" lon="6.7991">
        <ele>347.600006</ele>
        <time>2012-04-22T09:14:40Z</time>
      </trkpt>
      <trkpt lat="43.49912" lon="6.79898">
        <ele>347.600006</ele>
        <time>2012-04-22T09:14:42Z</time>
      </trkpt>
      <trkpt lat="43.49918" lon="6.79893">
        <ele>347.600006</ele>
        <time>2012-04-22T09:14:43Z</time>
      </trkpt>
      <trkpt lat="43.49923" lon="6.79889">
        <ele>347.399994</ele>
        <time>2012-04-22T09:14:44Z</time>
      </trkpt>
      <trkpt lat="43.49931" lon="6.79884">
        <ele>347.200012</ele>
        <time>2012-04-22T09:14:46Z</time>
      </trkpt>
      <trkpt lat="43.49938" lon="6.79874">
        <ele>345.799988</ele>
        <time>2012-04-22T09:14:48Z</time>
      </trkpt>
      <trkpt lat="43.49944" lon="6.79864">
        <ele>344</ele>
        <time>2012-04-22T09:14:50Z</time>
      </trkpt>
      <trkpt lat="43.49948" lon="6.79859">
        <ele>343.399994</ele>
        <time>2012-04-22T09:14:51Z</time>
      </trkpt>
      <trkpt lat="43.49974" lon="6.79841">
        <ele>341.399994</ele>
        <time>2012-04-22T09:14:56Z</time>
      </trkpt>
      <trkpt lat="43.4999" lon="6.79824">
        <ele>339</ele>
        <time>2012-04-22T09:15:00Z</time>
      </trkpt>
      <trkpt lat="43.49996" lon="6.79817">
        <ele>338.200012</ele>
        <time>2012-04-22T09:15:02Z</time>
      </trkpt>
      <trkpt lat="43.50003" lon="6.7981">
        <ele>337.399994</ele>
        <time>2012-04-22T09:15:04Z</time>
      </trkpt>
      <trkpt lat="43.50008" lon="6.79807">
        <ele>336.799988</ele>
        <time>2012-04-22T09:15:05Z</time>
      </trkpt>
      <trkpt lat="43.50013" lon="6.79804">
        <ele>336.399994</ele>
        <time>2012-04-22T09:15:06Z</time>
      </trkpt>
      <trkpt lat="43.50021" lon="6.79799">
        <ele>335.600006</ele>
        <time>2012-04-22T09:15:08Z</time>
      </trkpt>
      <trkpt lat="43.50027" lon="6.79792">
        <ele>334.799988</ele>
        <time>2012-04-22T09:15:10Z</time>
      </trkpt>
      <trkpt lat="43.50034" lon="6.79781">
        <ele>333.200012</ele>
        <time>2012-04-22T09:15:12Z</time>
      </trkpt>
      <trkpt lat="43.50037" lon="6.79776">
        <ele>332.600006</ele>
        <time>2012-04-22T09:15:13Z</time>
      </trkpt>
      <trkpt lat="43.50044" lon="6.79765">
        <ele>331.399994</ele>
        <time>2012-04-22T09:15:16Z</time>
      </trkpt>
      <trkpt lat="43.50049" lon="6.79759">
        <ele>331</ele>
        <time>2012-04-22T09:15:18Z</time>
      </trkpt>
      <trkpt lat="43.50062" lon="6.79728">
        <ele>328.600006</ele>
        <time>2012-04-22T09:15:25Z</time>
      </trkpt>
      <trkpt lat="43.5007" lon="6.79722">
        <ele>329.200012</ele>
        <time>2012-04-22T09:15:27Z</time>
      </trkpt>
      <trkpt lat="43.5008" lon="6.79718">
        <ele>330.200012</ele>
        <time>2012-04-22T09:15:29Z</time>
      </trkpt>
      <trkpt lat="43.50089" lon="6.79718">
        <ele>329.799988</ele>
        <time>2012-04-22T09:15:32Z</time>
      </trkpt>
      <trkpt lat="43.50096" lon="6.79707">
        <ele>328.399994</ele>
        <time>2012-04-22T09:16:16Z</time>
      </trkpt>
      <trkpt lat="43.50105" lon="6.7969">
        <ele>327</ele>
        <time>2012-04-22T09:16:21Z</time>
      </trkpt>
      <trkpt lat="43.50111" lon="6.79681">
        <ele>326.399994</ele>
        <time>2012-04-22T09:16:23Z</time>
      </trkpt>
      <trkpt lat="43.50127" lon="6.79668">
        <ele>326</ele>
        <time>2012-04-22T09:16:27Z</time>
      </trkpt>
      <trkpt lat="43.5014" lon="6.79662">
        <ele>325.200012</ele>
        <time>2012-04-22T09:16:30Z</time>
      </trkpt>
      <trkpt lat="43.50148" lon="6.79657">
        <ele>324.799988</ele>
        <time>2012-04-22T09:16:32Z</time>
      </trkpt>
      <trkpt lat="43.50154" lon="6.79643">
        <ele>324</ele>
        <time>2012-04-22T09:16:35Z</time>
      </trkpt>
      <trkpt lat="43.50153" lon="6.79628">
        <ele>323</ele>
        <time>2012-04-22T09:16:37Z</time>
      </trkpt>
      <trkpt lat="43.50152" lon="6.7962">
        <ele>322.600006</ele>
        <time>2012-04-22T09:16:38Z</time>
      </trkpt>
      <trkpt lat="43.50152" lon="6.79605">
        <ele>321.600006</ele>
        <time>2012-04-22T09:16:40Z</time>
      </trkpt>
      <trkpt lat="43.50151" lon="6.79598">
        <ele>321.200012</ele>
        <time>2012-04-22T09:16:41Z</time>
      </trkpt>
      <trkpt lat="43.50146" lon="6.79585">
        <ele>320</ele>
        <time>2012-04-22T09:16:43Z</time>
      </trkpt>
      <trkpt lat="43.50142" lon="6.79571">
        <ele>318.799988</ele>
        <time>2012-04-22T09:16:45Z</time>
      </trkpt>
      <trkpt lat="43.50142" lon="6.79564">
        <ele>318</ele>
        <time>2012-04-22T09:16:46Z</time>
      </trkpt>
      <trkpt lat="43.50143" lon="6.79557">
        <ele>317.600006</ele>
        <time>2012-04-22T09:16:47Z</time>
      </trkpt>
      <trkpt lat="43.50148" lon="6.79541">
        <ele>316.600006</ele>
        <time>2012-04-22T09:16:50Z</time>
      </trkpt>
      <trkpt lat="43.50151" lon="6.7953">
        <ele>316</ele>
        <time>2012-04-22T09:16:52Z</time>
      </trkpt>
      <trkpt lat="43.50153" lon="6.79522">
        <ele>315.399994</ele>
        <time>2012-04-22T09:16:53Z</time>
      </trkpt>
      <trkpt lat="43.50152" lon="6.79504">
        <ele>314</ele>
        <time>2012-04-22T09:16:55Z</time>
      </trkpt>
      <trkpt lat="43.50151" lon="6.79485">
        <ele>312</ele>
        <time>2012-04-22T09:16:57Z</time>
      </trkpt>
      <trkpt lat="43.50152" lon="6.79476">
        <ele>311.200012</ele>
        <time>2012-04-22T09:16:58Z</time>
      </trkpt>
      <trkpt lat="43.50155" lon="6.79461">
        <ele>310.200012</ele>
        <time>2012-04-22T09:17:00Z</time>
      </trkpt>
      <trkpt lat="43.50157" lon="6.79451">
        <ele>309.600006</ele>
        <time>2012-04-22T09:17:02Z</time>
      </trkpt>
      <trkpt lat="43.50161" lon="6.79443">
        <ele>309.399994</ele>
        <time>2012-04-22T09:17:03Z</time>
      </trkpt>
      <trkpt lat="43.50165" lon="6.7944">
        <ele>309.799988</ele>
        <time>2012-04-22T09:17:05Z</time>
      </trkpt>
      <trkpt lat="43.5017" lon="6.79443">
        <ele>309.799988</ele>
        <time>2012-04-22T09:17:09Z</time>
      </trkpt>
      <trkpt lat="43.50177" lon="6.79438">
        <ele>308.399994</ele>
        <time>2012-04-22T09:17:22Z</time>
      </trkpt>
      <trkpt lat="43.50183" lon="6.79437">
        <ele>307.600006</ele>
        <time>2012-04-22T09:17:28Z</time>
      </trkpt>
      <trkpt lat="43.50187" lon="6.79427">
        <ele>306.399994</ele>
        <time>2012-04-22T09:17:32Z</time>
      </trkpt>
      <trkpt lat="43.5019" lon="6.79413">
        <ele>305.600006</ele>
        <time>2012-04-22T09:17:37Z</time>
      </trkpt>
      <trkpt lat="43.50192" lon="6.79403">
        <ele>305.399994</ele>
        <time>2012-04-22T09:18:00Z</time>
      </trkpt>
      <trkpt lat="43.50202" lon="6.79372">
        <ele>305</ele>
        <time>2012-04-22T09:18:07Z</time>
      </trkpt>
      <trkpt lat="43.50208" lon="6.79359">
        <ele>305</ele>
        <time>2012-04-22T09:18:11Z</time>
      </trkpt>
      <trkpt lat="43.50212" lon="6.79343">
        <ele>305.200012</ele>
        <time>2012-04-22T09:18:15Z</time>
      </trkpt>
      <trkpt lat="43.50209" lon="6.7933">
        <ele>305.799988</ele>
        <time>2012-04-22T09:18:21Z</time>
      </trkpt>
      <trkpt lat="43.50212" lon="6.79319">
        <ele>307.200012</ele>
        <time>2012-04-22T09:18:31Z</time>
      </trkpt>
      <trkpt lat="43.5023" lon="6.79308">
        <ele>308.200012</ele>
        <time>2012-04-22T09:18:36Z</time>
      </trkpt>
      <trkpt lat="43.50242" lon="6.79293">
        <ele>310.200012</ele>
        <time>2012-04-22T09:18:39Z</time>
      </trkpt>
      <trkpt lat="43.50246" lon="6.79286">
        <ele>311.399994</ele>
        <time>2012-04-22T09:18:40Z</time>
      </trkpt>
      <trkpt lat="43.5025" lon="6.79278">
        <ele>312.600006</ele>
        <time>2012-04-22T09:18:41Z</time>
      </trkpt>
      <trkpt lat="43.50267" lon="6.79268">
        <ele>311.600006</ele>
        <time>2012-04-22T09:18:44Z</time>
      </trkpt>
      <trkpt lat="43.5028" lon="6.79272">
        <ele>308.799988</ele>
        <time>2012-04-22T09:18:46Z</time>
      </trkpt>
      <trkpt lat="43.50287" lon="6.79276">
        <ele>307.200012</ele>
        <time>2012-04-22T09:18:47Z</time>
      </trkpt>
      <trkpt lat="43.50292" lon="6.7928">
        <ele>305.600006</ele>
        <time>2012-04-22T09:18:48Z</time>
      </trkpt>
      <trkpt lat="43.50298" lon="6.79283">
        <ele>304.200012</ele>
        <time>2012-04-22T09:18:49Z</time>
      </trkpt>
      <trkpt lat="43.50309" lon="6.79286">
        <ele>302</ele>
        <time>2012-04-22T09:18:52Z</time>
      </trkpt>
      <trkpt lat="43.50327" lon="6.79281">
        <ele>300</ele>
        <time>2012-04-22T09:18:56Z</time>
      </trkpt>
      <trkpt lat="43.50333" lon="6.79279">
        <ele>299.399994</ele>
        <time>2012-04-22T09:18:57Z</time>
      </trkpt>
      <trkpt lat="43.50339" lon="6.79275">
        <ele>299.200012</ele>
        <time>2012-04-22T09:18:58Z</time>
      </trkpt>
      <trkpt lat="43.50349" lon="6.79264">
        <ele>299.200012</ele>
        <time>2012-04-22T09:19:00Z</time>
      </trkpt>
      <trkpt lat="43.50357" lon="6.79252">
        <ele>299.600006</ele>
        <time>2012-04-22T09:19:02Z</time>
      </trkpt>
      <trkpt lat="43.50367" lon="6.7924">
        <ele>298.399994</ele>
        <time>2012-04-22T09:19:04Z</time>
      </trkpt>
      <trkpt lat="43.50373" lon="6.79232">
        <ele>297.600006</ele>
        <time>2012-04-22T09:19:06Z</time>
      </trkpt>
      <trkpt lat="43.50381" lon="6.79209">
        <ele>297.399994</ele>
        <time>2012-04-22T09:19:08Z</time>
      </trkpt>
      <trkpt lat="43.50381" lon="6.792">
        <ele>298</ele>
        <time>2012-04-22T09:19:09Z</time>
      </trkpt>
      <trkpt lat="43.50379" lon="6.79182">
        <ele>299.600006</ele>
        <time>2012-04-22T09:19:11Z</time>
      </trkpt>
      <trkpt lat="43.50391" lon="6.79151">
        <ele>298.399994</ele>
        <time>2012-04-22T09:19:15Z</time>
      </trkpt>
      <trkpt lat="43.50396" lon="6.79145">
        <ele>297.600006</ele>
        <time>2012-04-22T09:19:16Z</time>
      </trkpt>
      <trkpt lat="43.50402" lon="6.79138">
        <ele>296.600006</ele>
        <time>2012-04-22T09:19:17Z</time>
      </trkpt>
      <trkpt lat="43.50417" lon="6.79118">
        <ele>294.200012</ele>
        <time>2012-04-22T09:19:20Z</time>
      </trkpt>
      <trkpt lat="43.5042" lon="6.7911">
        <ele>294.200012</ele>
        <time>2012-04-22T09:19:21Z</time>
      </trkpt>
      <trkpt lat="43.50422" lon="6.79102">
        <ele>294.399994</ele>
        <time>2012-04-22T09:19:22Z</time>
      </trkpt>
      <trkpt lat="43.5042" lon="6.79084">
        <ele>295.600006</ele>
        <time>2012-04-22T09:19:24Z</time>
      </trkpt>
      <trkpt lat="43.50418" lon="6.79075">
        <ele>296.799988</ele>
        <time>2012-04-22T09:19:25Z</time>
      </trkpt>
      <trkpt lat="43.50416" lon="6.79068">
        <ele>298.200012</ele>
        <time>2012-04-22T09:19:26Z</time>
      </trkpt>
      <trkpt lat="43.50416" lon="6.79053">
        <ele>299.799988</ele>
        <time>2012-04-22T09:19:28Z</time>
      </trkpt>
      <trkpt lat="43.50424" lon="6.79045">
        <ele>299.799988</ele>
        <time>2012-04-22T09:19:30Z</time>
      </trkpt>
      <trkpt lat="43.50438" lon="6.7905">
        <ele>297.399994</ele>
        <time>2012-04-22T09:19:33Z</time>
      </trkpt>
      <trkpt lat="43.50442" lon="6.79054">
        <ele>296.399994</ele>
        <time>2012-04-22T09:19:34Z</time>
      </trkpt>
      <trkpt lat="43.50459" lon="6.79063">
        <ele>293.399994</ele>
        <time>2012-04-22T09:19:38Z</time>
      </trkpt>
      <trkpt lat="43.50469" lon="6.79065">
        <ele>292</ele>
        <time>2012-04-22T09:19:40Z</time>
      </trkpt>
      <trkpt lat="43.50474" lon="6.79066">
        <ele>291.399994</ele>
        <time>2012-04-22T09:19:41Z</time>
      </trkpt>
      <trkpt lat="43.50489" lon="6.79074">
        <ele>288.600006</ele>
        <time>2012-04-22T09:19:44Z</time>
      </trkpt>
      <trkpt lat="43.50499" lon="6.79081">
        <ele>286.399994</ele>
        <time>2012-04-22T09:19:46Z</time>
      </trkpt>
      <trkpt lat="43.50504" lon="6.79084">
        <ele>285.200012</ele>
        <time>2012-04-22T09:19:47Z</time>
      </trkpt>
      <trkpt lat="43.50509" lon="6.79085">
        <ele>284</ele>
        <time>2012-04-22T09:19:48Z</time>
      </trkpt>
      <trkpt lat="43.50519" lon="6.79081">
        <ele>282.600006</ele>
        <time>2012-04-22T09:19:50Z</time>
      </trkpt>
      <trkpt lat="43.50527" lon="6.79069">
        <ele>282.600006</ele>
        <time>2012-04-22T09:19:52Z</time>
      </trkpt>
      <trkpt lat="43.5053" lon="6.79062">
        <ele>283</ele>
        <time>2012-04-22T09:19:53Z</time>
      </trkpt>
      <trkpt lat="43.50532" lon="6.79055">
        <ele>283.200012</ele>
        <time>2012-04-22T09:19:54Z</time>
      </trkpt>
      <trkpt lat="43.50538" lon="6.79043">
        <ele>283.799988</ele>
        <time>2012-04-22T09:19:56Z</time>
      </trkpt>
      <trkpt lat="43.5054" lon="6.79036">
        <ele>284</ele>
        <time>2012-04-22T09:19:57Z</time>
      </trkpt>
      <trkpt lat="43.5055" lon="6.79015">
        <ele>284.399994</ele>
        <time>2012-04-22T09:20:00Z</time>
      </trkpt>
      <trkpt lat="43.50557" lon="6.79">
        <ele>284.799988</ele>
        <time>2012-04-22T09:20:02Z</time>
      </trkpt>
      <trkpt lat="43.5056" lon="6.78992">
        <ele>283.799988</ele>
        <time>2012-04-22T09:20:03Z</time>
      </trkpt>
      <trkpt lat="43.50565" lon="6.78977">
        <ele>282.600006</ele>
        <time>2012-04-22T09:20:05Z</time>
      </trkpt>
      <trkpt lat="43.50569" lon="6.78962">
        <ele>281.399994</ele>
        <time>2012-04-22T09:20:07Z</time>
      </trkpt>
      <trkpt lat="43.50572" lon="6.78949">
        <ele>280.600006</ele>
        <time>2012-04-22T09:20:09Z</time>
      </trkpt>
      <trkpt lat="43.50572" lon="6.78939">
        <ele>280.200012</ele>
        <time>2012-04-22T09:20:11Z</time>
      </trkpt>
      <trkpt lat="43.50571" lon="6.7893">
        <ele>280.200012</ele>
        <time>2012-04-22T09:20:13Z</time>
      </trkpt>
      <trkpt lat="43.50571" lon="6.78918">
        <ele>280.200012</ele>
        <time>2012-04-22T09:20:17Z</time>
      </trkpt>
      <trkpt lat="43.50577" lon="6.78922">
        <ele>278.600006</ele>
        <time>2012-04-22T09:21:11Z</time>
      </trkpt>
      <trkpt lat="43.50582" lon="6.78932">
        <ele>277.799988</ele>
        <time>2012-04-22T09:21:13Z</time>
      </trkpt>
      <trkpt lat="43.50584" lon="6.78939">
        <ele>277.200012</ele>
        <time>2012-04-22T09:21:14Z</time>
      </trkpt>
      <trkpt lat="43.50587" lon="6.78946">
        <ele>276.799988</ele>
        <time>2012-04-22T09:21:15Z</time>
      </trkpt>
      <trkpt lat="43.50588" lon="6.78953">
        <ele>276.600006</ele>
        <time>2012-04-22T09:21:16Z</time>
      </trkpt>
      <trkpt lat="43.50591" lon="6.78963">
        <ele>276</ele>
        <time>2012-04-22T09:21:18Z</time>
      </trkpt>
      <trkpt lat="43.50596" lon="6.78975">
        <ele>275</ele>
        <time>2012-04-22T09:21:21Z</time>
      </trkpt>
      <trkpt lat="43.50604" lon="6.78983">
        <ele>273</ele>
        <time>2012-04-22T09:21:24Z</time>
      </trkpt>
      <trkpt lat="43.50609" lon="6.78986">
        <ele>271.799988</ele>
        <time>2012-04-22T09:21:27Z</time>
      </trkpt>
      <trkpt lat="43.50615" lon="6.78997">
        <ele>270.600006</ele>
        <time>2012-04-22T09:21:30Z</time>
      </trkpt>
      <trkpt lat="43.50621" lon="6.79002">
        <ele>268.799988</ele>
        <time>2012-04-22T09:21:32Z</time>
      </trkpt>
      <trkpt lat="43.50627" lon="6.7901">
        <ele>266.399994</ele>
        <time>2012-04-22T09:21:35Z</time>
      </trkpt>
      <trkpt lat="43.50632" lon="6.79012">
        <ele>265</ele>
        <time>2012-04-22T09:22:14Z</time>
      </trkpt>
      <trkpt lat="43.5064" lon="6.7902">
        <ele>261.799988</ele>
        <time>2012-04-22T09:22:19Z</time>
      </trkpt>
      <trkpt lat="43.50656" lon="6.79027">
        <ele>256.799988</ele>
        <time>2012-04-22T09:22:23Z</time>
      </trkpt>
      <trkpt lat="43.50661" lon="6.79029">
        <ele>255.199997</ele>
        <time>2012-04-22T09:22:24Z</time>
      </trkpt>
      <trkpt lat="43.50667" lon="6.7903">
        <ele>253.399994</ele>
        <time>2012-04-22T09:22:25Z</time>
      </trkpt>
      <trkpt lat="43.50681" lon="6.79033">
        <ele>249.199997</ele>
        <time>2012-04-22T09:22:27Z</time>
      </trkpt>
      <trkpt lat="43.50687" lon="6.79035">
        <ele>247.600006</ele>
        <time>2012-04-22T09:22:28Z</time>
      </trkpt>
      <trkpt lat="43.50708" lon="6.7904">
        <ele>242</ele>
        <time>2012-04-22T09:22:31Z</time>
      </trkpt>
      <trkpt lat="43.50714" lon="6.79042">
        <ele>240.600006</ele>
        <time>2012-04-22T09:22:32Z</time>
      </trkpt>
      <trkpt lat="43.50719" lon="6.79045">
        <ele>239.199997</ele>
        <time>2012-04-22T09:22:33Z</time>
      </trkpt>
      <trkpt lat="43.50725" lon="6.79053">
        <ele>237.800003</ele>
        <time>2012-04-22T09:22:35Z</time>
      </trkpt>
      <trkpt lat="43.5073" lon="6.79059">
        <ele>236.600006</ele>
        <time>2012-04-22T09:22:37Z</time>
      </trkpt>
      <trkpt lat="43.50738" lon="6.79064">
        <ele>235</ele>
        <time>2012-04-22T09:22:39Z</time>
      </trkpt>
      <trkpt lat="43.50743" lon="6.79065">
        <ele>233.800003</ele>
        <time>2012-04-22T09:22:40Z</time>
      </trkpt>
      <trkpt lat="43.50754" lon="6.79066">
        <ele>232</ele>
        <time>2012-04-22T09:22:42Z</time>
      </trkpt>
      <trkpt lat="43.5076" lon="6.79067">
        <ele>231.199997</ele>
        <time>2012-04-22T09:22:43Z</time>
      </trkpt>
      <trkpt lat="43.50774" lon="6.7907">
        <ele>229.399994</ele>
        <time>2012-04-22T09:22:45Z</time>
      </trkpt>
      <trkpt lat="43.50781" lon="6.79071">
        <ele>228.600006</ele>
        <time>2012-04-22T09:22:46Z</time>
      </trkpt>
      <trkpt lat="43.50787" lon="6.79075">
        <ele>228</ele>
        <time>2012-04-22T09:22:47Z</time>
      </trkpt>
      <trkpt lat="43.50798" lon="6.79083">
        <ele>227.199997</ele>
        <time>2012-04-22T09:22:49Z</time>
      </trkpt>
      <trkpt lat="43.50802" lon="6.79088">
        <ele>226.199997</ele>
        <time>2012-04-22T09:22:50Z</time>
      </trkpt>
      <trkpt lat="43.50806" lon="6.79093">
        <ele>225</ele>
        <time>2012-04-22T09:22:51Z</time>
      </trkpt>
      <trkpt lat="43.5081" lon="6.79096">
        <ele>224</ele>
        <time>2012-04-22T09:22:52Z</time>
      </trkpt>
      <trkpt lat="43.50815" lon="6.791">
        <ele>223.199997</ele>
        <time>2012-04-22T09:22:53Z</time>
      </trkpt>
      <trkpt lat="43.50826" lon="6.79102">
        <ele>221.800003</ele>
        <time>2012-04-22T09:22:55Z</time>
      </trkpt>
      <trkpt lat="43.50839" lon="6.79104">
        <ele>220.600006</ele>
        <time>2012-04-22T09:22:57Z</time>
      </trkpt>
      <trkpt lat="43.50846" lon="6.79105">
        <ele>220.199997</ele>
        <time>2012-04-22T09:22:58Z</time>
      </trkpt>
      <trkpt lat="43.50852" lon="6.79106">
        <ele>220</ele>
        <time>2012-04-22T09:22:59Z</time>
      </trkpt>
      <trkpt lat="43.50861" lon="6.79106">
        <ele>219.600006</ele>
        <time>2012-04-22T09:23:01Z</time>
      </trkpt>
      <trkpt lat="43.5087" lon="6.79102">
        <ele>219.600006</ele>
        <time>2012-04-22T09:23:03Z</time>
      </trkpt>
      <trkpt lat="43.50876" lon="6.791">
        <ele>219.399994</ele>
        <time>2012-04-22T09:23:05Z</time>
      </trkpt>
      <trkpt lat="43.50884" lon="6.79099">
        <ele>219.199997</ele>
        <time>2012-04-22T09:23:41Z</time>
      </trkpt>
      <trkpt lat="43.509" lon="6.79095">
        <ele>218.600006</ele>
        <time>2012-04-22T09:23:45Z</time>
      </trkpt>
      <trkpt lat="43.50905" lon="6.79094">
        <ele>218.399994</ele>
        <time>2012-04-22T09:23:46Z</time>
      </trkpt>
      <trkpt lat="43.50928" lon="6.79089">
        <ele>216.600006</ele>
        <time>2012-04-22T09:23:50Z</time>
      </trkpt>
      <trkpt lat="43.5094" lon="6.79083">
        <ele>215.399994</ele>
        <time>2012-04-22T09:23:52Z</time>
      </trkpt>
      <trkpt lat="43.50952" lon="6.7908">
        <ele>213.800003</ele>
        <time>2012-04-22T09:23:54Z</time>
      </trkpt>
      <trkpt lat="43.50964" lon="6.79077">
        <ele>212.600006</ele>
        <time>2012-04-22T09:23:56Z</time>
      </trkpt>
      <trkpt lat="43.50969" lon="6.79075">
        <ele>211.800003</ele>
        <time>2012-04-22T09:23:57Z</time>
      </trkpt>
      <trkpt lat="43.50974" lon="6.79072">
        <ele>211.199997</ele>
        <time>2012-04-22T09:23:58Z</time>
      </trkpt>
      <trkpt lat="43.50979" lon="6.79069">
        <ele>210.600006</ele>
        <time>2012-04-22T09:23:59Z</time>
      </trkpt>
      <trkpt lat="43.50987" lon="6.79065">
        <ele>209.800003</ele>
        <time>2012-04-22T09:24:01Z</time>
      </trkpt>
      <trkpt lat="43.50996" lon="6.79065">
        <ele>209</ele>
        <time>2012-04-22T09:24:03Z</time>
      </trkpt>
      <trkpt lat="43.51005" lon="6.79066">
        <ele>207.399994</ele>
        <time>2012-04-22T09:24:05Z</time>
      </trkpt>
      <trkpt lat="43.5101" lon="6.79065">
        <ele>206.199997</ele>
        <time>2012-04-22T09:24:06Z</time>
      </trkpt>
      <trkpt lat="43.51018" lon="6.7906">
        <ele>204</ele>
        <time>2012-04-22T09:24:08Z</time>
      </trkpt>
      <trkpt lat="43.51025" lon="6.79054">
        <ele>202.199997</ele>
        <time>2012-04-22T09:24:10Z</time>
      </trkpt>
      <trkpt lat="43.51033" lon="6.79046">
        <ele>200.199997</ele>
        <time>2012-04-22T09:24:13Z</time>
      </trkpt>
      <trkpt lat="43.51038" lon="6.79037">
        <ele>199</ele>
        <time>2012-04-22T09:24:16Z</time>
      </trkpt>
      <trkpt lat="43.51034" lon="6.7903">
        <ele>200</ele>
        <time>2012-04-22T09:24:37Z</time>
      </trkpt>
      <trkpt lat="43.51042" lon="6.79043">
        <ele>197.800003</ele>
        <time>2012-04-22T09:25:00Z</time>
      </trkpt>
      <trkpt lat="43.51051" lon="6.79064">
        <ele>195.199997</ele>
        <time>2012-04-22T09:25:04Z</time>
      </trkpt>
      <trkpt lat="43.51056" lon="6.79077">
        <ele>193.800003</ele>
        <time>2012-04-22T09:25:06Z</time>
      </trkpt>
      <trkpt lat="43.51059" lon="6.79082">
        <ele>192.800003</ele>
        <time>2012-04-22T09:25:07Z</time>
      </trkpt>
      <trkpt lat="43.51062" lon="6.79092">
        <ele>191</ele>
        <time>2012-04-22T09:25:10Z</time>
      </trkpt>
      <trkpt lat="43.5106" lon="6.79101">
        <ele>190.600006</ele>
        <time>2012-04-22T09:25:14Z</time>
      </trkpt>
      <trkpt lat="43.51059" lon="6.79108">
        <ele>190.199997</ele>
        <time>2012-04-22T09:25:16Z</time>
      </trkpt>
      <trkpt lat="43.51056" lon="6.79118">
        <ele>189.800003</ele>
        <time>2012-04-22T09:25:18Z</time>
      </trkpt>
      <trkpt lat="43.51054" lon="6.79124">
        <ele>189.600006</ele>
        <time>2012-04-22T09:25:19Z</time>
      </trkpt>
      <trkpt lat="43.51053" lon="6.7913">
        <ele>189.399994</ele>
        <time>2012-04-22T09:25:20Z</time>
      </trkpt>
      <trkpt lat="43.51049" lon="6.79142">
        <ele>189</ele>
        <time>2012-04-22T09:25:22Z</time>
      </trkpt>
      <trkpt lat="43.51051" lon="6.7915">
        <ele>187.600006</ele>
        <time>2012-04-22T09:25:24Z</time>
      </trkpt>
      <trkpt lat="43.51057" lon="6.79153">
        <ele>185.800003</ele>
        <time>2012-04-22T09:25:26Z</time>
      </trkpt>
      <trkpt lat="43.51062" lon="6.79152">
        <ele>184.399994</ele>
        <time>2012-04-22T09:25:28Z</time>
      </trkpt>
      <trkpt lat="43.51066" lon="6.79148">
        <ele>183.800003</ele>
        <time>2012-04-22T09:25:32Z</time>
      </trkpt>
      <trkpt lat="43.51077" lon="6.79139">
        <ele>181.600006</ele>
        <time>2012-04-22T09:25:48Z</time>
      </trkpt>
      <trkpt lat="43.51088" lon="6.79132">
        <ele>180.199997</ele>
        <time>2012-04-22T09:27:50Z</time>
      </trkpt>
      <trkpt lat="43.51094" lon="6.7913">
        <ele>179.800003</ele>
        <time>2012-04-22T09:27:52Z</time>
      </trkpt>
      <trkpt lat="43.51095" lon="6.79123">
        <ele>180.399994</ele>
        <time>2012-04-22T09:27:56Z</time>
      </trkpt>
      <trkpt lat="43.51103" lon="6.79114">
        <ele>180.199997</ele>
        <time>2012-04-22T09:28:01Z</time>
      </trkpt>
      <trkpt lat="43.51113" lon="6.79101">
        <ele>180</ele>
        <time>2012-04-22T09:28:04Z</time>
      </trkpt>
      <trkpt lat="43.51118" lon="6.79092">
        <ele>180</ele>
        <time>2012-04-22T09:28:06Z</time>
      </trkpt>
      <trkpt lat="43.51127" lon="6.79088">
        <ele>179</ele>
        <time>2012-04-22T09:28:09Z</time>
      </trkpt>
      <trkpt lat="43.51135" lon="6.79091">
        <ele>177.600006</ele>
        <time>2012-04-22T09:28:11Z</time>
      </trkpt>
      <trkpt lat="43.51145" lon="6.79091">
        <ele>176.199997</ele>
        <time>2012-04-22T09:28:13Z</time>
      </trkpt>
      <trkpt lat="43.51154" lon="6.79087">
        <ele>174.800003</ele>
        <time>2012-04-22T09:28:15Z</time>
      </trkpt>
      <trkpt lat="43.51159" lon="6.79085">
        <ele>174.199997</ele>
        <time>2012-04-22T09:28:16Z</time>
      </trkpt>
      <trkpt lat="43.51168" lon="6.79079">
        <ele>172.800003</ele>
        <time>2012-04-22T09:28:18Z</time>
      </trkpt>
      <trkpt lat="43.51178" lon="6.79074">
        <ele>172.800003</ele>
        <time>2012-04-22T09:28:20Z</time>
      </trkpt>
      <trkpt lat="43.51183" lon="6.79072">
        <ele>173</ele>
        <time>2012-04-22T09:28:21Z</time>
      </trkpt>
      <trkpt lat="43.51196" lon="6.79065">
        <ele>173.399994</ele>
        <time>2012-04-22T09:28:24Z</time>
      </trkpt>
      <trkpt lat="43.51211" lon="6.79058">
        <ele>174</ele>
        <time>2012-04-22T09:28:27Z</time>
      </trkpt>
      <trkpt lat="43.5122" lon="6.79054">
        <ele>174.600006</ele>
        <time>2012-04-22T09:28:29Z</time>
      </trkpt>
      <trkpt lat="43.51225" lon="6.79052">
        <ele>175</ele>
        <time>2012-04-22T09:28:30Z</time>
      </trkpt>
      <trkpt lat="43.51232" lon="6.79043">
        <ele>175.600006</ele>
        <time>2012-04-22T09:28:33Z</time>
      </trkpt>
      <trkpt lat="43.51237" lon="6.79039">
        <ele>176</ele>
        <time>2012-04-22T09:28:35Z</time>
      </trkpt>
      <trkpt lat="43.51248" lon="6.79041">
        <ele>176.800003</ele>
        <time>2012-04-22T09:28:39Z</time>
      </trkpt>
      <trkpt lat="43.51253" lon="6.79047">
        <ele>177.399994</ele>
        <time>2012-04-22T09:28:44Z</time>
      </trkpt>
      <trkpt lat="43.51253" lon="6.79058">
        <ele>177.199997</ele>
        <time>2012-04-22T09:32:05Z</time>
      </trkpt>
      <trkpt lat="43.51263" lon="6.79074">
        <ele>178.199997</ele>
        <time>2012-04-22T09:32:11Z</time>
      </trkpt>
      <trkpt lat="43.51277" lon="6.7909">
        <ele>179.199997</ele>
        <time>2012-04-22T09:32:18Z</time>
      </trkpt>
      <trkpt lat="43.5129" lon="6.79104">
        <ele>179.800003</ele>
        <time>2012-04-22T09:32:24Z</time>
      </trkpt>
      <trkpt lat="43.51304" lon="6.79118">
        <ele>180</ele>
        <time>2012-04-22T09:32:31Z</time>
      </trkpt>
      <trkpt lat="43.51308" lon="6.79122">
        <ele>180</ele>
        <time>2012-04-22T09:32:33Z</time>
      </trkpt>
      <trkpt lat="43.51316" lon="6.79127">
        <ele>180</ele>
        <time>2012-04-22T09:32:37Z</time>
      </trkpt>
      <trkpt lat="43.51321" lon="6.79129">
        <ele>180.199997</ele>
        <time>2012-04-22T09:32:40Z</time>
      </trkpt>
      <trkpt lat="43.51329" lon="6.79134">
        <ele>180.199997</ele>
        <time>2012-04-22T09:32:44Z</time>
      </trkpt>
      <trkpt lat="43.51334" lon="6.79136">
        <ele>180.199997</ele>
        <time>2012-04-22T09:32:46Z</time>
      </trkpt>
      <trkpt lat="43.51338" lon="6.79138">
        <ele>180.399994</ele>
        <time>2012-04-22T09:32:48Z</time>
      </trkpt>
      <trkpt lat="43.51353" lon="6.7915">
        <ele>180.399994</ele>
        <time>2012-04-22T09:32:55Z</time>
      </trkpt>
      <trkpt lat="43.51359" lon="6.79156">
        <ele>180.199997</ele>
        <time>2012-04-22T09:32:58Z</time>
      </trkpt>
      <trkpt lat="43.51364" lon="6.7916">
        <ele>180</ele>
        <time>2012-04-22T09:33:00Z</time>
      </trkpt>
      <trkpt lat="43.51368" lon="6.79165">
        <ele>179.600006</ele>
        <time>2012-04-22T09:33:02Z</time>
      </trkpt>
      <trkpt lat="43.51373" lon="6.79169">
        <ele>179.800003</ele>
        <time>2012-04-22T09:33:04Z</time>
      </trkpt>
      <trkpt lat="43.51394" lon="6.79194">
        <ele>180.199997</ele>
        <time>2012-04-22T09:33:13Z</time>
      </trkpt>
      <trkpt lat="43.51407" lon="6.79208">
        <ele>179.800003</ele>
        <time>2012-04-22T09:33:19Z</time>
      </trkpt>
      <trkpt lat="43.51423" lon="6.79216">
        <ele>179.199997</ele>
        <time>2012-04-22T09:33:25Z</time>
      </trkpt>
      <trkpt lat="43.51437" lon="6.79218">
        <ele>179</ele>
        <time>2012-04-22T09:33:30Z</time>
      </trkpt>
      <trkpt lat="43.51454" lon="6.79223">
        <ele>178.199997</ele>
        <time>2012-04-22T09:33:36Z</time>
      </trkpt>
      <trkpt lat="43.51472" lon="6.79231">
        <ele>177.399994</ele>
        <time>2012-04-22T09:33:41Z</time>
      </trkpt>
      <trkpt lat="43.51494" lon="6.79238">
        <ele>176.399994</ele>
        <time>2012-04-22T09:33:47Z</time>
      </trkpt>
      <trkpt lat="43.51508" lon="6.79233">
        <ele>177.399994</ele>
        <time>2012-04-22T09:33:52Z</time>
      </trkpt>
      <trkpt lat="43.51521" lon="6.79218">
        <ele>179.399994</ele>
        <time>2012-04-22T09:33:57Z</time>
      </trkpt>
      <trkpt lat="43.51539" lon="6.79219">
        <ele>180.199997</ele>
        <time>2012-04-22T09:34:02Z</time>
      </trkpt>
      <trkpt lat="43.51553" lon="6.79224">
        <ele>180.600006</ele>
        <time>2012-04-22T09:34:06Z</time>
      </trkpt>
      <trkpt lat="43.51563" lon="6.79218">
        <ele>181.399994</ele>
        <time>2012-04-22T09:34:10Z</time>
      </trkpt>
      <trkpt lat="43.51573" lon="6.79218">
        <ele>182</ele>
        <time>2012-04-22T09:34:16Z</time>
      </trkpt>
      <trkpt lat="43.5157" lon="6.79247">
        <ele>180.199997</ele>
        <time>2012-04-22T09:34:25Z</time>
      </trkpt>
      <trkpt lat="43.51564" lon="6.79266">
        <ele>179.800003</ele>
        <time>2012-04-22T09:34:31Z</time>
      </trkpt>
      <trkpt lat="43.51552" lon="6.79287">
        <ele>179.399994</ele>
        <time>2012-04-22T09:34:38Z</time>
      </trkpt>
      <trkpt lat="43.51544" lon="6.79314">
        <ele>179.399994</ele>
        <time>2012-04-22T09:34:44Z</time>
      </trkpt>
      <trkpt lat="43.51543" lon="6.79326">
        <ele>179.399994</ele>
        <time>2012-04-22T09:34:46Z</time>
      </trkpt>
      <trkpt lat="43.51542" lon="6.79345">
        <ele>180.199997</ele>
        <time>2012-04-22T09:34:49Z</time>
      </trkpt>
      <trkpt lat="43.5154" lon="6.79358">
        <ele>180.800003</ele>
        <time>2012-04-22T09:34:51Z</time>
      </trkpt>
      <trkpt lat="43.51537" lon="6.79369">
        <ele>181.399994</ele>
        <time>2012-04-22T09:34:53Z</time>
      </trkpt>
      <trkpt lat="43.51532" lon="6.79379">
        <ele>182</ele>
        <time>2012-04-22T09:34:55Z</time>
      </trkpt>
      <trkpt lat="43.51515" lon="6.79395">
        <ele>183</ele>
        <time>2012-04-22T09:35:01Z</time>
      </trkpt>
      <trkpt lat="43.51503" lon="6.79392">
        <ele>182.600006</ele>
        <time>2012-04-22T09:35:06Z</time>
      </trkpt>
      <trkpt lat="43.51498" lon="6.79387">
        <ele>182.600006</ele>
        <time>2012-04-22T09:35:08Z</time>
      </trkpt>
      <trkpt lat="43.51491" lon="6.79383">
        <ele>183.399994</ele>
        <time>2012-04-22T09:35:10Z</time>
      </trkpt>
      <trkpt lat="43.51486" lon="6.79378">
        <ele>184</ele>
        <time>2012-04-22T09:35:12Z</time>
      </trkpt>
      <trkpt lat="43.51481" lon="6.79374">
        <ele>184.399994</ele>
        <time>2012-04-22T09:35:14Z</time>
      </trkpt>
      <trkpt lat="43.51477" lon="6.79369">
        <ele>184.399994</ele>
        <time>2012-04-22T09:35:16Z</time>
      </trkpt>
      <trkpt lat="43.51472" lon="6.79362">
        <ele>184.399994</ele>
        <time>2012-04-22T09:35:19Z</time>
      </trkpt>
      <trkpt lat="43.51467" lon="6.79357">
        <ele>184.399994</ele>
        <time>2012-04-22T09:35:21Z</time>
      </trkpt>
      <trkpt lat="43.51464" lon="6.79352">
        <ele>184.399994</ele>
        <time>2012-04-22T09:35:23Z</time>
      </trkpt>
      <trkpt lat="43.5146" lon="6.79346">
        <ele>184</ele>
        <time>2012-04-22T09:35:25Z</time>
      </trkpt>
      <trkpt lat="43.51456" lon="6.79339">
        <ele>183.600006</ele>
        <time>2012-04-22T09:35:27Z</time>
      </trkpt>
      <trkpt lat="43.51453" lon="6.79325">
        <ele>182.399994</ele>
        <time>2012-04-22T09:35:31Z</time>
      </trkpt>
      <trkpt lat="43.51453" lon="6.79317">
        <ele>181.800003</ele>
        <time>2012-04-22T09:35:33Z</time>
      </trkpt>
      <trkpt lat="43.5145" lon="6.79308">
        <ele>181.199997</ele>
        <time>2012-04-22T09:35:35Z</time>
      </trkpt>
      <trkpt lat="43.51446" lon="6.793">
        <ele>180.800003</ele>
        <time>2012-04-22T09:35:37Z</time>
      </trkpt>
      <trkpt lat="43.51438" lon="6.79294">
        <ele>180.600006</ele>
        <time>2012-04-22T09:35:39Z</time>
      </trkpt>
      <trkpt lat="43.5143" lon="6.7929">
        <ele>180.800003</ele>
        <time>2012-04-22T09:35:41Z</time>
      </trkpt>
      <trkpt lat="43.5142" lon="6.79289">
        <ele>181.399994</ele>
        <time>2012-04-22T09:35:43Z</time>
      </trkpt>
      <trkpt lat="43.51409" lon="6.79289">
        <ele>182.199997</ele>
        <time>2012-04-22T09:35:45Z</time>
      </trkpt>
      <trkpt lat="43.51399" lon="6.79287">
        <ele>182.399994</ele>
        <time>2012-04-22T09:35:47Z</time>
      </trkpt>
      <trkpt lat="43.51393" lon="6.79285">
        <ele>182.600006</ele>
        <time>2012-04-22T09:35:48Z</time>
      </trkpt>
      <trkpt lat="43.51377" lon="6.79275">
        <ele>181.800003</ele>
        <time>2012-04-22T09:35:51Z</time>
      </trkpt>
      <trkpt lat="43.51362" lon="6.79261">
        <ele>180.399994</ele>
        <time>2012-04-22T09:35:56Z</time>
      </trkpt>
      <trkpt lat="43.51343" lon="6.79251">
        <ele>179.600006</ele>
        <time>2012-04-22T09:36:01Z</time>
      </trkpt>
      <trkpt lat="43.51336" lon="6.79245">
        <ele>179.600006</ele>
        <time>2012-04-22T09:36:04Z</time>
      </trkpt>
      <trkpt lat="43.51331" lon="6.7924">
        <ele>179.399994</ele>
        <time>2012-04-22T09:36:06Z</time>
      </trkpt>
      <trkpt lat="43.51323" lon="6.79236">
        <ele>179.199997</ele>
        <time>2012-04-22T09:36:08Z</time>
      </trkpt>
      <trkpt lat="43.51313" lon="6.79234">
        <ele>178.800003</ele>
        <time>2012-04-22T09:36:10Z</time>
      </trkpt>
      <trkpt lat="43.51294" lon="6.7923">
        <ele>178.199997</ele>
        <time>2012-04-22T09:36:14Z</time>
      </trkpt>
      <trkpt lat="43.51283" lon="6.79226">
        <ele>177.800003</ele>
        <time>2012-04-22T09:36:17Z</time>
      </trkpt>
      <trkpt lat="43.51274" lon="6.7922">
        <ele>177.399994</ele>
        <time>2012-04-22T09:36:20Z</time>
      </trkpt>
      <trkpt lat="43.51266" lon="6.79231">
        <ele>177.600006</ele>
        <time>2012-04-22T09:36:24Z</time>
      </trkpt>
      <trkpt lat="43.51264" lon="6.79237">
        <ele>177.800003</ele>
        <time>2012-04-22T09:36:25Z</time>
      </trkpt>
      <trkpt lat="43.51253" lon="6.79259">
        <ele>178.600006</ele>
        <time>2012-04-22T09:36:32Z</time>
      </trkpt>
      <trkpt lat="43.51243" lon="6.79283">
        <ele>179.600006</ele>
        <time>2012-04-22T09:36:38Z</time>
      </trkpt>
      <trkpt lat="43.51233" lon="6.79311">
        <ele>180.800003</ele>
        <time>2012-04-22T09:36:44Z</time>
      </trkpt>
      <trkpt lat="43.51228" lon="6.79334">
        <ele>181.800003</ele>
        <time>2012-04-22T09:36:49Z</time>
      </trkpt>
      <trkpt lat="43.51227" lon="6.79349">
        <ele>181.399994</ele>
        <time>2012-04-22T09:36:52Z</time>
      </trkpt>
      <trkpt lat="43.51227" lon="6.79358">
        <ele>181.199997</ele>
        <time>2012-04-22T09:36:54Z</time>
      </trkpt>
      <trkpt lat="43.51234" lon="6.79408">
        <ele>180.199997</ele>
        <time>2012-04-22T09:37:02Z</time>
      </trkpt>
      <trkpt lat="43.51238" lon="6.79435">
        <ele>179.800003</ele>
        <time>2012-04-22T09:37:08Z</time>
      </trkpt>
      <trkpt lat="43.51243" lon="6.7945">
        <ele>179.600006</ele>
        <time>2012-04-22T09:37:11Z</time>
      </trkpt>
      <trkpt lat="43.51247" lon="6.79457">
        <ele>179.399994</ele>
        <time>2012-04-22T09:37:13Z</time>
      </trkpt>
      <trkpt lat="43.51251" lon="6.7946">
        <ele>179.600006</ele>
        <time>2012-04-22T09:37:15Z</time>
      </trkpt>
      <trkpt lat="43.51258" lon="6.79464">
        <ele>180.600006</ele>
        <time>2012-04-22T09:37:17Z</time>
      </trkpt>
      <trkpt lat="43.5126" lon="6.7948">
        <ele>180.600006</ele>
        <time>2012-04-22T09:37:21Z</time>
      </trkpt>
      <trkpt lat="43.5125" lon="6.79479">
        <ele>179.199997</ele>
        <time>2012-04-22T09:37:25Z</time>
      </trkpt>
      <trkpt lat="43.51231" lon="6.79483">
        <ele>179</ele>
        <time>2012-04-22T09:37:30Z</time>
      </trkpt>
      <trkpt lat="43.51218" lon="6.79505">
        <ele>178.600006</ele>
        <time>2012-04-22T09:37:35Z</time>
      </trkpt>
      <trkpt lat="43.51206" lon="6.79538">
        <ele>178.399994</ele>
        <time>2012-04-22T09:37:41Z</time>
      </trkpt>
      <trkpt lat="43.51207" lon="6.79558">
        <ele>178.399994</ele>
        <time>2012-04-22T09:37:46Z</time>
      </trkpt>
      <trkpt lat="43.51211" lon="6.79571">
        <ele>178.800003</ele>
        <time>2012-04-22T09:38:21Z</time>
      </trkpt>
      <trkpt lat="43.51222" lon="6.79606">
        <ele>180</ele>
        <time>2012-04-22T09:38:29Z</time>
      </trkpt>
      <trkpt lat="43.51215" lon="6.79627">
        <ele>179.800003</ele>
        <time>2012-04-22T09:38:35Z</time>
      </trkpt>
      <trkpt lat="43.51206" lon="6.79629">
        <ele>179.199997</ele>
        <time>2012-04-22T09:38:38Z</time>
      </trkpt>
      <trkpt lat="43.51201" lon="6.79629">
        <ele>178.800003</ele>
        <time>2012-04-22T09:38:40Z</time>
      </trkpt>
      <trkpt lat="43.51193" lon="6.79626">
        <ele>178</ele>
        <time>2012-04-22T09:38:44Z</time>
      </trkpt>
      <trkpt lat="43.51177" lon="6.79633">
        <ele>177</ele>
        <time>2012-04-22T09:38:51Z</time>
      </trkpt>
      <trkpt lat="43.51165" lon="6.79657">
        <ele>176.800003</ele>
        <time>2012-04-22T09:38:57Z</time>
      </trkpt>
      <trkpt lat="43.51156" lon="6.7967">
        <ele>177.199997</ele>
        <time>2012-04-22T09:39:00Z</time>
      </trkpt>
      <trkpt lat="43.51148" lon="6.79697">
        <ele>177.800003</ele>
        <time>2012-04-22T09:39:05Z</time>
      </trkpt>
      <trkpt lat="43.51148" lon="6.7972">
        <ele>178.199997</ele>
        <time>2012-04-22T09:39:10Z</time>
      </trkpt>
      <trkpt lat="43.51143" lon="6.79733">
        <ele>178.399994</ele>
        <time>2012-04-22T09:39:16Z</time>
      </trkpt>
      <trkpt lat="43.51148" lon="6.79736">
        <ele>178.600006</ele>
        <time>2012-04-22T09:39:23Z</time>
      </trkpt>
      <trkpt lat="43.51149" lon="6.79712">
        <ele>178</ele>
        <time>2012-04-22T09:39:29Z</time>
      </trkpt>
      <trkpt lat="43.51149" lon="6.79704">
        <ele>178</ele>
        <time>2012-04-22T09:39:31Z</time>
      </trkpt>
      <trkpt lat="43.51149" lon="6.79689">
        <ele>177.600006</ele>
        <time>2012-04-22T09:39:35Z</time>
      </trkpt>
      <trkpt lat="43.51151" lon="6.79682">
        <ele>177.399994</ele>
        <time>2012-04-22T09:39:37Z</time>
      </trkpt>
      <trkpt lat="43.51172" lon="6.79647">
        <ele>176.800003</ele>
        <time>2012-04-22T09:39:48Z</time>
      </trkpt>
      <trkpt lat="43.51175" lon="6.79641">
        <ele>177</ele>
        <time>2012-04-22T09:39:50Z</time>
      </trkpt>
      <trkpt lat="43.51183" lon="6.79631">
        <ele>177.399994</ele>
        <time>2012-04-22T09:39:54Z</time>
      </trkpt>
      <trkpt lat="43.51188" lon="6.79631">
        <ele>177.800003</ele>
        <time>2012-04-22T09:39:56Z</time>
      </trkpt>
      <trkpt lat="43.51217" lon="6.79598">
        <ele>179.399994</ele>
        <time>2012-04-22T09:40:09Z</time>
      </trkpt>
      <trkpt lat="43.51213" lon="6.79582">
        <ele>178.800003</ele>
        <time>2012-04-22T09:40:12Z</time>
      </trkpt>
      <trkpt lat="43.51208" lon="6.79564">
        <ele>178.399994</ele>
        <time>2012-04-22T09:40:16Z</time>
      </trkpt>
      <trkpt lat="43.51209" lon="6.79549">
        <ele>178.600006</ele>
        <time>2012-04-22T09:40:20Z</time>
      </trkpt>
      <trkpt lat="43.51212" lon="6.79541">
        <ele>178.600006</ele>
        <time>2012-04-22T09:40:22Z</time>
      </trkpt>
      <trkpt lat="43.51221" lon="6.79532">
        <ele>179</ele>
        <time>2012-04-22T09:40:26Z</time>
      </trkpt>
      <trkpt lat="43.51225" lon="6.79527">
        <ele>179.199997</ele>
        <time>2012-04-22T09:40:28Z</time>
      </trkpt>
      <trkpt lat="43.5123" lon="6.79523">
        <ele>179.199997</ele>
        <time>2012-04-22T09:40:30Z</time>
      </trkpt>
      <trkpt lat="43.51234" lon="6.7952">
        <ele>179.199997</ele>
        <time>2012-04-22T09:40:32Z</time>
      </trkpt>
      <trkpt lat="43.51242" lon="6.79524">
        <ele>179.600006</ele>
        <time>2012-04-22T09:40:36Z</time>
      </trkpt>
      <trkpt lat="43.5124" lon="6.79534">
        <ele>179.800003</ele>
        <time>2012-04-22T09:40:40Z</time>
      </trkpt>
      <trkpt lat="43.51239" lon="6.79544">
        <ele>180</ele>
        <time>2012-04-22T09:40:44Z</time>
      </trkpt>
      <trkpt lat="43.5124" lon="6.79554">
        <ele>180.399994</ele>
        <time>2012-04-22T09:40:47Z</time>
      </trkpt>
      <trkpt lat="43.51243" lon="6.7956">
        <ele>180.600006</ele>
        <time>2012-04-22T09:40:49Z</time>
      </trkpt>
      <trkpt lat="43.51247" lon="6.79565">
        <ele>181</ele>
        <time>2012-04-22T09:40:51Z</time>
      </trkpt>
      <trkpt lat="43.51254" lon="6.7957">
        <ele>181.800003</ele>
        <time>2012-04-22T09:40:55Z</time>
      </trkpt>
      <trkpt lat="43.51258" lon="6.79577">
        <ele>182.399994</ele>
        <time>2012-04-22T09:40:59Z</time>
      </trkpt>
      <trkpt lat="43.51267" lon="6.79581">
        <ele>183.399994</ele>
        <time>2012-04-22T09:41:03Z</time>
      </trkpt>
      <trkpt lat="43.51276" lon="6.79587">
        <ele>184.199997</ele>
        <time>2012-04-22T09:41:08Z</time>
      </trkpt>
      <trkpt lat="43.51284" lon="6.7959">
        <ele>185</ele>
        <time>2012-04-22T09:41:12Z</time>
      </trkpt>
      <trkpt lat="43.51288" lon="6.79593">
        <ele>185.399994</ele>
        <time>2012-04-22T09:41:14Z</time>
      </trkpt>
      <trkpt lat="43.51293" lon="6.79602">
        <ele>186</ele>
        <time>2012-04-22T09:41:18Z</time>
      </trkpt>
      <trkpt lat="43.51296" lon="6.79609">
        <ele>186.399994</ele>
        <time>2012-04-22T09:41:21Z</time>
      </trkpt>
      <trkpt lat="43.51301" lon="6.7961">
        <ele>186.800003</ele>
        <time>2012-04-22T09:41:23Z</time>
      </trkpt>
      <trkpt lat="43.51306" lon="6.79609">
        <ele>187.199997</ele>
        <time>2012-04-22T09:41:25Z</time>
      </trkpt>
      <trkpt lat="43.51311" lon="6.79607">
        <ele>187.600006</ele>
        <time>2012-04-22T09:41:27Z</time>
      </trkpt>
      <trkpt lat="43.51327" lon="6.79605">
        <ele>189</ele>
        <time>2012-04-22T09:41:34Z</time>
      </trkpt>
      <trkpt lat="43.51331" lon="6.79607">
        <ele>189.399994</ele>
        <time>2012-04-22T09:41:36Z</time>
      </trkpt>
      <trkpt lat="43.51345" lon="6.79609">
        <ele>190.600006</ele>
        <time>2012-04-22T09:41:41Z</time>
      </trkpt>
      <trkpt lat="43.51366" lon="6.79611">
        <ele>192.600006</ele>
        <time>2012-04-22T09:41:49Z</time>
      </trkpt>
      <trkpt lat="43.51378" lon="6.79612">
        <ele>193.600006</ele>
        <time>2012-04-22T09:41:54Z</time>
      </trkpt>
      <trkpt lat="43.51386" lon="6.79609">
        <ele>194.199997</ele>
        <time>2012-04-22T09:41:58Z</time>
      </trkpt>
      <trkpt lat="43.51393" lon="6.7961">
        <ele>194.800003</ele>
        <time>2012-04-22T09:42:01Z</time>
      </trkpt>
      <trkpt lat="43.51401" lon="6.79607">
        <ele>195.399994</ele>
        <time>2012-04-22T09:42:05Z</time>
      </trkpt>
      <trkpt lat="43.51413" lon="6.79602">
        <ele>196</ele>
        <time>2012-04-22T09:42:10Z</time>
      </trkpt>
      <trkpt lat="43.51418" lon="6.79599">
        <ele>196.199997</ele>
        <time>2012-04-22T09:42:12Z</time>
      </trkpt>
      <trkpt lat="43.51423" lon="6.79596">
        <ele>196.600006</ele>
        <time>2012-04-22T09:42:14Z</time>
      </trkpt>
      <trkpt lat="43.51428" lon="6.79595">
        <ele>197.199997</ele>
        <time>2012-04-22T09:42:16Z</time>
      </trkpt>
      <trkpt lat="43.51436" lon="6.79597">
        <ele>198.399994</ele>
        <time>2012-04-22T09:42:20Z</time>
      </trkpt>
      <trkpt lat="43.51444" lon="6.79599">
        <ele>199.399994</ele>
        <time>2012-04-22T09:42:24Z</time>
      </trkpt>
      <trkpt lat="43.51449" lon="6.79599">
        <ele>200.199997</ele>
        <time>2012-04-22T09:42:27Z</time>
      </trkpt>
      <trkpt lat="43.51456" lon="6.79599">
        <ele>201</ele>
        <time>2012-04-22T09:42:31Z</time>
      </trkpt>
      <trkpt lat="43.51462" lon="6.796">
        <ele>202</ele>
        <time>2012-04-22T09:42:35Z</time>
      </trkpt>
      <trkpt lat="43.51469" lon="6.796">
        <ele>202.600006</ele>
        <time>2012-04-22T09:42:39Z</time>
      </trkpt>
      <trkpt lat="43.51474" lon="6.796">
        <ele>203.399994</ele>
        <time>2012-04-22T09:42:43Z</time>
      </trkpt>
      <trkpt lat="43.51481" lon="6.79602">
        <ele>204.399994</ele>
        <time>2012-04-22T09:42:48Z</time>
      </trkpt>
      <trkpt lat="43.51487" lon="6.79602">
        <ele>205.199997</ele>
        <time>2012-04-22T09:42:52Z</time>
      </trkpt>
      <trkpt lat="43.51493" lon="6.79601">
        <ele>205.800003</ele>
        <time>2012-04-22T09:42:56Z</time>
      </trkpt>
      <trkpt lat="43.51499" lon="6.79606">
        <ele>207.399994</ele>
        <time>2012-04-22T09:43:02Z</time>
      </trkpt>
      <trkpt lat="43.51505" lon="6.79609">
        <ele>208.600006</ele>
        <time>2012-04-22T09:43:07Z</time>
      </trkpt>
      <trkpt lat="43.5151" lon="6.79607">
        <ele>208.800003</ele>
        <time>2012-04-22T09:43:11Z</time>
      </trkpt>
      <trkpt lat="43.51517" lon="6.79605">
        <ele>209.600006</ele>
        <time>2012-04-22T09:43:30Z</time>
      </trkpt>
      <trkpt lat="43.51527" lon="6.79607">
        <ele>211</ele>
        <time>2012-04-22T09:43:42Z</time>
      </trkpt>
      <trkpt lat="43.51533" lon="6.79608">
        <ele>211.800003</ele>
        <time>2012-04-22T09:43:47Z</time>
      </trkpt>
      <trkpt lat="43.51538" lon="6.79609">
        <ele>212.600006</ele>
        <time>2012-04-22T09:43:52Z</time>
      </trkpt>
      <trkpt lat="43.51543" lon="6.7961">
        <ele>213.600006</ele>
        <time>2012-04-22T09:44:01Z</time>
      </trkpt>
      <trkpt lat="43.51549" lon="6.79611">
        <ele>214.399994</ele>
        <time>2012-04-22T09:44:12Z</time>
      </trkpt>
      <trkpt lat="43.51557" lon="6.79618">
        <ele>216.600006</ele>
        <time>2012-04-22T09:44:26Z</time>
      </trkpt>
      <trkpt lat="43.51559" lon="6.79624">
        <ele>218.199997</ele>
        <time>2012-04-22T09:44:33Z</time>
      </trkpt>
      <trkpt lat="43.5156" lon="6.79631">
        <ele>219.600006</ele>
        <time>2012-04-22T09:44:40Z</time>
      </trkpt>
      <trkpt lat="43.5156" lon="6.79638">
        <ele>221</ele>
        <time>2012-04-22T09:44:48Z</time>
      </trkpt>
      <trkpt lat="43.51562" lon="6.79647">
        <ele>223</ele>
        <time>2012-04-22T09:44:56Z</time>
      </trkpt>
      <trkpt lat="43.51566" lon="6.79655">
        <ele>225</ele>
        <time>2012-04-22T09:45:04Z</time>
      </trkpt>
      <trkpt lat="43.51568" lon="6.79662">
        <ele>226.800003</ele>
        <time>2012-04-22T09:45:13Z</time>
      </trkpt>
      <trkpt lat="43.51573" lon="6.79666">
        <ele>228.199997</ele>
        <time>2012-04-22T09:45:21Z</time>
      </trkpt>
      <trkpt lat="43.51578" lon="6.79667">
        <ele>229.199997</ele>
        <time>2012-04-22T09:45:27Z</time>
      </trkpt>
      <trkpt lat="43.51583" lon="6.7967">
        <ele>230.199997</ele>
        <time>2012-04-22T09:45:33Z</time>
      </trkpt>
      <trkpt lat="43.51589" lon="6.79676">
        <ele>229.800003</ele>
        <time>2012-04-22T09:45:43Z</time>
      </trkpt>
      <trkpt lat="43.51592" lon="6.79681">
        <ele>230</ele>
        <time>2012-04-22T09:45:50Z</time>
      </trkpt>
      <trkpt lat="43.51584" lon="6.79701">
        <ele>233.600006</ele>
        <time>2012-04-22T09:47:44Z</time>
      </trkpt>
      <trkpt lat="43.51579" lon="6.79721">
        <ele>235.199997</ele>
        <time>2012-04-22T09:47:51Z</time>
      </trkpt>
      <trkpt lat="43.51576" lon="6.79735">
        <ele>236.600006</ele>
        <time>2012-04-22T09:47:58Z</time>
      </trkpt>
      <trkpt lat="43.51579" lon="6.79749">
        <ele>238.399994</ele>
        <time>2012-04-22T09:48:04Z</time>
      </trkpt>
      <trkpt lat="43.51581" lon="6.79758">
        <ele>240.199997</ele>
        <time>2012-04-22T09:48:09Z</time>
      </trkpt>
      <trkpt lat="43.51581" lon="6.79765">
        <ele>241.399994</ele>
        <time>2012-04-22T09:48:18Z</time>
      </trkpt>
      <trkpt lat="43.51583" lon="6.79775">
        <ele>243.399994</ele>
        <time>2012-04-22T09:48:26Z</time>
      </trkpt>
      <trkpt lat="43.51585" lon="6.79785">
        <ele>245</ele>
        <time>2012-04-22T09:48:34Z</time>
      </trkpt>
      <trkpt lat="43.51589" lon="6.79789">
        <ele>245</ele>
        <time>2012-04-22T09:48:43Z</time>
      </trkpt>
      <trkpt lat="43.51596" lon="6.79794">
        <ele>244.399994</ele>
        <time>2012-04-22T09:48:49Z</time>
      </trkpt>
      <trkpt lat="43.51601" lon="6.79797">
        <ele>244.199997</ele>
        <time>2012-04-22T09:48:53Z</time>
      </trkpt>
      <trkpt lat="43.51605" lon="6.79802">
        <ele>244.399994</ele>
        <time>2012-04-22T09:49:01Z</time>
      </trkpt>
      <trkpt lat="43.51609" lon="6.79809">
        <ele>245</ele>
        <time>2012-04-22T09:49:11Z</time>
      </trkpt>
      <trkpt lat="43.51608" lon="6.79818">
        <ele>246.600006</ele>
        <time>2012-04-22T09:49:35Z</time>
      </trkpt>
      <trkpt lat="43.51608" lon="6.79825">
        <ele>248</ele>
        <time>2012-04-22T09:49:43Z</time>
      </trkpt>
      <trkpt lat="43.51608" lon="6.79833">
        <ele>249.399994</ele>
        <time>2012-04-22T09:49:51Z</time>
      </trkpt>
      <trkpt lat="43.51607" lon="6.79839">
        <ele>250.600006</ele>
        <time>2012-04-22T09:49:58Z</time>
      </trkpt>
      <trkpt lat="43.51605" lon="6.79847">
        <ele>252</ele>
        <time>2012-04-22T09:50:05Z</time>
      </trkpt>
      <trkpt lat="43.51606" lon="6.79853">
        <ele>252.800003</ele>
        <time>2012-04-22T09:50:17Z</time>
      </trkpt>
      <trkpt lat="43.51607" lon="6.79861">
        <ele>253.600006</ele>
        <time>2012-04-22T09:50:24Z</time>
      </trkpt>
      <trkpt lat="43.51608" lon="6.79879">
        <ele>255.600006</ele>
        <time>2012-04-22T09:50:38Z</time>
      </trkpt>
      <trkpt lat="43.51609" lon="6.79886">
        <ele>256.200012</ele>
        <time>2012-04-22T09:50:42Z</time>
      </trkpt>
      <trkpt lat="43.5161" lon="6.79892">
        <ele>257</ele>
        <time>2012-04-22T09:50:46Z</time>
      </trkpt>
      <trkpt lat="43.5161" lon="6.79902">
        <ele>258.399994</ele>
        <time>2012-04-22T09:50:51Z</time>
      </trkpt>
      <trkpt lat="43.5161" lon="6.7991">
        <ele>259.399994</ele>
        <time>2012-04-22T09:50:55Z</time>
      </trkpt>
      <trkpt lat="43.51611" lon="6.79917">
        <ele>260</ele>
        <time>2012-04-22T09:50:58Z</time>
      </trkpt>
      <trkpt lat="43.51611" lon="6.79925">
        <ele>260</ele>
        <time>2012-04-22T09:51:02Z</time>
      </trkpt>
      <trkpt lat="43.51611" lon="6.79932">
        <ele>260.200012</ele>
        <time>2012-04-22T09:51:06Z</time>
      </trkpt>
      <trkpt lat="43.51608" lon="6.79941">
        <ele>260.799988</ele>
        <time>2012-04-22T09:51:12Z</time>
      </trkpt>
      <trkpt lat="43.51607" lon="6.79948">
        <ele>261.399994</ele>
        <time>2012-04-22T09:51:16Z</time>
      </trkpt>
      <trkpt lat="43.51605" lon="6.79957">
        <ele>261.799988</ele>
        <time>2012-04-22T09:51:21Z</time>
      </trkpt>
      <trkpt lat="43.51604" lon="6.79964">
        <ele>262.399994</ele>
        <time>2012-04-22T09:51:25Z</time>
      </trkpt>
      <trkpt lat="43.51599" lon="6.79973">
        <ele>264.200012</ele>
        <time>2012-04-22T09:51:31Z</time>
      </trkpt>
      <trkpt lat="43.51595" lon="6.79979">
        <ele>265.600006</ele>
        <time>2012-04-22T09:51:35Z</time>
      </trkpt>
      <trkpt lat="43.5159" lon="6.79985">
        <ele>267.200012</ele>
        <time>2012-04-22T09:51:39Z</time>
      </trkpt>
      <trkpt lat="43.51584" lon="6.79999">
        <ele>269.799988</ele>
        <time>2012-04-22T09:51:46Z</time>
      </trkpt>
      <trkpt lat="43.51576" lon="6.80019">
        <ele>268.799988</ele>
        <time>2012-04-22T09:51:52Z</time>
      </trkpt>
      <trkpt lat="43.51567" lon="6.80047">
        <ele>268</ele>
        <time>2012-04-22T09:52:00Z</time>
      </trkpt>
      <trkpt lat="43.51558" lon="6.8007">
        <ele>268.399994</ele>
        <time>2012-04-22T09:52:07Z</time>
      </trkpt>
      <trkpt lat="43.51548" lon="6.8009">
        <ele>269.200012</ele>
        <time>2012-04-22T09:52:13Z</time>
      </trkpt>
      <trkpt lat="43.51542" lon="6.80099">
        <ele>269.600006</ele>
        <time>2012-04-22T09:52:16Z</time>
      </trkpt>
      <trkpt lat="43.51538" lon="6.80105">
        <ele>270</ele>
        <time>2012-04-22T09:52:18Z</time>
      </trkpt>
      <trkpt lat="43.51535" lon="6.80112">
        <ele>270.600006</ele>
        <time>2012-04-22T09:52:20Z</time>
      </trkpt>
      <trkpt lat="43.51531" lon="6.80118">
        <ele>271.200012</ele>
        <time>2012-04-22T09:52:22Z</time>
      </trkpt>
      <trkpt lat="43.51528" lon="6.80125">
        <ele>271.799988</ele>
        <time>2012-04-22T09:52:24Z</time>
      </trkpt>
      <trkpt lat="43.51526" lon="6.8013">
        <ele>272.399994</ele>
        <time>2012-04-22T09:52:26Z</time>
      </trkpt>
      <trkpt lat="43.51522" lon="6.80139">
        <ele>273.200012</ele>
        <time>2012-04-22T09:52:30Z</time>
      </trkpt>
      <trkpt lat="43.51519" lon="6.80144">
        <ele>274</ele>
        <time>2012-04-22T09:52:33Z</time>
      </trkpt>
      <trkpt lat="43.51515" lon="6.80152">
        <ele>275.200012</ele>
        <time>2012-04-22T09:52:37Z</time>
      </trkpt>
      <trkpt lat="43.51506" lon="6.80174">
        <ele>277.799988</ele>
        <time>2012-04-22T09:52:46Z</time>
      </trkpt>
      <trkpt lat="43.51496" lon="6.80193">
        <ele>278</ele>
        <time>2012-04-22T09:52:52Z</time>
      </trkpt>
      <trkpt lat="43.5149" lon="6.8021">
        <ele>277.200012</ele>
        <time>2012-04-22T09:52:57Z</time>
      </trkpt>
      <trkpt lat="43.51489" lon="6.80234">
        <ele>277</ele>
        <time>2012-04-22T09:53:03Z</time>
      </trkpt>
      <trkpt lat="43.51488" lon="6.80242">
        <ele>276.799988</ele>
        <time>2012-04-22T09:53:05Z</time>
      </trkpt>
      <trkpt lat="43.51486" lon="6.8025">
        <ele>276.600006</ele>
        <time>2012-04-22T09:53:07Z</time>
      </trkpt>
      <trkpt lat="43.51483" lon="6.80256">
        <ele>276.399994</ele>
        <time>2012-04-22T09:53:09Z</time>
      </trkpt>
      <trkpt lat="43.51479" lon="6.80263">
        <ele>276.200012</ele>
        <time>2012-04-22T09:53:11Z</time>
      </trkpt>
      <trkpt lat="43.5147" lon="6.80279">
        <ele>275.600006</ele>
        <time>2012-04-22T09:53:15Z</time>
      </trkpt>
      <trkpt lat="43.51463" lon="6.80302">
        <ele>275.600006</ele>
        <time>2012-04-22T09:53:19Z</time>
      </trkpt>
      <trkpt lat="43.51463" lon="6.8031">
        <ele>275.799988</ele>
        <time>2012-04-22T09:53:20Z</time>
      </trkpt>
      <trkpt lat="43.51462" lon="6.80318">
        <ele>275.799988</ele>
        <time>2012-04-22T09:53:21Z</time>
      </trkpt>
      <trkpt lat="43.51461" lon="6.80325">
        <ele>276</ele>
        <time>2012-04-22T09:53:22Z</time>
      </trkpt>
      <trkpt lat="43.51461" lon="6.80332">
        <ele>276</ele>
        <time>2012-04-22T09:53:23Z</time>
      </trkpt>
      <trkpt lat="43.5146" lon="6.80344">
        <ele>276.799988</ele>
        <time>2012-04-22T09:53:25Z</time>
      </trkpt>
      <trkpt lat="43.51459" lon="6.80353">
        <ele>277.399994</ele>
        <time>2012-04-22T09:53:27Z</time>
      </trkpt>
      <trkpt lat="43.51458" lon="6.80361">
        <ele>278</ele>
        <time>2012-04-22T09:53:29Z</time>
      </trkpt>
      <trkpt lat="43.51455" lon="6.80379">
        <ele>279.200012</ele>
        <time>2012-04-22T09:53:35Z</time>
      </trkpt>
      <trkpt lat="43.51454" lon="6.80393">
        <ele>280.200012</ele>
        <time>2012-04-22T09:53:39Z</time>
      </trkpt>
      <trkpt lat="43.51452" lon="6.80406">
        <ele>281</ele>
        <time>2012-04-22T09:53:42Z</time>
      </trkpt>
      <trkpt lat="43.51451" lon="6.80413">
        <ele>281.600006</ele>
        <time>2012-04-22T09:53:44Z</time>
      </trkpt>
      <trkpt lat="43.5145" lon="6.8042">
        <ele>282.200012</ele>
        <time>2012-04-22T09:53:46Z</time>
      </trkpt>
      <trkpt lat="43.5145" lon="6.80433">
        <ele>283.799988</ele>
        <time>2012-04-22T09:53:50Z</time>
      </trkpt>
      <trkpt lat="43.51453" lon="6.80444">
        <ele>285.200012</ele>
        <time>2012-04-22T09:53:54Z</time>
      </trkpt>
      <trkpt lat="43.51459" lon="6.80449">
        <ele>286</ele>
        <time>2012-04-22T09:53:58Z</time>
      </trkpt>
      <trkpt lat="43.51464" lon="6.80451">
        <ele>286.399994</ele>
        <time>2012-04-22T09:54:01Z</time>
      </trkpt>
      <trkpt lat="43.51471" lon="6.80452">
        <ele>286.799988</ele>
        <time>2012-04-22T09:54:05Z</time>
      </trkpt>
      <trkpt lat="43.51478" lon="6.80453">
        <ele>287.200012</ele>
        <time>2012-04-22T09:54:10Z</time>
      </trkpt>
      <trkpt lat="43.51485" lon="6.8046">
        <ele>288.399994</ele>
        <time>2012-04-22T09:54:16Z</time>
      </trkpt>
      <trkpt lat="43.51487" lon="6.80468">
        <ele>289.399994</ele>
        <time>2012-04-22T09:54:20Z</time>
      </trkpt>
      <trkpt lat="43.51488" lon="6.80475">
        <ele>290.200012</ele>
        <time>2012-04-22T09:54:23Z</time>
      </trkpt>
      <trkpt lat="43.51489" lon="6.80481">
        <ele>291.200012</ele>
        <time>2012-04-22T09:54:26Z</time>
      </trkpt>
      <trkpt lat="43.51489" lon="6.80488">
        <ele>292</ele>
        <time>2012-04-22T09:54:29Z</time>
      </trkpt>
      <trkpt lat="43.51489" lon="6.80496">
        <ele>293.200012</ele>
        <time>2012-04-22T09:54:33Z</time>
      </trkpt>
      <trkpt lat="43.51491" lon="6.80503">
        <ele>293.799988</ele>
        <time>2012-04-22T09:54:36Z</time>
      </trkpt>
      <trkpt lat="43.51494" lon="6.80509">
        <ele>294.200012</ele>
        <time>2012-04-22T09:54:39Z</time>
      </trkpt>
      <trkpt lat="43.51498" lon="6.80518">
        <ele>294.799988</ele>
        <time>2012-04-22T09:54:43Z</time>
      </trkpt>
      <trkpt lat="43.515" lon="6.80528">
        <ele>295.399994</ele>
        <time>2012-04-22T09:54:47Z</time>
      </trkpt>
      <trkpt lat="43.51501" lon="6.80536">
        <ele>295.600006</ele>
        <time>2012-04-22T09:54:50Z</time>
      </trkpt>
      <trkpt lat="43.51503" lon="6.80545">
        <ele>296</ele>
        <time>2012-04-22T09:54:54Z</time>
      </trkpt>
      <trkpt lat="43.51503" lon="6.80553">
        <ele>296.399994</ele>
        <time>2012-04-22T09:54:58Z</time>
      </trkpt>
      <trkpt lat="43.51574" lon="6.80555">
        <ele>292.799988</ele>
        <time>2012-04-22T09:55:13Z</time>
      </trkpt>
      <trkpt lat="43.51584" lon="6.80544">
        <ele>292.399994</ele>
        <time>2012-04-22T09:55:15Z</time>
      </trkpt>
      <trkpt lat="43.51588" lon="6.80538">
        <ele>292.600006</ele>
        <time>2012-04-22T09:55:16Z</time>
      </trkpt>
      <trkpt lat="43.51591" lon="6.80532">
        <ele>292.600006</ele>
        <time>2012-04-22T09:55:17Z</time>
      </trkpt>
      <trkpt lat="43.51592" lon="6.80515">
        <ele>293.200012</ele>
        <time>2012-04-22T09:55:23Z</time>
      </trkpt>
      <trkpt lat="43.51618" lon="6.80464">
        <ele>291.600006</ele>
        <time>2012-04-22T09:55:34Z</time>
      </trkpt>
      <trkpt lat="43.51686" lon="6.80394">
        <ele>291.399994</ele>
        <time>2012-04-22T09:55:51Z</time>
      </trkpt>
      <trkpt lat="43.5169" lon="6.8039">
        <ele>291</ele>
        <time>2012-04-22T09:55:52Z</time>
      </trkpt>
      <trkpt lat="43.51698" lon="6.80374">
        <ele>289.200012</ele>
        <time>2012-04-22T09:55:55Z</time>
      </trkpt>
      <trkpt lat="43.51722" lon="6.80336">
        <ele>287</ele>
        <time>2012-04-22T09:56:03Z</time>
      </trkpt>
      <trkpt lat="43.51729" lon="6.80341">
        <ele>288.200012</ele>
        <time>2012-04-22T09:56:05Z</time>
      </trkpt>
      <trkpt lat="43.51756" lon="6.80342">
        <ele>291.399994</ele>
        <time>2012-04-22T09:56:11Z</time>
      </trkpt>
      <trkpt lat="43.51759" lon="6.80335">
        <ele>291.200012</ele>
        <time>2012-04-22T09:56:12Z</time>
      </trkpt>
      <trkpt lat="43.5176" lon="6.80328">
        <ele>290.600006</ele>
        <time>2012-04-22T09:56:13Z</time>
      </trkpt>
      <trkpt lat="43.51761" lon="6.8032">
        <ele>289.799988</ele>
        <time>2012-04-22T09:56:14Z</time>
      </trkpt>
      <trkpt lat="43.51763" lon="6.80306">
        <ele>288.399994</ele>
        <time>2012-04-22T09:56:16Z</time>
      </trkpt>
      <trkpt lat="43.51767" lon="6.80291">
        <ele>287.399994</ele>
        <time>2012-04-22T09:56:18Z</time>
      </trkpt>
      <trkpt lat="43.51769" lon="6.80285">
        <ele>287</ele>
        <time>2012-04-22T09:56:19Z</time>
      </trkpt>
      <trkpt lat="43.51771" lon="6.8027">
        <ele>286</ele>
        <time>2012-04-22T09:56:21Z</time>
      </trkpt>
      <trkpt lat="43.51776" lon="6.80254">
        <ele>285.200012</ele>
        <time>2012-04-22T09:56:23Z</time>
      </trkpt>
      <trkpt lat="43.51777" lon="6.80245">
        <ele>284.799988</ele>
        <time>2012-04-22T09:56:24Z</time>
      </trkpt>
      <trkpt lat="43.51779" lon="6.80237">
        <ele>284.600006</ele>
        <time>2012-04-22T09:56:25Z</time>
      </trkpt>
      <trkpt lat="43.51779" lon="6.80222">
        <ele>283.600006</ele>
        <time>2012-04-22T09:56:27Z</time>
      </trkpt>
      <trkpt lat="43.5178" lon="6.80203">
        <ele>282.399994</ele>
        <time>2012-04-22T09:56:30Z</time>
      </trkpt>
      <trkpt lat="43.51781" lon="6.80196">
        <ele>282.200012</ele>
        <time>2012-04-22T09:56:31Z</time>
      </trkpt>
      <trkpt lat="43.51784" lon="6.80178">
        <ele>281.600006</ele>
        <time>2012-04-22T09:56:34Z</time>
      </trkpt>
      <trkpt lat="43.51786" lon="6.80166">
        <ele>281.399994</ele>
        <time>2012-04-22T09:56:36Z</time>
      </trkpt>
      <trkpt lat="43.51804" lon="6.80124">
        <ele>278.200012</ele>
        <time>2012-04-22T09:56:43Z</time>
      </trkpt>
      <trkpt lat="43.51808" lon="6.80119">
        <ele>278.399994</ele>
        <time>2012-04-22T09:56:44Z</time>
      </trkpt>
      <trkpt lat="43.51815" lon="6.8011">
        <ele>278.799988</ele>
        <time>2012-04-22T09:56:46Z</time>
      </trkpt>
      <trkpt lat="43.51821" lon="6.80099">
        <ele>278.200012</ele>
        <time>2012-04-22T09:56:48Z</time>
      </trkpt>
      <trkpt lat="43.51826" lon="6.80088">
        <ele>277.600006</ele>
        <time>2012-04-22T09:56:50Z</time>
      </trkpt>
      <trkpt lat="43.5185" lon="6.80049">
        <ele>273</ele>
        <time>2012-04-22T09:56:58Z</time>
      </trkpt>
      <trkpt lat="43.51877" lon="6.80023">
        <ele>272.399994</ele>
        <time>2012-04-22T09:57:05Z</time>
      </trkpt>
      <trkpt lat="43.51907" lon="6.79995">
        <ele>272.799988</ele>
        <time>2012-04-22T09:57:14Z</time>
      </trkpt>
      <trkpt lat="43.51908" lon="6.79988">
        <ele>271.799988</ele>
        <time>2012-04-22T09:57:15Z</time>
      </trkpt>
      <trkpt lat="43.51922" lon="6.79959">
        <ele>269.200012</ele>
        <time>2012-04-22T09:57:20Z</time>
      </trkpt>
      <trkpt lat="43.51938" lon="6.79914">
        <ele>264.200012</ele>
        <time>2012-04-22T09:57:26Z</time>
      </trkpt>
      <trkpt lat="43.51939" lon="6.79845">
        <ele>257</ele>
        <time>2012-04-22T09:57:35Z</time>
      </trkpt>
      <trkpt lat="43.51938" lon="6.79838">
        <ele>256.399994</ele>
        <time>2012-04-22T09:57:37Z</time>
      </trkpt>
      <trkpt lat="43.51942" lon="6.79833">
        <ele>256</ele>
        <time>2012-04-22T09:57:40Z</time>
      </trkpt>
      <trkpt lat="43.51948" lon="6.79833">
        <ele>256.200012</ele>
        <time>2012-04-22T09:57:43Z</time>
      </trkpt>
      <trkpt lat="43.5196" lon="6.7984">
        <ele>257.399994</ele>
        <time>2012-04-22T09:57:49Z</time>
      </trkpt>
      <trkpt lat="43.51975" lon="6.79845">
        <ele>258.799988</ele>
        <time>2012-04-22T09:57:53Z</time>
      </trkpt>
      <trkpt lat="43.51982" lon="6.79847">
        <ele>259.600006</ele>
        <time>2012-04-22T09:57:55Z</time>
      </trkpt>
      <trkpt lat="43.51989" lon="6.79846">
        <ele>260</ele>
        <time>2012-04-22T09:57:57Z</time>
      </trkpt>
      <trkpt lat="43.51998" lon="6.79847">
        <ele>260.600006</ele>
        <time>2012-04-22T09:57:59Z</time>
      </trkpt>
      <trkpt lat="43.52005" lon="6.79849">
        <ele>260.200012</ele>
        <time>2012-04-22T09:58:01Z</time>
      </trkpt>
      <trkpt lat="43.52016" lon="6.79862">
        <ele>260</ele>
        <time>2012-04-22T09:58:05Z</time>
      </trkpt>
      <trkpt lat="43.52025" lon="6.79867">
        <ele>258.799988</ele>
        <time>2012-04-22T09:58:07Z</time>
      </trkpt>
      <trkpt lat="43.52032" lon="6.79869">
        <ele>257.399994</ele>
        <time>2012-04-22T09:58:09Z</time>
      </trkpt>
      <trkpt lat="43.52046" lon="6.79881">
        <ele>255.600006</ele>
        <time>2012-04-22T09:58:13Z</time>
      </trkpt>
      <trkpt lat="43.52059" lon="6.79896">
        <ele>253.600006</ele>
        <time>2012-04-22T09:58:16Z</time>
      </trkpt>
      <trkpt lat="43.52063" lon="6.79901">
        <ele>253.199997</ele>
        <time>2012-04-22T09:58:17Z</time>
      </trkpt>
      <trkpt lat="43.52066" lon="6.79907">
        <ele>252.800003</ele>
        <time>2012-04-22T09:58:18Z</time>
      </trkpt>
      <trkpt lat="43.52066" lon="6.79914">
        <ele>253.199997</ele>
        <time>2012-04-22T09:58:19Z</time>
      </trkpt>
      <trkpt lat="43.52067" lon="6.79923">
        <ele>253.399994</ele>
        <time>2012-04-22T09:58:20Z</time>
      </trkpt>
      <trkpt lat="43.52071" lon="6.79936">
        <ele>253</ele>
        <time>2012-04-22T09:58:22Z</time>
      </trkpt>
      <trkpt lat="43.52079" lon="6.79948">
        <ele>250.800003</ele>
        <time>2012-04-22T09:58:24Z</time>
      </trkpt>
      <trkpt lat="43.52086" lon="6.79962">
        <ele>250.199997</ele>
        <time>2012-04-22T09:58:26Z</time>
      </trkpt>
      <trkpt lat="43.52087" lon="6.7997">
        <ele>250.399994</ele>
        <time>2012-04-22T09:58:27Z</time>
      </trkpt>
      <trkpt lat="43.52086" lon="6.7998">
        <ele>251</ele>
        <time>2012-04-22T09:58:28Z</time>
      </trkpt>
      <trkpt lat="43.52085" lon="6.80002">
        <ele>251.800003</ele>
        <time>2012-04-22T09:58:30Z</time>
      </trkpt>
      <trkpt lat="43.52085" lon="6.80013">
        <ele>251.199997</ele>
        <time>2012-04-22T09:58:31Z</time>
      </trkpt>
      <trkpt lat="43.52086" lon="6.80025">
        <ele>250.600006</ele>
        <time>2012-04-22T09:58:32Z</time>
      </trkpt>
      <trkpt lat="43.52084" lon="6.80079">
        <ele>247.399994</ele>
        <time>2012-04-22T09:58:36Z</time>
      </trkpt>
      <trkpt lat="43.52084" lon="6.80093">
        <ele>247</ele>
        <time>2012-04-22T09:58:37Z</time>
      </trkpt>
      <trkpt lat="43.52084" lon="6.80118">
        <ele>247</ele>
        <time>2012-04-22T09:58:39Z</time>
      </trkpt>
      <trkpt lat="43.52081" lon="6.8013">
        <ele>247.600006</ele>
        <time>2012-04-22T09:58:40Z</time>
      </trkpt>
      <trkpt lat="43.5208" lon="6.80139">
        <ele>248.199997</ele>
        <time>2012-04-22T09:58:41Z</time>
      </trkpt>
      <trkpt lat="43.52077" lon="6.80155">
        <ele>249</ele>
        <time>2012-04-22T09:58:43Z</time>
      </trkpt>
      <trkpt lat="43.52076" lon="6.80168">
        <ele>249</ele>
        <time>2012-04-22T09:58:45Z</time>
      </trkpt>
      <trkpt lat="43.52075" lon="6.80174">
        <ele>250</ele>
        <time>2012-04-22T09:58:46Z</time>
      </trkpt>
      <trkpt lat="43.52077" lon="6.80188">
        <ele>250.600006</ele>
        <time>2012-04-22T09:58:48Z</time>
      </trkpt>
      <trkpt lat="43.5208" lon="6.80201">
        <ele>250.800003</ele>
        <time>2012-04-22T09:58:50Z</time>
      </trkpt>
      <trkpt lat="43.5208" lon="6.80213">
        <ele>252</ele>
        <time>2012-04-22T09:58:52Z</time>
      </trkpt>
      <trkpt lat="43.52077" lon="6.8022">
        <ele>253.199997</ele>
        <time>2012-04-22T09:58:54Z</time>
      </trkpt>
      <trkpt lat="43.52072" lon="6.80228">
        <ele>254.399994</ele>
        <time>2012-04-22T09:58:58Z</time>
      </trkpt>
      <trkpt lat="43.52069" lon="6.80233">
        <ele>255.199997</ele>
        <time>2012-04-22T09:59:00Z</time>
      </trkpt>
      <trkpt lat="43.52066" lon="6.80243">
        <ele>256</ele>
        <time>2012-04-22T09:59:04Z</time>
      </trkpt>
      <trkpt lat="43.52064" lon="6.80249">
        <ele>256.600006</ele>
        <time>2012-04-22T09:59:06Z</time>
      </trkpt>
      <trkpt lat="43.52063" lon="6.80257">
        <ele>256.799988</ele>
        <time>2012-04-22T09:59:10Z</time>
      </trkpt>
      <trkpt lat="43.52066" lon="6.80264">
        <ele>256.799988</ele>
        <time>2012-04-22T09:59:14Z</time>
      </trkpt>
      <trkpt lat="43.52074" lon="6.80264">
        <ele>256</ele>
        <time>2012-04-22T09:59:19Z</time>
      </trkpt>
      <trkpt lat="43.52081" lon="6.80259">
        <ele>255.399994</ele>
        <time>2012-04-22T09:59:22Z</time>
      </trkpt>
      <trkpt lat="43.52084" lon="6.80255">
        <ele>255.600006</ele>
        <time>2012-04-22T09:59:25Z</time>
      </trkpt>
      <trkpt lat="43.52087" lon="6.8025">
        <ele>256.600006</ele>
        <time>2012-04-22T09:59:28Z</time>
      </trkpt>
      <trkpt lat="43.52087" lon="6.80242">
        <ele>255.600006</ele>
        <time>2012-04-22T09:59:30Z</time>
      </trkpt>
      <trkpt lat="43.52089" lon="6.80234">
        <ele>255.399994</ele>
        <time>2012-04-22T09:59:34Z</time>
      </trkpt>
      <trkpt lat="43.52093" lon="6.8023">
        <ele>256.600006</ele>
        <time>2012-04-22T09:59:37Z</time>
      </trkpt>
      <trkpt lat="43.521" lon="6.8022">
        <ele>258</ele>
        <time>2012-04-22T09:59:43Z</time>
      </trkpt>
      <trkpt lat="43.521" lon="6.80212">
        <ele>257.200012</ele>
        <time>2012-04-22T09:59:47Z</time>
      </trkpt>
      <trkpt lat="43.52104" lon="6.80204">
        <ele>257.799988</ele>
        <time>2012-04-22T09:59:52Z</time>
      </trkpt>
      <trkpt lat="43.52108" lon="6.80198">
        <ele>258.200012</ele>
        <time>2012-04-22T09:59:56Z</time>
      </trkpt>
      <trkpt lat="43.52112" lon="6.80192">
        <ele>259</ele>
        <time>2012-04-22T10:00:00Z</time>
      </trkpt>
      <trkpt lat="43.52115" lon="6.80188">
        <ele>259.600006</ele>
        <time>2012-04-22T10:00:03Z</time>
      </trkpt>
      <trkpt lat="43.5212" lon="6.80178">
        <ele>259.799988</ele>
        <time>2012-04-22T10:00:08Z</time>
      </trkpt>
      <trkpt lat="43.52122" lon="6.80172">
        <ele>259.600006</ele>
        <time>2012-04-22T10:00:12Z</time>
      </trkpt>
      <trkpt lat="43.52124" lon="6.80164">
        <ele>259.399994</ele>
        <time>2012-04-22T10:00:18Z</time>
      </trkpt>
      <trkpt lat="43.52128" lon="6.80157">
        <ele>260</ele>
        <time>2012-04-22T10:00:22Z</time>
      </trkpt>
      <trkpt lat="43.52138" lon="6.80147">
        <ele>262</ele>
        <time>2012-04-22T10:00:30Z</time>
      </trkpt>
      <trkpt lat="43.52142" lon="6.80143">
        <ele>262.600006</ele>
        <time>2012-04-22T10:00:33Z</time>
      </trkpt>
      <trkpt lat="43.52149" lon="6.80141">
        <ele>264.200012</ele>
        <time>2012-04-22T10:00:38Z</time>
      </trkpt>
      <trkpt lat="43.52155" lon="6.80136">
        <ele>265.200012</ele>
        <time>2012-04-22T10:00:43Z</time>
      </trkpt>
      <trkpt lat="43.52162" lon="6.80132">
        <ele>266</ele>
        <time>2012-04-22T10:00:47Z</time>
      </trkpt>
      <trkpt lat="43.52171" lon="6.80116">
        <ele>265.600006</ele>
        <time>2012-04-22T10:00:57Z</time>
      </trkpt>
      <trkpt lat="43.52173" lon="6.80108">
        <ele>265</ele>
        <time>2012-04-22T10:01:01Z</time>
      </trkpt>
      <trkpt lat="43.52177" lon="6.801">
        <ele>264.799988</ele>
        <time>2012-04-22T10:01:05Z</time>
      </trkpt>
      <trkpt lat="43.52185" lon="6.80083">
        <ele>264.200012</ele>
        <time>2012-04-22T10:01:15Z</time>
      </trkpt>
      <trkpt lat="43.52188" lon="6.80075">
        <ele>264.399994</ele>
        <time>2012-04-22T10:01:19Z</time>
      </trkpt>
      <trkpt lat="43.52192" lon="6.80068">
        <ele>264.600006</ele>
        <time>2012-04-22T10:01:23Z</time>
      </trkpt>
      <trkpt lat="43.52193" lon="6.80058">
        <ele>263.799988</ele>
        <time>2012-04-22T10:01:27Z</time>
      </trkpt>
      <trkpt lat="43.522" lon="6.80046">
        <ele>264.399994</ele>
        <time>2012-04-22T10:01:34Z</time>
      </trkpt>
      <trkpt lat="43.52206" lon="6.80036">
        <ele>264.399994</ele>
        <time>2012-04-22T10:01:38Z</time>
      </trkpt>
      <trkpt lat="43.5221" lon="6.8003">
        <ele>264.799988</ele>
        <time>2012-04-22T10:01:42Z</time>
      </trkpt>
      <trkpt lat="43.5222" lon="6.80023">
        <ele>266.600006</ele>
        <time>2012-04-22T10:01:47Z</time>
      </trkpt>
      <trkpt lat="43.52223" lon="6.80011">
        <ele>265.799988</ele>
        <time>2012-04-22T10:01:51Z</time>
      </trkpt>
      <trkpt lat="43.52222" lon="6.79989">
        <ele>263</ele>
        <time>2012-04-22T10:01:59Z</time>
      </trkpt>
      <trkpt lat="43.52227" lon="6.79979">
        <ele>263.200012</ele>
        <time>2012-04-22T10:02:03Z</time>
      </trkpt>
      <trkpt lat="43.52228" lon="6.7997">
        <ele>262.600006</ele>
        <time>2012-04-22T10:02:07Z</time>
      </trkpt>
      <trkpt lat="43.52229" lon="6.79953">
        <ele>261.200012</ele>
        <time>2012-04-22T10:02:14Z</time>
      </trkpt>
      <trkpt lat="43.52229" lon="6.79944">
        <ele>260.399994</ele>
        <time>2012-04-22T10:02:18Z</time>
      </trkpt>
      <trkpt lat="43.52236" lon="6.79937">
        <ele>261.200012</ele>
        <time>2012-04-22T10:02:22Z</time>
      </trkpt>
      <trkpt lat="43.52242" lon="6.79929">
        <ele>261.799988</ele>
        <time>2012-04-22T10:02:29Z</time>
      </trkpt>
      <trkpt lat="43.52248" lon="6.79927">
        <ele>262.799988</ele>
        <time>2012-04-22T10:02:32Z</time>
      </trkpt>
      <trkpt lat="43.52255" lon="6.79926">
        <ele>262</ele>
        <time>2012-04-22T10:02:35Z</time>
      </trkpt>
      <trkpt lat="43.5226" lon="6.7993">
        <ele>261.399994</ele>
        <time>2012-04-22T10:02:38Z</time>
      </trkpt>
      <trkpt lat="43.52268" lon="6.79946">
        <ele>261.600006</ele>
        <time>2012-04-22T10:02:46Z</time>
      </trkpt>
      <trkpt lat="43.52268" lon="6.79955">
        <ele>262.600006</ele>
        <time>2012-04-22T10:02:50Z</time>
      </trkpt>
      <trkpt lat="43.52266" lon="6.79964">
        <ele>263.799988</ele>
        <time>2012-04-22T10:02:54Z</time>
      </trkpt>
      <trkpt lat="43.52265" lon="6.79974">
        <ele>265</ele>
        <time>2012-04-22T10:02:58Z</time>
      </trkpt>
      <trkpt lat="43.52263" lon="6.79982">
        <ele>266.399994</ele>
        <time>2012-04-22T10:03:02Z</time>
      </trkpt>
      <trkpt lat="43.52259" lon="6.79989">
        <ele>268</ele>
        <time>2012-04-22T10:03:06Z</time>
      </trkpt>
      <trkpt lat="43.52254" lon="6.80002">
        <ele>270.600006</ele>
        <time>2012-04-22T10:03:12Z</time>
      </trkpt>
      <trkpt lat="43.52252" lon="6.80016">
        <ele>273.200012</ele>
        <time>2012-04-22T10:03:19Z</time>
      </trkpt>
      <trkpt lat="43.52253" lon="6.80025">
        <ele>274.200012</ele>
        <time>2012-04-22T10:03:23Z</time>
      </trkpt>
      <trkpt lat="43.52253" lon="6.80033">
        <ele>275.399994</ele>
        <time>2012-04-22T10:03:27Z</time>
      </trkpt>
      <trkpt lat="43.52255" lon="6.80041">
        <ele>276</ele>
        <time>2012-04-22T10:03:34Z</time>
      </trkpt>
      <trkpt lat="43.52255" lon="6.80047">
        <ele>277</ele>
        <time>2012-04-22T10:03:39Z</time>
      </trkpt>
      <trkpt lat="43.52257" lon="6.80054">
        <ele>277.600006</ele>
        <time>2012-04-22T10:03:45Z</time>
      </trkpt>
      <trkpt lat="43.52255" lon="6.80061">
        <ele>279</ele>
        <time>2012-04-22T10:03:51Z</time>
      </trkpt>
      <trkpt lat="43.52255" lon="6.80068">
        <ele>280.200012</ele>
        <time>2012-04-22T10:03:59Z</time>
      </trkpt>
      <trkpt lat="43.52255" lon="6.80076">
        <ele>281.399994</ele>
        <time>2012-04-22T10:04:08Z</time>
      </trkpt>
      <trkpt lat="43.52254" lon="6.80083">
        <ele>283</ele>
        <time>2012-04-22T10:04:16Z</time>
      </trkpt>
      <trkpt lat="43.52252" lon="6.80089">
        <ele>283.799988</ele>
        <time>2012-04-22T10:04:22Z</time>
      </trkpt>
      <trkpt lat="43.52249" lon="6.80102">
        <ele>285.600006</ele>
        <time>2012-04-22T10:04:31Z</time>
      </trkpt>
      <trkpt lat="43.52248" lon="6.80113">
        <ele>286.200012</ele>
        <time>2012-04-22T10:04:38Z</time>
      </trkpt>
      <trkpt lat="43.52247" lon="6.8012">
        <ele>286.799988</ele>
        <time>2012-04-22T10:04:43Z</time>
      </trkpt>
      <trkpt lat="43.52245" lon="6.80138">
        <ele>288</ele>
        <time>2012-04-22T10:04:55Z</time>
      </trkpt>
      <trkpt lat="43.52244" lon="6.80146">
        <ele>288.600006</ele>
        <time>2012-04-22T10:05:00Z</time>
      </trkpt>
      <trkpt lat="43.52244" lon="6.80153">
        <ele>289.200012</ele>
        <time>2012-04-22T10:05:04Z</time>
      </trkpt>
      <trkpt lat="43.52241" lon="6.80172">
        <ele>290.399994</ele>
        <time>2012-04-22T10:05:17Z</time>
      </trkpt>
      <trkpt lat="43.52239" lon="6.8018">
        <ele>290.799988</ele>
        <time>2012-04-22T10:05:23Z</time>
      </trkpt>
      <trkpt lat="43.52236" lon="6.80188">
        <ele>291.200012</ele>
        <time>2012-04-22T10:05:30Z</time>
      </trkpt>
      <trkpt lat="43.52233" lon="6.80196">
        <ele>291.399994</ele>
        <time>2012-04-22T10:05:36Z</time>
      </trkpt>
      <trkpt lat="43.5223" lon="6.80204">
        <ele>291.600006</ele>
        <time>2012-04-22T10:05:43Z</time>
      </trkpt>
      <trkpt lat="43.52227" lon="6.80212">
        <ele>292</ele>
        <time>2012-04-22T10:05:51Z</time>
      </trkpt>
      <trkpt lat="43.52225" lon="6.80218">
        <ele>292.399994</ele>
        <time>2012-04-22T10:05:59Z</time>
      </trkpt>
      <trkpt lat="43.52224" lon="6.80225">
        <ele>292.799988</ele>
        <time>2012-04-22T10:06:04Z</time>
      </trkpt>
      <trkpt lat="43.52223" lon="6.80231">
        <ele>293.600006</ele>
        <time>2012-04-22T10:06:10Z</time>
      </trkpt>
      <trkpt lat="43.52222" lon="6.80238">
        <ele>294.200012</ele>
        <time>2012-04-22T10:06:16Z</time>
      </trkpt>
      <trkpt lat="43.52221" lon="6.80245">
        <ele>295</ele>
        <time>2012-04-22T10:06:22Z</time>
      </trkpt>
      <trkpt lat="43.52222" lon="6.80253">
        <ele>295.799988</ele>
        <time>2012-04-22T10:06:30Z</time>
      </trkpt>
      <trkpt lat="43.52221" lon="6.80262">
        <ele>295.600006</ele>
        <time>2012-04-22T10:07:07Z</time>
      </trkpt>
      <trkpt lat="43.52226" lon="6.80285">
        <ele>297</ele>
        <time>2012-04-22T10:08:28Z</time>
      </trkpt>
      <trkpt lat="43.52229" lon="6.80296">
        <ele>298</ele>
        <time>2012-04-22T10:08:30Z</time>
      </trkpt>
      <trkpt lat="43.52234" lon="6.80308">
        <ele>299.200012</ele>
        <time>2012-04-22T10:08:32Z</time>
      </trkpt>
      <trkpt lat="43.52236" lon="6.80314">
        <ele>300</ele>
        <time>2012-04-22T10:08:34Z</time>
      </trkpt>
      <trkpt lat="43.52242" lon="6.80326">
        <ele>301.799988</ele>
        <time>2012-04-22T10:08:35Z</time>
      </trkpt>
      <trkpt lat="43.52249" lon="6.80342">
        <ele>303.200012</ele>
        <time>2012-04-22T10:08:37Z</time>
      </trkpt>
      <trkpt lat="43.52255" lon="6.80351">
        <ele>302</ele>
        <time>2012-04-22T10:08:39Z</time>
      </trkpt>
      <trkpt lat="43.52259" lon="6.80355">
        <ele>301.200012</ele>
        <time>2012-04-22T10:08:41Z</time>
      </trkpt>
      <trkpt lat="43.52273" lon="6.80377">
        <ele>299.399994</ele>
        <time>2012-04-22T10:08:48Z</time>
      </trkpt>
      <trkpt lat="43.52292" lon="6.804">
        <ele>299.600006</ele>
        <time>2012-04-22T10:08:55Z</time>
      </trkpt>
      <trkpt lat="43.52297" lon="6.80412">
        <ele>300.399994</ele>
        <time>2012-04-22T10:08:58Z</time>
      </trkpt>
      <trkpt lat="43.523" lon="6.80419">
        <ele>301</ele>
        <time>2012-04-22T10:09:00Z</time>
      </trkpt>
      <trkpt lat="43.52305" lon="6.80429">
        <ele>301.600006</ele>
        <time>2012-04-22T10:09:04Z</time>
      </trkpt>
      <trkpt lat="43.52309" lon="6.80437">
        <ele>302.399994</ele>
        <time>2012-04-22T10:09:07Z</time>
      </trkpt>
      <trkpt lat="43.52314" lon="6.80447">
        <ele>303.399994</ele>
        <time>2012-04-22T10:09:11Z</time>
      </trkpt>
      <trkpt lat="43.52325" lon="6.80467">
        <ele>306.200012</ele>
        <time>2012-04-22T10:09:19Z</time>
      </trkpt>
      <trkpt lat="43.52331" lon="6.80476">
        <ele>308.200012</ele>
        <time>2012-04-22T10:09:23Z</time>
      </trkpt>
      <trkpt lat="43.52336" lon="6.80485">
        <ele>309.399994</ele>
        <time>2012-04-22T10:09:27Z</time>
      </trkpt>
      <trkpt lat="43.52346" lon="6.80496">
        <ele>310.200012</ele>
        <time>2012-04-22T10:09:33Z</time>
      </trkpt>
      <trkpt lat="43.52354" lon="6.80503">
        <ele>310.399994</ele>
        <time>2012-04-22T10:09:37Z</time>
      </trkpt>
      <trkpt lat="43.5236" lon="6.80511">
        <ele>310.399994</ele>
        <time>2012-04-22T10:09:41Z</time>
      </trkpt>
      <trkpt lat="43.52369" lon="6.80521">
        <ele>311</ele>
        <time>2012-04-22T10:09:46Z</time>
      </trkpt>
      <trkpt lat="43.52381" lon="6.80541">
        <ele>312.799988</ele>
        <time>2012-04-22T10:09:54Z</time>
      </trkpt>
      <trkpt lat="43.52383" lon="6.80549">
        <ele>313.399994</ele>
        <time>2012-04-22T10:09:57Z</time>
      </trkpt>
      <trkpt lat="43.52387" lon="6.80557">
        <ele>314.600006</ele>
        <time>2012-04-22T10:10:01Z</time>
      </trkpt>
      <trkpt lat="43.52392" lon="6.80566">
        <ele>316</ele>
        <time>2012-04-22T10:10:05Z</time>
      </trkpt>
      <trkpt lat="43.52397" lon="6.80576">
        <ele>317.600006</ele>
        <time>2012-04-22T10:10:09Z</time>
      </trkpt>
      <trkpt lat="43.52402" lon="6.80584">
        <ele>319</ele>
        <time>2012-04-22T10:10:13Z</time>
      </trkpt>
      <trkpt lat="43.5241" lon="6.80591">
        <ele>320</ele>
        <time>2012-04-22T10:10:18Z</time>
      </trkpt>
      <trkpt lat="43.52416" lon="6.80597">
        <ele>320.600006</ele>
        <time>2012-04-22T10:10:22Z</time>
      </trkpt>
      <trkpt lat="43.52422" lon="6.80602">
        <ele>320.399994</ele>
        <time>2012-04-22T10:10:26Z</time>
      </trkpt>
      <trkpt lat="43.52425" lon="6.80607">
        <ele>320.399994</ele>
        <time>2012-04-22T10:10:29Z</time>
      </trkpt>
      <trkpt lat="43.5243" lon="6.80615">
        <ele>320.399994</ele>
        <time>2012-04-22T10:10:33Z</time>
      </trkpt>
      <trkpt lat="43.52436" lon="6.8062">
        <ele>320.399994</ele>
        <time>2012-04-22T10:10:37Z</time>
      </trkpt>
      <trkpt lat="43.52449" lon="6.80643">
        <ele>321</ele>
        <time>2012-04-22T10:10:47Z</time>
      </trkpt>
      <trkpt lat="43.52457" lon="6.80663">
        <ele>321.799988</ele>
        <time>2012-04-22T10:10:53Z</time>
      </trkpt>
      <trkpt lat="43.52471" lon="6.80691">
        <ele>322.600006</ele>
        <time>2012-04-22T10:11:02Z</time>
      </trkpt>
      <trkpt lat="43.52482" lon="6.80721">
        <ele>324</ele>
        <time>2012-04-22T10:11:13Z</time>
      </trkpt>
      <trkpt lat="43.52484" lon="6.80739">
        <ele>324.600006</ele>
        <time>2012-04-22T10:11:20Z</time>
      </trkpt>
      <trkpt lat="43.52487" lon="6.80752">
        <ele>325.399994</ele>
        <time>2012-04-22T10:11:25Z</time>
      </trkpt>
      <trkpt lat="43.5249" lon="6.80761">
        <ele>326.399994</ele>
        <time>2012-04-22T10:11:29Z</time>
      </trkpt>
      <trkpt lat="43.52493" lon="6.80767">
        <ele>327.399994</ele>
        <time>2012-04-22T10:11:32Z</time>
      </trkpt>
      <trkpt lat="43.52499" lon="6.80772">
        <ele>329</ele>
        <time>2012-04-22T10:11:36Z</time>
      </trkpt>
      <trkpt lat="43.52504" lon="6.80778">
        <ele>329.799988</ele>
        <time>2012-04-22T10:11:41Z</time>
      </trkpt>
      <trkpt lat="43.5251" lon="6.80785">
        <ele>330.799988</ele>
        <time>2012-04-22T10:11:45Z</time>
      </trkpt>
      <trkpt lat="43.52515" lon="6.80789">
        <ele>331.600006</ele>
        <time>2012-04-22T10:11:49Z</time>
      </trkpt>
      <trkpt lat="43.52518" lon="6.80798">
        <ele>332.399994</ele>
        <time>2012-04-22T10:11:53Z</time>
      </trkpt>
      <trkpt lat="43.52519" lon="6.80806">
        <ele>333</ele>
        <time>2012-04-22T10:11:57Z</time>
      </trkpt>
      <trkpt lat="43.52521" lon="6.80812">
        <ele>333.600006</ele>
        <time>2012-04-22T10:12:01Z</time>
      </trkpt>
      <trkpt lat="43.52524" lon="6.8082">
        <ele>334.600006</ele>
        <time>2012-04-22T10:12:05Z</time>
      </trkpt>
      <trkpt lat="43.52526" lon="6.80828">
        <ele>335.399994</ele>
        <time>2012-04-22T10:12:08Z</time>
      </trkpt>
      <trkpt lat="43.52531" lon="6.80841">
        <ele>336.799988</ele>
        <time>2012-04-22T10:12:15Z</time>
      </trkpt>
      <trkpt lat="43.52535" lon="6.80849">
        <ele>337.799988</ele>
        <time>2012-04-22T10:12:19Z</time>
      </trkpt>
      <trkpt lat="43.52539" lon="6.80856">
        <ele>339</ele>
        <time>2012-04-22T10:12:23Z</time>
      </trkpt>
      <trkpt lat="43.52545" lon="6.80865">
        <ele>340.399994</ele>
        <time>2012-04-22T10:12:28Z</time>
      </trkpt>
      <trkpt lat="43.5255" lon="6.80874">
        <ele>342</ele>
        <time>2012-04-22T10:12:34Z</time>
      </trkpt>
      <trkpt lat="43.52552" lon="6.80884">
        <ele>343.200012</ele>
        <time>2012-04-22T10:12:38Z</time>
      </trkpt>
      <trkpt lat="43.52553" lon="6.80893">
        <ele>344</ele>
        <time>2012-04-22T10:12:43Z</time>
      </trkpt>
      <trkpt lat="43.52553" lon="6.80902">
        <ele>344.799988</ele>
        <time>2012-04-22T10:12:47Z</time>
      </trkpt>
      <trkpt lat="43.52554" lon="6.8091">
        <ele>345.399994</ele>
        <time>2012-04-22T10:12:51Z</time>
      </trkpt>
      <trkpt lat="43.52555" lon="6.80917">
        <ele>346.200012</ele>
        <time>2012-04-22T10:12:55Z</time>
      </trkpt>
      <trkpt lat="43.52558" lon="6.80922">
        <ele>347.200012</ele>
        <time>2012-04-22T10:12:59Z</time>
      </trkpt>
      <trkpt lat="43.52563" lon="6.80918">
        <ele>348.200012</ele>
        <time>2012-04-22T10:13:03Z</time>
      </trkpt>
      <trkpt lat="43.52573" lon="6.809">
        <ele>349</ele>
        <time>2012-04-22T10:13:12Z</time>
      </trkpt>
      <trkpt lat="43.52579" lon="6.80886">
        <ele>349</ele>
        <time>2012-04-22T10:13:18Z</time>
      </trkpt>
      <trkpt lat="43.52587" lon="6.80869">
        <ele>348</ele>
        <time>2012-04-22T10:13:25Z</time>
      </trkpt>
      <trkpt lat="43.5259" lon="6.80864">
        <ele>347.600006</ele>
        <time>2012-04-22T10:13:27Z</time>
      </trkpt>
      <trkpt lat="43.52597" lon="6.80856">
        <ele>347.200012</ele>
        <time>2012-04-22T10:13:31Z</time>
      </trkpt>
      <trkpt lat="43.52613" lon="6.80852">
        <ele>347.799988</ele>
        <time>2012-04-22T10:13:39Z</time>
      </trkpt>
      <trkpt lat="43.52619" lon="6.80855">
        <ele>348.399994</ele>
        <time>2012-04-22T10:13:43Z</time>
      </trkpt>
      <trkpt lat="43.52626" lon="6.80862">
        <ele>349.600006</ele>
        <time>2012-04-22T10:13:47Z</time>
      </trkpt>
      <trkpt lat="43.52629" lon="6.80868">
        <ele>350.399994</ele>
        <time>2012-04-22T10:13:49Z</time>
      </trkpt>
      <trkpt lat="43.52633" lon="6.80886">
        <ele>352.600006</ele>
        <time>2012-04-22T10:13:55Z</time>
      </trkpt>
      <trkpt lat="43.52636" lon="6.80903">
        <ele>354.600006</ele>
        <time>2012-04-22T10:14:01Z</time>
      </trkpt>
      <trkpt lat="43.52639" lon="6.80911">
        <ele>355.799988</ele>
        <time>2012-04-22T10:14:04Z</time>
      </trkpt>
      <trkpt lat="43.52647" lon="6.80921">
        <ele>357.200012</ele>
        <time>2012-04-22T10:14:08Z</time>
      </trkpt>
      <trkpt lat="43.52655" lon="6.80923">
        <ele>358</ele>
        <time>2012-04-22T10:14:11Z</time>
      </trkpt>
      <trkpt lat="43.52664" lon="6.80917">
        <ele>358</ele>
        <time>2012-04-22T10:14:16Z</time>
      </trkpt>
      <trkpt lat="43.52676" lon="6.80908">
        <ele>357.200012</ele>
        <time>2012-04-22T10:14:23Z</time>
      </trkpt>
      <trkpt lat="43.52692" lon="6.80902">
        <ele>357</ele>
        <time>2012-04-22T10:14:29Z</time>
      </trkpt>
      <trkpt lat="43.527" lon="6.80886">
        <ele>355.200012</ele>
        <time>2012-04-22T10:14:36Z</time>
      </trkpt>
      <trkpt lat="43.52704" lon="6.8087">
        <ele>353.399994</ele>
        <time>2012-04-22T10:14:40Z</time>
      </trkpt>
      <trkpt lat="43.52706" lon="6.80864">
        <ele>352.600006</ele>
        <time>2012-04-22T10:14:42Z</time>
      </trkpt>
      <trkpt lat="43.52708" lon="6.80858">
        <ele>352</ele>
        <time>2012-04-22T10:14:45Z</time>
      </trkpt>
      <trkpt lat="43.52711" lon="6.80852">
        <ele>351.399994</ele>
        <time>2012-04-22T10:14:46Z</time>
      </trkpt>
      <trkpt lat="43.52714" lon="6.80847">
        <ele>350.600006</ele>
        <time>2012-04-22T10:14:48Z</time>
      </trkpt>
      <trkpt lat="43.52723" lon="6.80827">
        <ele>348.600006</ele>
        <time>2012-04-22T10:14:55Z</time>
      </trkpt>
      <trkpt lat="43.52731" lon="6.80828">
        <ele>348.799988</ele>
        <time>2012-04-22T10:15:01Z</time>
      </trkpt>
      <trkpt lat="43.52734" lon="6.8084">
        <ele>349.799988</ele>
        <time>2012-04-22T10:15:06Z</time>
      </trkpt>
      <trkpt lat="43.52735" lon="6.80847">
        <ele>350.799988</ele>
        <time>2012-04-22T10:15:07Z</time>
      </trkpt>
      <trkpt lat="43.52736" lon="6.80854">
        <ele>351.600006</ele>
        <time>2012-04-22T10:15:09Z</time>
      </trkpt>
      <trkpt lat="43.52743" lon="6.80883">
        <ele>355.399994</ele>
        <time>2012-04-22T10:15:18Z</time>
      </trkpt>
      <trkpt lat="43.52755" lon="6.80906">
        <ele>358</ele>
        <time>2012-04-22T10:15:27Z</time>
      </trkpt>
      <trkpt lat="43.52763" lon="6.80922">
        <ele>359.399994</ele>
        <time>2012-04-22T10:15:31Z</time>
      </trkpt>
      <trkpt lat="43.52766" lon="6.8093">
        <ele>360.399994</ele>
        <time>2012-04-22T10:15:33Z</time>
      </trkpt>
      <trkpt lat="43.52775" lon="6.80944">
        <ele>361.399994</ele>
        <time>2012-04-22T10:15:37Z</time>
      </trkpt>
      <trkpt lat="43.52798" lon="6.80945">
        <ele>358.399994</ele>
        <time>2012-04-22T10:15:43Z</time>
      </trkpt>
      <trkpt lat="43.52808" lon="6.80941">
        <ele>356.600006</ele>
        <time>2012-04-22T10:15:47Z</time>
      </trkpt>
      <trkpt lat="43.52814" lon="6.80937">
        <ele>355.200012</ele>
        <time>2012-04-22T10:16:13Z</time>
      </trkpt>
      <trkpt lat="43.52826" lon="6.8093">
        <ele>352.799988</ele>
        <time>2012-04-22T10:16:16Z</time>
      </trkpt>
      <trkpt lat="43.52846" lon="6.80922">
        <ele>349.200012</ele>
        <time>2012-04-22T10:16:19Z</time>
      </trkpt>
      <trkpt lat="43.52859" lon="6.80918">
        <ele>347.600006</ele>
        <time>2012-04-22T10:16:21Z</time>
      </trkpt>
      <trkpt lat="43.52863" lon="6.80916">
        <ele>347</ele>
        <time>2012-04-22T10:16:22Z</time>
      </trkpt>
      <trkpt lat="43.52872" lon="6.80908">
        <ele>345.799988</ele>
        <time>2012-04-22T10:16:24Z</time>
      </trkpt>
      <trkpt lat="43.5288" lon="6.80894">
        <ele>345</ele>
        <time>2012-04-22T10:16:26Z</time>
      </trkpt>
      <trkpt lat="43.52882" lon="6.80867">
        <ele>344.600006</ele>
        <time>2012-04-22T10:16:29Z</time>
      </trkpt>
      <trkpt lat="43.52882" lon="6.80859">
        <ele>344.600006</ele>
        <time>2012-04-22T10:16:30Z</time>
      </trkpt>
      <trkpt lat="43.52882" lon="6.80841">
        <ele>344.200012</ele>
        <time>2012-04-22T10:16:32Z</time>
      </trkpt>
      <trkpt lat="43.52883" lon="6.80824">
        <ele>343.799988</ele>
        <time>2012-04-22T10:16:34Z</time>
      </trkpt>
      <trkpt lat="43.52884" lon="6.80815">
        <ele>343.600006</ele>
        <time>2012-04-22T10:16:35Z</time>
      </trkpt>
      <trkpt lat="43.52888" lon="6.80796">
        <ele>343.399994</ele>
        <time>2012-04-22T10:16:37Z</time>
      </trkpt>
      <trkpt lat="43.5289" lon="6.80786">
        <ele>343.200012</ele>
        <time>2012-04-22T10:16:39Z</time>
      </trkpt>
      <trkpt lat="43.529" lon="6.80748">
        <ele>343.799988</ele>
        <time>2012-04-22T10:16:42Z</time>
      </trkpt>
      <trkpt lat="43.52907" lon="6.8073">
        <ele>342.399994</ele>
        <time>2012-04-22T10:16:45Z</time>
      </trkpt>
      <trkpt lat="43.52914" lon="6.80714">
        <ele>341.399994</ele>
        <time>2012-04-22T10:16:47Z</time>
      </trkpt>
      <trkpt lat="43.52918" lon="6.80706">
        <ele>340.799988</ele>
        <time>2012-04-22T10:16:48Z</time>
      </trkpt>
      <trkpt lat="43.52933" lon="6.80686">
        <ele>339.200012</ele>
        <time>2012-04-22T10:16:51Z</time>
      </trkpt>
      <trkpt lat="43.52938" lon="6.8068">
        <ele>339.200012</ele>
        <time>2012-04-22T10:16:52Z</time>
      </trkpt>
      <trkpt lat="43.52944" lon="6.80676">
        <ele>339.399994</ele>
        <time>2012-04-22T10:16:53Z</time>
      </trkpt>
      <trkpt lat="43.52956" lon="6.80672">
        <ele>340.600006</ele>
        <time>2012-04-22T10:16:55Z</time>
      </trkpt>
      <trkpt lat="43.52966" lon="6.80671">
        <ele>342</ele>
        <time>2012-04-22T10:16:56Z</time>
      </trkpt>
      <trkpt lat="43.52971" lon="6.8067">
        <ele>342.600006</ele>
        <time>2012-04-22T10:16:57Z</time>
      </trkpt>
      <trkpt lat="43.52984" lon="6.80659">
        <ele>342.399994</ele>
        <time>2012-04-22T10:17:00Z</time>
      </trkpt>
      <trkpt lat="43.52988" lon="6.80653">
        <ele>341.799988</ele>
        <time>2012-04-22T10:17:02Z</time>
      </trkpt>
      <trkpt lat="43.52999" lon="6.80639">
        <ele>339.799988</ele>
        <time>2012-04-22T10:17:04Z</time>
      </trkpt>
      <trkpt lat="43.53008" lon="6.80633">
        <ele>338.399994</ele>
        <time>2012-04-22T10:17:06Z</time>
      </trkpt>
      <trkpt lat="43.53024" lon="6.80634">
        <ele>338.399994</ele>
        <time>2012-04-22T10:17:09Z</time>
      </trkpt>
      <trkpt lat="43.53029" lon="6.80636">
        <ele>338.799988</ele>
        <time>2012-04-22T10:17:10Z</time>
      </trkpt>
      <trkpt lat="43.53034" lon="6.80639">
        <ele>339</ele>
        <time>2012-04-22T10:17:12Z</time>
      </trkpt>
      <trkpt lat="43.53048" lon="6.80649">
        <ele>340</ele>
        <time>2012-04-22T10:17:14Z</time>
      </trkpt>
      <trkpt lat="43.53075" lon="6.80649">
        <ele>338.600006</ele>
        <time>2012-04-22T10:17:19Z</time>
      </trkpt>
      <trkpt lat="43.5308" lon="6.80645">
        <ele>338</ele>
        <time>2012-04-22T10:17:20Z</time>
      </trkpt>
      <trkpt lat="43.53084" lon="6.8064">
        <ele>337.600006</ele>
        <time>2012-04-22T10:17:21Z</time>
      </trkpt>
      <trkpt lat="43.53097" lon="6.8062">
        <ele>334.799988</ele>
        <time>2012-04-22T10:17:26Z</time>
      </trkpt>
      <trkpt lat="43.53106" lon="6.80608">
        <ele>333.799988</ele>
        <time>2012-04-22T10:17:30Z</time>
      </trkpt>
      <trkpt lat="43.5311" lon="6.80595">
        <ele>333.799988</ele>
        <time>2012-04-22T10:17:33Z</time>
      </trkpt>
      <trkpt lat="43.53111" lon="6.80584">
        <ele>334.399994</ele>
        <time>2012-04-22T10:17:35Z</time>
      </trkpt>
      <trkpt lat="43.5311" lon="6.80571">
        <ele>334.200012</ele>
        <time>2012-04-22T10:17:38Z</time>
      </trkpt>
      <trkpt lat="43.53109" lon="6.80559">
        <ele>334.200012</ele>
        <time>2012-04-22T10:17:40Z</time>
      </trkpt>
      <trkpt lat="43.53107" lon="6.80548">
        <ele>334</ele>
        <time>2012-04-22T10:17:42Z</time>
      </trkpt>
      <trkpt lat="43.53107" lon="6.80536">
        <ele>333.799988</ele>
        <time>2012-04-22T10:17:44Z</time>
      </trkpt>
      <trkpt lat="43.53107" lon="6.80526">
        <ele>333.799988</ele>
        <time>2012-04-22T10:17:46Z</time>
      </trkpt>
      <trkpt lat="43.53105" lon="6.80491">
        <ele>332.600006</ele>
        <time>2012-04-22T10:17:53Z</time>
      </trkpt>
      <trkpt lat="43.53108" lon="6.80451">
        <ele>330.200012</ele>
        <time>2012-04-22T10:18:00Z</time>
      </trkpt>
      <trkpt lat="43.5312" lon="6.80426">
        <ele>329.399994</ele>
        <time>2012-04-22T10:18:06Z</time>
      </trkpt>
      <trkpt lat="43.53138" lon="6.80423">
        <ele>330.600006</ele>
        <time>2012-04-22T10:18:10Z</time>
      </trkpt>
      <trkpt lat="43.53144" lon="6.80425">
        <ele>331.200012</ele>
        <time>2012-04-22T10:18:13Z</time>
      </trkpt>
      <trkpt lat="43.53148" lon="6.80427">
        <ele>331.799988</ele>
        <time>2012-04-22T10:18:15Z</time>
      </trkpt>
      <trkpt lat="43.53153" lon="6.80431">
        <ele>332.600006</ele>
        <time>2012-04-22T10:18:17Z</time>
      </trkpt>
      <trkpt lat="43.53158" lon="6.80436">
        <ele>333.600006</ele>
        <time>2012-04-22T10:18:19Z</time>
      </trkpt>
      <trkpt lat="43.53179" lon="6.80461">
        <ele>336.399994</ele>
        <time>2012-04-22T10:18:25Z</time>
      </trkpt>
      <trkpt lat="43.53199" lon="6.8047">
        <ele>335.799988</ele>
        <time>2012-04-22T10:18:32Z</time>
      </trkpt>
      <trkpt lat="43.53215" lon="6.80477">
        <ele>335.200012</ele>
        <time>2012-04-22T10:18:38Z</time>
      </trkpt>
      <trkpt lat="43.53223" lon="6.8048">
        <ele>334.600006</ele>
        <time>2012-04-22T10:18:39Z</time>
      </trkpt>
      <trkpt lat="43.53231" lon="6.80479">
        <ele>333.799988</ele>
        <time>2012-04-22T10:18:41Z</time>
      </trkpt>
      <trkpt lat="43.53239" lon="6.80473">
        <ele>332.799988</ele>
        <time>2012-04-22T10:18:44Z</time>
      </trkpt>
      <trkpt lat="43.53247" lon="6.80461">
        <ele>331.799988</ele>
        <time>2012-04-22T10:18:46Z</time>
      </trkpt>
      <trkpt lat="43.53253" lon="6.80442">
        <ele>330</ele>
        <time>2012-04-22T10:18:51Z</time>
      </trkpt>
      <trkpt lat="43.53256" lon="6.80418">
        <ele>328.200012</ele>
        <time>2012-04-22T10:18:57Z</time>
      </trkpt>
      <trkpt lat="43.53255" lon="6.8041">
        <ele>328</ele>
        <time>2012-04-22T10:19:00Z</time>
      </trkpt>
      <trkpt lat="43.53254" lon="6.80404">
        <ele>328</ele>
        <time>2012-04-22T10:19:01Z</time>
      </trkpt>
      <trkpt lat="43.53257" lon="6.8039">
        <ele>326.200012</ele>
        <time>2012-04-22T10:19:06Z</time>
      </trkpt>
      <trkpt lat="43.53259" lon="6.80385">
        <ele>325.200012</ele>
        <time>2012-04-22T10:19:08Z</time>
      </trkpt>
      <trkpt lat="43.53263" lon="6.80376">
        <ele>323.799988</ele>
        <time>2012-04-22T10:19:15Z</time>
      </trkpt>
      <trkpt lat="43.53265" lon="6.80369">
        <ele>322.600006</ele>
        <time>2012-04-22T10:20:34Z</time>
      </trkpt>
      <trkpt lat="43.53265" lon="6.8036">
        <ele>322.200012</ele>
        <time>2012-04-22T10:20:39Z</time>
      </trkpt>
      <trkpt lat="43.53264" lon="6.80353">
        <ele>321.799988</ele>
        <time>2012-04-22T10:20:43Z</time>
      </trkpt>
      <trkpt lat="43.53267" lon="6.80338">
        <ele>320.399994</ele>
        <time>2012-04-22T10:20:48Z</time>
      </trkpt>
      <trkpt lat="43.53263" lon="6.80328">
        <ele>321.200012</ele>
        <time>2012-04-22T10:20:52Z</time>
      </trkpt>
      <trkpt lat="43.53256" lon="6.80302">
        <ele>322</ele>
        <time>2012-04-22T10:20:59Z</time>
      </trkpt>
      <trkpt lat="43.53254" lon="6.80291">
        <ele>322</ele>
        <time>2012-04-22T10:21:01Z</time>
      </trkpt>
      <trkpt lat="43.53246" lon="6.80273">
        <ele>321.399994</ele>
        <time>2012-04-22T10:21:04Z</time>
      </trkpt>
      <trkpt lat="43.5324" lon="6.80264">
        <ele>320</ele>
        <time>2012-04-22T10:21:07Z</time>
      </trkpt>
      <trkpt lat="43.53235" lon="6.80254">
        <ele>318.600006</ele>
        <time>2012-04-22T10:21:09Z</time>
      </trkpt>
      <trkpt lat="43.53238" lon="6.80241">
        <ele>317.799988</ele>
        <time>2012-04-22T10:21:12Z</time>
      </trkpt>
      <trkpt lat="43.53247" lon="6.80237">
        <ele>318.799988</ele>
        <time>2012-04-22T10:21:14Z</time>
      </trkpt>
      <trkpt lat="43.53252" lon="6.80236">
        <ele>319</ele>
        <time>2012-04-22T10:21:15Z</time>
      </trkpt>
      <trkpt lat="43.53262" lon="6.80235">
        <ele>317.399994</ele>
        <time>2012-04-22T10:21:16Z</time>
      </trkpt>
      <trkpt lat="43.53275" lon="6.80223">
        <ele>314.399994</ele>
        <time>2012-04-22T10:21:19Z</time>
      </trkpt>
      <trkpt lat="43.53283" lon="6.80208">
        <ele>312.399994</ele>
        <time>2012-04-22T10:21:22Z</time>
      </trkpt>
      <trkpt lat="43.53288" lon="6.8019">
        <ele>310.600006</ele>
        <time>2012-04-22T10:21:24Z</time>
      </trkpt>
      <trkpt lat="43.53291" lon="6.8018">
        <ele>309.799988</ele>
        <time>2012-04-22T10:21:25Z</time>
      </trkpt>
      <trkpt lat="43.53294" lon="6.80171">
        <ele>309.200012</ele>
        <time>2012-04-22T10:21:26Z</time>
      </trkpt>
      <trkpt lat="43.53296" lon="6.80161">
        <ele>308.600006</ele>
        <time>2012-04-22T10:21:27Z</time>
      </trkpt>
      <trkpt lat="43.53298" lon="6.80151">
        <ele>308</ele>
        <time>2012-04-22T10:21:28Z</time>
      </trkpt>
      <trkpt lat="43.53302" lon="6.80131">
        <ele>307.200012</ele>
        <time>2012-04-22T10:21:30Z</time>
      </trkpt>
      <trkpt lat="43.53304" lon="6.80121">
        <ele>306.799988</ele>
        <time>2012-04-22T10:21:31Z</time>
      </trkpt>
      <trkpt lat="43.53313" lon="6.80093">
        <ele>307</ele>
        <time>2012-04-22T10:21:34Z</time>
      </trkpt>
      <trkpt lat="43.53317" lon="6.80084">
        <ele>307.399994</ele>
        <time>2012-04-22T10:21:35Z</time>
      </trkpt>
      <trkpt lat="43.53321" lon="6.80076">
        <ele>307.200012</ele>
        <time>2012-04-22T10:21:36Z</time>
      </trkpt>
      <trkpt lat="43.53328" lon="6.80057">
        <ele>306.600006</ele>
        <time>2012-04-22T10:21:38Z</time>
      </trkpt>
      <trkpt lat="43.53334" lon="6.80041">
        <ele>306</ele>
        <time>2012-04-22T10:21:40Z</time>
      </trkpt>
      <trkpt lat="43.53336" lon="6.80036">
        <ele>305</ele>
        <time>2012-04-22T10:21:41Z</time>
      </trkpt>
      <trkpt lat="43.53345" lon="6.80026">
        <ele>303.200012</ele>
        <time>2012-04-22T10:21:44Z</time>
      </trkpt>
      <trkpt lat="43.53353" lon="6.80022">
        <ele>302</ele>
        <time>2012-04-22T10:21:46Z</time>
      </trkpt>
      <trkpt lat="43.53359" lon="6.80021">
        <ele>301.399994</ele>
        <time>2012-04-22T10:21:48Z</time>
      </trkpt>
      <trkpt lat="43.53364" lon="6.80022">
        <ele>300.799988</ele>
        <time>2012-04-22T10:21:51Z</time>
      </trkpt>
      <trkpt lat="43.53368" lon="6.80017">
        <ele>300.399994</ele>
        <time>2012-04-22T10:21:54Z</time>
      </trkpt>
      <trkpt lat="43.53372" lon="6.80009">
        <ele>300</ele>
        <time>2012-04-22T10:21:56Z</time>
      </trkpt>
      <trkpt lat="43.53379" lon="6.79993">
        <ele>299.799988</ele>
        <time>2012-04-22T10:21:59Z</time>
      </trkpt>
      <trkpt lat="43.53381" lon="6.79986">
        <ele>299.799988</ele>
        <time>2012-04-22T10:22:02Z</time>
      </trkpt>
      <trkpt lat="43.53386" lon="6.79983">
        <ele>299.799988</ele>
        <time>2012-04-22T10:28:07Z</time>
      </trkpt>
      <trkpt lat="43.53397" lon="6.79974">
        <ele>300.200012</ele>
        <time>2012-04-22T10:28:12Z</time>
      </trkpt>
      <trkpt lat="43.5341" lon="6.79968">
        <ele>300.799988</ele>
        <time>2012-04-22T10:28:15Z</time>
      </trkpt>
      <trkpt lat="43.53415" lon="6.79964">
        <ele>301.399994</ele>
        <time>2012-04-22T10:28:16Z</time>
      </trkpt>
      <trkpt lat="43.53426" lon="6.79956">
        <ele>299.200012</ele>
        <time>2012-04-22T10:28:18Z</time>
      </trkpt>
      <trkpt lat="43.53434" lon="6.79949">
        <ele>297.200012</ele>
        <time>2012-04-22T10:28:19Z</time>
      </trkpt>
      <trkpt lat="43.53439" lon="6.79943">
        <ele>296</ele>
        <time>2012-04-22T10:28:20Z</time>
      </trkpt>
      <trkpt lat="43.53443" lon="6.79939">
        <ele>295.200012</ele>
        <time>2012-04-22T10:28:21Z</time>
      </trkpt>
      <trkpt lat="43.53449" lon="6.79931">
        <ele>294.399994</ele>
        <time>2012-04-22T10:28:36Z</time>
      </trkpt>
      <trkpt lat="43.53456" lon="6.79921">
        <ele>293.200012</ele>
        <time>2012-04-22T10:28:39Z</time>
      </trkpt>
      <trkpt lat="43.53461" lon="6.79915">
        <ele>292.200012</ele>
        <time>2012-04-22T10:28:41Z</time>
      </trkpt>
      <trkpt lat="43.53467" lon="6.79906">
        <ele>290.399994</ele>
        <time>2012-04-22T10:28:43Z</time>
      </trkpt>
      <trkpt lat="43.53471" lon="6.79901">
        <ele>289.399994</ele>
        <time>2012-04-22T10:28:44Z</time>
      </trkpt>
      <trkpt lat="43.53474" lon="6.79896">
        <ele>288.600006</ele>
        <time>2012-04-22T10:28:45Z</time>
      </trkpt>
      <trkpt lat="43.53477" lon="6.7989">
        <ele>287.600006</ele>
        <time>2012-04-22T10:28:46Z</time>
      </trkpt>
      <trkpt lat="43.53481" lon="6.79884">
        <ele>286.799988</ele>
        <time>2012-04-22T10:28:47Z</time>
      </trkpt>
      <trkpt lat="43.5349" lon="6.79869">
        <ele>284.799988</ele>
        <time>2012-04-22T10:28:50Z</time>
      </trkpt>
      <trkpt lat="43.53494" lon="6.79859">
        <ele>284.200012</ele>
        <time>2012-04-22T10:28:52Z</time>
      </trkpt>
      <trkpt lat="43.535" lon="6.79838">
        <ele>283.799988</ele>
        <time>2012-04-22T10:28:55Z</time>
      </trkpt>
      <trkpt lat="43.53501" lon="6.79832">
        <ele>283.200012</ele>
        <time>2012-04-22T10:28:56Z</time>
      </trkpt>
      <trkpt lat="43.53503" lon="6.79817">
        <ele>280.600006</ele>
        <time>2012-04-22T10:28:58Z</time>
      </trkpt>
      <trkpt lat="43.53501" lon="6.79802">
        <ele>279.200012</ele>
        <time>2012-04-22T10:29:00Z</time>
      </trkpt>
      <trkpt lat="43.53502" lon="6.79791">
        <ele>277.200012</ele>
        <time>2012-04-22T10:29:02Z</time>
      </trkpt>
      <trkpt lat="43.53508" lon="6.79783">
        <ele>274</ele>
        <time>2012-04-22T10:29:04Z</time>
      </trkpt>
      <trkpt lat="43.53518" lon="6.79773">
        <ele>269.799988</ele>
        <time>2012-04-22T10:29:07Z</time>
      </trkpt>
      <trkpt lat="43.53522" lon="6.79765">
        <ele>267.600006</ele>
        <time>2012-04-22T10:29:09Z</time>
      </trkpt>
      <trkpt lat="43.53527" lon="6.79758">
        <ele>265.399994</ele>
        <time>2012-04-22T10:29:11Z</time>
      </trkpt>
      <trkpt lat="43.53534" lon="6.79751">
        <ele>263.200012</ele>
        <time>2012-04-22T10:29:13Z</time>
      </trkpt>
      <trkpt lat="43.53539" lon="6.79743">
        <ele>259.799988</ele>
        <time>2012-04-22T10:29:15Z</time>
      </trkpt>
      <trkpt lat="43.53544" lon="6.79737">
        <ele>257</ele>
        <time>2012-04-22T10:29:17Z</time>
      </trkpt>
      <trkpt lat="43.53548" lon="6.79734">
        <ele>255.199997</ele>
        <time>2012-04-22T10:29:19Z</time>
      </trkpt>
      <trkpt lat="43.53554" lon="6.79731">
        <ele>253.399994</ele>
        <time>2012-04-22T10:30:09Z</time>
      </trkpt>
      <trkpt lat="43.53562" lon="6.79734">
        <ele>252.199997</ele>
        <time>2012-04-22T10:30:12Z</time>
      </trkpt>
      <trkpt lat="43.53571" lon="6.79732">
        <ele>249.800003</ele>
        <time>2012-04-22T10:30:14Z</time>
      </trkpt>
      <trkpt lat="43.53575" lon="6.79732">
        <ele>248.600006</ele>
        <time>2012-04-22T10:30:15Z</time>
      </trkpt>
      <trkpt lat="43.53584" lon="6.79729">
        <ele>246.199997</ele>
        <time>2012-04-22T10:30:17Z</time>
      </trkpt>
      <trkpt lat="43.53591" lon="6.79726">
        <ele>243.399994</ele>
        <time>2012-04-22T10:30:19Z</time>
      </trkpt>
      <trkpt lat="43.53599" lon="6.7972">
        <ele>240.199997</ele>
        <time>2012-04-22T10:30:21Z</time>
      </trkpt>
      <trkpt lat="43.53608" lon="6.79712">
        <ele>236.399994</ele>
        <time>2012-04-22T10:30:24Z</time>
      </trkpt>
      <trkpt lat="43.53612" lon="6.79707">
        <ele>234.600006</ele>
        <time>2012-04-22T10:30:26Z</time>
      </trkpt>
      <trkpt lat="43.53619" lon="6.79703">
        <ele>232.600006</ele>
        <time>2012-04-22T10:30:29Z</time>
      </trkpt>
      <trkpt lat="43.53624" lon="6.79699">
        <ele>230.600006</ele>
        <time>2012-04-22T10:30:33Z</time>
      </trkpt>
      <trkpt lat="43.53631" lon="6.79697">
        <ele>228.800003</ele>
        <time>2012-04-22T10:30:38Z</time>
      </trkpt>
      <trkpt lat="43.53636" lon="6.79693">
        <ele>227.199997</ele>
        <time>2012-04-22T10:30:40Z</time>
      </trkpt>
      <trkpt lat="43.53645" lon="6.79683">
        <ele>224.399994</ele>
        <time>2012-04-22T10:30:43Z</time>
      </trkpt>
      <trkpt lat="43.53652" lon="6.79673">
        <ele>222.199997</ele>
        <time>2012-04-22T10:30:46Z</time>
      </trkpt>
      <trkpt lat="43.53656" lon="6.79665">
        <ele>220.800003</ele>
        <time>2012-04-22T10:30:49Z</time>
      </trkpt>
      <trkpt lat="43.53661" lon="6.79661">
        <ele>219.600006</ele>
        <time>2012-04-22T10:30:56Z</time>
      </trkpt>
      <trkpt lat="43.53668" lon="6.7965">
        <ele>217.600006</ele>
        <time>2012-04-22T10:31:00Z</time>
      </trkpt>
      <trkpt lat="43.53672" lon="6.79645">
        <ele>216.800003</ele>
        <time>2012-04-22T10:31:02Z</time>
      </trkpt>
      <trkpt lat="43.53674" lon="6.79639">
        <ele>216.199997</ele>
        <time>2012-04-22T10:31:13Z</time>
      </trkpt>
      <trkpt lat="43.53678" lon="6.79633">
        <ele>215.399994</ele>
        <time>2012-04-22T10:31:21Z</time>
      </trkpt>
      <trkpt lat="43.53685" lon="6.79627">
        <ele>214.399994</ele>
        <time>2012-04-22T10:31:32Z</time>
      </trkpt>
      <trkpt lat="43.53687" lon="6.79621">
        <ele>213.600006</ele>
        <time>2012-04-22T10:31:52Z</time>
      </trkpt>
      <trkpt lat="43.5369" lon="6.79616">
        <ele>212.800003</ele>
        <time>2012-04-22T10:32:04Z</time>
      </trkpt>
      <trkpt lat="43.53692" lon="6.79609">
        <ele>211.800003</ele>
        <time>2012-04-22T10:32:23Z</time>
      </trkpt>
      <trkpt lat="43.53695" lon="6.79601">
        <ele>210.600006</ele>
        <time>2012-04-22T10:32:48Z</time>
      </trkpt>
      <trkpt lat="43.53692" lon="6.79594">
        <ele>210.199997</ele>
        <time>2012-04-22T10:33:08Z</time>
      </trkpt>
      <trkpt lat="43.53685" lon="6.79587">
        <ele>210.199997</ele>
        <time>2012-04-22T10:33:11Z</time>
      </trkpt>
      <trkpt lat="43.53681" lon="6.79583">
        <ele>210.199997</ele>
        <time>2012-04-22T10:33:14Z</time>
      </trkpt>
      <trkpt lat="43.53688" lon="6.79581">
        <ele>210</ele>
        <time>2012-04-22T10:33:21Z</time>
      </trkpt>
      <trkpt lat="43.53692" lon="6.79577">
        <ele>210.399994</ele>
        <time>2012-04-22T10:33:27Z</time>
      </trkpt>
      <trkpt lat="43.53698" lon="6.79578">
        <ele>209.399994</ele>
        <time>2012-04-22T10:33:54Z</time>
      </trkpt>
      <trkpt lat="43.53703" lon="6.7958">
        <ele>208.399994</ele>
        <time>2012-04-22T10:34:08Z</time>
      </trkpt>
      <trkpt lat="43.537" lon="6.79587">
        <ele>208.399994</ele>
        <time>2012-04-22T10:36:03Z</time>
      </trkpt>
      <trkpt lat="43.53706" lon="6.79592">
        <ele>208.399994</ele>
        <time>2012-04-22T10:36:14Z</time>
      </trkpt>
      <trkpt lat="43.53718" lon="6.79584">
        <ele>206</ele>
        <time>2012-04-22T10:36:22Z</time>
      </trkpt>
      <trkpt lat="43.53722" lon="6.79578">
        <ele>206.399994</ele>
        <time>2012-04-22T10:36:28Z</time>
      </trkpt>
      <trkpt lat="43.53728" lon="6.79574">
        <ele>206.600006</ele>
        <time>2012-04-22T10:37:00Z</time>
      </trkpt>
      <trkpt lat="43.53732" lon="6.7957">
        <ele>206.800003</ele>
        <time>2012-04-22T10:38:02Z</time>
      </trkpt>
      <trkpt lat="43.53737" lon="6.79564">
        <ele>207.199997</ele>
        <time>2012-04-22T10:38:08Z</time>
      </trkpt>
      <trkpt lat="43.53744" lon="6.79559">
        <ele>207</ele>
        <time>2012-04-22T10:40:18Z</time>
      </trkpt>
      <trkpt lat="43.53755" lon="6.79542">
        <ele>209</ele>
        <time>2012-04-22T10:40:23Z</time>
      </trkpt>
      <trkpt lat="43.53764" lon="6.79528">
        <ele>210.399994</ele>
        <time>2012-04-22T10:40:28Z</time>
      </trkpt>
      <trkpt lat="43.53769" lon="6.7952">
        <ele>210.600006</ele>
        <time>2012-04-22T10:40:31Z</time>
      </trkpt>
      <trkpt lat="43.53773" lon="6.79516">
        <ele>210.600006</ele>
        <time>2012-04-22T10:40:33Z</time>
      </trkpt>
      <trkpt lat="43.53779" lon="6.79507">
        <ele>210</ele>
        <time>2012-04-22T10:40:37Z</time>
      </trkpt>
      <trkpt lat="43.53783" lon="6.79502">
        <ele>209.600006</ele>
        <time>2012-04-22T10:40:39Z</time>
      </trkpt>
      <trkpt lat="43.53792" lon="6.79493">
        <ele>210.399994</ele>
        <time>2012-04-22T10:40:44Z</time>
      </trkpt>
      <trkpt lat="43.53803" lon="6.79486">
        <ele>210.600006</ele>
        <time>2012-04-22T10:40:49Z</time>
      </trkpt>
      <trkpt lat="43.53812" lon="6.79481">
        <ele>210.399994</ele>
        <time>2012-04-22T10:40:53Z</time>
      </trkpt>
      <trkpt lat="43.53821" lon="6.79477">
        <ele>209.199997</ele>
        <time>2012-04-22T10:40:57Z</time>
      </trkpt>
      <trkpt lat="43.53829" lon="6.7948">
        <ele>206.800003</ele>
        <time>2012-04-22T10:41:10Z</time>
      </trkpt>
      <trkpt lat="43.5385" lon="6.7947">
        <ele>206.800003</ele>
        <time>2012-04-22T10:41:19Z</time>
      </trkpt>
      <trkpt lat="43.53868" lon="6.79451">
        <ele>208.399994</ele>
        <time>2012-04-22T10:41:24Z</time>
      </trkpt>
      <trkpt lat="43.53873" lon="6.79444">
        <ele>209</ele>
        <time>2012-04-22T10:41:26Z</time>
      </trkpt>
      <trkpt lat="43.53877" lon="6.79437">
        <ele>209.199997</ele>
        <time>2012-04-22T10:41:28Z</time>
      </trkpt>
      <trkpt lat="43.53881" lon="6.79431">
        <ele>209.399994</ele>
        <time>2012-04-22T10:41:30Z</time>
      </trkpt>
      <trkpt lat="43.53886" lon="6.79427">
        <ele>208.800003</ele>
        <time>2012-04-22T10:41:32Z</time>
      </trkpt>
      <trkpt lat="43.53896" lon="6.79424">
        <ele>206.600006</ele>
        <time>2012-04-22T10:41:37Z</time>
      </trkpt>
      <trkpt lat="43.53908" lon="6.7942">
        <ele>204</ele>
        <time>2012-04-22T10:41:42Z</time>
      </trkpt>
      <trkpt lat="43.53916" lon="6.79419">
        <ele>202</ele>
        <time>2012-04-22T10:41:46Z</time>
      </trkpt>
      <trkpt lat="43.5393" lon="6.79416">
        <ele>200.600006</ele>
        <time>2012-04-22T10:41:51Z</time>
      </trkpt>
      <trkpt lat="43.53956" lon="6.79403">
        <ele>201.399994</ele>
        <time>2012-04-22T10:41:57Z</time>
      </trkpt>
      <trkpt lat="43.5397" lon="6.79395">
        <ele>201.800003</ele>
        <time>2012-04-22T10:42:01Z</time>
      </trkpt>
      <trkpt lat="43.53979" lon="6.79392">
        <ele>201.399994</ele>
        <time>2012-04-22T10:42:05Z</time>
      </trkpt>
      <trkpt lat="43.53994" lon="6.79388">
        <ele>200.399994</ele>
        <time>2012-04-22T10:42:10Z</time>
      </trkpt>
      <trkpt lat="43.5402" lon="6.79378">
        <ele>198.399994</ele>
        <time>2012-04-22T10:42:18Z</time>
      </trkpt>
      <trkpt lat="43.54035" lon="6.79375">
        <ele>196</ele>
        <time>2012-04-22T10:42:23Z</time>
      </trkpt>
      <trkpt lat="43.5404" lon="6.79373">
        <ele>195.600006</ele>
        <time>2012-04-22T10:42:25Z</time>
      </trkpt>
      <trkpt lat="43.54045" lon="6.79369">
        <ele>195.600006</ele>
        <time>2012-04-22T10:42:27Z</time>
      </trkpt>
      <trkpt lat="43.54048" lon="6.79364">
        <ele>196</ele>
        <time>2012-04-22T10:42:30Z</time>
      </trkpt>
      <trkpt lat="43.5406" lon="6.79347">
        <ele>196.199997</ele>
        <time>2012-04-22T10:44:53Z</time>
      </trkpt>
      <trkpt lat="43.54066" lon="6.7934">
        <ele>196</ele>
        <time>2012-04-22T10:44:55Z</time>
      </trkpt>
      <trkpt lat="43.54071" lon="6.79332">
        <ele>195.800003</ele>
        <time>2012-04-22T10:44:57Z</time>
      </trkpt>
      <trkpt lat="43.54077" lon="6.79324">
        <ele>195.800003</ele>
        <time>2012-04-22T10:44:59Z</time>
      </trkpt>
      <trkpt lat="43.54083" lon="6.79315">
        <ele>196</ele>
        <time>2012-04-22T10:45:01Z</time>
      </trkpt>
      <trkpt lat="43.54088" lon="6.79308">
        <ele>196.199997</ele>
        <time>2012-04-22T10:45:03Z</time>
      </trkpt>
      <trkpt lat="43.54095" lon="6.79295">
        <ele>197.199997</ele>
        <time>2012-04-22T10:45:06Z</time>
      </trkpt>
      <trkpt lat="43.541" lon="6.79273">
        <ele>200.199997</ele>
        <time>2012-04-22T10:45:10Z</time>
      </trkpt>
      <trkpt lat="43.54107" lon="6.7925">
        <ele>202.600006</ele>
        <time>2012-04-22T10:45:15Z</time>
      </trkpt>
      <trkpt lat="43.54114" lon="6.79238">
        <ele>202.199997</ele>
        <time>2012-04-22T10:45:18Z</time>
      </trkpt>
      <trkpt lat="43.54124" lon="6.79223">
        <ele>200.600006</ele>
        <time>2012-04-22T10:45:21Z</time>
      </trkpt>
      <trkpt lat="43.54128" lon="6.79219">
        <ele>199.800003</ele>
        <time>2012-04-22T10:45:22Z</time>
      </trkpt>
      <trkpt lat="43.54132" lon="6.79217">
        <ele>198.800003</ele>
        <time>2012-04-22T10:45:23Z</time>
      </trkpt>
      <trkpt lat="43.54146" lon="6.79213">
        <ele>195</ele>
        <time>2012-04-22T10:45:25Z</time>
      </trkpt>
      <trkpt lat="43.54154" lon="6.79211">
        <ele>193</ele>
        <time>2012-04-22T10:45:26Z</time>
      </trkpt>
      <trkpt lat="43.54161" lon="6.79212">
        <ele>190.800003</ele>
        <time>2012-04-22T10:45:27Z</time>
      </trkpt>
      <trkpt lat="43.54168" lon="6.79212">
        <ele>189</ele>
        <time>2012-04-22T10:45:28Z</time>
      </trkpt>
      <trkpt lat="43.54175" lon="6.79212">
        <ele>188.199997</ele>
        <time>2012-04-22T10:45:29Z</time>
      </trkpt>
      <trkpt lat="43.54197" lon="6.79213">
        <ele>185.399994</ele>
        <time>2012-04-22T10:45:32Z</time>
      </trkpt>
      <trkpt lat="43.54212" lon="6.79216">
        <ele>183.600006</ele>
        <time>2012-04-22T10:45:34Z</time>
      </trkpt>
      <trkpt lat="43.54224" lon="6.7922">
        <ele>182</ele>
        <time>2012-04-22T10:45:36Z</time>
      </trkpt>
      <trkpt lat="43.54229" lon="6.7922">
        <ele>181.199997</ele>
        <time>2012-04-22T10:45:37Z</time>
      </trkpt>
      <trkpt lat="43.54238" lon="6.79214">
        <ele>180.399994</ele>
        <time>2012-04-22T10:45:40Z</time>
      </trkpt>
      <trkpt lat="43.54244" lon="6.79202">
        <ele>180</ele>
        <time>2012-04-22T10:45:43Z</time>
      </trkpt>
      <trkpt lat="43.54259" lon="6.79183">
        <ele>179</ele>
        <time>2012-04-22T10:45:49Z</time>
      </trkpt>
      <trkpt lat="43.54267" lon="6.79174">
        <ele>178.800003</ele>
        <time>2012-04-22T10:45:52Z</time>
      </trkpt>
      <trkpt lat="43.54285" lon="6.79167">
        <ele>178.399994</ele>
        <time>2012-04-22T10:45:57Z</time>
      </trkpt>
      <trkpt lat="43.54294" lon="6.79163">
        <ele>177.600006</ele>
        <time>2012-04-22T10:45:59Z</time>
      </trkpt>
      <trkpt lat="43.543" lon="6.79162">
        <ele>177.199997</ele>
        <time>2012-04-22T10:46:00Z</time>
      </trkpt>
      <trkpt lat="43.54312" lon="6.79159">
        <ele>176.399994</ele>
        <time>2012-04-22T10:46:02Z</time>
      </trkpt>
      <trkpt lat="43.54318" lon="6.79159">
        <ele>176.199997</ele>
        <time>2012-04-22T10:46:03Z</time>
      </trkpt>
      <trkpt lat="43.54323" lon="6.7916">
        <ele>176</ele>
        <time>2012-04-22T10:46:04Z</time>
      </trkpt>
      <trkpt lat="43.54328" lon="6.79161">
        <ele>175.800003</ele>
        <time>2012-04-22T10:46:05Z</time>
      </trkpt>
      <trkpt lat="43.54411" lon="6.79204">
        <ele>163.600006</ele>
        <time>2012-04-22T10:46:26Z</time>
      </trkpt>
      <trkpt lat="43.54452" lon="6.79194">
        <ele>159.399994</ele>
        <time>2012-04-22T10:46:31Z</time>
      </trkpt>
      <trkpt lat="43.54459" lon="6.79186">
        <ele>159</ele>
        <time>2012-04-22T10:46:32Z</time>
      </trkpt>
      <trkpt lat="43.5447" lon="6.79166">
        <ele>159</ele>
        <time>2012-04-22T10:46:34Z</time>
      </trkpt>
      <trkpt lat="43.54474" lon="6.79155">
        <ele>159</ele>
        <time>2012-04-22T10:46:35Z</time>
      </trkpt>
      <trkpt lat="43.54496" lon="6.79132">
        <ele>157.800003</ele>
        <time>2012-04-22T10:46:39Z</time>
      </trkpt>
      <trkpt lat="43.54503" lon="6.79135">
        <ele>156.800003</ele>
        <time>2012-04-22T10:46:40Z</time>
      </trkpt>
      <trkpt lat="43.54564" lon="6.79188">
        <ele>148.600006</ele>
        <time>2012-04-22T10:46:48Z</time>
      </trkpt>
      <trkpt lat="43.54589" lon="6.79211">
        <ele>146.399994</ele>
        <time>2012-04-22T10:46:52Z</time>
      </trkpt>
      <trkpt lat="43.54598" lon="6.79207">
        <ele>146.800003</ele>
        <time>2012-04-22T10:46:53Z</time>
      </trkpt>
      <trkpt lat="43.54605" lon="6.79203">
        <ele>146.800003</ele>
        <time>2012-04-22T10:46:54Z</time>
      </trkpt>
      <trkpt lat="43.54642" lon="6.7919">
        <ele>147.199997</ele>
        <time>2012-04-22T10:46:58Z</time>
      </trkpt>
      <trkpt lat="43.54661" lon="6.79192">
        <ele>147.199997</ele>
        <time>2012-04-22T10:47:00Z</time>
      </trkpt>
      <trkpt lat="43.54679" lon="6.79195">
        <ele>146.600006</ele>
        <time>2012-04-22T10:47:02Z</time>
      </trkpt>
      <trkpt lat="43.5475" lon="6.7916">
        <ele>140.199997</ele>
        <time>2012-04-22T10:47:20Z</time>
      </trkpt>
      <trkpt lat="43.54753" lon="6.79153">
        <ele>140</ele>
        <time>2012-04-22T10:47:22Z</time>
      </trkpt>
      <trkpt lat="43.54762" lon="6.79134">
        <ele>139.399994</ele>
        <time>2012-04-22T10:47:30Z</time>
      </trkpt>
      <trkpt lat="43.54769" lon="6.79123">
        <ele>138.800003</ele>
        <time>2012-04-22T10:47:36Z</time>
      </trkpt>
      <trkpt lat="43.54797" lon="6.79086">
        <ele>136.399994</ele>
        <time>2012-04-22T10:47:52Z</time>
      </trkpt>
      <trkpt lat="43.54804" lon="6.79081">
        <ele>136</ele>
        <time>2012-04-22T10:47:54Z</time>
      </trkpt>
      <trkpt lat="43.54822" lon="6.79076">
        <ele>135</ele>
        <time>2012-04-22T10:47:58Z</time>
      </trkpt>
      <trkpt lat="43.54841" lon="6.79068">
        <ele>134.399994</ele>
        <time>2012-04-22T10:48:03Z</time>
      </trkpt>
      <trkpt lat="43.54854" lon="6.79055">
        <ele>134.800003</ele>
        <time>2012-04-22T10:48:07Z</time>
      </trkpt>
      <trkpt lat="43.54879" lon="6.79023">
        <ele>134.800003</ele>
        <time>2012-04-22T10:48:16Z</time>
      </trkpt>
      <trkpt lat="43.54884" lon="6.79017">
        <ele>134.800003</ele>
        <time>2012-04-22T10:48:18Z</time>
      </trkpt>
      <trkpt lat="43.54892" lon="6.79004">
        <ele>134.199997</ele>
        <time>2012-04-22T10:48:22Z</time>
      </trkpt>
      <trkpt lat="43.54895" lon="6.78996">
        <ele>134.399994</ele>
        <time>2012-04-22T10:48:24Z</time>
      </trkpt>
      <trkpt lat="43.54919" lon="6.7895">
        <ele>135</ele>
        <time>2012-04-22T10:48:36Z</time>
      </trkpt>
      <trkpt lat="43.54939" lon="6.78916">
        <ele>135</ele>
        <time>2012-04-22T10:48:42Z</time>
      </trkpt>
      <trkpt lat="43.54956" lon="6.78882">
        <ele>134.600006</ele>
        <time>2012-04-22T10:48:49Z</time>
      </trkpt>
      <trkpt lat="43.54967" lon="6.78876">
        <ele>133</ele>
        <time>2012-04-22T10:48:55Z</time>
      </trkpt>
      <trkpt lat="43.54972" lon="6.78857">
        <ele>132.800003</ele>
        <time>2012-04-22T10:48:59Z</time>
      </trkpt>
      <trkpt lat="43.54973" lon="6.78835">
        <ele>133</ele>
        <time>2012-04-22T10:49:03Z</time>
      </trkpt>
      <trkpt lat="43.54975" lon="6.78824">
        <ele>133</ele>
        <time>2012-04-22T10:49:05Z</time>
      </trkpt>
      <trkpt lat="43.54983" lon="6.78797">
        <ele>132</ele>
        <time>2012-04-22T10:49:09Z</time>
      </trkpt>
      <trkpt lat="43.5499" lon="6.78777">
        <ele>131.199997</ele>
        <time>2012-04-22T10:49:12Z</time>
      </trkpt>
      <trkpt lat="43.55" lon="6.78759">
        <ele>129.800003</ele>
        <time>2012-04-22T10:49:15Z</time>
      </trkpt>
      <trkpt lat="43.55004" lon="6.78752">
        <ele>129.399994</ele>
        <time>2012-04-22T10:49:16Z</time>
      </trkpt>
      <trkpt lat="43.55017" lon="6.78734">
        <ele>129</ele>
        <time>2012-04-22T10:49:19Z</time>
      </trkpt>
      <trkpt lat="43.5504" lon="6.78702">
        <ele>127.599998</ele>
        <time>2012-04-22T10:49:24Z</time>
      </trkpt>
      <trkpt lat="43.55048" lon="6.7869">
        <ele>127</ele>
        <time>2012-04-22T10:49:26Z</time>
      </trkpt>
      <trkpt lat="43.55055" lon="6.78676">
        <ele>126.400002</ele>
        <time>2012-04-22T10:49:28Z</time>
      </trkpt>
      <trkpt lat="43.5506" lon="6.7866">
        <ele>125.800003</ele>
        <time>2012-04-22T10:49:30Z</time>
      </trkpt>
      <trkpt lat="43.55065" lon="6.78643">
        <ele>124.800003</ele>
        <time>2012-04-22T10:49:32Z</time>
      </trkpt>
      <trkpt lat="43.55067" lon="6.78636">
        <ele>124.400002</ele>
        <time>2012-04-22T10:49:33Z</time>
      </trkpt>
      <trkpt lat="43.55071" lon="6.78612">
        <ele>124</ele>
        <time>2012-04-22T10:49:36Z</time>
      </trkpt>
      <trkpt lat="43.55072" lon="6.78597">
        <ele>124</ele>
        <time>2012-04-22T10:49:38Z</time>
      </trkpt>
      <trkpt lat="43.55076" lon="6.78582">
        <ele>123.800003</ele>
        <time>2012-04-22T10:49:40Z</time>
      </trkpt>
      <trkpt lat="43.5508" lon="6.78566">
        <ele>123.400002</ele>
        <time>2012-04-22T10:49:42Z</time>
      </trkpt>
      <trkpt lat="43.55085" lon="6.78537">
        <ele>123</ele>
        <time>2012-04-22T10:49:46Z</time>
      </trkpt>
      <trkpt lat="43.55088" lon="6.7853">
        <ele>123</ele>
        <time>2012-04-22T10:49:47Z</time>
      </trkpt>
      <trkpt lat="43.55099" lon="6.78501">
        <ele>122.800003</ele>
        <time>2012-04-22T10:49:51Z</time>
      </trkpt>
      <trkpt lat="43.55104" lon="6.78488">
        <ele>123.599998</ele>
        <time>2012-04-22T10:49:53Z</time>
      </trkpt>
      <trkpt lat="43.5511" lon="6.78478">
        <ele>123.800003</ele>
        <time>2012-04-22T10:49:55Z</time>
      </trkpt>
      <trkpt lat="43.55125" lon="6.7846">
        <ele>123.199997</ele>
        <time>2012-04-22T10:49:59Z</time>
      </trkpt>
      <trkpt lat="43.55131" lon="6.78445">
        <ele>122.800003</ele>
        <time>2012-04-22T10:50:01Z</time>
      </trkpt>
      <trkpt lat="43.55134" lon="6.78437">
        <ele>122.400002</ele>
        <time>2012-04-22T10:50:02Z</time>
      </trkpt>
      <trkpt lat="43.5517" lon="6.7829">
        <ele>113.199997</ele>
        <time>2012-04-22T10:50:16Z</time>
      </trkpt>
      <trkpt lat="43.55173" lon="6.78281">
        <ele>113.400002</ele>
        <time>2012-04-22T10:50:17Z</time>
      </trkpt>
      <trkpt lat="43.55181" lon="6.78259">
        <ele>114</ele>
        <time>2012-04-22T10:50:20Z</time>
      </trkpt>
      <trkpt lat="43.55185" lon="6.78236">
        <ele>115.599998</ele>
        <time>2012-04-22T10:50:25Z</time>
      </trkpt>
    </trkseg>
  </trk>
</gpx>